<?xml version="1.0" encoding="UTF-8" standalone="no" ?>
<gpx xmlns="http://www.topografix.com/GPX/1/1" xmlns:xsi="http://www.w3.org/2001/XMLSchema-instance" xsi:schemaLocation="http://www.topografix.com/GPX/1/1 http://www.topografix.com/GPX/1/1/gpx.xsd" version="1.1" creator="VisuGPX - https://www.visugpx.com">
  <metadata>
    <name>Tracé actuel: 21 JUIL 2019 07:07</name>
  </metadata>
  <trk>
    <name><![CDATA[Tracé actuel: 21 JUIL 2019 07:07]]></name>
    <trkseg>
      <trkpt lat="50.64247" lon="2.98662">
        <ele>59.26</ele>
        <time>2019-07-21T05:07:01Z</time>
      </trkpt>
      <trkpt lat="50.64247" lon="2.98662">
        <ele>59.26</ele>
        <time>2019-07-21T05:07:02Z</time>
      </trkpt>
      <trkpt lat="50.64247" lon="2.98661">
        <ele>29.94</ele>
        <time>2019-07-21T05:07:06Z</time>
      </trkpt>
      <trkpt lat="50.64247" lon="2.98661">
        <ele>28.02</ele>
        <time>2019-07-21T05:07:08Z</time>
      </trkpt>
      <trkpt lat="50.6425" lon="2.98651">
        <ele>27.53</ele>
        <time>2019-07-21T05:07:36Z</time>
      </trkpt>
      <trkpt lat="50.64247" lon="2.98663">
        <ele>28.5</ele>
        <time>2019-07-21T05:08:13Z</time>
      </trkpt>
      <trkpt lat="50.64247" lon="2.98661">
        <ele>28.98</ele>
        <time>2019-07-21T05:08:42Z</time>
      </trkpt>
      <trkpt lat="50.64248" lon="2.98665">
        <ele>28.98</ele>
        <time>2019-07-21T05:09:19Z</time>
      </trkpt>
      <trkpt lat="50.64243" lon="2.98654">
        <ele>28.02</ele>
        <time>2019-07-21T05:09:48Z</time>
      </trkpt>
      <trkpt lat="50.64235" lon="2.98664">
        <ele>28.02</ele>
        <time>2019-07-21T05:09:56Z</time>
      </trkpt>
      <trkpt lat="50.64222" lon="2.98659">
        <ele>27.05</ele>
        <time>2019-07-21T05:10:09Z</time>
      </trkpt>
      <trkpt lat="50.6422" lon="2.98667">
        <ele>28.5</ele>
        <time>2019-07-21T05:10:44Z</time>
      </trkpt>
      <trkpt lat="50.64219" lon="2.98665">
        <ele>28.98</ele>
        <time>2019-07-21T05:11:18Z</time>
      </trkpt>
      <trkpt lat="50.6422" lon="2.9866">
        <ele>29.46</ele>
        <time>2019-07-21T05:11:58Z</time>
      </trkpt>
      <trkpt lat="50.64223" lon="2.98664">
        <ele>29.46</ele>
        <time>2019-07-21T05:12:37Z</time>
      </trkpt>
      <trkpt lat="50.6422" lon="2.98664">
        <ele>29.94</ele>
        <time>2019-07-21T05:13:19Z</time>
      </trkpt>
      <trkpt lat="50.64218" lon="2.98663">
        <ele>29.94</ele>
        <time>2019-07-21T05:13:54Z</time>
      </trkpt>
      <trkpt lat="50.6422" lon="2.98661">
        <ele>30.42</ele>
        <time>2019-07-21T05:14:35Z</time>
      </trkpt>
      <trkpt lat="50.64219" lon="2.98658">
        <ele>28.98</ele>
        <time>2019-07-21T05:15:12Z</time>
      </trkpt>
      <trkpt lat="50.6422" lon="2.9866">
        <ele>29.46</ele>
        <time>2019-07-21T05:15:47Z</time>
      </trkpt>
      <trkpt lat="50.6422" lon="2.98659">
        <ele>29.46</ele>
        <time>2019-07-21T05:16:34Z</time>
      </trkpt>
      <trkpt lat="50.64216" lon="2.98653">
        <ele>29.94</ele>
        <time>2019-07-21T05:16:58Z</time>
      </trkpt>
      <trkpt lat="50.64216" lon="2.98652">
        <ele>29.94</ele>
        <time>2019-07-21T05:17:02Z</time>
      </trkpt>
      <trkpt lat="50.64217" lon="2.98638">
        <ele>29.94</ele>
        <time>2019-07-21T05:17:09Z</time>
      </trkpt>
      <trkpt lat="50.64219" lon="2.98638">
        <ele>29.94</ele>
        <time>2019-07-21T05:17:10Z</time>
      </trkpt>
      <trkpt lat="50.64221" lon="2.98638">
        <ele>29.94</ele>
        <time>2019-07-21T05:17:11Z</time>
      </trkpt>
      <trkpt lat="50.64247" lon="2.98623">
        <ele>29.94</ele>
        <time>2019-07-21T05:17:22Z</time>
      </trkpt>
      <trkpt lat="50.64267" lon="2.98667">
        <ele>29.94</ele>
        <time>2019-07-21T05:17:31Z</time>
      </trkpt>
      <trkpt lat="50.64289" lon="2.98767">
        <ele>29.94</ele>
        <time>2019-07-21T05:17:42Z</time>
      </trkpt>
      <trkpt lat="50.64311" lon="2.98829">
        <ele>31.38</ele>
        <time>2019-07-21T05:17:49Z</time>
      </trkpt>
      <trkpt lat="50.64315" lon="2.98835">
        <ele>31.38</ele>
        <time>2019-07-21T05:17:50Z</time>
      </trkpt>
      <trkpt lat="50.64319" lon="2.98841">
        <ele>31.38</ele>
        <time>2019-07-21T05:17:51Z</time>
      </trkpt>
      <trkpt lat="50.64325" lon="2.98847">
        <ele>31.38</ele>
        <time>2019-07-21T05:17:52Z</time>
      </trkpt>
      <trkpt lat="50.64329" lon="2.98852">
        <ele>31.38</ele>
        <time>2019-07-21T05:17:53Z</time>
      </trkpt>
      <trkpt lat="50.64335" lon="2.98856">
        <ele>31.38</ele>
        <time>2019-07-21T05:17:54Z</time>
      </trkpt>
      <trkpt lat="50.64341" lon="2.98859">
        <ele>31.38</ele>
        <time>2019-07-21T05:17:55Z</time>
      </trkpt>
      <trkpt lat="50.64347" lon="2.98862">
        <ele>31.38</ele>
        <time>2019-07-21T05:17:56Z</time>
      </trkpt>
      <trkpt lat="50.6437" lon="2.98872">
        <ele>31.86</ele>
        <time>2019-07-21T05:18:00Z</time>
      </trkpt>
      <trkpt lat="50.64373" lon="2.98877">
        <ele>31.86</ele>
        <time>2019-07-21T05:18:01Z</time>
      </trkpt>
      <trkpt lat="50.64376" lon="2.98883">
        <ele>31.86</ele>
        <time>2019-07-21T05:18:02Z</time>
      </trkpt>
      <trkpt lat="50.6438" lon="2.98896">
        <ele>31.86</ele>
        <time>2019-07-21T05:18:04Z</time>
      </trkpt>
      <trkpt lat="50.64426" lon="2.98996">
        <ele>32.82</ele>
        <time>2019-07-21T05:18:17Z</time>
      </trkpt>
      <trkpt lat="50.64449" lon="2.99067">
        <ele>33.3</ele>
        <time>2019-07-21T05:18:25Z</time>
      </trkpt>
      <trkpt lat="50.64454" lon="2.99074">
        <ele>33.3</ele>
        <time>2019-07-21T05:18:26Z</time>
      </trkpt>
      <trkpt lat="50.6446" lon="2.99078">
        <ele>33.3</ele>
        <time>2019-07-21T05:18:27Z</time>
      </trkpt>
      <trkpt lat="50.64467" lon="2.99077">
        <ele>33.3</ele>
        <time>2019-07-21T05:18:28Z</time>
      </trkpt>
      <trkpt lat="50.64472" lon="2.99074">
        <ele>33.3</ele>
        <time>2019-07-21T05:18:29Z</time>
      </trkpt>
      <trkpt lat="50.6453" lon="2.99035">
        <ele>34.26</ele>
        <time>2019-07-21T05:18:39Z</time>
      </trkpt>
      <trkpt lat="50.64577" lon="2.99009">
        <ele>35.23</ele>
        <time>2019-07-21T05:18:48Z</time>
      </trkpt>
      <trkpt lat="50.64591" lon="2.99025">
        <ele>35.23</ele>
        <time>2019-07-21T05:18:52Z</time>
      </trkpt>
      <trkpt lat="50.64591" lon="2.99035">
        <ele>35.23</ele>
        <time>2019-07-21T05:18:53Z</time>
      </trkpt>
      <trkpt lat="50.64602" lon="2.99172">
        <ele>34.26</ele>
        <time>2019-07-21T05:19:05Z</time>
      </trkpt>
      <trkpt lat="50.64609" lon="2.99273">
        <ele>32.82</ele>
        <time>2019-07-21T05:19:15Z</time>
      </trkpt>
      <trkpt lat="50.64624" lon="2.99468">
        <ele>31.38</ele>
        <time>2019-07-21T05:19:32Z</time>
      </trkpt>
      <trkpt lat="50.64646" lon="2.99688">
        <ele>30.42</ele>
        <time>2019-07-21T05:19:49Z</time>
      </trkpt>
      <trkpt lat="50.64666" lon="2.99897">
        <ele>28.98</ele>
        <time>2019-07-21T05:20:05Z</time>
      </trkpt>
      <trkpt lat="50.64666" lon="2.99909">
        <ele>28.98</ele>
        <time>2019-07-21T05:20:06Z</time>
      </trkpt>
      <trkpt lat="50.64692" lon="3.00123">
        <ele>27.53</ele>
        <time>2019-07-21T05:20:23Z</time>
      </trkpt>
      <trkpt lat="50.64706" lon="3.00237">
        <ele>27.05</ele>
        <time>2019-07-21T05:20:35Z</time>
      </trkpt>
      <trkpt lat="50.64716" lon="3.00325">
        <ele>26.57</ele>
        <time>2019-07-21T05:20:44Z</time>
      </trkpt>
      <trkpt lat="50.647" lon="3.00515">
        <ele>25.61</ele>
        <time>2019-07-21T05:20:59Z</time>
      </trkpt>
      <trkpt lat="50.64681" lon="3.00699">
        <ele>23.69</ele>
        <time>2019-07-21T05:21:14Z</time>
      </trkpt>
      <trkpt lat="50.64671" lon="3.00764">
        <ele>23.21</ele>
        <time>2019-07-21T05:21:23Z</time>
      </trkpt>
      <trkpt lat="50.6467" lon="3.0078">
        <ele>23.21</ele>
        <time>2019-07-21T05:21:25Z</time>
      </trkpt>
      <trkpt lat="50.64668" lon="3.00788">
        <ele>23.21</ele>
        <time>2019-07-21T05:21:26Z</time>
      </trkpt>
      <trkpt lat="50.64637" lon="3.00901">
        <ele>23.21</ele>
        <time>2019-07-21T05:21:37Z</time>
      </trkpt>
      <trkpt lat="50.64575" lon="3.01069">
        <ele>20.81</ele>
        <time>2019-07-21T05:21:53Z</time>
      </trkpt>
      <trkpt lat="50.6451" lon="3.0123">
        <ele>19.36</ele>
        <time>2019-07-21T05:22:09Z</time>
      </trkpt>
      <trkpt lat="50.6449" lon="3.01275">
        <ele>19.36</ele>
        <time>2019-07-21T05:22:14Z</time>
      </trkpt>
      <trkpt lat="50.64481" lon="3.01298">
        <ele>18.88</ele>
        <time>2019-07-21T05:22:21Z</time>
      </trkpt>
      <trkpt lat="50.6447" lon="3.01327">
        <ele>18.88</ele>
        <time>2019-07-21T05:22:29Z</time>
      </trkpt>
      <trkpt lat="50.64471" lon="3.01334">
        <ele>18.88</ele>
        <time>2019-07-21T05:22:30Z</time>
      </trkpt>
      <trkpt lat="50.64473" lon="3.01343">
        <ele>18.88</ele>
        <time>2019-07-21T05:22:31Z</time>
      </trkpt>
      <trkpt lat="50.64475" lon="3.0135">
        <ele>18.88</ele>
        <time>2019-07-21T05:22:32Z</time>
      </trkpt>
      <trkpt lat="50.64479" lon="3.01359">
        <ele>18.88</ele>
        <time>2019-07-21T05:22:33Z</time>
      </trkpt>
      <trkpt lat="50.64483" lon="3.01367">
        <ele>18.88</ele>
        <time>2019-07-21T05:22:34Z</time>
      </trkpt>
      <trkpt lat="50.64552" lon="3.01504">
        <ele>18.88</ele>
        <time>2019-07-21T05:22:48Z</time>
      </trkpt>
      <trkpt lat="50.64608" lon="3.01626">
        <ele>18.88</ele>
        <time>2019-07-21T05:23:00Z</time>
      </trkpt>
      <trkpt lat="50.64611" lon="3.01637">
        <ele>18.4</ele>
        <time>2019-07-21T05:23:01Z</time>
      </trkpt>
      <trkpt lat="50.64612" lon="3.0165">
        <ele>18.4</ele>
        <time>2019-07-21T05:23:02Z</time>
      </trkpt>
      <trkpt lat="50.64613" lon="3.01663">
        <ele>18.4</ele>
        <time>2019-07-21T05:23:03Z</time>
      </trkpt>
      <trkpt lat="50.64613" lon="3.01675">
        <ele>18.4</ele>
        <time>2019-07-21T05:23:04Z</time>
      </trkpt>
      <trkpt lat="50.64611" lon="3.01688">
        <ele>18.4</ele>
        <time>2019-07-21T05:23:05Z</time>
      </trkpt>
      <trkpt lat="50.64609" lon="3.017">
        <ele>18.4</ele>
        <time>2019-07-21T05:23:06Z</time>
      </trkpt>
      <trkpt lat="50.64605" lon="3.01714">
        <ele>17.92</ele>
        <time>2019-07-21T05:23:07Z</time>
      </trkpt>
      <trkpt lat="50.6458" lon="3.01815">
        <ele>17.92</ele>
        <time>2019-07-21T05:23:16Z</time>
      </trkpt>
      <trkpt lat="50.6457" lon="3.01872">
        <ele>17.92</ele>
        <time>2019-07-21T05:23:21Z</time>
      </trkpt>
      <trkpt lat="50.64544" lon="3.0203">
        <ele>17.44</ele>
        <time>2019-07-21T05:23:34Z</time>
      </trkpt>
      <trkpt lat="50.64542" lon="3.02041">
        <ele>17.44</ele>
        <time>2019-07-21T05:23:35Z</time>
      </trkpt>
      <trkpt lat="50.6452" lon="3.02171">
        <ele>16</ele>
        <time>2019-07-21T05:23:45Z</time>
      </trkpt>
      <trkpt lat="50.64517" lon="3.02197">
        <ele>16</ele>
        <time>2019-07-21T05:23:47Z</time>
      </trkpt>
      <trkpt lat="50.64515" lon="3.0221">
        <ele>16</ele>
        <time>2019-07-21T05:23:48Z</time>
      </trkpt>
      <trkpt lat="50.64488" lon="3.02352">
        <ele>15.04</ele>
        <time>2019-07-21T05:24:02Z</time>
      </trkpt>
      <trkpt lat="50.64478" lon="3.02384">
        <ele>15.04</ele>
        <time>2019-07-21T05:24:11Z</time>
      </trkpt>
      <trkpt lat="50.64476" lon="3.02386">
        <ele>15.04</ele>
        <time>2019-07-21T05:24:12Z</time>
      </trkpt>
      <trkpt lat="50.64475" lon="3.0239">
        <ele>15.04</ele>
        <time>2019-07-21T05:24:13Z</time>
      </trkpt>
      <trkpt lat="50.64474" lon="3.02396">
        <ele>15.04</ele>
        <time>2019-07-21T05:24:14Z</time>
      </trkpt>
      <trkpt lat="50.64473" lon="3.02402">
        <ele>15.04</ele>
        <time>2019-07-21T05:24:15Z</time>
      </trkpt>
      <trkpt lat="50.64473" lon="3.02409">
        <ele>15.04</ele>
        <time>2019-07-21T05:24:16Z</time>
      </trkpt>
      <trkpt lat="50.64473" lon="3.02417">
        <ele>15.04</ele>
        <time>2019-07-21T05:24:17Z</time>
      </trkpt>
      <trkpt lat="50.64473" lon="3.02424">
        <ele>15.04</ele>
        <time>2019-07-21T05:24:18Z</time>
      </trkpt>
      <trkpt lat="50.64474" lon="3.02432">
        <ele>15.04</ele>
        <time>2019-07-21T05:24:19Z</time>
      </trkpt>
      <trkpt lat="50.64473" lon="3.02441">
        <ele>15.04</ele>
        <time>2019-07-21T05:24:20Z</time>
      </trkpt>
      <trkpt lat="50.64443" lon="3.02618">
        <ele>15.52</ele>
        <time>2019-07-21T05:24:36Z</time>
      </trkpt>
      <trkpt lat="50.64449" lon="3.02808">
        <ele>15.04</ele>
        <time>2019-07-21T05:24:52Z</time>
      </trkpt>
      <trkpt lat="50.6445" lon="3.02851">
        <ele>15.04</ele>
        <time>2019-07-21T05:24:56Z</time>
      </trkpt>
      <trkpt lat="50.64448" lon="3.02861">
        <ele>15.04</ele>
        <time>2019-07-21T05:24:57Z</time>
      </trkpt>
      <trkpt lat="50.64444" lon="3.02869">
        <ele>15.04</ele>
        <time>2019-07-21T05:24:58Z</time>
      </trkpt>
      <trkpt lat="50.64437" lon="3.02877">
        <ele>15.04</ele>
        <time>2019-07-21T05:24:59Z</time>
      </trkpt>
      <trkpt lat="50.64431" lon="3.02881">
        <ele>15.04</ele>
        <time>2019-07-21T05:25:00Z</time>
      </trkpt>
      <trkpt lat="50.64346" lon="3.02952">
        <ele>15.04</ele>
        <time>2019-07-21T05:25:13Z</time>
      </trkpt>
      <trkpt lat="50.64241" lon="3.03042">
        <ele>14.56</ele>
        <time>2019-07-21T05:25:29Z</time>
      </trkpt>
      <trkpt lat="50.64167" lon="3.03109">
        <ele>13.6</ele>
        <time>2019-07-21T05:25:42Z</time>
      </trkpt>
      <trkpt lat="50.6416" lon="3.03113">
        <ele>13.6</ele>
        <time>2019-07-21T05:25:44Z</time>
      </trkpt>
      <trkpt lat="50.64157" lon="3.03113">
        <ele>13.6</ele>
        <time>2019-07-21T05:25:45Z</time>
      </trkpt>
      <trkpt lat="50.64154" lon="3.03115">
        <ele>13.6</ele>
        <time>2019-07-21T05:25:46Z</time>
      </trkpt>
      <trkpt lat="50.64151" lon="3.03116">
        <ele>13.6</ele>
        <time>2019-07-21T05:25:47Z</time>
      </trkpt>
      <trkpt lat="50.64148" lon="3.03116">
        <ele>13.6</ele>
        <time>2019-07-21T05:25:48Z</time>
      </trkpt>
      <trkpt lat="50.64146" lon="3.03116">
        <ele>13.6</ele>
        <time>2019-07-21T05:25:49Z</time>
      </trkpt>
      <trkpt lat="50.64143" lon="3.03116">
        <ele>13.12</ele>
        <time>2019-07-21T05:25:50Z</time>
      </trkpt>
      <trkpt lat="50.64141" lon="3.03117">
        <ele>13.12</ele>
        <time>2019-07-21T05:25:51Z</time>
      </trkpt>
      <trkpt lat="50.64138" lon="3.03122">
        <ele>13.12</ele>
        <time>2019-07-21T05:25:52Z</time>
      </trkpt>
      <trkpt lat="50.64136" lon="3.03128">
        <ele>13.12</ele>
        <time>2019-07-21T05:25:53Z</time>
      </trkpt>
      <trkpt lat="50.64133" lon="3.03133">
        <ele>13.12</ele>
        <time>2019-07-21T05:25:54Z</time>
      </trkpt>
      <trkpt lat="50.64128" lon="3.03137">
        <ele>13.12</ele>
        <time>2019-07-21T05:25:55Z</time>
      </trkpt>
      <trkpt lat="50.64123" lon="3.03142">
        <ele>13.12</ele>
        <time>2019-07-21T05:25:56Z</time>
      </trkpt>
      <trkpt lat="50.64058" lon="3.03199">
        <ele>13.12</ele>
        <time>2019-07-21T05:26:06Z</time>
      </trkpt>
      <trkpt lat="50.64006" lon="3.03242">
        <ele>15.52</ele>
        <time>2019-07-21T05:26:14Z</time>
      </trkpt>
      <trkpt lat="50.63937" lon="3.03298">
        <ele>17.92</ele>
        <time>2019-07-21T05:26:28Z</time>
      </trkpt>
      <trkpt lat="50.63891" lon="3.03339">
        <ele>20.32</ele>
        <time>2019-07-21T05:26:38Z</time>
      </trkpt>
      <trkpt lat="50.6381" lon="3.03407">
        <ele>22.25</ele>
        <time>2019-07-21T05:26:53Z</time>
      </trkpt>
      <trkpt lat="50.63716" lon="3.03492">
        <ele>20.32</ele>
        <time>2019-07-21T05:27:09Z</time>
      </trkpt>
      <trkpt lat="50.63664" lon="3.03606">
        <ele>19.84</ele>
        <time>2019-07-21T05:27:22Z</time>
      </trkpt>
      <trkpt lat="50.63659" lon="3.03625">
        <ele>21.29</ele>
        <time>2019-07-21T05:27:24Z</time>
      </trkpt>
      <trkpt lat="50.63618" lon="3.03794">
        <ele>21.77</ele>
        <time>2019-07-21T05:27:41Z</time>
      </trkpt>
      <trkpt lat="50.63615" lon="3.03805">
        <ele>20.32</ele>
        <time>2019-07-21T05:27:42Z</time>
      </trkpt>
      <trkpt lat="50.63611" lon="3.03815">
        <ele>20.32</ele>
        <time>2019-07-21T05:27:43Z</time>
      </trkpt>
      <trkpt lat="50.63601" lon="3.03842">
        <ele>19.84</ele>
        <time>2019-07-21T05:27:46Z</time>
      </trkpt>
      <trkpt lat="50.63554" lon="3.0397">
        <ele>18.4</ele>
        <time>2019-07-21T05:28:00Z</time>
      </trkpt>
      <trkpt lat="50.63548" lon="3.04018">
        <ele>17.44</ele>
        <time>2019-07-21T05:28:04Z</time>
      </trkpt>
      <trkpt lat="50.6355" lon="3.0403">
        <ele>16.96</ele>
        <time>2019-07-21T05:28:05Z</time>
      </trkpt>
      <trkpt lat="50.63552" lon="3.04042">
        <ele>16.96</ele>
        <time>2019-07-21T05:28:06Z</time>
      </trkpt>
      <trkpt lat="50.63556" lon="3.04054">
        <ele>16.96</ele>
        <time>2019-07-21T05:28:07Z</time>
      </trkpt>
      <trkpt lat="50.6356" lon="3.04065">
        <ele>16.96</ele>
        <time>2019-07-21T05:28:08Z</time>
      </trkpt>
      <trkpt lat="50.63604" lon="3.04236">
        <ele>16</ele>
        <time>2019-07-21T05:28:23Z</time>
      </trkpt>
      <trkpt lat="50.63627" lon="3.04332">
        <ele>15.04</ele>
        <time>2019-07-21T05:28:32Z</time>
      </trkpt>
      <trkpt lat="50.63658" lon="3.04464">
        <ele>15.52</ele>
        <time>2019-07-21T05:28:45Z</time>
      </trkpt>
      <trkpt lat="50.63686" lon="3.04632">
        <ele>15.52</ele>
        <time>2019-07-21T05:29:00Z</time>
      </trkpt>
      <trkpt lat="50.63715" lon="3.0479">
        <ele>15.52</ele>
        <time>2019-07-21T05:29:15Z</time>
      </trkpt>
      <trkpt lat="50.63751" lon="3.04958">
        <ele>15.52</ele>
        <time>2019-07-21T05:29:32Z</time>
      </trkpt>
      <trkpt lat="50.63789" lon="3.05098">
        <ele>15.52</ele>
        <time>2019-07-21T05:29:47Z</time>
      </trkpt>
      <trkpt lat="50.63792" lon="3.05104">
        <ele>15.52</ele>
        <time>2019-07-21T05:29:48Z</time>
      </trkpt>
      <trkpt lat="50.63795" lon="3.05107">
        <ele>15.52</ele>
        <time>2019-07-21T05:29:49Z</time>
      </trkpt>
      <trkpt lat="50.63799" lon="3.0511">
        <ele>15.52</ele>
        <time>2019-07-21T05:29:50Z</time>
      </trkpt>
      <trkpt lat="50.63802" lon="3.0511">
        <ele>15.52</ele>
        <time>2019-07-21T05:29:51Z</time>
      </trkpt>
      <trkpt lat="50.63804" lon="3.0511">
        <ele>15.52</ele>
        <time>2019-07-21T05:29:52Z</time>
      </trkpt>
      <trkpt lat="50.63805" lon="3.05109">
        <ele>15.52</ele>
        <time>2019-07-21T05:29:53Z</time>
      </trkpt>
      <trkpt lat="50.63807" lon="3.05107">
        <ele>16.48</ele>
        <time>2019-07-21T05:30:05Z</time>
      </trkpt>
      <trkpt lat="50.63809" lon="3.05108">
        <ele>16.48</ele>
        <time>2019-07-21T05:30:19Z</time>
      </trkpt>
      <trkpt lat="50.63809" lon="3.05106">
        <ele>16.96</ele>
        <time>2019-07-21T05:30:56Z</time>
      </trkpt>
      <trkpt lat="50.63808" lon="3.05106">
        <ele>16.96</ele>
        <time>2019-07-21T05:31:18Z</time>
      </trkpt>
      <trkpt lat="50.63809" lon="3.05109">
        <ele>16.96</ele>
        <time>2019-07-21T05:31:55Z</time>
      </trkpt>
      <trkpt lat="50.63808" lon="3.05109">
        <ele>16.96</ele>
        <time>2019-07-21T05:32:26Z</time>
      </trkpt>
      <trkpt lat="50.63808" lon="3.05107">
        <ele>16.96</ele>
        <time>2019-07-21T05:32:57Z</time>
      </trkpt>
      <trkpt lat="50.63809" lon="3.05107">
        <ele>17.44</ele>
        <time>2019-07-21T05:33:24Z</time>
      </trkpt>
      <trkpt lat="50.63807" lon="3.05109">
        <ele>17.44</ele>
        <time>2019-07-21T05:34:04Z</time>
      </trkpt>
      <trkpt lat="50.63807" lon="3.05109">
        <ele>17.44</ele>
        <time>2019-07-21T05:34:35Z</time>
      </trkpt>
      <trkpt lat="50.63808" lon="3.05105">
        <ele>17.44</ele>
        <time>2019-07-21T05:35:14Z</time>
      </trkpt>
      <trkpt lat="50.63806" lon="3.05104">
        <ele>17.44</ele>
        <time>2019-07-21T05:35:24Z</time>
      </trkpt>
      <trkpt lat="50.63805" lon="3.05103">
        <ele>17.44</ele>
        <time>2019-07-21T05:35:25Z</time>
      </trkpt>
      <trkpt lat="50.63803" lon="3.05103">
        <ele>17.44</ele>
        <time>2019-07-21T05:35:26Z</time>
      </trkpt>
      <trkpt lat="50.63801" lon="3.05104">
        <ele>17.44</ele>
        <time>2019-07-21T05:35:27Z</time>
      </trkpt>
      <trkpt lat="50.63799" lon="3.05104">
        <ele>17.44</ele>
        <time>2019-07-21T05:35:28Z</time>
      </trkpt>
      <trkpt lat="50.63797" lon="3.05104">
        <ele>17.44</ele>
        <time>2019-07-21T05:35:29Z</time>
      </trkpt>
      <trkpt lat="50.6379" lon="3.05097">
        <ele>17.44</ele>
        <time>2019-07-21T05:35:32Z</time>
      </trkpt>
      <trkpt lat="50.63789" lon="3.05093">
        <ele>17.44</ele>
        <time>2019-07-21T05:35:33Z</time>
      </trkpt>
      <trkpt lat="50.63785" lon="3.05082">
        <ele>16.48</ele>
        <time>2019-07-21T05:35:35Z</time>
      </trkpt>
      <trkpt lat="50.63758" lon="3.04984">
        <ele>15.52</ele>
        <time>2019-07-21T05:35:46Z</time>
      </trkpt>
      <trkpt lat="50.63728" lon="3.04861">
        <ele>15.04</ele>
        <time>2019-07-21T05:36:01Z</time>
      </trkpt>
      <trkpt lat="50.63719" lon="3.04815">
        <ele>15.04</ele>
        <time>2019-07-21T05:36:07Z</time>
      </trkpt>
      <trkpt lat="50.63717" lon="3.04808">
        <ele>15.04</ele>
        <time>2019-07-21T05:36:08Z</time>
      </trkpt>
      <trkpt lat="50.63694" lon="3.0468">
        <ele>15.04</ele>
        <time>2019-07-21T05:36:23Z</time>
      </trkpt>
      <trkpt lat="50.63669" lon="3.04536">
        <ele>15.04</ele>
        <time>2019-07-21T05:36:40Z</time>
      </trkpt>
      <trkpt lat="50.63646" lon="3.04413">
        <ele>15.04</ele>
        <time>2019-07-21T05:36:55Z</time>
      </trkpt>
      <trkpt lat="50.6362" lon="3.04271">
        <ele>15.04</ele>
        <time>2019-07-21T05:37:11Z</time>
      </trkpt>
      <trkpt lat="50.63594" lon="3.04116">
        <ele>15.04</ele>
        <time>2019-07-21T05:37:29Z</time>
      </trkpt>
      <trkpt lat="50.63572" lon="3.03984">
        <ele>17.92</ele>
        <time>2019-07-21T05:37:44Z</time>
      </trkpt>
      <trkpt lat="50.63571" lon="3.03948">
        <ele>18.4</ele>
        <time>2019-07-21T05:37:48Z</time>
      </trkpt>
      <trkpt lat="50.63573" lon="3.03929">
        <ele>18.4</ele>
        <time>2019-07-21T05:37:50Z</time>
      </trkpt>
      <trkpt lat="50.63574" lon="3.0392">
        <ele>18.4</ele>
        <time>2019-07-21T05:37:51Z</time>
      </trkpt>
      <trkpt lat="50.63577" lon="3.03911">
        <ele>18.4</ele>
        <time>2019-07-21T05:37:52Z</time>
      </trkpt>
      <trkpt lat="50.6358" lon="3.03904">
        <ele>18.4</ele>
        <time>2019-07-21T05:37:53Z</time>
      </trkpt>
      <trkpt lat="50.63584" lon="3.03896">
        <ele>18.4</ele>
        <time>2019-07-21T05:37:54Z</time>
      </trkpt>
      <trkpt lat="50.63588" lon="3.03889">
        <ele>19.36</ele>
        <time>2019-07-21T05:37:55Z</time>
      </trkpt>
      <trkpt lat="50.63612" lon="3.03843">
        <ele>19.36</ele>
        <time>2019-07-21T05:38:01Z</time>
      </trkpt>
      <trkpt lat="50.63647" lon="3.03721">
        <ele>21.29</ele>
        <time>2019-07-21T05:38:15Z</time>
      </trkpt>
      <trkpt lat="50.63696" lon="3.03546">
        <ele>19.84</ele>
        <time>2019-07-21T05:38:34Z</time>
      </trkpt>
      <trkpt lat="50.63708" lon="3.0352">
        <ele>19.84</ele>
        <time>2019-07-21T05:38:37Z</time>
      </trkpt>
      <trkpt lat="50.63712" lon="3.03513">
        <ele>19.84</ele>
        <time>2019-07-21T05:38:38Z</time>
      </trkpt>
      <trkpt lat="50.63722" lon="3.03498">
        <ele>19.84</ele>
        <time>2019-07-21T05:38:40Z</time>
      </trkpt>
      <trkpt lat="50.63732" lon="3.03485">
        <ele>19.84</ele>
        <time>2019-07-21T05:38:42Z</time>
      </trkpt>
      <trkpt lat="50.63787" lon="3.03436">
        <ele>21.29</ele>
        <time>2019-07-21T05:38:52Z</time>
      </trkpt>
      <trkpt lat="50.63864" lon="3.03371">
        <ele>22.73</ele>
        <time>2019-07-21T05:39:07Z</time>
      </trkpt>
      <trkpt lat="50.63879" lon="3.03359">
        <ele>21.29</ele>
        <time>2019-07-21T05:39:10Z</time>
      </trkpt>
      <trkpt lat="50.63898" lon="3.03344">
        <ele>19.84</ele>
        <time>2019-07-21T05:39:14Z</time>
      </trkpt>
      <trkpt lat="50.63909" lon="3.03334">
        <ele>19.36</ele>
        <time>2019-07-21T05:39:22Z</time>
      </trkpt>
      <trkpt lat="50.63916" lon="3.03327">
        <ele>19.36</ele>
        <time>2019-07-21T05:39:37Z</time>
      </trkpt>
      <trkpt lat="50.63923" lon="3.03321">
        <ele>19.36</ele>
        <time>2019-07-21T05:39:39Z</time>
      </trkpt>
      <trkpt lat="50.63975" lon="3.03278">
        <ele>16.96</ele>
        <time>2019-07-21T05:39:49Z</time>
      </trkpt>
      <trkpt lat="50.64054" lon="3.03213">
        <ele>14.08</ele>
        <time>2019-07-21T05:40:01Z</time>
      </trkpt>
      <trkpt lat="50.64142" lon="3.03137">
        <ele>14.08</ele>
        <time>2019-07-21T05:40:15Z</time>
      </trkpt>
      <trkpt lat="50.64198" lon="3.03089">
        <ele>14.08</ele>
        <time>2019-07-21T05:40:24Z</time>
      </trkpt>
      <trkpt lat="50.64203" lon="3.03085">
        <ele>14.08</ele>
        <time>2019-07-21T05:40:25Z</time>
      </trkpt>
      <trkpt lat="50.64251" lon="3.03045">
        <ele>14.08</ele>
        <time>2019-07-21T05:40:33Z</time>
      </trkpt>
      <trkpt lat="50.64256" lon="3.0304">
        <ele>14.08</ele>
        <time>2019-07-21T05:40:34Z</time>
      </trkpt>
      <trkpt lat="50.64262" lon="3.03036">
        <ele>14.08</ele>
        <time>2019-07-21T05:40:35Z</time>
      </trkpt>
      <trkpt lat="50.64345" lon="3.02967">
        <ele>14.08</ele>
        <time>2019-07-21T05:40:49Z</time>
      </trkpt>
      <trkpt lat="50.64407" lon="3.02913">
        <ele>14.08</ele>
        <time>2019-07-21T05:41:00Z</time>
      </trkpt>
      <trkpt lat="50.64412" lon="3.0291">
        <ele>14.08</ele>
        <time>2019-07-21T05:41:01Z</time>
      </trkpt>
      <trkpt lat="50.64417" lon="3.02906">
        <ele>14.08</ele>
        <time>2019-07-21T05:41:02Z</time>
      </trkpt>
      <trkpt lat="50.64432" lon="3.02891">
        <ele>14.08</ele>
        <time>2019-07-21T05:41:10Z</time>
      </trkpt>
      <trkpt lat="50.64431" lon="3.02889">
        <ele>14.08</ele>
        <time>2019-07-21T05:41:41Z</time>
      </trkpt>
      <trkpt lat="50.64433" lon="3.02888">
        <ele>14.08</ele>
        <time>2019-07-21T05:41:42Z</time>
      </trkpt>
      <trkpt lat="50.64435" lon="3.02886">
        <ele>14.08</ele>
        <time>2019-07-21T05:41:43Z</time>
      </trkpt>
      <trkpt lat="50.64437" lon="3.02884">
        <ele>14.08</ele>
        <time>2019-07-21T05:41:44Z</time>
      </trkpt>
      <trkpt lat="50.6444" lon="3.02882">
        <ele>14.08</ele>
        <time>2019-07-21T05:41:45Z</time>
      </trkpt>
      <trkpt lat="50.64443" lon="3.02879">
        <ele>14.08</ele>
        <time>2019-07-21T05:41:46Z</time>
      </trkpt>
      <trkpt lat="50.64447" lon="3.02876">
        <ele>14.08</ele>
        <time>2019-07-21T05:41:47Z</time>
      </trkpt>
      <trkpt lat="50.64451" lon="3.02872">
        <ele>14.08</ele>
        <time>2019-07-21T05:41:48Z</time>
      </trkpt>
      <trkpt lat="50.64455" lon="3.02869">
        <ele>14.08</ele>
        <time>2019-07-21T05:41:49Z</time>
      </trkpt>
      <trkpt lat="50.64487" lon="3.02842">
        <ele>14.08</ele>
        <time>2019-07-21T05:41:55Z</time>
      </trkpt>
      <trkpt lat="50.64566" lon="3.02776">
        <ele>16</ele>
        <time>2019-07-21T05:42:09Z</time>
      </trkpt>
      <trkpt lat="50.6463" lon="3.02721">
        <ele>16.48</ele>
        <time>2019-07-21T05:42:20Z</time>
      </trkpt>
      <trkpt lat="50.64725" lon="3.02641">
        <ele>16.96</ele>
        <time>2019-07-21T05:42:36Z</time>
      </trkpt>
      <trkpt lat="50.64823" lon="3.02558">
        <ele>17.44</ele>
        <time>2019-07-21T05:42:52Z</time>
      </trkpt>
      <trkpt lat="50.64906" lon="3.02486">
        <ele>17.92</ele>
        <time>2019-07-21T05:43:06Z</time>
      </trkpt>
      <trkpt lat="50.65007" lon="3.02401">
        <ele>18.4</ele>
        <time>2019-07-21T05:43:23Z</time>
      </trkpt>
      <trkpt lat="50.65097" lon="3.02326">
        <ele>18.88</ele>
        <time>2019-07-21T05:43:39Z</time>
      </trkpt>
      <trkpt lat="50.65103" lon="3.02321">
        <ele>18.88</ele>
        <time>2019-07-21T05:43:40Z</time>
      </trkpt>
      <trkpt lat="50.65122" lon="3.02304">
        <ele>18.88</ele>
        <time>2019-07-21T05:43:44Z</time>
      </trkpt>
      <trkpt lat="50.65126" lon="3.02301">
        <ele>18.88</ele>
        <time>2019-07-21T05:43:45Z</time>
      </trkpt>
      <trkpt lat="50.65137" lon="3.0229">
        <ele>18.88</ele>
        <time>2019-07-21T05:43:53Z</time>
      </trkpt>
      <trkpt lat="50.65139" lon="3.02287">
        <ele>18.88</ele>
        <time>2019-07-21T05:44:00Z</time>
      </trkpt>
      <trkpt lat="50.65141" lon="3.02286">
        <ele>18.88</ele>
        <time>2019-07-21T05:44:01Z</time>
      </trkpt>
      <trkpt lat="50.65143" lon="3.02284">
        <ele>18.88</ele>
        <time>2019-07-21T05:44:02Z</time>
      </trkpt>
      <trkpt lat="50.65147" lon="3.02281">
        <ele>18.88</ele>
        <time>2019-07-21T05:44:03Z</time>
      </trkpt>
      <trkpt lat="50.6515" lon="3.02279">
        <ele>18.88</ele>
        <time>2019-07-21T05:44:04Z</time>
      </trkpt>
      <trkpt lat="50.65155" lon="3.02276">
        <ele>18.88</ele>
        <time>2019-07-21T05:44:05Z</time>
      </trkpt>
      <trkpt lat="50.65159" lon="3.02274">
        <ele>18.88</ele>
        <time>2019-07-21T05:44:06Z</time>
      </trkpt>
      <trkpt lat="50.65164" lon="3.02271">
        <ele>18.88</ele>
        <time>2019-07-21T05:44:07Z</time>
      </trkpt>
      <trkpt lat="50.65169" lon="3.02268">
        <ele>18.88</ele>
        <time>2019-07-21T05:44:08Z</time>
      </trkpt>
      <trkpt lat="50.65174" lon="3.02264">
        <ele>19.84</ele>
        <time>2019-07-21T05:44:09Z</time>
      </trkpt>
      <trkpt lat="50.6522" lon="3.02223">
        <ele>22.73</ele>
        <time>2019-07-21T05:44:18Z</time>
      </trkpt>
      <trkpt lat="50.65271" lon="3.02171">
        <ele>26.57</ele>
        <time>2019-07-21T05:44:28Z</time>
      </trkpt>
      <trkpt lat="50.65339" lon="3.02079">
        <ele>28.02</ele>
        <time>2019-07-21T05:44:43Z</time>
      </trkpt>
      <trkpt lat="50.65395" lon="3.01978">
        <ele>24.65</ele>
        <time>2019-07-21T05:44:55Z</time>
      </trkpt>
      <trkpt lat="50.65434" lon="3.01902">
        <ele>21.29</ele>
        <time>2019-07-21T05:45:03Z</time>
      </trkpt>
      <trkpt lat="50.65451" lon="3.01872">
        <ele>20.32</ele>
        <time>2019-07-21T05:45:08Z</time>
      </trkpt>
      <trkpt lat="50.65452" lon="3.0187">
        <ele>20.32</ele>
        <time>2019-07-21T05:45:09Z</time>
      </trkpt>
      <trkpt lat="50.65453" lon="3.01868">
        <ele>20.32</ele>
        <time>2019-07-21T05:45:10Z</time>
      </trkpt>
      <trkpt lat="50.65454" lon="3.01867">
        <ele>20.32</ele>
        <time>2019-07-21T05:45:11Z</time>
      </trkpt>
      <trkpt lat="50.65454" lon="3.01865">
        <ele>20.32</ele>
        <time>2019-07-21T05:45:12Z</time>
      </trkpt>
      <trkpt lat="50.65456" lon="3.01863">
        <ele>20.32</ele>
        <time>2019-07-21T05:45:24Z</time>
      </trkpt>
      <trkpt lat="50.65459" lon="3.01837">
        <ele>20.32</ele>
        <time>2019-07-21T05:45:30Z</time>
      </trkpt>
      <trkpt lat="50.65456" lon="3.01828">
        <ele>20.32</ele>
        <time>2019-07-21T05:45:31Z</time>
      </trkpt>
      <trkpt lat="50.65453" lon="3.01825">
        <ele>20.32</ele>
        <time>2019-07-21T05:45:32Z</time>
      </trkpt>
      <trkpt lat="50.65449" lon="3.01819">
        <ele>20.32</ele>
        <time>2019-07-21T05:45:33Z</time>
      </trkpt>
      <trkpt lat="50.65445" lon="3.01814">
        <ele>20.32</ele>
        <time>2019-07-21T05:45:34Z</time>
      </trkpt>
      <trkpt lat="50.6544" lon="3.01809">
        <ele>20.32</ele>
        <time>2019-07-21T05:45:35Z</time>
      </trkpt>
      <trkpt lat="50.65435" lon="3.01804">
        <ele>20.32</ele>
        <time>2019-07-21T05:45:36Z</time>
      </trkpt>
      <trkpt lat="50.65404" lon="3.01771">
        <ele>21.77</ele>
        <time>2019-07-21T05:45:42Z</time>
      </trkpt>
      <trkpt lat="50.65326" lon="3.01691">
        <ele>22.25</ele>
        <time>2019-07-21T05:45:57Z</time>
      </trkpt>
      <trkpt lat="50.65299" lon="3.01668">
        <ele>22.25</ele>
        <time>2019-07-21T05:46:02Z</time>
      </trkpt>
      <trkpt lat="50.65294" lon="3.01661">
        <ele>22.25</ele>
        <time>2019-07-21T05:46:03Z</time>
      </trkpt>
      <trkpt lat="50.65291" lon="3.01652">
        <ele>22.25</ele>
        <time>2019-07-21T05:46:04Z</time>
      </trkpt>
      <trkpt lat="50.65289" lon="3.01641">
        <ele>22.25</ele>
        <time>2019-07-21T05:46:05Z</time>
      </trkpt>
      <trkpt lat="50.6529" lon="3.01631">
        <ele>22.25</ele>
        <time>2019-07-21T05:46:06Z</time>
      </trkpt>
      <trkpt lat="50.6529" lon="3.01621">
        <ele>22.25</ele>
        <time>2019-07-21T05:46:07Z</time>
      </trkpt>
      <trkpt lat="50.65292" lon="3.0161">
        <ele>22.25</ele>
        <time>2019-07-21T05:46:08Z</time>
      </trkpt>
      <trkpt lat="50.65315" lon="3.01452">
        <ele>22.73</ele>
        <time>2019-07-21T05:46:23Z</time>
      </trkpt>
      <trkpt lat="50.65353" lon="3.01225">
        <ele>24.17</ele>
        <time>2019-07-21T05:46:45Z</time>
      </trkpt>
      <trkpt lat="50.65375" lon="3.01111">
        <ele>24.17</ele>
        <time>2019-07-21T05:46:56Z</time>
      </trkpt>
      <trkpt lat="50.65379" lon="3.01101">
        <ele>24.17</ele>
        <time>2019-07-21T05:46:57Z</time>
      </trkpt>
      <trkpt lat="50.65383" lon="3.01092">
        <ele>24.17</ele>
        <time>2019-07-21T05:46:58Z</time>
      </trkpt>
      <trkpt lat="50.65387" lon="3.01085">
        <ele>24.17</ele>
        <time>2019-07-21T05:46:59Z</time>
      </trkpt>
      <trkpt lat="50.65393" lon="3.01078">
        <ele>24.17</ele>
        <time>2019-07-21T05:47:00Z</time>
      </trkpt>
      <trkpt lat="50.65398" lon="3.01072">
        <ele>24.17</ele>
        <time>2019-07-21T05:47:01Z</time>
      </trkpt>
      <trkpt lat="50.65404" lon="3.01067">
        <ele>24.17</ele>
        <time>2019-07-21T05:47:02Z</time>
      </trkpt>
      <trkpt lat="50.6541" lon="3.01063">
        <ele>24.65</ele>
        <time>2019-07-21T05:47:03Z</time>
      </trkpt>
      <trkpt lat="50.65417" lon="3.0106">
        <ele>24.65</ele>
        <time>2019-07-21T05:47:04Z</time>
      </trkpt>
      <trkpt lat="50.65513" lon="3.0101">
        <ele>24.65</ele>
        <time>2019-07-21T05:47:19Z</time>
      </trkpt>
      <trkpt lat="50.65613" lon="3.00957">
        <ele>24.65</ele>
        <time>2019-07-21T05:47:34Z</time>
      </trkpt>
      <trkpt lat="50.65722" lon="3.00898">
        <ele>23.69</ele>
        <time>2019-07-21T05:47:50Z</time>
      </trkpt>
      <trkpt lat="50.65846" lon="3.00829">
        <ele>21.77</ele>
        <time>2019-07-21T05:48:08Z</time>
      </trkpt>
      <trkpt lat="50.65978" lon="3.00735">
        <ele>22.25</ele>
        <time>2019-07-21T05:48:28Z</time>
      </trkpt>
      <trkpt lat="50.66061" lon="3.00675">
        <ele>23.21</ele>
        <time>2019-07-21T05:48:41Z</time>
      </trkpt>
      <trkpt lat="50.66202" lon="3.00571">
        <ele>24.17</ele>
        <time>2019-07-21T05:49:03Z</time>
      </trkpt>
      <trkpt lat="50.66245" lon="3.00534">
        <ele>24.17</ele>
        <time>2019-07-21T05:49:10Z</time>
      </trkpt>
      <trkpt lat="50.66251" lon="3.00526">
        <ele>24.65</ele>
        <time>2019-07-21T05:49:11Z</time>
      </trkpt>
      <trkpt lat="50.66255" lon="3.00519">
        <ele>24.65</ele>
        <time>2019-07-21T05:49:12Z</time>
      </trkpt>
      <trkpt lat="50.6626" lon="3.0051">
        <ele>24.65</ele>
        <time>2019-07-21T05:49:13Z</time>
      </trkpt>
      <trkpt lat="50.66264" lon="3.00501">
        <ele>24.65</ele>
        <time>2019-07-21T05:49:14Z</time>
      </trkpt>
      <trkpt lat="50.66355" lon="3.0031">
        <ele>24.65</ele>
        <time>2019-07-21T05:49:35Z</time>
      </trkpt>
      <trkpt lat="50.66358" lon="3.003">
        <ele>24.65</ele>
        <time>2019-07-21T05:49:36Z</time>
      </trkpt>
      <trkpt lat="50.66361" lon="3.00289">
        <ele>24.65</ele>
        <time>2019-07-21T05:49:37Z</time>
      </trkpt>
      <trkpt lat="50.66386" lon="3.00102">
        <ele>25.13</ele>
        <time>2019-07-21T05:49:54Z</time>
      </trkpt>
      <trkpt lat="50.6641" lon="2.99905">
        <ele>25.13</ele>
        <time>2019-07-21T05:50:12Z</time>
      </trkpt>
      <trkpt lat="50.66412" lon="2.99827">
        <ele>25.13</ele>
        <time>2019-07-21T05:50:19Z</time>
      </trkpt>
      <trkpt lat="50.66415" lon="2.99818">
        <ele>25.13</ele>
        <time>2019-07-21T05:50:20Z</time>
      </trkpt>
      <trkpt lat="50.66419" lon="2.9981">
        <ele>25.13</ele>
        <time>2019-07-21T05:50:21Z</time>
      </trkpt>
      <trkpt lat="50.66425" lon="2.99805">
        <ele>25.13</ele>
        <time>2019-07-21T05:50:22Z</time>
      </trkpt>
      <trkpt lat="50.66432" lon="2.99802">
        <ele>25.13</ele>
        <time>2019-07-21T05:50:23Z</time>
      </trkpt>
      <trkpt lat="50.66438" lon="2.998">
        <ele>25.13</ele>
        <time>2019-07-21T05:50:24Z</time>
      </trkpt>
      <trkpt lat="50.66444" lon="2.99797">
        <ele>25.13</ele>
        <time>2019-07-21T05:50:25Z</time>
      </trkpt>
      <trkpt lat="50.6645" lon="2.99792">
        <ele>25.13</ele>
        <time>2019-07-21T05:50:26Z</time>
      </trkpt>
      <trkpt lat="50.66454" lon="2.99785">
        <ele>25.13</ele>
        <time>2019-07-21T05:50:27Z</time>
      </trkpt>
      <trkpt lat="50.66457" lon="2.99774">
        <ele>25.13</ele>
        <time>2019-07-21T05:50:28Z</time>
      </trkpt>
      <trkpt lat="50.66459" lon="2.99765">
        <ele>25.13</ele>
        <time>2019-07-21T05:50:29Z</time>
      </trkpt>
      <trkpt lat="50.6646" lon="2.99754">
        <ele>25.13</ele>
        <time>2019-07-21T05:50:30Z</time>
      </trkpt>
      <trkpt lat="50.66477" lon="2.99624">
        <ele>24.17</ele>
        <time>2019-07-21T05:50:42Z</time>
      </trkpt>
      <trkpt lat="50.66491" lon="2.99538">
        <ele>23.69</ele>
        <time>2019-07-21T05:50:50Z</time>
      </trkpt>
      <trkpt lat="50.66495" lon="2.99527">
        <ele>23.69</ele>
        <time>2019-07-21T05:50:51Z</time>
      </trkpt>
      <trkpt lat="50.66499" lon="2.99519">
        <ele>23.21</ele>
        <time>2019-07-21T05:50:52Z</time>
      </trkpt>
      <trkpt lat="50.66505" lon="2.99511">
        <ele>23.21</ele>
        <time>2019-07-21T05:50:53Z</time>
      </trkpt>
      <trkpt lat="50.66511" lon="2.99503">
        <ele>22.73</ele>
        <time>2019-07-21T05:50:54Z</time>
      </trkpt>
      <trkpt lat="50.66518" lon="2.99496">
        <ele>22.73</ele>
        <time>2019-07-21T05:50:55Z</time>
      </trkpt>
      <trkpt lat="50.66626" lon="2.99388">
        <ele>20.32</ele>
        <time>2019-07-21T05:51:12Z</time>
      </trkpt>
      <trkpt lat="50.66684" lon="2.99328">
        <ele>20.32</ele>
        <time>2019-07-21T05:51:21Z</time>
      </trkpt>
      <trkpt lat="50.66691" lon="2.99325">
        <ele>20.32</ele>
        <time>2019-07-21T05:51:22Z</time>
      </trkpt>
      <trkpt lat="50.66719" lon="2.99312">
        <ele>20.32</ele>
        <time>2019-07-21T05:51:26Z</time>
      </trkpt>
      <trkpt lat="50.66726" lon="2.99307">
        <ele>20.32</ele>
        <time>2019-07-21T05:51:27Z</time>
      </trkpt>
      <trkpt lat="50.66797" lon="2.99211">
        <ele>20.32</ele>
        <time>2019-07-21T05:51:40Z</time>
      </trkpt>
      <trkpt lat="50.66881" lon="2.99106">
        <ele>19.84</ele>
        <time>2019-07-21T05:51:55Z</time>
      </trkpt>
      <trkpt lat="50.66893" lon="2.99096">
        <ele>19.84</ele>
        <time>2019-07-21T05:51:57Z</time>
      </trkpt>
      <trkpt lat="50.66974" lon="2.99047">
        <ele>20.81</ele>
        <time>2019-07-21T05:52:10Z</time>
      </trkpt>
      <trkpt lat="50.67048" lon="2.9898">
        <ele>22.25</ele>
        <time>2019-07-21T05:52:23Z</time>
      </trkpt>
      <trkpt lat="50.67145" lon="2.98861">
        <ele>23.69</ele>
        <time>2019-07-21T05:52:42Z</time>
      </trkpt>
      <trkpt lat="50.67197" lon="2.988">
        <ele>24.65</ele>
        <time>2019-07-21T05:52:52Z</time>
      </trkpt>
      <trkpt lat="50.67279" lon="2.98699">
        <ele>26.57</ele>
        <time>2019-07-21T05:53:09Z</time>
      </trkpt>
      <trkpt lat="50.67365" lon="2.986">
        <ele>27.53</ele>
        <time>2019-07-21T05:53:27Z</time>
      </trkpt>
      <trkpt lat="50.67394" lon="2.98566">
        <ele>27.53</ele>
        <time>2019-07-21T05:53:34Z</time>
      </trkpt>
      <trkpt lat="50.67398" lon="2.98564">
        <ele>27.53</ele>
        <time>2019-07-21T05:53:35Z</time>
      </trkpt>
      <trkpt lat="50.67403" lon="2.98561">
        <ele>27.53</ele>
        <time>2019-07-21T05:53:36Z</time>
      </trkpt>
      <trkpt lat="50.67406" lon="2.98558">
        <ele>27.53</ele>
        <time>2019-07-21T05:53:37Z</time>
      </trkpt>
      <trkpt lat="50.67409" lon="2.98554">
        <ele>28.02</ele>
        <time>2019-07-21T05:53:38Z</time>
      </trkpt>
      <trkpt lat="50.67409" lon="2.98547">
        <ele>28.02</ele>
        <time>2019-07-21T05:53:39Z</time>
      </trkpt>
      <trkpt lat="50.67407" lon="2.9854">
        <ele>28.02</ele>
        <time>2019-07-21T05:53:40Z</time>
      </trkpt>
      <trkpt lat="50.67403" lon="2.98534">
        <ele>28.02</ele>
        <time>2019-07-21T05:53:41Z</time>
      </trkpt>
      <trkpt lat="50.67399" lon="2.98526">
        <ele>28.02</ele>
        <time>2019-07-21T05:53:42Z</time>
      </trkpt>
      <trkpt lat="50.67397" lon="2.98521">
        <ele>28.02</ele>
        <time>2019-07-21T05:53:43Z</time>
      </trkpt>
      <trkpt lat="50.67375" lon="2.98466">
        <ele>28.5</ele>
        <time>2019-07-21T05:53:50Z</time>
      </trkpt>
      <trkpt lat="50.67372" lon="2.98458">
        <ele>28.5</ele>
        <time>2019-07-21T05:53:51Z</time>
      </trkpt>
      <trkpt lat="50.67367" lon="2.98443">
        <ele>28.5</ele>
        <time>2019-07-21T05:53:53Z</time>
      </trkpt>
      <trkpt lat="50.67366" lon="2.98434">
        <ele>28.5</ele>
        <time>2019-07-21T05:53:54Z</time>
      </trkpt>
      <trkpt lat="50.67369" lon="2.98427">
        <ele>28.5</ele>
        <time>2019-07-21T05:53:55Z</time>
      </trkpt>
      <trkpt lat="50.67373" lon="2.98421">
        <ele>28.5</ele>
        <time>2019-07-21T05:53:56Z</time>
      </trkpt>
      <trkpt lat="50.67378" lon="2.98416">
        <ele>28.5</ele>
        <time>2019-07-21T05:53:57Z</time>
      </trkpt>
      <trkpt lat="50.67438" lon="2.98335">
        <ele>28.5</ele>
        <time>2019-07-21T05:54:10Z</time>
      </trkpt>
      <trkpt lat="50.67484" lon="2.98272">
        <ele>26.57</ele>
        <time>2019-07-21T05:54:19Z</time>
      </trkpt>
      <trkpt lat="50.6749" lon="2.98266">
        <ele>26.09</ele>
        <time>2019-07-21T05:54:20Z</time>
      </trkpt>
      <trkpt lat="50.67497" lon="2.98263">
        <ele>26.09</ele>
        <time>2019-07-21T05:54:21Z</time>
      </trkpt>
      <trkpt lat="50.67505" lon="2.98262">
        <ele>26.09</ele>
        <time>2019-07-21T05:54:22Z</time>
      </trkpt>
      <trkpt lat="50.67512" lon="2.98262">
        <ele>26.09</ele>
        <time>2019-07-21T05:54:23Z</time>
      </trkpt>
      <trkpt lat="50.67526" lon="2.9826">
        <ele>26.09</ele>
        <time>2019-07-21T05:54:25Z</time>
      </trkpt>
      <trkpt lat="50.67534" lon="2.98256">
        <ele>25.61</ele>
        <time>2019-07-21T05:54:26Z</time>
      </trkpt>
      <trkpt lat="50.67539" lon="2.98251">
        <ele>25.61</ele>
        <time>2019-07-21T05:54:27Z</time>
      </trkpt>
      <trkpt lat="50.67602" lon="2.98194">
        <ele>21.77</ele>
        <time>2019-07-21T05:54:36Z</time>
      </trkpt>
      <trkpt lat="50.67697" lon="2.98112">
        <ele>18.4</ele>
        <time>2019-07-21T05:54:48Z</time>
      </trkpt>
      <trkpt lat="50.67781" lon="2.9804">
        <ele>17.92</ele>
        <time>2019-07-21T05:55:00Z</time>
      </trkpt>
      <trkpt lat="50.67788" lon="2.98033">
        <ele>17.92</ele>
        <time>2019-07-21T05:55:01Z</time>
      </trkpt>
      <trkpt lat="50.67873" lon="2.97928">
        <ele>17.44</ele>
        <time>2019-07-21T05:55:15Z</time>
      </trkpt>
      <trkpt lat="50.67878" lon="2.97918">
        <ele>17.44</ele>
        <time>2019-07-21T05:55:16Z</time>
      </trkpt>
      <trkpt lat="50.67882" lon="2.97909">
        <ele>17.44</ele>
        <time>2019-07-21T05:55:17Z</time>
      </trkpt>
      <trkpt lat="50.67905" lon="2.97835">
        <ele>17.44</ele>
        <time>2019-07-21T05:55:24Z</time>
      </trkpt>
      <trkpt lat="50.67907" lon="2.97824">
        <ele>17.44</ele>
        <time>2019-07-21T05:55:25Z</time>
      </trkpt>
      <trkpt lat="50.67906" lon="2.97812">
        <ele>17.44</ele>
        <time>2019-07-21T05:55:26Z</time>
      </trkpt>
      <trkpt lat="50.67905" lon="2.978">
        <ele>17.44</ele>
        <time>2019-07-21T05:55:27Z</time>
      </trkpt>
      <trkpt lat="50.67903" lon="2.97789">
        <ele>17.44</ele>
        <time>2019-07-21T05:55:28Z</time>
      </trkpt>
      <trkpt lat="50.67901" lon="2.97779">
        <ele>17.44</ele>
        <time>2019-07-21T05:55:29Z</time>
      </trkpt>
      <trkpt lat="50.6789" lon="2.97676">
        <ele>17.44</ele>
        <time>2019-07-21T05:55:38Z</time>
      </trkpt>
      <trkpt lat="50.67893" lon="2.97665">
        <ele>17.44</ele>
        <time>2019-07-21T05:55:39Z</time>
      </trkpt>
      <trkpt lat="50.67898" lon="2.97657">
        <ele>17.44</ele>
        <time>2019-07-21T05:55:40Z</time>
      </trkpt>
      <trkpt lat="50.67903" lon="2.97651">
        <ele>17.44</ele>
        <time>2019-07-21T05:55:41Z</time>
      </trkpt>
      <trkpt lat="50.6791" lon="2.97646">
        <ele>17.44</ele>
        <time>2019-07-21T05:55:42Z</time>
      </trkpt>
      <trkpt lat="50.68035" lon="2.97546">
        <ele>17.44</ele>
        <time>2019-07-21T05:56:01Z</time>
      </trkpt>
      <trkpt lat="50.68165" lon="2.97438">
        <ele>16.96</ele>
        <time>2019-07-21T05:56:21Z</time>
      </trkpt>
      <trkpt lat="50.68303" lon="2.97323">
        <ele>16.96</ele>
        <time>2019-07-21T05:56:42Z</time>
      </trkpt>
      <trkpt lat="50.68387" lon="2.97209">
        <ele>16.96</ele>
        <time>2019-07-21T05:56:57Z</time>
      </trkpt>
      <trkpt lat="50.68475" lon="2.97087">
        <ele>16.96</ele>
        <time>2019-07-21T05:57:13Z</time>
      </trkpt>
      <trkpt lat="50.68575" lon="2.96947">
        <ele>16.96</ele>
        <time>2019-07-21T05:57:32Z</time>
      </trkpt>
      <trkpt lat="50.68665" lon="2.96821">
        <ele>16.96</ele>
        <time>2019-07-21T05:57:50Z</time>
      </trkpt>
      <trkpt lat="50.68725" lon="2.96736">
        <ele>16.96</ele>
        <time>2019-07-21T05:58:05Z</time>
      </trkpt>
      <trkpt lat="50.68732" lon="2.96727">
        <ele>16.48</ele>
        <time>2019-07-21T05:58:08Z</time>
      </trkpt>
      <trkpt lat="50.68743" lon="2.9671">
        <ele>16.48</ele>
        <time>2019-07-21T05:58:11Z</time>
      </trkpt>
      <trkpt lat="50.68802" lon="2.96622">
        <ele>17.44</ele>
        <time>2019-07-21T05:58:23Z</time>
      </trkpt>
      <trkpt lat="50.68891" lon="2.9649">
        <ele>17.44</ele>
        <time>2019-07-21T05:58:40Z</time>
      </trkpt>
      <trkpt lat="50.68981" lon="2.96356">
        <ele>16.48</ele>
        <time>2019-07-21T05:58:57Z</time>
      </trkpt>
      <trkpt lat="50.69069" lon="2.96235">
        <ele>16.48</ele>
        <time>2019-07-21T05:59:13Z</time>
      </trkpt>
      <trkpt lat="50.69138" lon="2.96153">
        <ele>16</ele>
        <time>2019-07-21T05:59:25Z</time>
      </trkpt>
      <trkpt lat="50.69145" lon="2.96152">
        <ele>16</ele>
        <time>2019-07-21T05:59:26Z</time>
      </trkpt>
      <trkpt lat="50.69153" lon="2.96152">
        <ele>16</ele>
        <time>2019-07-21T05:59:27Z</time>
      </trkpt>
      <trkpt lat="50.69159" lon="2.96155">
        <ele>16</ele>
        <time>2019-07-21T05:59:28Z</time>
      </trkpt>
      <trkpt lat="50.69166" lon="2.9616">
        <ele>16</ele>
        <time>2019-07-21T05:59:29Z</time>
      </trkpt>
      <trkpt lat="50.69173" lon="2.96165">
        <ele>16</ele>
        <time>2019-07-21T05:59:30Z</time>
      </trkpt>
      <trkpt lat="50.69213" lon="2.96198">
        <ele>15.52</ele>
        <time>2019-07-21T05:59:36Z</time>
      </trkpt>
      <trkpt lat="50.6922" lon="2.962">
        <ele>15.52</ele>
        <time>2019-07-21T05:59:37Z</time>
      </trkpt>
      <trkpt lat="50.69227" lon="2.962">
        <ele>15.52</ele>
        <time>2019-07-21T05:59:38Z</time>
      </trkpt>
      <trkpt lat="50.69235" lon="2.96197">
        <ele>15.52</ele>
        <time>2019-07-21T05:59:39Z</time>
      </trkpt>
      <trkpt lat="50.69241" lon="2.96192">
        <ele>16.96</ele>
        <time>2019-07-21T05:59:40Z</time>
      </trkpt>
      <trkpt lat="50.69248" lon="2.96186">
        <ele>16.96</ele>
        <time>2019-07-21T05:59:41Z</time>
      </trkpt>
      <trkpt lat="50.69255" lon="2.96181">
        <ele>16.96</ele>
        <time>2019-07-21T05:59:42Z</time>
      </trkpt>
      <trkpt lat="50.69261" lon="2.96177">
        <ele>16.96</ele>
        <time>2019-07-21T05:59:43Z</time>
      </trkpt>
      <trkpt lat="50.69269" lon="2.96177">
        <ele>16.96</ele>
        <time>2019-07-21T05:59:44Z</time>
      </trkpt>
      <trkpt lat="50.69276" lon="2.96179">
        <ele>16.96</ele>
        <time>2019-07-21T05:59:45Z</time>
      </trkpt>
      <trkpt lat="50.69282" lon="2.96184">
        <ele>16.96</ele>
        <time>2019-07-21T05:59:46Z</time>
      </trkpt>
      <trkpt lat="50.69289" lon="2.96191">
        <ele>16.96</ele>
        <time>2019-07-21T05:59:47Z</time>
      </trkpt>
      <trkpt lat="50.69294" lon="2.96198">
        <ele>16.96</ele>
        <time>2019-07-21T05:59:48Z</time>
      </trkpt>
      <trkpt lat="50.69319" lon="2.96223">
        <ele>16</ele>
        <time>2019-07-21T05:59:52Z</time>
      </trkpt>
      <trkpt lat="50.69326" lon="2.96227">
        <ele>16</ele>
        <time>2019-07-21T05:59:53Z</time>
      </trkpt>
      <trkpt lat="50.69334" lon="2.96227">
        <ele>16</ele>
        <time>2019-07-21T05:59:54Z</time>
      </trkpt>
      <trkpt lat="50.69341" lon="2.96226">
        <ele>16</ele>
        <time>2019-07-21T05:59:55Z</time>
      </trkpt>
      <trkpt lat="50.69348" lon="2.96222">
        <ele>16</ele>
        <time>2019-07-21T05:59:56Z</time>
      </trkpt>
      <trkpt lat="50.69355" lon="2.96218">
        <ele>16</ele>
        <time>2019-07-21T05:59:57Z</time>
      </trkpt>
      <trkpt lat="50.69361" lon="2.96212">
        <ele>16</ele>
        <time>2019-07-21T05:59:58Z</time>
      </trkpt>
      <trkpt lat="50.69488" lon="2.96102">
        <ele>16</ele>
        <time>2019-07-21T06:00:18Z</time>
      </trkpt>
      <trkpt lat="50.69602" lon="2.95982">
        <ele>16</ele>
        <time>2019-07-21T06:00:37Z</time>
      </trkpt>
      <trkpt lat="50.69671" lon="2.95902">
        <ele>16</ele>
        <time>2019-07-21T06:00:49Z</time>
      </trkpt>
      <trkpt lat="50.69676" lon="2.95894">
        <ele>16</ele>
        <time>2019-07-21T06:00:50Z</time>
      </trkpt>
      <trkpt lat="50.69679" lon="2.95885">
        <ele>16</ele>
        <time>2019-07-21T06:00:51Z</time>
      </trkpt>
      <trkpt lat="50.69682" lon="2.95875">
        <ele>16</ele>
        <time>2019-07-21T06:00:52Z</time>
      </trkpt>
      <trkpt lat="50.69685" lon="2.95865">
        <ele>16</ele>
        <time>2019-07-21T06:00:53Z</time>
      </trkpt>
      <trkpt lat="50.69691" lon="2.95844">
        <ele>16</ele>
        <time>2019-07-21T06:00:55Z</time>
      </trkpt>
      <trkpt lat="50.69695" lon="2.95834">
        <ele>16</ele>
        <time>2019-07-21T06:00:56Z</time>
      </trkpt>
      <trkpt lat="50.69699" lon="2.95826">
        <ele>16</ele>
        <time>2019-07-21T06:00:57Z</time>
      </trkpt>
      <trkpt lat="50.69704" lon="2.95818">
        <ele>16</ele>
        <time>2019-07-21T06:00:58Z</time>
      </trkpt>
      <trkpt lat="50.6971" lon="2.95811">
        <ele>16</ele>
        <time>2019-07-21T06:00:59Z</time>
      </trkpt>
      <trkpt lat="50.69793" lon="2.95694">
        <ele>16</ele>
        <time>2019-07-21T06:01:15Z</time>
      </trkpt>
      <trkpt lat="50.69799" lon="2.95687">
        <ele>16</ele>
        <time>2019-07-21T06:01:16Z</time>
      </trkpt>
      <trkpt lat="50.69916" lon="2.95563">
        <ele>16</ele>
        <time>2019-07-21T06:01:36Z</time>
      </trkpt>
      <trkpt lat="50.70037" lon="2.95442">
        <ele>16</ele>
        <time>2019-07-21T06:01:56Z</time>
      </trkpt>
      <trkpt lat="50.70103" lon="2.95357">
        <ele>15.52</ele>
        <time>2019-07-21T06:02:08Z</time>
      </trkpt>
      <trkpt lat="50.70109" lon="2.95351">
        <ele>15.52</ele>
        <time>2019-07-21T06:02:09Z</time>
      </trkpt>
      <trkpt lat="50.70115" lon="2.95347">
        <ele>15.52</ele>
        <time>2019-07-21T06:02:10Z</time>
      </trkpt>
      <trkpt lat="50.70149" lon="2.95328">
        <ele>15.52</ele>
        <time>2019-07-21T06:02:15Z</time>
      </trkpt>
      <trkpt lat="50.70155" lon="2.95323">
        <ele>15.52</ele>
        <time>2019-07-21T06:02:16Z</time>
      </trkpt>
      <trkpt lat="50.7024" lon="2.95215">
        <ele>15.52</ele>
        <time>2019-07-21T06:02:31Z</time>
      </trkpt>
      <trkpt lat="50.70344" lon="2.95062">
        <ele>15.52</ele>
        <time>2019-07-21T06:02:51Z</time>
      </trkpt>
      <trkpt lat="50.70455" lon="2.94932">
        <ele>15.04</ele>
        <time>2019-07-21T06:03:10Z</time>
      </trkpt>
      <trkpt lat="50.70574" lon="2.94781">
        <ele>15.04</ele>
        <time>2019-07-21T06:03:31Z</time>
      </trkpt>
      <trkpt lat="50.70701" lon="2.94631">
        <ele>15.04</ele>
        <time>2019-07-21T06:03:53Z</time>
      </trkpt>
      <trkpt lat="50.70792" lon="2.94498">
        <ele>15.04</ele>
        <time>2019-07-21T06:04:10Z</time>
      </trkpt>
      <trkpt lat="50.70869" lon="2.94343">
        <ele>14.56</ele>
        <time>2019-07-21T06:04:27Z</time>
      </trkpt>
      <trkpt lat="50.70954" lon="2.94177">
        <ele>14.56</ele>
        <time>2019-07-21T06:04:46Z</time>
      </trkpt>
      <trkpt lat="50.71031" lon="2.94026">
        <ele>15.04</ele>
        <time>2019-07-21T06:05:04Z</time>
      </trkpt>
      <trkpt lat="50.71037" lon="2.9402">
        <ele>15.04</ele>
        <time>2019-07-21T06:05:05Z</time>
      </trkpt>
      <trkpt lat="50.71043" lon="2.94017">
        <ele>15.04</ele>
        <time>2019-07-21T06:05:06Z</time>
      </trkpt>
      <trkpt lat="50.71048" lon="2.94014">
        <ele>15.04</ele>
        <time>2019-07-21T06:05:07Z</time>
      </trkpt>
      <trkpt lat="50.71055" lon="2.94012">
        <ele>15.04</ele>
        <time>2019-07-21T06:05:08Z</time>
      </trkpt>
      <trkpt lat="50.71061" lon="2.94012">
        <ele>15.04</ele>
        <time>2019-07-21T06:05:09Z</time>
      </trkpt>
      <trkpt lat="50.71067" lon="2.94012">
        <ele>15.04</ele>
        <time>2019-07-21T06:05:10Z</time>
      </trkpt>
      <trkpt lat="50.71073" lon="2.94014">
        <ele>15.04</ele>
        <time>2019-07-21T06:05:11Z</time>
      </trkpt>
      <trkpt lat="50.71079" lon="2.94016">
        <ele>15.04</ele>
        <time>2019-07-21T06:05:12Z</time>
      </trkpt>
      <trkpt lat="50.71084" lon="2.94019">
        <ele>15.04</ele>
        <time>2019-07-21T06:05:13Z</time>
      </trkpt>
      <trkpt lat="50.71113" lon="2.94027">
        <ele>14.56</ele>
        <time>2019-07-21T06:05:21Z</time>
      </trkpt>
      <trkpt lat="50.71116" lon="2.94023">
        <ele>14.56</ele>
        <time>2019-07-21T06:05:22Z</time>
      </trkpt>
      <trkpt lat="50.71118" lon="2.94016">
        <ele>14.56</ele>
        <time>2019-07-21T06:05:23Z</time>
      </trkpt>
      <trkpt lat="50.71135" lon="2.93956">
        <ele>14.56</ele>
        <time>2019-07-21T06:05:30Z</time>
      </trkpt>
      <trkpt lat="50.71148" lon="2.9393">
        <ele>15.52</ele>
        <time>2019-07-21T06:05:33Z</time>
      </trkpt>
      <trkpt lat="50.7115" lon="2.93921">
        <ele>15.52</ele>
        <time>2019-07-21T06:05:34Z</time>
      </trkpt>
      <trkpt lat="50.71151" lon="2.93911">
        <ele>15.52</ele>
        <time>2019-07-21T06:05:35Z</time>
      </trkpt>
      <trkpt lat="50.71151" lon="2.939">
        <ele>15.52</ele>
        <time>2019-07-21T06:05:36Z</time>
      </trkpt>
      <trkpt lat="50.7115" lon="2.93889">
        <ele>15.52</ele>
        <time>2019-07-21T06:05:37Z</time>
      </trkpt>
      <trkpt lat="50.7115" lon="2.93879">
        <ele>15.52</ele>
        <time>2019-07-21T06:05:38Z</time>
      </trkpt>
      <trkpt lat="50.7115" lon="2.93868">
        <ele>15.52</ele>
        <time>2019-07-21T06:05:39Z</time>
      </trkpt>
      <trkpt lat="50.7115" lon="2.93857">
        <ele>15.52</ele>
        <time>2019-07-21T06:05:40Z</time>
      </trkpt>
      <trkpt lat="50.7118" lon="2.93678">
        <ele>15.52</ele>
        <time>2019-07-21T06:05:57Z</time>
      </trkpt>
      <trkpt lat="50.71215" lon="2.93494">
        <ele>15.52</ele>
        <time>2019-07-21T06:06:15Z</time>
      </trkpt>
      <trkpt lat="50.71242" lon="2.9333">
        <ele>15.52</ele>
        <time>2019-07-21T06:06:31Z</time>
      </trkpt>
      <trkpt lat="50.71266" lon="2.93193">
        <ele>15.52</ele>
        <time>2019-07-21T06:06:45Z</time>
      </trkpt>
      <trkpt lat="50.71272" lon="2.93149">
        <ele>14.56</ele>
        <time>2019-07-21T06:06:49Z</time>
      </trkpt>
      <trkpt lat="50.71298" lon="2.92976">
        <ele>14.08</ele>
        <time>2019-07-21T06:07:05Z</time>
      </trkpt>
      <trkpt lat="50.71339" lon="2.92862">
        <ele>12.15</ele>
        <time>2019-07-21T06:07:16Z</time>
      </trkpt>
      <trkpt lat="50.71411" lon="2.92678">
        <ele>11.19</ele>
        <time>2019-07-21T06:07:34Z</time>
      </trkpt>
      <trkpt lat="50.71466" lon="2.92524">
        <ele>11.19</ele>
        <time>2019-07-21T06:07:50Z</time>
      </trkpt>
      <trkpt lat="50.71477" lon="2.92485">
        <ele>11.19</ele>
        <time>2019-07-21T06:07:54Z</time>
      </trkpt>
      <trkpt lat="50.71481" lon="2.92478">
        <ele>11.19</ele>
        <time>2019-07-21T06:07:55Z</time>
      </trkpt>
      <trkpt lat="50.71485" lon="2.9247">
        <ele>11.19</ele>
        <time>2019-07-21T06:07:56Z</time>
      </trkpt>
      <trkpt lat="50.71491" lon="2.92463">
        <ele>11.19</ele>
        <time>2019-07-21T06:07:57Z</time>
      </trkpt>
      <trkpt lat="50.71496" lon="2.92458">
        <ele>11.19</ele>
        <time>2019-07-21T06:07:58Z</time>
      </trkpt>
      <trkpt lat="50.7159" lon="2.92384">
        <ele>12.63</ele>
        <time>2019-07-21T06:08:13Z</time>
      </trkpt>
      <trkpt lat="50.7162" lon="2.92358">
        <ele>13.12</ele>
        <time>2019-07-21T06:08:18Z</time>
      </trkpt>
      <trkpt lat="50.71714" lon="2.92271">
        <ele>13.12</ele>
        <time>2019-07-21T06:08:34Z</time>
      </trkpt>
      <trkpt lat="50.7184" lon="2.92157">
        <ele>13.6</ele>
        <time>2019-07-21T06:08:55Z</time>
      </trkpt>
      <trkpt lat="50.7195" lon="2.9206">
        <ele>14.08</ele>
        <time>2019-07-21T06:09:13Z</time>
      </trkpt>
      <trkpt lat="50.72043" lon="2.91982">
        <ele>14.56</ele>
        <time>2019-07-21T06:09:28Z</time>
      </trkpt>
      <trkpt lat="50.72142" lon="2.91893">
        <ele>14.56</ele>
        <time>2019-07-21T06:09:44Z</time>
      </trkpt>
      <trkpt lat="50.72261" lon="2.91779">
        <ele>15.04</ele>
        <time>2019-07-21T06:10:04Z</time>
      </trkpt>
      <trkpt lat="50.72385" lon="2.91671">
        <ele>15.04</ele>
        <time>2019-07-21T06:10:24Z</time>
      </trkpt>
      <trkpt lat="50.72505" lon="2.91558">
        <ele>15.04</ele>
        <time>2019-07-21T06:10:43Z</time>
      </trkpt>
      <trkpt lat="50.72632" lon="2.91448">
        <ele>15.04</ele>
        <time>2019-07-21T06:11:03Z</time>
      </trkpt>
      <trkpt lat="50.72644" lon="2.91439">
        <ele>15.04</ele>
        <time>2019-07-21T06:11:05Z</time>
      </trkpt>
      <trkpt lat="50.72651" lon="2.91437">
        <ele>15.04</ele>
        <time>2019-07-21T06:11:06Z</time>
      </trkpt>
      <trkpt lat="50.72658" lon="2.91438">
        <ele>15.04</ele>
        <time>2019-07-21T06:11:07Z</time>
      </trkpt>
      <trkpt lat="50.72665" lon="2.9144">
        <ele>14.08</ele>
        <time>2019-07-21T06:11:08Z</time>
      </trkpt>
      <trkpt lat="50.72673" lon="2.91443">
        <ele>14.08</ele>
        <time>2019-07-21T06:11:09Z</time>
      </trkpt>
      <trkpt lat="50.72763" lon="2.91493">
        <ele>14.08</ele>
        <time>2019-07-21T06:11:22Z</time>
      </trkpt>
      <trkpt lat="50.72879" lon="2.9156">
        <ele>14.08</ele>
        <time>2019-07-21T06:11:39Z</time>
      </trkpt>
      <trkpt lat="50.73006" lon="2.91641">
        <ele>14.08</ele>
        <time>2019-07-21T06:11:58Z</time>
      </trkpt>
      <trkpt lat="50.7312" lon="2.91718">
        <ele>14.08</ele>
        <time>2019-07-21T06:12:15Z</time>
      </trkpt>
      <trkpt lat="50.73153" lon="2.91741">
        <ele>15.04</ele>
        <time>2019-07-21T06:12:20Z</time>
      </trkpt>
      <trkpt lat="50.7327" lon="2.91835">
        <ele>15.04</ele>
        <time>2019-07-21T06:12:38Z</time>
      </trkpt>
      <trkpt lat="50.73364" lon="2.91921">
        <ele>15.04</ele>
        <time>2019-07-21T06:12:53Z</time>
      </trkpt>
      <trkpt lat="50.7345" lon="2.92015">
        <ele>15.52</ele>
        <time>2019-07-21T06:13:08Z</time>
      </trkpt>
      <trkpt lat="50.73561" lon="2.92151">
        <ele>15.04</ele>
        <time>2019-07-21T06:13:27Z</time>
      </trkpt>
      <trkpt lat="50.73674" lon="2.92312">
        <ele>15.52</ele>
        <time>2019-07-21T06:13:47Z</time>
      </trkpt>
      <trkpt lat="50.73779" lon="2.92467">
        <ele>15.52</ele>
        <time>2019-07-21T06:14:06Z</time>
      </trkpt>
      <trkpt lat="50.73873" lon="2.92621">
        <ele>15.52</ele>
        <time>2019-07-21T06:14:25Z</time>
      </trkpt>
      <trkpt lat="50.73963" lon="2.92762">
        <ele>16</ele>
        <time>2019-07-21T06:14:43Z</time>
      </trkpt>
      <trkpt lat="50.73995" lon="2.92812">
        <ele>16</ele>
        <time>2019-07-21T06:14:50Z</time>
      </trkpt>
      <trkpt lat="50.73998" lon="2.92821">
        <ele>16</ele>
        <time>2019-07-21T06:14:51Z</time>
      </trkpt>
      <trkpt lat="50.74004" lon="2.92846">
        <ele>16</ele>
        <time>2019-07-21T06:14:54Z</time>
      </trkpt>
      <trkpt lat="50.74006" lon="2.92854">
        <ele>16</ele>
        <time>2019-07-21T06:14:55Z</time>
      </trkpt>
      <trkpt lat="50.7401" lon="2.92868">
        <ele>16</ele>
        <time>2019-07-21T06:14:57Z</time>
      </trkpt>
      <trkpt lat="50.74013" lon="2.92873">
        <ele>16</ele>
        <time>2019-07-21T06:14:58Z</time>
      </trkpt>
      <trkpt lat="50.74015" lon="2.92878">
        <ele>16</ele>
        <time>2019-07-21T06:14:59Z</time>
      </trkpt>
      <trkpt lat="50.74018" lon="2.9288">
        <ele>16</ele>
        <time>2019-07-21T06:15:00Z</time>
      </trkpt>
      <trkpt lat="50.74021" lon="2.92881">
        <ele>16</ele>
        <time>2019-07-21T06:15:01Z</time>
      </trkpt>
      <trkpt lat="50.74023" lon="2.92879">
        <ele>16</ele>
        <time>2019-07-21T06:15:02Z</time>
      </trkpt>
      <trkpt lat="50.74025" lon="2.92876">
        <ele>16</ele>
        <time>2019-07-21T06:15:03Z</time>
      </trkpt>
      <trkpt lat="50.74026" lon="2.9287">
        <ele>16.48</ele>
        <time>2019-07-21T06:15:04Z</time>
      </trkpt>
      <trkpt lat="50.74027" lon="2.92863">
        <ele>16.48</ele>
        <time>2019-07-21T06:15:05Z</time>
      </trkpt>
      <trkpt lat="50.74026" lon="2.92855">
        <ele>16.48</ele>
        <time>2019-07-21T06:15:06Z</time>
      </trkpt>
      <trkpt lat="50.74025" lon="2.92847">
        <ele>16.48</ele>
        <time>2019-07-21T06:15:07Z</time>
      </trkpt>
      <trkpt lat="50.74023" lon="2.92837">
        <ele>16.48</ele>
        <time>2019-07-21T06:15:08Z</time>
      </trkpt>
      <trkpt lat="50.74021" lon="2.92827">
        <ele>16.48</ele>
        <time>2019-07-21T06:15:09Z</time>
      </trkpt>
      <trkpt lat="50.74019" lon="2.92817">
        <ele>16.48</ele>
        <time>2019-07-21T06:15:10Z</time>
      </trkpt>
      <trkpt lat="50.7401" lon="2.92676">
        <ele>16.48</ele>
        <time>2019-07-21T06:15:22Z</time>
      </trkpt>
      <trkpt lat="50.74006" lon="2.92605">
        <ele>16.48</ele>
        <time>2019-07-21T06:15:30Z</time>
      </trkpt>
      <trkpt lat="50.7401" lon="2.926">
        <ele>16.48</ele>
        <time>2019-07-21T06:15:31Z</time>
      </trkpt>
      <trkpt lat="50.74013" lon="2.92601">
        <ele>16.48</ele>
        <time>2019-07-21T06:15:32Z</time>
      </trkpt>
      <trkpt lat="50.74016" lon="2.92606">
        <ele>16.48</ele>
        <time>2019-07-21T06:15:33Z</time>
      </trkpt>
      <trkpt lat="50.74018" lon="2.92613">
        <ele>16.48</ele>
        <time>2019-07-21T06:15:34Z</time>
      </trkpt>
      <trkpt lat="50.74019" lon="2.92621">
        <ele>16.48</ele>
        <time>2019-07-21T06:15:35Z</time>
      </trkpt>
      <trkpt lat="50.7402" lon="2.9263">
        <ele>16.48</ele>
        <time>2019-07-21T06:15:36Z</time>
      </trkpt>
      <trkpt lat="50.74024" lon="2.92669">
        <ele>16.48</ele>
        <time>2019-07-21T06:15:40Z</time>
      </trkpt>
      <trkpt lat="50.74026" lon="2.92679">
        <ele>16.48</ele>
        <time>2019-07-21T06:15:41Z</time>
      </trkpt>
      <trkpt lat="50.74029" lon="2.92688">
        <ele>16.48</ele>
        <time>2019-07-21T06:15:42Z</time>
      </trkpt>
      <trkpt lat="50.74033" lon="2.92698">
        <ele>16.48</ele>
        <time>2019-07-21T06:15:43Z</time>
      </trkpt>
      <trkpt lat="50.74038" lon="2.92707">
        <ele>16.48</ele>
        <time>2019-07-21T06:15:44Z</time>
      </trkpt>
      <trkpt lat="50.74043" lon="2.92715">
        <ele>16.48</ele>
        <time>2019-07-21T06:15:45Z</time>
      </trkpt>
      <trkpt lat="50.74048" lon="2.92723">
        <ele>16.48</ele>
        <time>2019-07-21T06:15:46Z</time>
      </trkpt>
      <trkpt lat="50.7414" lon="2.92851">
        <ele>16.48</ele>
        <time>2019-07-21T06:16:03Z</time>
      </trkpt>
      <trkpt lat="50.74266" lon="2.92978">
        <ele>16.48</ele>
        <time>2019-07-21T06:16:23Z</time>
      </trkpt>
      <trkpt lat="50.74371" lon="2.93069">
        <ele>16.48</ele>
        <time>2019-07-21T06:16:39Z</time>
      </trkpt>
      <trkpt lat="50.74448" lon="2.93128">
        <ele>16.96</ele>
        <time>2019-07-21T06:16:52Z</time>
      </trkpt>
      <trkpt lat="50.74454" lon="2.93129">
        <ele>16.96</ele>
        <time>2019-07-21T06:16:53Z</time>
      </trkpt>
      <trkpt lat="50.74459" lon="2.93128">
        <ele>16.96</ele>
        <time>2019-07-21T06:16:54Z</time>
      </trkpt>
      <trkpt lat="50.74463" lon="2.93121">
        <ele>16.96</ele>
        <time>2019-07-21T06:16:55Z</time>
      </trkpt>
      <trkpt lat="50.74465" lon="2.93115">
        <ele>17.44</ele>
        <time>2019-07-21T06:16:56Z</time>
      </trkpt>
      <trkpt lat="50.74467" lon="2.93107">
        <ele>17.44</ele>
        <time>2019-07-21T06:16:57Z</time>
      </trkpt>
      <trkpt lat="50.74469" lon="2.93097">
        <ele>17.44</ele>
        <time>2019-07-21T06:16:58Z</time>
      </trkpt>
      <trkpt lat="50.74509" lon="2.92962">
        <ele>17.92</ele>
        <time>2019-07-21T06:17:12Z</time>
      </trkpt>
      <trkpt lat="50.74513" lon="2.92953">
        <ele>17.92</ele>
        <time>2019-07-21T06:17:13Z</time>
      </trkpt>
      <trkpt lat="50.7459" lon="2.92848">
        <ele>18.88</ele>
        <time>2019-07-21T06:17:28Z</time>
      </trkpt>
      <trkpt lat="50.74675" lon="2.92738">
        <ele>20.32</ele>
        <time>2019-07-21T06:17:45Z</time>
      </trkpt>
      <trkpt lat="50.74738" lon="2.92655">
        <ele>21.77</ele>
        <time>2019-07-21T06:17:58Z</time>
      </trkpt>
      <trkpt lat="50.7482" lon="2.92547">
        <ele>22.73</ele>
        <time>2019-07-21T06:18:15Z</time>
      </trkpt>
      <trkpt lat="50.74913" lon="2.92426">
        <ele>22.73</ele>
        <time>2019-07-21T06:18:33Z</time>
      </trkpt>
      <trkpt lat="50.74988" lon="2.92311">
        <ele>21.29</ele>
        <time>2019-07-21T06:18:48Z</time>
      </trkpt>
      <trkpt lat="50.74991" lon="2.92301">
        <ele>21.29</ele>
        <time>2019-07-21T06:18:49Z</time>
      </trkpt>
      <trkpt lat="50.75037" lon="2.92129">
        <ele>21.29</ele>
        <time>2019-07-21T06:19:06Z</time>
      </trkpt>
      <trkpt lat="50.75063" lon="2.92031">
        <ele>22.73</ele>
        <time>2019-07-21T06:19:16Z</time>
      </trkpt>
      <trkpt lat="50.75094" lon="2.91881">
        <ele>22.73</ele>
        <time>2019-07-21T06:19:31Z</time>
      </trkpt>
      <trkpt lat="50.75091" lon="2.91838">
        <ele>22.73</ele>
        <time>2019-07-21T06:19:35Z</time>
      </trkpt>
      <trkpt lat="50.75058" lon="2.91686">
        <ele>22.73</ele>
        <time>2019-07-21T06:19:51Z</time>
      </trkpt>
      <trkpt lat="50.75057" lon="2.91678">
        <ele>22.73</ele>
        <time>2019-07-21T06:19:52Z</time>
      </trkpt>
      <trkpt lat="50.75058" lon="2.9167">
        <ele>22.73</ele>
        <time>2019-07-21T06:19:53Z</time>
      </trkpt>
      <trkpt lat="50.75061" lon="2.91663">
        <ele>22.73</ele>
        <time>2019-07-21T06:19:54Z</time>
      </trkpt>
      <trkpt lat="50.75065" lon="2.91658">
        <ele>22.73</ele>
        <time>2019-07-21T06:19:55Z</time>
      </trkpt>
      <trkpt lat="50.75069" lon="2.91654">
        <ele>22.73</ele>
        <time>2019-07-21T06:19:56Z</time>
      </trkpt>
      <trkpt lat="50.75074" lon="2.91651">
        <ele>22.73</ele>
        <time>2019-07-21T06:19:57Z</time>
      </trkpt>
      <trkpt lat="50.75152" lon="2.91601">
        <ele>22.73</ele>
        <time>2019-07-21T06:20:09Z</time>
      </trkpt>
      <trkpt lat="50.75223" lon="2.91551">
        <ele>21.77</ele>
        <time>2019-07-21T06:20:20Z</time>
      </trkpt>
      <trkpt lat="50.75337" lon="2.91464">
        <ele>20.81</ele>
        <time>2019-07-21T06:20:38Z</time>
      </trkpt>
      <trkpt lat="50.75454" lon="2.91387">
        <ele>18.4</ele>
        <time>2019-07-21T06:20:55Z</time>
      </trkpt>
      <trkpt lat="50.75585" lon="2.91289">
        <ele>17.44</ele>
        <time>2019-07-21T06:21:14Z</time>
      </trkpt>
      <trkpt lat="50.75677" lon="2.91198">
        <ele>19.36</ele>
        <time>2019-07-21T06:21:30Z</time>
      </trkpt>
      <trkpt lat="50.75768" lon="2.91108">
        <ele>22.73</ele>
        <time>2019-07-21T06:21:47Z</time>
      </trkpt>
      <trkpt lat="50.75868" lon="2.91009">
        <ele>25.13</ele>
        <time>2019-07-21T06:22:06Z</time>
      </trkpt>
      <trkpt lat="50.75981" lon="2.90896">
        <ele>26.57</ele>
        <time>2019-07-21T06:22:27Z</time>
      </trkpt>
      <trkpt lat="50.76073" lon="2.90805">
        <ele>28.98</ele>
        <time>2019-07-21T06:22:44Z</time>
      </trkpt>
      <trkpt lat="50.76152" lon="2.90699">
        <ele>30.9</ele>
        <time>2019-07-21T06:23:00Z</time>
      </trkpt>
      <trkpt lat="50.76221" lon="2.90563">
        <ele>33.78</ele>
        <time>2019-07-21T06:23:18Z</time>
      </trkpt>
      <trkpt lat="50.76275" lon="2.90458">
        <ele>37.15</ele>
        <time>2019-07-21T06:23:32Z</time>
      </trkpt>
      <trkpt lat="50.76316" lon="2.90367">
        <ele>40.03</ele>
        <time>2019-07-21T06:23:44Z</time>
      </trkpt>
      <trkpt lat="50.76319" lon="2.90358">
        <ele>40.51</ele>
        <time>2019-07-21T06:23:45Z</time>
      </trkpt>
      <trkpt lat="50.76321" lon="2.90349">
        <ele>40.51</ele>
        <time>2019-07-21T06:23:46Z</time>
      </trkpt>
      <trkpt lat="50.76333" lon="2.90254">
        <ele>44.36</ele>
        <time>2019-07-21T06:23:56Z</time>
      </trkpt>
      <trkpt lat="50.76344" lon="2.90174">
        <ele>47.24</ele>
        <time>2019-07-21T06:24:04Z</time>
      </trkpt>
      <trkpt lat="50.76347" lon="2.90165">
        <ele>47.72</ele>
        <time>2019-07-21T06:24:05Z</time>
      </trkpt>
      <trkpt lat="50.76375" lon="2.90109">
        <ele>50.13</ele>
        <time>2019-07-21T06:24:12Z</time>
      </trkpt>
      <trkpt lat="50.76453" lon="2.90041">
        <ele>53.97</ele>
        <time>2019-07-21T06:24:26Z</time>
      </trkpt>
      <trkpt lat="50.76485" lon="2.90017">
        <ele>54.45</ele>
        <time>2019-07-21T06:24:32Z</time>
      </trkpt>
      <trkpt lat="50.76499" lon="2.90003">
        <ele>55.41</ele>
        <time>2019-07-21T06:24:35Z</time>
      </trkpt>
      <trkpt lat="50.76512" lon="2.89986">
        <ele>55.89</ele>
        <time>2019-07-21T06:24:38Z</time>
      </trkpt>
      <trkpt lat="50.76516" lon="2.89979">
        <ele>56.37</ele>
        <time>2019-07-21T06:24:39Z</time>
      </trkpt>
      <trkpt lat="50.76519" lon="2.89971">
        <ele>56.37</ele>
        <time>2019-07-21T06:24:40Z</time>
      </trkpt>
      <trkpt lat="50.76532" lon="2.89933">
        <ele>56.86</ele>
        <time>2019-07-21T06:24:45Z</time>
      </trkpt>
      <trkpt lat="50.76535" lon="2.89927">
        <ele>56.86</ele>
        <time>2019-07-21T06:24:46Z</time>
      </trkpt>
      <trkpt lat="50.76539" lon="2.89923">
        <ele>56.86</ele>
        <time>2019-07-21T06:24:47Z</time>
      </trkpt>
      <trkpt lat="50.76543" lon="2.89921">
        <ele>56.86</ele>
        <time>2019-07-21T06:24:48Z</time>
      </trkpt>
      <trkpt lat="50.76548" lon="2.8992">
        <ele>56.86</ele>
        <time>2019-07-21T06:24:49Z</time>
      </trkpt>
      <trkpt lat="50.76552" lon="2.89917">
        <ele>56.86</ele>
        <time>2019-07-21T06:24:50Z</time>
      </trkpt>
      <trkpt lat="50.76556" lon="2.89915">
        <ele>56.86</ele>
        <time>2019-07-21T06:24:51Z</time>
      </trkpt>
      <trkpt lat="50.76559" lon="2.89911">
        <ele>56.86</ele>
        <time>2019-07-21T06:24:52Z</time>
      </trkpt>
      <trkpt lat="50.76561" lon="2.89905">
        <ele>56.86</ele>
        <time>2019-07-21T06:24:53Z</time>
      </trkpt>
      <trkpt lat="50.76562" lon="2.89899">
        <ele>57.34</ele>
        <time>2019-07-21T06:24:54Z</time>
      </trkpt>
      <trkpt lat="50.76563" lon="2.89892">
        <ele>57.34</ele>
        <time>2019-07-21T06:24:55Z</time>
      </trkpt>
      <trkpt lat="50.76563" lon="2.89886">
        <ele>57.82</ele>
        <time>2019-07-21T06:24:56Z</time>
      </trkpt>
      <trkpt lat="50.76563" lon="2.89878">
        <ele>57.82</ele>
        <time>2019-07-21T06:24:57Z</time>
      </trkpt>
      <trkpt lat="50.76562" lon="2.89871">
        <ele>57.82</ele>
        <time>2019-07-21T06:24:58Z</time>
      </trkpt>
      <trkpt lat="50.76561" lon="2.89864">
        <ele>57.82</ele>
        <time>2019-07-21T06:24:59Z</time>
      </trkpt>
      <trkpt lat="50.76559" lon="2.89851">
        <ele>57.82</ele>
        <time>2019-07-21T06:25:01Z</time>
      </trkpt>
      <trkpt lat="50.76534" lon="2.89743">
        <ele>58.3</ele>
        <time>2019-07-21T06:25:17Z</time>
      </trkpt>
      <trkpt lat="50.76529" lon="2.8969">
        <ele>58.3</ele>
        <time>2019-07-21T06:25:26Z</time>
      </trkpt>
      <trkpt lat="50.76532" lon="2.89687">
        <ele>58.3</ele>
        <time>2019-07-21T06:25:27Z</time>
      </trkpt>
      <trkpt lat="50.76536" lon="2.89685">
        <ele>58.78</ele>
        <time>2019-07-21T06:25:28Z</time>
      </trkpt>
      <trkpt lat="50.76604" lon="2.8966">
        <ele>59.26</ele>
        <time>2019-07-21T06:25:42Z</time>
      </trkpt>
      <trkpt lat="50.76642" lon="2.89644">
        <ele>60.22</ele>
        <time>2019-07-21T06:25:51Z</time>
      </trkpt>
      <trkpt lat="50.76643" lon="2.89638">
        <ele>60.22</ele>
        <time>2019-07-21T06:25:52Z</time>
      </trkpt>
      <trkpt lat="50.76643" lon="2.8963">
        <ele>60.22</ele>
        <time>2019-07-21T06:25:53Z</time>
      </trkpt>
      <trkpt lat="50.76641" lon="2.89623">
        <ele>60.22</ele>
        <time>2019-07-21T06:25:54Z</time>
      </trkpt>
      <trkpt lat="50.76639" lon="2.89615">
        <ele>60.22</ele>
        <time>2019-07-21T06:25:55Z</time>
      </trkpt>
      <trkpt lat="50.76612" lon="2.8948">
        <ele>58.3</ele>
        <time>2019-07-21T06:26:10Z</time>
      </trkpt>
      <trkpt lat="50.76584" lon="2.89344">
        <ele>57.82</ele>
        <time>2019-07-21T06:26:25Z</time>
      </trkpt>
      <trkpt lat="50.7658" lon="2.89324">
        <ele>57.82</ele>
        <time>2019-07-21T06:26:27Z</time>
      </trkpt>
      <trkpt lat="50.76554" lon="2.89171">
        <ele>56.37</ele>
        <time>2019-07-21T06:26:41Z</time>
      </trkpt>
      <trkpt lat="50.7654" lon="2.89077">
        <ele>55.41</ele>
        <time>2019-07-21T06:26:50Z</time>
      </trkpt>
      <trkpt lat="50.76542" lon="2.89067">
        <ele>54.93</ele>
        <time>2019-07-21T06:26:51Z</time>
      </trkpt>
      <trkpt lat="50.76544" lon="2.89057">
        <ele>54.93</ele>
        <time>2019-07-21T06:26:52Z</time>
      </trkpt>
      <trkpt lat="50.76548" lon="2.89048">
        <ele>54.93</ele>
        <time>2019-07-21T06:26:53Z</time>
      </trkpt>
      <trkpt lat="50.76551" lon="2.89041">
        <ele>53.97</ele>
        <time>2019-07-21T06:26:54Z</time>
      </trkpt>
      <trkpt lat="50.76554" lon="2.89032">
        <ele>53.97</ele>
        <time>2019-07-21T06:26:55Z</time>
      </trkpt>
      <trkpt lat="50.76598" lon="2.88906">
        <ele>50.13</ele>
        <time>2019-07-21T06:27:08Z</time>
      </trkpt>
      <trkpt lat="50.76633" lon="2.88806">
        <ele>47.24</ele>
        <time>2019-07-21T06:27:17Z</time>
      </trkpt>
      <trkpt lat="50.76646" lon="2.88771">
        <ele>45.8</ele>
        <time>2019-07-21T06:27:20Z</time>
      </trkpt>
      <trkpt lat="50.76651" lon="2.8876">
        <ele>45.8</ele>
        <time>2019-07-21T06:27:21Z</time>
      </trkpt>
      <trkpt lat="50.76665" lon="2.88741">
        <ele>44.84</ele>
        <time>2019-07-21T06:27:23Z</time>
      </trkpt>
      <trkpt lat="50.76672" lon="2.88733">
        <ele>44.36</ele>
        <time>2019-07-21T06:27:24Z</time>
      </trkpt>
      <trkpt lat="50.76695" lon="2.8871">
        <ele>42.92</ele>
        <time>2019-07-21T06:27:27Z</time>
      </trkpt>
      <trkpt lat="50.76746" lon="2.88661">
        <ele>40.03</ele>
        <time>2019-07-21T06:27:33Z</time>
      </trkpt>
      <trkpt lat="50.76787" lon="2.88618">
        <ele>38.59</ele>
        <time>2019-07-21T06:27:38Z</time>
      </trkpt>
      <trkpt lat="50.76794" lon="2.88607">
        <ele>38.59</ele>
        <time>2019-07-21T06:27:39Z</time>
      </trkpt>
      <trkpt lat="50.76799" lon="2.88594">
        <ele>37.63</ele>
        <time>2019-07-21T06:27:40Z</time>
      </trkpt>
      <trkpt lat="50.76802" lon="2.88581">
        <ele>37.63</ele>
        <time>2019-07-21T06:27:41Z</time>
      </trkpt>
      <trkpt lat="50.76804" lon="2.88566">
        <ele>36.67</ele>
        <time>2019-07-21T06:27:42Z</time>
      </trkpt>
      <trkpt lat="50.76805" lon="2.88552">
        <ele>36.67</ele>
        <time>2019-07-21T06:27:43Z</time>
      </trkpt>
      <trkpt lat="50.76806" lon="2.88539">
        <ele>36.67</ele>
        <time>2019-07-21T06:27:44Z</time>
      </trkpt>
      <trkpt lat="50.76832" lon="2.88372">
        <ele>35.23</ele>
        <time>2019-07-21T06:27:58Z</time>
      </trkpt>
      <trkpt lat="50.76884" lon="2.88222">
        <ele>33.3</ele>
        <time>2019-07-21T06:28:12Z</time>
      </trkpt>
      <trkpt lat="50.76934" lon="2.88117">
        <ele>32.82</ele>
        <time>2019-07-21T06:28:23Z</time>
      </trkpt>
      <trkpt lat="50.76937" lon="2.88106">
        <ele>32.82</ele>
        <time>2019-07-21T06:28:24Z</time>
      </trkpt>
      <trkpt lat="50.76972" lon="2.87911">
        <ele>30.9</ele>
        <time>2019-07-21T06:28:41Z</time>
      </trkpt>
      <trkpt lat="50.7697" lon="2.87795">
        <ele>33.78</ele>
        <time>2019-07-21T06:28:52Z</time>
      </trkpt>
      <trkpt lat="50.76969" lon="2.87785">
        <ele>33.78</ele>
        <time>2019-07-21T06:28:53Z</time>
      </trkpt>
      <trkpt lat="50.7697" lon="2.87714">
        <ele>34.26</ele>
        <time>2019-07-21T06:29:00Z</time>
      </trkpt>
      <trkpt lat="50.77006" lon="2.87586">
        <ele>37.63</ele>
        <time>2019-07-21T06:29:15Z</time>
      </trkpt>
      <trkpt lat="50.77049" lon="2.87442">
        <ele>40.99</ele>
        <time>2019-07-21T06:29:32Z</time>
      </trkpt>
      <trkpt lat="50.77077" lon="2.87302">
        <ele>43.4</ele>
        <time>2019-07-21T06:29:48Z</time>
      </trkpt>
      <trkpt lat="50.77114" lon="2.87193">
        <ele>44.84</ele>
        <time>2019-07-21T06:30:02Z</time>
      </trkpt>
      <trkpt lat="50.77151" lon="2.87041">
        <ele>45.8</ele>
        <time>2019-07-21T06:30:19Z</time>
      </trkpt>
      <trkpt lat="50.7717" lon="2.86992">
        <ele>45.8</ele>
        <time>2019-07-21T06:30:25Z</time>
      </trkpt>
      <trkpt lat="50.77231" lon="2.86877">
        <ele>48.2</ele>
        <time>2019-07-21T06:30:41Z</time>
      </trkpt>
      <trkpt lat="50.77249" lon="2.86837">
        <ele>50.13</ele>
        <time>2019-07-21T06:30:46Z</time>
      </trkpt>
      <trkpt lat="50.77253" lon="2.8683">
        <ele>50.13</ele>
        <time>2019-07-21T06:30:47Z</time>
      </trkpt>
      <trkpt lat="50.77257" lon="2.86825">
        <ele>50.61</ele>
        <time>2019-07-21T06:30:48Z</time>
      </trkpt>
      <trkpt lat="50.77311" lon="2.86735">
        <ele>53.49</ele>
        <time>2019-07-21T06:31:01Z</time>
      </trkpt>
      <trkpt lat="50.77333" lon="2.86692">
        <ele>54.93</ele>
        <time>2019-07-21T06:31:07Z</time>
      </trkpt>
      <trkpt lat="50.77335" lon="2.86684">
        <ele>55.41</ele>
        <time>2019-07-21T06:31:08Z</time>
      </trkpt>
      <trkpt lat="50.77337" lon="2.86675">
        <ele>55.41</ele>
        <time>2019-07-21T06:31:09Z</time>
      </trkpt>
      <trkpt lat="50.77348" lon="2.86578">
        <ele>57.82</ele>
        <time>2019-07-21T06:31:20Z</time>
      </trkpt>
      <trkpt lat="50.7735" lon="2.8657">
        <ele>57.82</ele>
        <time>2019-07-21T06:31:21Z</time>
      </trkpt>
      <trkpt lat="50.77375" lon="2.86499">
        <ele>60.22</ele>
        <time>2019-07-21T06:31:33Z</time>
      </trkpt>
      <trkpt lat="50.77414" lon="2.864">
        <ele>63.58</ele>
        <time>2019-07-21T06:31:46Z</time>
      </trkpt>
      <trkpt lat="50.77469" lon="2.86325">
        <ele>65.51</ele>
        <time>2019-07-21T06:31:59Z</time>
      </trkpt>
      <trkpt lat="50.77522" lon="2.86272">
        <ele>68.39</ele>
        <time>2019-07-21T06:32:10Z</time>
      </trkpt>
      <trkpt lat="50.77526" lon="2.86267">
        <ele>68.39</ele>
        <time>2019-07-21T06:32:11Z</time>
      </trkpt>
      <trkpt lat="50.77529" lon="2.86261">
        <ele>68.87</ele>
        <time>2019-07-21T06:32:12Z</time>
      </trkpt>
      <trkpt lat="50.77532" lon="2.86252">
        <ele>68.87</ele>
        <time>2019-07-21T06:32:13Z</time>
      </trkpt>
      <trkpt lat="50.77534" lon="2.86245">
        <ele>68.87</ele>
        <time>2019-07-21T06:32:14Z</time>
      </trkpt>
      <trkpt lat="50.77536" lon="2.86236">
        <ele>68.87</ele>
        <time>2019-07-21T06:32:15Z</time>
      </trkpt>
      <trkpt lat="50.77547" lon="2.86168">
        <ele>69.35</ele>
        <time>2019-07-21T06:32:23Z</time>
      </trkpt>
      <trkpt lat="50.7755" lon="2.8616">
        <ele>69.35</ele>
        <time>2019-07-21T06:32:24Z</time>
      </trkpt>
      <trkpt lat="50.77553" lon="2.86151">
        <ele>69.35</ele>
        <time>2019-07-21T06:32:25Z</time>
      </trkpt>
      <trkpt lat="50.77555" lon="2.86143">
        <ele>69.35</ele>
        <time>2019-07-21T06:32:26Z</time>
      </trkpt>
      <trkpt lat="50.77559" lon="2.86135">
        <ele>69.35</ele>
        <time>2019-07-21T06:32:27Z</time>
      </trkpt>
      <trkpt lat="50.77574" lon="2.86108">
        <ele>69.35</ele>
        <time>2019-07-21T06:32:31Z</time>
      </trkpt>
      <trkpt lat="50.77579" lon="2.86104">
        <ele>69.35</ele>
        <time>2019-07-21T06:32:32Z</time>
      </trkpt>
      <trkpt lat="50.77584" lon="2.861">
        <ele>69.35</ele>
        <time>2019-07-21T06:32:33Z</time>
      </trkpt>
      <trkpt lat="50.77589" lon="2.86096">
        <ele>69.35</ele>
        <time>2019-07-21T06:32:34Z</time>
      </trkpt>
      <trkpt lat="50.77594" lon="2.86091">
        <ele>69.35</ele>
        <time>2019-07-21T06:32:35Z</time>
      </trkpt>
      <trkpt lat="50.77598" lon="2.86085">
        <ele>69.35</ele>
        <time>2019-07-21T06:32:36Z</time>
      </trkpt>
      <trkpt lat="50.77602" lon="2.86076">
        <ele>69.35</ele>
        <time>2019-07-21T06:32:37Z</time>
      </trkpt>
      <trkpt lat="50.77605" lon="2.86068">
        <ele>69.35</ele>
        <time>2019-07-21T06:32:38Z</time>
      </trkpt>
      <trkpt lat="50.77607" lon="2.86057">
        <ele>69.35</ele>
        <time>2019-07-21T06:32:39Z</time>
      </trkpt>
      <trkpt lat="50.77609" lon="2.86048">
        <ele>69.35</ele>
        <time>2019-07-21T06:32:40Z</time>
      </trkpt>
      <trkpt lat="50.77648" lon="2.85899">
        <ele>67.43</ele>
        <time>2019-07-21T06:32:55Z</time>
      </trkpt>
      <trkpt lat="50.77657" lon="2.85882">
        <ele>66.95</ele>
        <time>2019-07-21T06:32:57Z</time>
      </trkpt>
      <trkpt lat="50.77662" lon="2.85874">
        <ele>66.95</ele>
        <time>2019-07-21T06:32:58Z</time>
      </trkpt>
      <trkpt lat="50.77668" lon="2.85868">
        <ele>66.95</ele>
        <time>2019-07-21T06:32:59Z</time>
      </trkpt>
      <trkpt lat="50.77674" lon="2.85863">
        <ele>66.95</ele>
        <time>2019-07-21T06:33:00Z</time>
      </trkpt>
      <trkpt lat="50.77681" lon="2.85859">
        <ele>66.95</ele>
        <time>2019-07-21T06:33:01Z</time>
      </trkpt>
      <trkpt lat="50.77687" lon="2.85856">
        <ele>66.95</ele>
        <time>2019-07-21T06:33:02Z</time>
      </trkpt>
      <trkpt lat="50.77694" lon="2.85855">
        <ele>66.95</ele>
        <time>2019-07-21T06:33:03Z</time>
      </trkpt>
      <trkpt lat="50.77701" lon="2.85854">
        <ele>66.95</ele>
        <time>2019-07-21T06:33:04Z</time>
      </trkpt>
      <trkpt lat="50.77809" lon="2.85833">
        <ele>64.55</ele>
        <time>2019-07-21T06:33:18Z</time>
      </trkpt>
      <trkpt lat="50.77839" lon="2.85819">
        <ele>63.58</ele>
        <time>2019-07-21T06:33:22Z</time>
      </trkpt>
      <trkpt lat="50.77848" lon="2.85817">
        <ele>63.1</ele>
        <time>2019-07-21T06:33:23Z</time>
      </trkpt>
      <trkpt lat="50.77914" lon="2.85809">
        <ele>59.74</ele>
        <time>2019-07-21T06:33:31Z</time>
      </trkpt>
      <trkpt lat="50.77938" lon="2.85803">
        <ele>58.78</ele>
        <time>2019-07-21T06:33:37Z</time>
      </trkpt>
      <trkpt lat="50.7794" lon="2.85798">
        <ele>58.78</ele>
        <time>2019-07-21T06:33:38Z</time>
      </trkpt>
      <trkpt lat="50.77941" lon="2.85791">
        <ele>58.78</ele>
        <time>2019-07-21T06:33:39Z</time>
      </trkpt>
      <trkpt lat="50.77941" lon="2.85783">
        <ele>58.78</ele>
        <time>2019-07-21T06:33:40Z</time>
      </trkpt>
      <trkpt lat="50.77941" lon="2.85775">
        <ele>58.78</ele>
        <time>2019-07-21T06:33:41Z</time>
      </trkpt>
      <trkpt lat="50.7794" lon="2.85766">
        <ele>58.78</ele>
        <time>2019-07-21T06:33:42Z</time>
      </trkpt>
      <trkpt lat="50.77938" lon="2.85756">
        <ele>58.78</ele>
        <time>2019-07-21T06:33:43Z</time>
      </trkpt>
      <trkpt lat="50.77936" lon="2.85747">
        <ele>58.78</ele>
        <time>2019-07-21T06:33:44Z</time>
      </trkpt>
      <trkpt lat="50.77912" lon="2.85612">
        <ele>61.66</ele>
        <time>2019-07-21T06:33:58Z</time>
      </trkpt>
      <trkpt lat="50.77905" lon="2.85489">
        <ele>62.62</ele>
        <time>2019-07-21T06:34:11Z</time>
      </trkpt>
      <trkpt lat="50.77903" lon="2.85481">
        <ele>62.62</ele>
        <time>2019-07-21T06:34:12Z</time>
      </trkpt>
      <trkpt lat="50.77899" lon="2.85474">
        <ele>62.62</ele>
        <time>2019-07-21T06:34:13Z</time>
      </trkpt>
      <trkpt lat="50.77894" lon="2.8547">
        <ele>62.62</ele>
        <time>2019-07-21T06:34:14Z</time>
      </trkpt>
      <trkpt lat="50.77889" lon="2.85467">
        <ele>62.62</ele>
        <time>2019-07-21T06:34:15Z</time>
      </trkpt>
      <trkpt lat="50.77883" lon="2.85467">
        <ele>63.58</ele>
        <time>2019-07-21T06:34:16Z</time>
      </trkpt>
      <trkpt lat="50.77877" lon="2.85469">
        <ele>63.58</ele>
        <time>2019-07-21T06:34:17Z</time>
      </trkpt>
      <trkpt lat="50.77871" lon="2.85471">
        <ele>63.58</ele>
        <time>2019-07-21T06:34:18Z</time>
      </trkpt>
      <trkpt lat="50.77812" lon="2.85476">
        <ele>65.99</ele>
        <time>2019-07-21T06:34:27Z</time>
      </trkpt>
      <trkpt lat="50.77807" lon="2.85471">
        <ele>66.47</ele>
        <time>2019-07-21T06:34:28Z</time>
      </trkpt>
      <trkpt lat="50.77804" lon="2.85464">
        <ele>66.47</ele>
        <time>2019-07-21T06:34:29Z</time>
      </trkpt>
      <trkpt lat="50.77802" lon="2.85458">
        <ele>66.47</ele>
        <time>2019-07-21T06:34:30Z</time>
      </trkpt>
      <trkpt lat="50.77801" lon="2.8545">
        <ele>66.47</ele>
        <time>2019-07-21T06:34:31Z</time>
      </trkpt>
      <trkpt lat="50.77801" lon="2.85443">
        <ele>66.47</ele>
        <time>2019-07-21T06:34:32Z</time>
      </trkpt>
      <trkpt lat="50.77799" lon="2.85436">
        <ele>66.95</ele>
        <time>2019-07-21T06:34:33Z</time>
      </trkpt>
      <trkpt lat="50.77798" lon="2.85429">
        <ele>66.95</ele>
        <time>2019-07-21T06:34:34Z</time>
      </trkpt>
      <trkpt lat="50.77782" lon="2.85294">
        <ele>67.43</ele>
        <time>2019-07-21T06:34:51Z</time>
      </trkpt>
      <trkpt lat="50.77781" lon="2.85245">
        <ele>66.47</ele>
        <time>2019-07-21T06:34:56Z</time>
      </trkpt>
      <trkpt lat="50.77776" lon="2.85059">
        <ele>65.03</ele>
        <time>2019-07-21T06:35:14Z</time>
      </trkpt>
      <trkpt lat="50.77743" lon="2.84867">
        <ele>63.1</ele>
        <time>2019-07-21T06:35:31Z</time>
      </trkpt>
      <trkpt lat="50.77696" lon="2.8468">
        <ele>61.18</ele>
        <time>2019-07-21T06:35:48Z</time>
      </trkpt>
      <trkpt lat="50.77649" lon="2.84472">
        <ele>60.22</ele>
        <time>2019-07-21T06:36:07Z</time>
      </trkpt>
      <trkpt lat="50.77594" lon="2.84272">
        <ele>59.74</ele>
        <time>2019-07-21T06:36:26Z</time>
      </trkpt>
      <trkpt lat="50.77559" lon="2.84098">
        <ele>60.22</ele>
        <time>2019-07-21T06:36:42Z</time>
      </trkpt>
      <trkpt lat="50.77557" lon="2.84067">
        <ele>61.18</ele>
        <time>2019-07-21T06:36:45Z</time>
      </trkpt>
      <trkpt lat="50.77552" lon="2.83861">
        <ele>63.1</ele>
        <time>2019-07-21T06:37:05Z</time>
      </trkpt>
      <trkpt lat="50.77539" lon="2.837">
        <ele>65.03</ele>
        <time>2019-07-21T06:37:21Z</time>
      </trkpt>
      <trkpt lat="50.7754" lon="2.83557">
        <ele>65.03</ele>
        <time>2019-07-21T06:37:35Z</time>
      </trkpt>
      <trkpt lat="50.77557" lon="2.83361">
        <ele>65.99</ele>
        <time>2019-07-21T06:37:54Z</time>
      </trkpt>
      <trkpt lat="50.77571" lon="2.83179">
        <ele>66.95</ele>
        <time>2019-07-21T06:38:12Z</time>
      </trkpt>
      <trkpt lat="50.77581" lon="2.82984">
        <ele>69.35</ele>
        <time>2019-07-21T06:38:31Z</time>
      </trkpt>
      <trkpt lat="50.77583" lon="2.82801">
        <ele>72.24</ele>
        <time>2019-07-21T06:38:51Z</time>
      </trkpt>
      <trkpt lat="50.77584" lon="2.82772">
        <ele>70.79</ele>
        <time>2019-07-21T06:38:55Z</time>
      </trkpt>
      <trkpt lat="50.77586" lon="2.82764">
        <ele>70.79</ele>
        <time>2019-07-21T06:38:56Z</time>
      </trkpt>
      <trkpt lat="50.77589" lon="2.82692">
        <ele>72.24</ele>
        <time>2019-07-21T06:39:04Z</time>
      </trkpt>
      <trkpt lat="50.77607" lon="2.82567">
        <ele>74.16</ele>
        <time>2019-07-21T06:39:17Z</time>
      </trkpt>
      <trkpt lat="50.77631" lon="2.82419">
        <ele>75.6</ele>
        <time>2019-07-21T06:39:33Z</time>
      </trkpt>
      <trkpt lat="50.77652" lon="2.82284">
        <ele>78</ele>
        <time>2019-07-21T06:39:47Z</time>
      </trkpt>
      <trkpt lat="50.77677" lon="2.82128">
        <ele>80.41</ele>
        <time>2019-07-21T06:40:01Z</time>
      </trkpt>
      <trkpt lat="50.77688" lon="2.8209">
        <ele>81.85</ele>
        <time>2019-07-21T06:40:05Z</time>
      </trkpt>
      <trkpt lat="50.77691" lon="2.82083">
        <ele>81.85</ele>
        <time>2019-07-21T06:40:06Z</time>
      </trkpt>
      <trkpt lat="50.77696" lon="2.82079">
        <ele>81.85</ele>
        <time>2019-07-21T06:40:07Z</time>
      </trkpt>
      <trkpt lat="50.77701" lon="2.8208">
        <ele>81.85</ele>
        <time>2019-07-21T06:40:08Z</time>
      </trkpt>
      <trkpt lat="50.77707" lon="2.82083">
        <ele>81.85</ele>
        <time>2019-07-21T06:40:09Z</time>
      </trkpt>
      <trkpt lat="50.77753" lon="2.82097">
        <ele>78.97</ele>
        <time>2019-07-21T06:40:15Z</time>
      </trkpt>
      <trkpt lat="50.77761" lon="2.82101">
        <ele>78.48</ele>
        <time>2019-07-21T06:40:16Z</time>
      </trkpt>
      <trkpt lat="50.77769" lon="2.82105">
        <ele>78.48</ele>
        <time>2019-07-21T06:40:17Z</time>
      </trkpt>
      <trkpt lat="50.77777" lon="2.82107">
        <ele>78</ele>
        <time>2019-07-21T06:40:18Z</time>
      </trkpt>
      <trkpt lat="50.77824" lon="2.82115">
        <ele>78</ele>
        <time>2019-07-21T06:40:25Z</time>
      </trkpt>
      <trkpt lat="50.77836" lon="2.82113">
        <ele>78.97</ele>
        <time>2019-07-21T06:40:27Z</time>
      </trkpt>
      <trkpt lat="50.77841" lon="2.82111">
        <ele>78.97</ele>
        <time>2019-07-21T06:40:28Z</time>
      </trkpt>
      <trkpt lat="50.77849" lon="2.82105">
        <ele>79.45</ele>
        <time>2019-07-21T06:40:30Z</time>
      </trkpt>
      <trkpt lat="50.77852" lon="2.82102">
        <ele>79.45</ele>
        <time>2019-07-21T06:40:31Z</time>
      </trkpt>
      <trkpt lat="50.77854" lon="2.82098">
        <ele>79.45</ele>
        <time>2019-07-21T06:40:32Z</time>
      </trkpt>
      <trkpt lat="50.77856" lon="2.82095">
        <ele>79.45</ele>
        <time>2019-07-21T06:40:33Z</time>
      </trkpt>
      <trkpt lat="50.77858" lon="2.82091">
        <ele>79.45</ele>
        <time>2019-07-21T06:40:42Z</time>
      </trkpt>
      <trkpt lat="50.7786" lon="2.82089">
        <ele>79.45</ele>
        <time>2019-07-21T06:40:43Z</time>
      </trkpt>
      <trkpt lat="50.77862" lon="2.82086">
        <ele>79.45</ele>
        <time>2019-07-21T06:40:44Z</time>
      </trkpt>
      <trkpt lat="50.77874" lon="2.82074">
        <ele>79.45</ele>
        <time>2019-07-21T06:40:47Z</time>
      </trkpt>
      <trkpt lat="50.77878" lon="2.8207">
        <ele>79.45</ele>
        <time>2019-07-21T06:40:48Z</time>
      </trkpt>
      <trkpt lat="50.77883" lon="2.82064">
        <ele>79.45</ele>
        <time>2019-07-21T06:40:49Z</time>
      </trkpt>
      <trkpt lat="50.77948" lon="2.82021">
        <ele>82.81</ele>
        <time>2019-07-21T06:41:02Z</time>
      </trkpt>
      <trkpt lat="50.77953" lon="2.82019">
        <ele>82.81</ele>
        <time>2019-07-21T06:41:03Z</time>
      </trkpt>
      <trkpt lat="50.77959" lon="2.82016">
        <ele>83.29</ele>
        <time>2019-07-21T06:41:04Z</time>
      </trkpt>
      <trkpt lat="50.78006" lon="2.81986">
        <ele>86.18</ele>
        <time>2019-07-21T06:41:13Z</time>
      </trkpt>
      <trkpt lat="50.78011" lon="2.81981">
        <ele>87.14</ele>
        <time>2019-07-21T06:41:14Z</time>
      </trkpt>
      <trkpt lat="50.78016" lon="2.81976">
        <ele>87.62</ele>
        <time>2019-07-21T06:41:15Z</time>
      </trkpt>
      <trkpt lat="50.78024" lon="2.81964">
        <ele>89.06</ele>
        <time>2019-07-21T06:41:17Z</time>
      </trkpt>
      <trkpt lat="50.78028" lon="2.81957">
        <ele>89.54</ele>
        <time>2019-07-21T06:41:18Z</time>
      </trkpt>
      <trkpt lat="50.78031" lon="2.8195">
        <ele>90.5</ele>
        <time>2019-07-21T06:41:19Z</time>
      </trkpt>
      <trkpt lat="50.78034" lon="2.81942">
        <ele>90.98</ele>
        <time>2019-07-21T06:41:20Z</time>
      </trkpt>
      <trkpt lat="50.78036" lon="2.81935">
        <ele>90.98</ele>
        <time>2019-07-21T06:41:21Z</time>
      </trkpt>
      <trkpt lat="50.78039" lon="2.81928">
        <ele>90.98</ele>
        <time>2019-07-21T06:41:22Z</time>
      </trkpt>
      <trkpt lat="50.78042" lon="2.81921">
        <ele>91.46</ele>
        <time>2019-07-21T06:41:23Z</time>
      </trkpt>
      <trkpt lat="50.78049" lon="2.81909">
        <ele>91.46</ele>
        <time>2019-07-21T06:41:25Z</time>
      </trkpt>
      <trkpt lat="50.78052" lon="2.81903">
        <ele>91.46</ele>
        <time>2019-07-21T06:41:26Z</time>
      </trkpt>
      <trkpt lat="50.78055" lon="2.81897">
        <ele>91.46</ele>
        <time>2019-07-21T06:41:27Z</time>
      </trkpt>
      <trkpt lat="50.7809" lon="2.81858">
        <ele>91.46</ele>
        <time>2019-07-21T06:41:36Z</time>
      </trkpt>
      <trkpt lat="50.78094" lon="2.81853">
        <ele>91.46</ele>
        <time>2019-07-21T06:41:37Z</time>
      </trkpt>
      <trkpt lat="50.78099" lon="2.81847">
        <ele>91.46</ele>
        <time>2019-07-21T06:41:38Z</time>
      </trkpt>
      <trkpt lat="50.78112" lon="2.81826">
        <ele>88.1</ele>
        <time>2019-07-21T06:41:41Z</time>
      </trkpt>
      <trkpt lat="50.78117" lon="2.81818">
        <ele>87.62</ele>
        <time>2019-07-21T06:41:42Z</time>
      </trkpt>
      <trkpt lat="50.78127" lon="2.81804">
        <ele>86.18</ele>
        <time>2019-07-21T06:41:44Z</time>
      </trkpt>
      <trkpt lat="50.78139" lon="2.81792">
        <ele>84.25</ele>
        <time>2019-07-21T06:41:46Z</time>
      </trkpt>
      <trkpt lat="50.78146" lon="2.81786">
        <ele>83.77</ele>
        <time>2019-07-21T06:41:47Z</time>
      </trkpt>
      <trkpt lat="50.78189" lon="2.81749">
        <ele>81.37</ele>
        <time>2019-07-21T06:41:53Z</time>
      </trkpt>
      <trkpt lat="50.78193" lon="2.81742">
        <ele>80.89</ele>
        <time>2019-07-21T06:41:54Z</time>
      </trkpt>
      <trkpt lat="50.78219" lon="2.81709">
        <ele>79.45</ele>
        <time>2019-07-21T06:42:02Z</time>
      </trkpt>
      <trkpt lat="50.78226" lon="2.81695">
        <ele>78.97</ele>
        <time>2019-07-21T06:42:06Z</time>
      </trkpt>
      <trkpt lat="50.78233" lon="2.81665">
        <ele>78.97</ele>
        <time>2019-07-21T06:42:10Z</time>
      </trkpt>
      <trkpt lat="50.78238" lon="2.81611">
        <ele>78.97</ele>
        <time>2019-07-21T06:42:16Z</time>
      </trkpt>
      <trkpt lat="50.78245" lon="2.81529">
        <ele>80.89</ele>
        <time>2019-07-21T06:42:25Z</time>
      </trkpt>
      <trkpt lat="50.78245" lon="2.81493">
        <ele>81.85</ele>
        <time>2019-07-21T06:42:29Z</time>
      </trkpt>
      <trkpt lat="50.78239" lon="2.81444">
        <ele>83.77</ele>
        <time>2019-07-21T06:42:35Z</time>
      </trkpt>
      <trkpt lat="50.78234" lon="2.81389">
        <ele>86.66</ele>
        <time>2019-07-21T06:42:42Z</time>
      </trkpt>
      <trkpt lat="50.78234" lon="2.81381">
        <ele>86.66</ele>
        <time>2019-07-21T06:42:43Z</time>
      </trkpt>
      <trkpt lat="50.78234" lon="2.81373">
        <ele>87.62</ele>
        <time>2019-07-21T06:42:44Z</time>
      </trkpt>
      <trkpt lat="50.78235" lon="2.81357">
        <ele>88.1</ele>
        <time>2019-07-21T06:42:46Z</time>
      </trkpt>
      <trkpt lat="50.78237" lon="2.81326">
        <ele>90.5</ele>
        <time>2019-07-21T06:42:50Z</time>
      </trkpt>
      <trkpt lat="50.78236" lon="2.81309">
        <ele>90.98</ele>
        <time>2019-07-21T06:42:52Z</time>
      </trkpt>
      <trkpt lat="50.78233" lon="2.81284">
        <ele>91.46</ele>
        <time>2019-07-21T06:42:55Z</time>
      </trkpt>
      <trkpt lat="50.78227" lon="2.8126">
        <ele>90.98</ele>
        <time>2019-07-21T06:42:58Z</time>
      </trkpt>
      <trkpt lat="50.78219" lon="2.81211">
        <ele>89.06</ele>
        <time>2019-07-21T06:43:03Z</time>
      </trkpt>
      <trkpt lat="50.78215" lon="2.8113">
        <ele>85.69</ele>
        <time>2019-07-21T06:43:09Z</time>
      </trkpt>
      <trkpt lat="50.78216" lon="2.81066">
        <ele>82.33</ele>
        <time>2019-07-21T06:43:13Z</time>
      </trkpt>
      <trkpt lat="50.78222" lon="2.80987">
        <ele>79.45</ele>
        <time>2019-07-21T06:43:18Z</time>
      </trkpt>
      <trkpt lat="50.78226" lon="2.8087">
        <ele>76.08</ele>
        <time>2019-07-21T06:43:27Z</time>
      </trkpt>
      <trkpt lat="50.78228" lon="2.80731">
        <ele>77.52</ele>
        <time>2019-07-21T06:43:39Z</time>
      </trkpt>
      <trkpt lat="50.78208" lon="2.80581">
        <ele>78.97</ele>
        <time>2019-07-21T06:43:54Z</time>
      </trkpt>
      <trkpt lat="50.78178" lon="2.80437">
        <ele>78</ele>
        <time>2019-07-21T06:44:08Z</time>
      </trkpt>
      <trkpt lat="50.78137" lon="2.80271">
        <ele>77.52</ele>
        <time>2019-07-21T06:44:24Z</time>
      </trkpt>
      <trkpt lat="50.78115" lon="2.80199">
        <ele>77.04</ele>
        <time>2019-07-21T06:44:31Z</time>
      </trkpt>
      <trkpt lat="50.7811" lon="2.8019">
        <ele>77.04</ele>
        <time>2019-07-21T06:44:32Z</time>
      </trkpt>
      <trkpt lat="50.78065" lon="2.80107">
        <ele>76.08</ele>
        <time>2019-07-21T06:44:42Z</time>
      </trkpt>
      <trkpt lat="50.78062" lon="2.80097">
        <ele>75.6</ele>
        <time>2019-07-21T06:44:43Z</time>
      </trkpt>
      <trkpt lat="50.78062" lon="2.80087">
        <ele>75.12</ele>
        <time>2019-07-21T06:44:44Z</time>
      </trkpt>
      <trkpt lat="50.78063" lon="2.80076">
        <ele>75.12</ele>
        <time>2019-07-21T06:44:45Z</time>
      </trkpt>
      <trkpt lat="50.78064" lon="2.80066">
        <ele>74.64</ele>
        <time>2019-07-21T06:44:46Z</time>
      </trkpt>
      <trkpt lat="50.78067" lon="2.80056">
        <ele>74.64</ele>
        <time>2019-07-21T06:44:47Z</time>
      </trkpt>
      <trkpt lat="50.7807" lon="2.80046">
        <ele>74.16</ele>
        <time>2019-07-21T06:44:48Z</time>
      </trkpt>
      <trkpt lat="50.78074" lon="2.80037">
        <ele>74.16</ele>
        <time>2019-07-21T06:44:49Z</time>
      </trkpt>
      <trkpt lat="50.78077" lon="2.80026">
        <ele>74.16</ele>
        <time>2019-07-21T06:44:50Z</time>
      </trkpt>
      <trkpt lat="50.78141" lon="2.79826">
        <ele>71.76</ele>
        <time>2019-07-21T06:45:09Z</time>
      </trkpt>
      <trkpt lat="50.78199" lon="2.79638">
        <ele>70.79</ele>
        <time>2019-07-21T06:45:27Z</time>
      </trkpt>
      <trkpt lat="50.78252" lon="2.79468">
        <ele>70.79</ele>
        <time>2019-07-21T06:45:44Z</time>
      </trkpt>
      <trkpt lat="50.78318" lon="2.79293">
        <ele>68.39</ele>
        <time>2019-07-21T06:46:01Z</time>
      </trkpt>
      <trkpt lat="50.784" lon="2.79103">
        <ele>68.87</ele>
        <time>2019-07-21T06:46:21Z</time>
      </trkpt>
      <trkpt lat="50.78445" lon="2.79028">
        <ele>67.91</ele>
        <time>2019-07-21T06:46:30Z</time>
      </trkpt>
      <trkpt lat="50.78521" lon="2.78902">
        <ele>65.03</ele>
        <time>2019-07-21T06:46:44Z</time>
      </trkpt>
      <trkpt lat="50.78572" lon="2.78777">
        <ele>65.03</ele>
        <time>2019-07-21T06:46:56Z</time>
      </trkpt>
      <trkpt lat="50.78577" lon="2.78767">
        <ele>65.03</ele>
        <time>2019-07-21T06:46:57Z</time>
      </trkpt>
      <trkpt lat="50.78582" lon="2.78759">
        <ele>65.03</ele>
        <time>2019-07-21T06:46:58Z</time>
      </trkpt>
      <trkpt lat="50.78598" lon="2.78736">
        <ele>66.47</ele>
        <time>2019-07-21T06:47:01Z</time>
      </trkpt>
      <trkpt lat="50.78665" lon="2.78609">
        <ele>68.39</ele>
        <time>2019-07-21T06:47:16Z</time>
      </trkpt>
      <trkpt lat="50.78744" lon="2.78409">
        <ele>69.35</ele>
        <time>2019-07-21T06:47:38Z</time>
      </trkpt>
      <trkpt lat="50.78765" lon="2.78357">
        <ele>71.27</ele>
        <time>2019-07-21T06:47:44Z</time>
      </trkpt>
      <trkpt lat="50.78791" lon="2.78216">
        <ele>73.68</ele>
        <time>2019-07-21T06:47:59Z</time>
      </trkpt>
      <trkpt lat="50.78809" lon="2.78076">
        <ele>74.16</ele>
        <time>2019-07-21T06:48:14Z</time>
      </trkpt>
      <trkpt lat="50.78852" lon="2.77969">
        <ele>74.64</ele>
        <time>2019-07-21T06:48:27Z</time>
      </trkpt>
      <trkpt lat="50.78854" lon="2.7796">
        <ele>74.64</ele>
        <time>2019-07-21T06:48:28Z</time>
      </trkpt>
      <trkpt lat="50.78856" lon="2.7795">
        <ele>74.64</ele>
        <time>2019-07-21T06:48:29Z</time>
      </trkpt>
      <trkpt lat="50.78888" lon="2.77785">
        <ele>77.04</ele>
        <time>2019-07-21T06:48:47Z</time>
      </trkpt>
      <trkpt lat="50.78921" lon="2.77696">
        <ele>80.41</ele>
        <time>2019-07-21T06:48:59Z</time>
      </trkpt>
      <trkpt lat="50.78931" lon="2.77671">
        <ele>81.37</ele>
        <time>2019-07-21T06:49:04Z</time>
      </trkpt>
      <trkpt lat="50.7893" lon="2.77665">
        <ele>82.33</ele>
        <time>2019-07-21T06:49:05Z</time>
      </trkpt>
      <trkpt lat="50.78927" lon="2.77659">
        <ele>82.81</ele>
        <time>2019-07-21T06:49:06Z</time>
      </trkpt>
      <trkpt lat="50.78924" lon="2.77654">
        <ele>82.81</ele>
        <time>2019-07-21T06:49:07Z</time>
      </trkpt>
      <trkpt lat="50.78921" lon="2.77649">
        <ele>83.29</ele>
        <time>2019-07-21T06:49:08Z</time>
      </trkpt>
      <trkpt lat="50.78916" lon="2.77643">
        <ele>82.81</ele>
        <time>2019-07-21T06:49:09Z</time>
      </trkpt>
      <trkpt lat="50.78891" lon="2.77599">
        <ele>83.77</ele>
        <time>2019-07-21T06:49:16Z</time>
      </trkpt>
      <trkpt lat="50.78887" lon="2.77584">
        <ele>83.77</ele>
        <time>2019-07-21T06:49:18Z</time>
      </trkpt>
      <trkpt lat="50.78858" lon="2.77456">
        <ele>86.18</ele>
        <time>2019-07-21T06:49:34Z</time>
      </trkpt>
      <trkpt lat="50.78815" lon="2.77349">
        <ele>85.69</ele>
        <time>2019-07-21T06:49:48Z</time>
      </trkpt>
      <trkpt lat="50.78773" lon="2.77202">
        <ele>83.77</ele>
        <time>2019-07-21T06:50:04Z</time>
      </trkpt>
      <trkpt lat="50.78765" lon="2.77187">
        <ele>83.77</ele>
        <time>2019-07-21T06:50:06Z</time>
      </trkpt>
      <trkpt lat="50.7876" lon="2.7718">
        <ele>83.77</ele>
        <time>2019-07-21T06:50:07Z</time>
      </trkpt>
      <trkpt lat="50.78755" lon="2.77174">
        <ele>83.77</ele>
        <time>2019-07-21T06:50:08Z</time>
      </trkpt>
      <trkpt lat="50.78716" lon="2.7713">
        <ele>83.29</ele>
        <time>2019-07-21T06:50:16Z</time>
      </trkpt>
      <trkpt lat="50.78713" lon="2.77125">
        <ele>82.81</ele>
        <time>2019-07-21T06:50:17Z</time>
      </trkpt>
      <trkpt lat="50.78711" lon="2.77119">
        <ele>82.81</ele>
        <time>2019-07-21T06:50:18Z</time>
      </trkpt>
      <trkpt lat="50.78707" lon="2.77111">
        <ele>82.81</ele>
        <time>2019-07-21T06:50:20Z</time>
      </trkpt>
      <trkpt lat="50.78704" lon="2.77108">
        <ele>82.81</ele>
        <time>2019-07-21T06:50:21Z</time>
      </trkpt>
      <trkpt lat="50.787" lon="2.77106">
        <ele>82.81</ele>
        <time>2019-07-21T06:50:22Z</time>
      </trkpt>
      <trkpt lat="50.78696" lon="2.77104">
        <ele>82.81</ele>
        <time>2019-07-21T06:50:23Z</time>
      </trkpt>
      <trkpt lat="50.78691" lon="2.77103">
        <ele>82.81</ele>
        <time>2019-07-21T06:50:24Z</time>
      </trkpt>
      <trkpt lat="50.78686" lon="2.77102">
        <ele>82.81</ele>
        <time>2019-07-21T06:50:25Z</time>
      </trkpt>
      <trkpt lat="50.78681" lon="2.77101">
        <ele>82.81</ele>
        <time>2019-07-21T06:50:26Z</time>
      </trkpt>
      <trkpt lat="50.78676" lon="2.77101">
        <ele>82.81</ele>
        <time>2019-07-21T06:50:27Z</time>
      </trkpt>
      <trkpt lat="50.78672" lon="2.77099">
        <ele>82.81</ele>
        <time>2019-07-21T06:50:28Z</time>
      </trkpt>
      <trkpt lat="50.7867" lon="2.77094">
        <ele>82.81</ele>
        <time>2019-07-21T06:50:29Z</time>
      </trkpt>
      <trkpt lat="50.78668" lon="2.77087">
        <ele>82.81</ele>
        <time>2019-07-21T06:50:30Z</time>
      </trkpt>
      <trkpt lat="50.78665" lon="2.77082">
        <ele>82.81</ele>
        <time>2019-07-21T06:50:31Z</time>
      </trkpt>
      <trkpt lat="50.78661" lon="2.77078">
        <ele>82.81</ele>
        <time>2019-07-21T06:50:32Z</time>
      </trkpt>
      <trkpt lat="50.78655" lon="2.77074">
        <ele>82.81</ele>
        <time>2019-07-21T06:50:33Z</time>
      </trkpt>
      <trkpt lat="50.7865" lon="2.7707">
        <ele>82.81</ele>
        <time>2019-07-21T06:50:34Z</time>
      </trkpt>
      <trkpt lat="50.78591" lon="2.77018">
        <ele>84.25</ele>
        <time>2019-07-21T06:50:45Z</time>
      </trkpt>
      <trkpt lat="50.78515" lon="2.76927">
        <ele>86.18</ele>
        <time>2019-07-21T06:51:01Z</time>
      </trkpt>
      <trkpt lat="50.78485" lon="2.76897">
        <ele>86.66</ele>
        <time>2019-07-21T06:51:07Z</time>
      </trkpt>
      <trkpt lat="50.78481" lon="2.76891">
        <ele>87.14</ele>
        <time>2019-07-21T06:51:08Z</time>
      </trkpt>
      <trkpt lat="50.78424" lon="2.76787">
        <ele>89.54</ele>
        <time>2019-07-21T06:51:23Z</time>
      </trkpt>
      <trkpt lat="50.78383" lon="2.76703">
        <ele>91.94</ele>
        <time>2019-07-21T06:51:35Z</time>
      </trkpt>
      <trkpt lat="50.7838" lon="2.76695">
        <ele>92.42</ele>
        <time>2019-07-21T06:51:36Z</time>
      </trkpt>
      <trkpt lat="50.78348" lon="2.76567">
        <ele>95.31</ele>
        <time>2019-07-21T06:51:51Z</time>
      </trkpt>
      <trkpt lat="50.78298" lon="2.76438">
        <ele>96.27</ele>
        <time>2019-07-21T06:52:07Z</time>
      </trkpt>
      <trkpt lat="50.78249" lon="2.76342">
        <ele>94.35</ele>
        <time>2019-07-21T06:52:19Z</time>
      </trkpt>
      <trkpt lat="50.78241" lon="2.76323">
        <ele>93.39</ele>
        <time>2019-07-21T06:52:21Z</time>
      </trkpt>
      <trkpt lat="50.78231" lon="2.76305">
        <ele>92.9</ele>
        <time>2019-07-21T06:52:23Z</time>
      </trkpt>
      <trkpt lat="50.78146" lon="2.76218">
        <ele>89.54</ele>
        <time>2019-07-21T06:52:36Z</time>
      </trkpt>
      <trkpt lat="50.78124" lon="2.76208">
        <ele>88.58</ele>
        <time>2019-07-21T06:52:39Z</time>
      </trkpt>
      <trkpt lat="50.78116" lon="2.76206">
        <ele>88.58</ele>
        <time>2019-07-21T06:52:40Z</time>
      </trkpt>
      <trkpt lat="50.78078" lon="2.76203">
        <ele>86.18</ele>
        <time>2019-07-21T06:52:46Z</time>
      </trkpt>
      <trkpt lat="50.78074" lon="2.76201">
        <ele>86.18</ele>
        <time>2019-07-21T06:52:47Z</time>
      </trkpt>
      <trkpt lat="50.78072" lon="2.76198">
        <ele>85.69</ele>
        <time>2019-07-21T06:52:48Z</time>
      </trkpt>
      <trkpt lat="50.78071" lon="2.76192">
        <ele>85.69</ele>
        <time>2019-07-21T06:52:49Z</time>
      </trkpt>
      <trkpt lat="50.78072" lon="2.76186">
        <ele>85.69</ele>
        <time>2019-07-21T06:52:50Z</time>
      </trkpt>
      <trkpt lat="50.78074" lon="2.7618">
        <ele>86.18</ele>
        <time>2019-07-21T06:52:51Z</time>
      </trkpt>
      <trkpt lat="50.78077" lon="2.76174">
        <ele>86.18</ele>
        <time>2019-07-21T06:52:52Z</time>
      </trkpt>
      <trkpt lat="50.7808" lon="2.76168">
        <ele>86.18</ele>
        <time>2019-07-21T06:52:53Z</time>
      </trkpt>
      <trkpt lat="50.78092" lon="2.76142">
        <ele>87.62</ele>
        <time>2019-07-21T06:52:57Z</time>
      </trkpt>
      <trkpt lat="50.78094" lon="2.76134">
        <ele>87.62</ele>
        <time>2019-07-21T06:52:58Z</time>
      </trkpt>
      <trkpt lat="50.78095" lon="2.76126">
        <ele>88.1</ele>
        <time>2019-07-21T06:52:59Z</time>
      </trkpt>
      <trkpt lat="50.78095" lon="2.76118">
        <ele>88.1</ele>
        <time>2019-07-21T06:53:00Z</time>
      </trkpt>
      <trkpt lat="50.78095" lon="2.7611">
        <ele>89.06</ele>
        <time>2019-07-21T06:53:01Z</time>
      </trkpt>
      <trkpt lat="50.78093" lon="2.76026">
        <ele>91.94</ele>
        <time>2019-07-21T06:53:12Z</time>
      </trkpt>
      <trkpt lat="50.78094" lon="2.76019">
        <ele>92.9</ele>
        <time>2019-07-21T06:53:13Z</time>
      </trkpt>
      <trkpt lat="50.78094" lon="2.76012">
        <ele>93.39</ele>
        <time>2019-07-21T06:53:14Z</time>
      </trkpt>
      <trkpt lat="50.78094" lon="2.76005">
        <ele>94.35</ele>
        <time>2019-07-21T06:53:15Z</time>
      </trkpt>
      <trkpt lat="50.78094" lon="2.75998">
        <ele>94.35</ele>
        <time>2019-07-21T06:53:16Z</time>
      </trkpt>
      <trkpt lat="50.78095" lon="2.75992">
        <ele>94.83</ele>
        <time>2019-07-21T06:53:17Z</time>
      </trkpt>
      <trkpt lat="50.78098" lon="2.75951">
        <ele>98.67</ele>
        <time>2019-07-21T06:53:23Z</time>
      </trkpt>
      <trkpt lat="50.78099" lon="2.75944">
        <ele>99.15</ele>
        <time>2019-07-21T06:53:24Z</time>
      </trkpt>
      <trkpt lat="50.78099" lon="2.75938">
        <ele>100.11</ele>
        <time>2019-07-21T06:53:25Z</time>
      </trkpt>
      <trkpt lat="50.78102" lon="2.75908">
        <ele>103.48</ele>
        <time>2019-07-21T06:53:30Z</time>
      </trkpt>
      <trkpt lat="50.78106" lon="2.75868">
        <ele>106.36</ele>
        <time>2019-07-21T06:53:36Z</time>
      </trkpt>
      <trkpt lat="50.78108" lon="2.75842">
        <ele>107.32</ele>
        <time>2019-07-21T06:53:40Z</time>
      </trkpt>
      <trkpt lat="50.78109" lon="2.75834">
        <ele>106.84</ele>
        <time>2019-07-21T06:53:41Z</time>
      </trkpt>
      <trkpt lat="50.78123" lon="2.75768">
        <ele>106.84</ele>
        <time>2019-07-21T06:53:50Z</time>
      </trkpt>
      <trkpt lat="50.78123" lon="2.75734">
        <ele>106.84</ele>
        <time>2019-07-21T06:53:55Z</time>
      </trkpt>
      <trkpt lat="50.78123" lon="2.75727">
        <ele>106.84</ele>
        <time>2019-07-21T06:53:56Z</time>
      </trkpt>
      <trkpt lat="50.78122" lon="2.75712">
        <ele>106.84</ele>
        <time>2019-07-21T06:53:58Z</time>
      </trkpt>
      <trkpt lat="50.78121" lon="2.75704">
        <ele>106.84</ele>
        <time>2019-07-21T06:53:59Z</time>
      </trkpt>
      <trkpt lat="50.7812" lon="2.75695">
        <ele>105.88</ele>
        <time>2019-07-21T06:54:00Z</time>
      </trkpt>
      <trkpt lat="50.78118" lon="2.75687">
        <ele>105.88</ele>
        <time>2019-07-21T06:54:01Z</time>
      </trkpt>
      <trkpt lat="50.78117" lon="2.75678">
        <ele>105.88</ele>
        <time>2019-07-21T06:54:02Z</time>
      </trkpt>
      <trkpt lat="50.78115" lon="2.75654">
        <ele>105.88</ele>
        <time>2019-07-21T06:54:05Z</time>
      </trkpt>
      <trkpt lat="50.78108" lon="2.75612">
        <ele>105.4</ele>
        <time>2019-07-21T06:54:11Z</time>
      </trkpt>
      <trkpt lat="50.78106" lon="2.75604">
        <ele>104.92</ele>
        <time>2019-07-21T06:54:12Z</time>
      </trkpt>
      <trkpt lat="50.781" lon="2.75589">
        <ele>104.44</ele>
        <time>2019-07-21T06:54:14Z</time>
      </trkpt>
      <trkpt lat="50.78099" lon="2.75581">
        <ele>103.96</ele>
        <time>2019-07-21T06:54:15Z</time>
      </trkpt>
      <trkpt lat="50.78101" lon="2.75574">
        <ele>103.48</ele>
        <time>2019-07-21T06:54:16Z</time>
      </trkpt>
      <trkpt lat="50.78104" lon="2.75568">
        <ele>103.48</ele>
        <time>2019-07-21T06:54:17Z</time>
      </trkpt>
      <trkpt lat="50.78108" lon="2.75565">
        <ele>103.48</ele>
        <time>2019-07-21T06:54:18Z</time>
      </trkpt>
      <trkpt lat="50.78112" lon="2.75562">
        <ele>103.48</ele>
        <time>2019-07-21T06:54:19Z</time>
      </trkpt>
      <trkpt lat="50.78159" lon="2.75535">
        <ele>105.88</ele>
        <time>2019-07-21T06:54:29Z</time>
      </trkpt>
      <trkpt lat="50.78168" lon="2.7553">
        <ele>107.81</ele>
        <time>2019-07-21T06:54:31Z</time>
      </trkpt>
      <trkpt lat="50.78172" lon="2.75528">
        <ele>108.29</ele>
        <time>2019-07-21T06:54:32Z</time>
      </trkpt>
      <trkpt lat="50.78182" lon="2.75524">
        <ele>109.73</ele>
        <time>2019-07-21T06:54:34Z</time>
      </trkpt>
      <trkpt lat="50.78196" lon="2.75515">
        <ele>111.17</ele>
        <time>2019-07-21T06:54:37Z</time>
      </trkpt>
      <trkpt lat="50.78211" lon="2.75508">
        <ele>112.13</ele>
        <time>2019-07-21T06:54:40Z</time>
      </trkpt>
      <trkpt lat="50.78216" lon="2.75507">
        <ele>112.61</ele>
        <time>2019-07-21T06:54:41Z</time>
      </trkpt>
      <trkpt lat="50.78249" lon="2.75501">
        <ele>112.61</ele>
        <time>2019-07-21T06:54:47Z</time>
      </trkpt>
      <trkpt lat="50.78262" lon="2.75498">
        <ele>111.17</ele>
        <time>2019-07-21T06:54:49Z</time>
      </trkpt>
      <trkpt lat="50.78275" lon="2.75491">
        <ele>109.73</ele>
        <time>2019-07-21T06:54:51Z</time>
      </trkpt>
      <trkpt lat="50.78282" lon="2.75485">
        <ele>109.25</ele>
        <time>2019-07-21T06:54:52Z</time>
      </trkpt>
      <trkpt lat="50.78289" lon="2.75478">
        <ele>108.29</ele>
        <time>2019-07-21T06:54:53Z</time>
      </trkpt>
      <trkpt lat="50.78294" lon="2.7547">
        <ele>107.32</ele>
        <time>2019-07-21T06:54:54Z</time>
      </trkpt>
      <trkpt lat="50.78299" lon="2.75461">
        <ele>107.32</ele>
        <time>2019-07-21T06:54:55Z</time>
      </trkpt>
      <trkpt lat="50.78304" lon="2.75451">
        <ele>106.36</ele>
        <time>2019-07-21T06:54:56Z</time>
      </trkpt>
      <trkpt lat="50.78361" lon="2.75372">
        <ele>106.36</ele>
        <time>2019-07-21T06:55:07Z</time>
      </trkpt>
      <trkpt lat="50.78379" lon="2.75361">
        <ele>107.81</ele>
        <time>2019-07-21T06:55:11Z</time>
      </trkpt>
      <trkpt lat="50.78419" lon="2.75341">
        <ele>109.25</ele>
        <time>2019-07-21T06:55:21Z</time>
      </trkpt>
      <trkpt lat="50.78441" lon="2.75331">
        <ele>107.81</ele>
        <time>2019-07-21T06:55:31Z</time>
      </trkpt>
      <trkpt lat="50.78442" lon="2.75329">
        <ele>107.81</ele>
        <time>2019-07-21T06:55:38Z</time>
      </trkpt>
      <trkpt lat="50.78444" lon="2.75327">
        <ele>107.81</ele>
        <time>2019-07-21T06:55:39Z</time>
      </trkpt>
      <trkpt lat="50.78446" lon="2.75323">
        <ele>107.81</ele>
        <time>2019-07-21T06:55:40Z</time>
      </trkpt>
      <trkpt lat="50.78447" lon="2.75318">
        <ele>107.81</ele>
        <time>2019-07-21T06:55:41Z</time>
      </trkpt>
      <trkpt lat="50.78449" lon="2.75311">
        <ele>107.81</ele>
        <time>2019-07-21T06:55:42Z</time>
      </trkpt>
      <trkpt lat="50.7845" lon="2.75304">
        <ele>107.32</ele>
        <time>2019-07-21T06:55:43Z</time>
      </trkpt>
      <trkpt lat="50.78451" lon="2.75296">
        <ele>107.32</ele>
        <time>2019-07-21T06:55:44Z</time>
      </trkpt>
      <trkpt lat="50.78453" lon="2.75288">
        <ele>107.32</ele>
        <time>2019-07-21T06:55:45Z</time>
      </trkpt>
      <trkpt lat="50.78454" lon="2.75279">
        <ele>106.84</ele>
        <time>2019-07-21T06:55:46Z</time>
      </trkpt>
      <trkpt lat="50.78452" lon="2.75161">
        <ele>104.44</ele>
        <time>2019-07-21T06:55:57Z</time>
      </trkpt>
      <trkpt lat="50.78445" lon="2.75107">
        <ele>104.44</ele>
        <time>2019-07-21T06:56:03Z</time>
      </trkpt>
      <trkpt lat="50.78442" lon="2.75098">
        <ele>104.44</ele>
        <time>2019-07-21T06:56:04Z</time>
      </trkpt>
      <trkpt lat="50.78431" lon="2.75066">
        <ele>105.88</ele>
        <time>2019-07-21T06:56:08Z</time>
      </trkpt>
      <trkpt lat="50.78395" lon="2.74984">
        <ele>109.73</ele>
        <time>2019-07-21T06:56:19Z</time>
      </trkpt>
      <trkpt lat="50.78382" lon="2.74955">
        <ele>110.69</ele>
        <time>2019-07-21T06:56:23Z</time>
      </trkpt>
      <trkpt lat="50.78367" lon="2.74915">
        <ele>112.13</ele>
        <time>2019-07-21T06:56:28Z</time>
      </trkpt>
      <trkpt lat="50.78343" lon="2.74831">
        <ele>115.01</ele>
        <time>2019-07-21T06:56:38Z</time>
      </trkpt>
      <trkpt lat="50.78338" lon="2.74814">
        <ele>115.5</ele>
        <time>2019-07-21T06:56:40Z</time>
      </trkpt>
      <trkpt lat="50.78336" lon="2.74806">
        <ele>115.5</ele>
        <time>2019-07-21T06:56:41Z</time>
      </trkpt>
      <trkpt lat="50.78324" lon="2.74714">
        <ele>118.86</ele>
        <time>2019-07-21T06:56:52Z</time>
      </trkpt>
      <trkpt lat="50.78321" lon="2.74576">
        <ele>120.3</ele>
        <time>2019-07-21T06:57:08Z</time>
      </trkpt>
      <trkpt lat="50.78319" lon="2.74506">
        <ele>120.3</ele>
        <time>2019-07-21T06:57:16Z</time>
      </trkpt>
      <trkpt lat="50.78307" lon="2.74454">
        <ele>120.3</ele>
        <time>2019-07-21T06:57:22Z</time>
      </trkpt>
      <trkpt lat="50.78268" lon="2.74354">
        <ele>116.94</ele>
        <time>2019-07-21T06:57:33Z</time>
      </trkpt>
      <trkpt lat="50.78215" lon="2.74216">
        <ele>115.01</ele>
        <time>2019-07-21T06:57:48Z</time>
      </trkpt>
      <trkpt lat="50.78168" lon="2.74091">
        <ele>115.01</ele>
        <time>2019-07-21T06:58:02Z</time>
      </trkpt>
      <trkpt lat="50.78145" lon="2.7403">
        <ele>115.98</ele>
        <time>2019-07-21T06:58:09Z</time>
      </trkpt>
      <trkpt lat="50.78094" lon="2.73908">
        <ele>119.82</ele>
        <time>2019-07-21T06:58:24Z</time>
      </trkpt>
      <trkpt lat="50.78067" lon="2.73866">
        <ele>121.74</ele>
        <time>2019-07-21T06:58:30Z</time>
      </trkpt>
      <trkpt lat="50.7801" lon="2.73782">
        <ele>123.67</ele>
        <time>2019-07-21T06:58:43Z</time>
      </trkpt>
      <trkpt lat="50.77981" lon="2.73743">
        <ele>126.55</ele>
        <time>2019-07-21T06:58:50Z</time>
      </trkpt>
      <trkpt lat="50.77949" lon="2.7371">
        <ele>129.92</ele>
        <time>2019-07-21T06:58:58Z</time>
      </trkpt>
      <trkpt lat="50.7793" lon="2.73688">
        <ele>131.84</ele>
        <time>2019-07-21T06:59:03Z</time>
      </trkpt>
      <trkpt lat="50.77927" lon="2.73684">
        <ele>132.32</ele>
        <time>2019-07-21T06:59:04Z</time>
      </trkpt>
      <trkpt lat="50.77907" lon="2.73662">
        <ele>134.24</ele>
        <time>2019-07-21T06:59:09Z</time>
      </trkpt>
      <trkpt lat="50.77895" lon="2.7365">
        <ele>135.2</ele>
        <time>2019-07-21T06:59:12Z</time>
      </trkpt>
      <trkpt lat="50.77891" lon="2.73645">
        <ele>136.64</ele>
        <time>2019-07-21T06:59:13Z</time>
      </trkpt>
      <trkpt lat="50.77888" lon="2.73639">
        <ele>136.64</ele>
        <time>2019-07-21T06:59:14Z</time>
      </trkpt>
      <trkpt lat="50.77886" lon="2.73632">
        <ele>137.13</ele>
        <time>2019-07-21T06:59:15Z</time>
      </trkpt>
      <trkpt lat="50.77884" lon="2.73625">
        <ele>137.61</ele>
        <time>2019-07-21T06:59:16Z</time>
      </trkpt>
      <trkpt lat="50.77883" lon="2.73618">
        <ele>138.09</ele>
        <time>2019-07-21T06:59:17Z</time>
      </trkpt>
      <trkpt lat="50.77882" lon="2.73611">
        <ele>139.05</ele>
        <time>2019-07-21T06:59:18Z</time>
      </trkpt>
      <trkpt lat="50.77883" lon="2.73603">
        <ele>139.53</ele>
        <time>2019-07-21T06:59:19Z</time>
      </trkpt>
      <trkpt lat="50.77884" lon="2.73596">
        <ele>140.01</ele>
        <time>2019-07-21T06:59:20Z</time>
      </trkpt>
      <trkpt lat="50.77906" lon="2.73527">
        <ele>143.37</ele>
        <time>2019-07-21T06:59:30Z</time>
      </trkpt>
      <trkpt lat="50.77928" lon="2.7346">
        <ele>144.34</ele>
        <time>2019-07-21T06:59:43Z</time>
      </trkpt>
      <trkpt lat="50.77944" lon="2.73417">
        <ele>142.89</ele>
        <time>2019-07-21T06:59:49Z</time>
      </trkpt>
      <trkpt lat="50.77961" lon="2.73347">
        <ele>141.45</ele>
        <time>2019-07-21T06:59:56Z</time>
      </trkpt>
      <trkpt lat="50.77971" lon="2.73218">
        <ele>139.53</ele>
        <time>2019-07-21T07:00:09Z</time>
      </trkpt>
      <trkpt lat="50.77974" lon="2.73208">
        <ele>139.05</ele>
        <time>2019-07-21T07:00:10Z</time>
      </trkpt>
      <trkpt lat="50.77978" lon="2.73199">
        <ele>138.57</ele>
        <time>2019-07-21T07:00:11Z</time>
      </trkpt>
      <trkpt lat="50.78005" lon="2.73132">
        <ele>135.2</ele>
        <time>2019-07-21T07:00:17Z</time>
      </trkpt>
      <trkpt lat="50.78021" lon="2.73058">
        <ele>131.84</ele>
        <time>2019-07-21T07:00:22Z</time>
      </trkpt>
      <trkpt lat="50.78024" lon="2.7299">
        <ele>129.92</ele>
        <time>2019-07-21T07:00:26Z</time>
      </trkpt>
      <trkpt lat="50.78021" lon="2.72938">
        <ele>127.99</ele>
        <time>2019-07-21T07:00:29Z</time>
      </trkpt>
      <trkpt lat="50.78016" lon="2.72872">
        <ele>126.07</ele>
        <time>2019-07-21T07:00:33Z</time>
      </trkpt>
      <trkpt lat="50.78016" lon="2.72857">
        <ele>126.07</ele>
        <time>2019-07-21T07:00:34Z</time>
      </trkpt>
      <trkpt lat="50.7803" lon="2.72697">
        <ele>125.59</ele>
        <time>2019-07-21T07:00:46Z</time>
      </trkpt>
      <trkpt lat="50.78036" lon="2.72586">
        <ele>122.22</ele>
        <time>2019-07-21T07:00:54Z</time>
      </trkpt>
      <trkpt lat="50.78032" lon="2.72516">
        <ele>118.86</ele>
        <time>2019-07-21T07:00:58Z</time>
      </trkpt>
      <trkpt lat="50.78032" lon="2.72441">
        <ele>115.01</ele>
        <time>2019-07-21T07:01:02Z</time>
      </trkpt>
      <trkpt lat="50.78041" lon="2.72364">
        <ele>111.65</ele>
        <time>2019-07-21T07:01:06Z</time>
      </trkpt>
      <trkpt lat="50.78041" lon="2.72343">
        <ele>109.73</ele>
        <time>2019-07-21T07:01:07Z</time>
      </trkpt>
      <trkpt lat="50.7804" lon="2.72323">
        <ele>109.25</ele>
        <time>2019-07-21T07:01:08Z</time>
      </trkpt>
      <trkpt lat="50.78038" lon="2.72303">
        <ele>107.81</ele>
        <time>2019-07-21T07:01:09Z</time>
      </trkpt>
      <trkpt lat="50.78035" lon="2.72282">
        <ele>106.84</ele>
        <time>2019-07-21T07:01:10Z</time>
      </trkpt>
      <trkpt lat="50.7803" lon="2.72261">
        <ele>105.88</ele>
        <time>2019-07-21T07:01:11Z</time>
      </trkpt>
      <trkpt lat="50.78025" lon="2.72242">
        <ele>104.92</ele>
        <time>2019-07-21T07:01:12Z</time>
      </trkpt>
      <trkpt lat="50.78019" lon="2.72224">
        <ele>103.48</ele>
        <time>2019-07-21T07:01:13Z</time>
      </trkpt>
      <trkpt lat="50.78004" lon="2.72166">
        <ele>99.63</ele>
        <time>2019-07-21T07:01:16Z</time>
      </trkpt>
      <trkpt lat="50.78001" lon="2.72145">
        <ele>98.19</ele>
        <time>2019-07-21T07:01:17Z</time>
      </trkpt>
      <trkpt lat="50.78" lon="2.72124">
        <ele>96.75</ele>
        <time>2019-07-21T07:01:18Z</time>
      </trkpt>
      <trkpt lat="50.78002" lon="2.72103">
        <ele>95.31</ele>
        <time>2019-07-21T07:01:19Z</time>
      </trkpt>
      <trkpt lat="50.78004" lon="2.72082">
        <ele>93.87</ele>
        <time>2019-07-21T07:01:20Z</time>
      </trkpt>
      <trkpt lat="50.78007" lon="2.72061">
        <ele>92.9</ele>
        <time>2019-07-21T07:01:21Z</time>
      </trkpt>
      <trkpt lat="50.78007" lon="2.72041">
        <ele>91.46</ele>
        <time>2019-07-21T07:01:22Z</time>
      </trkpt>
      <trkpt lat="50.78006" lon="2.72021">
        <ele>90.5</ele>
        <time>2019-07-21T07:01:23Z</time>
      </trkpt>
      <trkpt lat="50.78002" lon="2.72001">
        <ele>89.06</ele>
        <time>2019-07-21T07:01:24Z</time>
      </trkpt>
      <trkpt lat="50.77997" lon="2.71982">
        <ele>87.62</ele>
        <time>2019-07-21T07:01:25Z</time>
      </trkpt>
      <trkpt lat="50.77989" lon="2.71964">
        <ele>86.18</ele>
        <time>2019-07-21T07:01:26Z</time>
      </trkpt>
      <trkpt lat="50.7798" lon="2.71947">
        <ele>85.21</ele>
        <time>2019-07-21T07:01:27Z</time>
      </trkpt>
      <trkpt lat="50.7797" lon="2.71934">
        <ele>84.73</ele>
        <time>2019-07-21T07:01:28Z</time>
      </trkpt>
      <trkpt lat="50.77959" lon="2.71922">
        <ele>83.29</ele>
        <time>2019-07-21T07:01:29Z</time>
      </trkpt>
      <trkpt lat="50.77939" lon="2.71899">
        <ele>80.41</ele>
        <time>2019-07-21T07:01:31Z</time>
      </trkpt>
      <trkpt lat="50.7792" lon="2.71873">
        <ele>78.97</ele>
        <time>2019-07-21T07:01:33Z</time>
      </trkpt>
      <trkpt lat="50.77895" lon="2.7184">
        <ele>75.6</ele>
        <time>2019-07-21T07:01:36Z</time>
      </trkpt>
      <trkpt lat="50.77874" lon="2.71808">
        <ele>74.16</ele>
        <time>2019-07-21T07:01:39Z</time>
      </trkpt>
      <trkpt lat="50.7785" lon="2.71774">
        <ele>70.79</ele>
        <time>2019-07-21T07:01:43Z</time>
      </trkpt>
      <trkpt lat="50.77836" lon="2.71752">
        <ele>69.35</ele>
        <time>2019-07-21T07:01:46Z</time>
      </trkpt>
      <trkpt lat="50.77835" lon="2.71742">
        <ele>68.87</ele>
        <time>2019-07-21T07:01:47Z</time>
      </trkpt>
      <trkpt lat="50.77838" lon="2.71732">
        <ele>68.39</ele>
        <time>2019-07-21T07:01:48Z</time>
      </trkpt>
      <trkpt lat="50.77842" lon="2.71725">
        <ele>68.87</ele>
        <time>2019-07-21T07:01:49Z</time>
      </trkpt>
      <trkpt lat="50.77847" lon="2.71717">
        <ele>68.87</ele>
        <time>2019-07-21T07:01:50Z</time>
      </trkpt>
      <trkpt lat="50.77852" lon="2.71709">
        <ele>68.87</ele>
        <time>2019-07-21T07:01:51Z</time>
      </trkpt>
      <trkpt lat="50.77868" lon="2.71684">
        <ele>68.87</ele>
        <time>2019-07-21T07:01:54Z</time>
      </trkpt>
      <trkpt lat="50.77875" lon="2.71677">
        <ele>69.35</ele>
        <time>2019-07-21T07:01:55Z</time>
      </trkpt>
      <trkpt lat="50.77881" lon="2.71671">
        <ele>69.35</ele>
        <time>2019-07-21T07:01:56Z</time>
      </trkpt>
      <trkpt lat="50.77888" lon="2.71668">
        <ele>70.31</ele>
        <time>2019-07-21T07:01:57Z</time>
      </trkpt>
      <trkpt lat="50.77895" lon="2.71666">
        <ele>70.31</ele>
        <time>2019-07-21T07:01:58Z</time>
      </trkpt>
      <trkpt lat="50.77902" lon="2.71664">
        <ele>70.31</ele>
        <time>2019-07-21T07:01:59Z</time>
      </trkpt>
      <trkpt lat="50.77915" lon="2.71659">
        <ele>70.79</ele>
        <time>2019-07-21T07:02:01Z</time>
      </trkpt>
      <trkpt lat="50.7792" lon="2.71655">
        <ele>71.76</ele>
        <time>2019-07-21T07:02:02Z</time>
      </trkpt>
      <trkpt lat="50.77925" lon="2.7165">
        <ele>71.76</ele>
        <time>2019-07-21T07:02:03Z</time>
      </trkpt>
      <trkpt lat="50.77929" lon="2.71644">
        <ele>71.76</ele>
        <time>2019-07-21T07:02:04Z</time>
      </trkpt>
      <trkpt lat="50.77933" lon="2.71637">
        <ele>71.76</ele>
        <time>2019-07-21T07:02:05Z</time>
      </trkpt>
      <trkpt lat="50.77937" lon="2.71631">
        <ele>71.76</ele>
        <time>2019-07-21T07:02:06Z</time>
      </trkpt>
      <trkpt lat="50.77942" lon="2.71626">
        <ele>71.76</ele>
        <time>2019-07-21T07:02:07Z</time>
      </trkpt>
      <trkpt lat="50.77948" lon="2.71622">
        <ele>70.31</ele>
        <time>2019-07-21T07:02:08Z</time>
      </trkpt>
      <trkpt lat="50.77955" lon="2.71619">
        <ele>70.31</ele>
        <time>2019-07-21T07:02:09Z</time>
      </trkpt>
      <trkpt lat="50.78002" lon="2.71592">
        <ele>66.95</ele>
        <time>2019-07-21T07:02:15Z</time>
      </trkpt>
      <trkpt lat="50.78011" lon="2.71586">
        <ele>66.95</ele>
        <time>2019-07-21T07:02:16Z</time>
      </trkpt>
      <trkpt lat="50.78019" lon="2.71576">
        <ele>65.99</ele>
        <time>2019-07-21T07:02:17Z</time>
      </trkpt>
      <trkpt lat="50.78025" lon="2.71565">
        <ele>65.51</ele>
        <time>2019-07-21T07:02:18Z</time>
      </trkpt>
      <trkpt lat="50.78029" lon="2.71552">
        <ele>65.51</ele>
        <time>2019-07-21T07:02:19Z</time>
      </trkpt>
      <trkpt lat="50.78033" lon="2.71539">
        <ele>65.51</ele>
        <time>2019-07-21T07:02:20Z</time>
      </trkpt>
      <trkpt lat="50.78052" lon="2.71471">
        <ele>61.66</ele>
        <time>2019-07-21T07:02:25Z</time>
      </trkpt>
      <trkpt lat="50.78053" lon="2.71455">
        <ele>60.7</ele>
        <time>2019-07-21T07:02:26Z</time>
      </trkpt>
      <trkpt lat="50.78052" lon="2.71439">
        <ele>60.22</ele>
        <time>2019-07-21T07:02:27Z</time>
      </trkpt>
      <trkpt lat="50.78049" lon="2.71423">
        <ele>59.74</ele>
        <time>2019-07-21T07:02:28Z</time>
      </trkpt>
      <trkpt lat="50.78045" lon="2.71408">
        <ele>59.74</ele>
        <time>2019-07-21T07:02:29Z</time>
      </trkpt>
      <trkpt lat="50.78042" lon="2.71392">
        <ele>59.74</ele>
        <time>2019-07-21T07:02:30Z</time>
      </trkpt>
      <trkpt lat="50.78041" lon="2.71376">
        <ele>58.78</ele>
        <time>2019-07-21T07:02:31Z</time>
      </trkpt>
      <trkpt lat="50.7804" lon="2.71359">
        <ele>58.3</ele>
        <time>2019-07-21T07:02:32Z</time>
      </trkpt>
      <trkpt lat="50.78041" lon="2.71341">
        <ele>57.34</ele>
        <time>2019-07-21T07:02:33Z</time>
      </trkpt>
      <trkpt lat="50.78042" lon="2.71323">
        <ele>55.89</ele>
        <time>2019-07-21T07:02:34Z</time>
      </trkpt>
      <trkpt lat="50.78046" lon="2.71267">
        <ele>52.53</ele>
        <time>2019-07-21T07:02:37Z</time>
      </trkpt>
      <trkpt lat="50.78046" lon="2.71209">
        <ele>50.13</ele>
        <time>2019-07-21T07:02:40Z</time>
      </trkpt>
      <trkpt lat="50.78043" lon="2.71156">
        <ele>48.2</ele>
        <time>2019-07-21T07:02:43Z</time>
      </trkpt>
      <trkpt lat="50.78043" lon="2.7114">
        <ele>49.16</ele>
        <time>2019-07-21T07:02:44Z</time>
      </trkpt>
      <trkpt lat="50.78044" lon="2.71042">
        <ele>47.72</ele>
        <time>2019-07-21T07:02:51Z</time>
      </trkpt>
      <trkpt lat="50.78042" lon="2.71028">
        <ele>47.72</ele>
        <time>2019-07-21T07:02:52Z</time>
      </trkpt>
      <trkpt lat="50.78019" lon="2.70876">
        <ele>44.84</ele>
        <time>2019-07-21T07:03:03Z</time>
      </trkpt>
      <trkpt lat="50.78013" lon="2.70833">
        <ele>41.95</ele>
        <time>2019-07-21T07:03:06Z</time>
      </trkpt>
      <trkpt lat="50.78011" lon="2.70821">
        <ele>41.47</ele>
        <time>2019-07-21T07:03:07Z</time>
      </trkpt>
      <trkpt lat="50.77996" lon="2.70717">
        <ele>40.51</ele>
        <time>2019-07-21T07:03:14Z</time>
      </trkpt>
      <trkpt lat="50.7797" lon="2.70526">
        <ele>37.63</ele>
        <time>2019-07-21T07:03:27Z</time>
      </trkpt>
      <trkpt lat="50.77971" lon="2.70512">
        <ele>37.63</ele>
        <time>2019-07-21T07:03:28Z</time>
      </trkpt>
      <trkpt lat="50.77975" lon="2.705">
        <ele>37.63</ele>
        <time>2019-07-21T07:03:29Z</time>
      </trkpt>
      <trkpt lat="50.77981" lon="2.70492">
        <ele>38.11</ele>
        <time>2019-07-21T07:03:30Z</time>
      </trkpt>
      <trkpt lat="50.77988" lon="2.70485">
        <ele>37.63</ele>
        <time>2019-07-21T07:03:31Z</time>
      </trkpt>
      <trkpt lat="50.77995" lon="2.7048">
        <ele>37.63</ele>
        <time>2019-07-21T07:03:32Z</time>
      </trkpt>
      <trkpt lat="50.78002" lon="2.70474">
        <ele>38.11</ele>
        <time>2019-07-21T07:03:33Z</time>
      </trkpt>
      <trkpt lat="50.78009" lon="2.70467">
        <ele>38.11</ele>
        <time>2019-07-21T07:03:34Z</time>
      </trkpt>
      <trkpt lat="50.78015" lon="2.70459">
        <ele>38.11</ele>
        <time>2019-07-21T07:03:35Z</time>
      </trkpt>
      <trkpt lat="50.78021" lon="2.70449">
        <ele>39.07</ele>
        <time>2019-07-21T07:03:36Z</time>
      </trkpt>
      <trkpt lat="50.78025" lon="2.7044">
        <ele>39.07</ele>
        <time>2019-07-21T07:03:37Z</time>
      </trkpt>
      <trkpt lat="50.78029" lon="2.70431">
        <ele>39.07</ele>
        <time>2019-07-21T07:03:38Z</time>
      </trkpt>
      <trkpt lat="50.78122" lon="2.70255">
        <ele>40.03</ele>
        <time>2019-07-21T07:03:58Z</time>
      </trkpt>
      <trkpt lat="50.78192" lon="2.70122">
        <ele>40.51</ele>
        <time>2019-07-21T07:04:14Z</time>
      </trkpt>
      <trkpt lat="50.78238" lon="2.69995">
        <ele>41.47</ele>
        <time>2019-07-21T07:04:28Z</time>
      </trkpt>
      <trkpt lat="50.7826" lon="2.69871">
        <ele>42.92</ele>
        <time>2019-07-21T07:04:41Z</time>
      </trkpt>
      <trkpt lat="50.78262" lon="2.69842">
        <ele>42.92</ele>
        <time>2019-07-21T07:04:44Z</time>
      </trkpt>
      <trkpt lat="50.78264" lon="2.69833">
        <ele>42.92</ele>
        <time>2019-07-21T07:04:45Z</time>
      </trkpt>
      <trkpt lat="50.78264" lon="2.69824">
        <ele>42.92</ele>
        <time>2019-07-21T07:04:46Z</time>
      </trkpt>
      <trkpt lat="50.78266" lon="2.69806">
        <ele>42.92</ele>
        <time>2019-07-21T07:04:48Z</time>
      </trkpt>
      <trkpt lat="50.7827" lon="2.69689">
        <ele>46.28</ele>
        <time>2019-07-21T07:05:01Z</time>
      </trkpt>
      <trkpt lat="50.78265" lon="2.6959">
        <ele>49.16</ele>
        <time>2019-07-21T07:05:13Z</time>
      </trkpt>
      <trkpt lat="50.78259" lon="2.69551">
        <ele>51.09</ele>
        <time>2019-07-21T07:05:20Z</time>
      </trkpt>
      <trkpt lat="50.78257" lon="2.69548">
        <ele>51.09</ele>
        <time>2019-07-21T07:05:21Z</time>
      </trkpt>
      <trkpt lat="50.78257" lon="2.69543">
        <ele>52.05</ele>
        <time>2019-07-21T07:05:22Z</time>
      </trkpt>
      <trkpt lat="50.78257" lon="2.69539">
        <ele>52.05</ele>
        <time>2019-07-21T07:05:23Z</time>
      </trkpt>
      <trkpt lat="50.78258" lon="2.69535">
        <ele>52.53</ele>
        <time>2019-07-21T07:05:24Z</time>
      </trkpt>
      <trkpt lat="50.7826" lon="2.69531">
        <ele>52.53</ele>
        <time>2019-07-21T07:05:25Z</time>
      </trkpt>
      <trkpt lat="50.78263" lon="2.69527">
        <ele>52.53</ele>
        <time>2019-07-21T07:05:26Z</time>
      </trkpt>
      <trkpt lat="50.78267" lon="2.69522">
        <ele>52.53</ele>
        <time>2019-07-21T07:05:27Z</time>
      </trkpt>
      <trkpt lat="50.78324" lon="2.69445">
        <ele>53.97</ele>
        <time>2019-07-21T07:05:42Z</time>
      </trkpt>
      <trkpt lat="50.78328" lon="2.6944">
        <ele>54.45</ele>
        <time>2019-07-21T07:05:43Z</time>
      </trkpt>
      <trkpt lat="50.7833" lon="2.69433">
        <ele>54.45</ele>
        <time>2019-07-21T07:05:44Z</time>
      </trkpt>
      <trkpt lat="50.78331" lon="2.69425">
        <ele>54.45</ele>
        <time>2019-07-21T07:05:45Z</time>
      </trkpt>
      <trkpt lat="50.7833" lon="2.69417">
        <ele>54.45</ele>
        <time>2019-07-21T07:05:46Z</time>
      </trkpt>
      <trkpt lat="50.7833" lon="2.6941">
        <ele>54.45</ele>
        <time>2019-07-21T07:05:47Z</time>
      </trkpt>
      <trkpt lat="50.78328" lon="2.69401">
        <ele>54.45</ele>
        <time>2019-07-21T07:05:48Z</time>
      </trkpt>
      <trkpt lat="50.78326" lon="2.69384">
        <ele>54.93</ele>
        <time>2019-07-21T07:05:50Z</time>
      </trkpt>
      <trkpt lat="50.78326" lon="2.69376">
        <ele>55.41</ele>
        <time>2019-07-21T07:05:51Z</time>
      </trkpt>
      <trkpt lat="50.78326" lon="2.69367">
        <ele>55.41</ele>
        <time>2019-07-21T07:05:52Z</time>
      </trkpt>
      <trkpt lat="50.78318" lon="2.6922">
        <ele>57.82</ele>
        <time>2019-07-21T07:06:09Z</time>
      </trkpt>
      <trkpt lat="50.78312" lon="2.69082">
        <ele>59.74</ele>
        <time>2019-07-21T07:06:25Z</time>
      </trkpt>
      <trkpt lat="50.78325" lon="2.69016">
        <ele>60.7</ele>
        <time>2019-07-21T07:06:38Z</time>
      </trkpt>
      <trkpt lat="50.78345" lon="2.68963">
        <ele>61.66</ele>
        <time>2019-07-21T07:06:50Z</time>
      </trkpt>
      <trkpt lat="50.78382" lon="2.68845">
        <ele>64.55</ele>
        <time>2019-07-21T07:07:07Z</time>
      </trkpt>
      <trkpt lat="50.78409" lon="2.6871">
        <ele>66.95</ele>
        <time>2019-07-21T07:07:25Z</time>
      </trkpt>
      <trkpt lat="50.78416" lon="2.68659">
        <ele>68.39</ele>
        <time>2019-07-21T07:07:32Z</time>
      </trkpt>
      <trkpt lat="50.78416" lon="2.68652">
        <ele>68.39</ele>
        <time>2019-07-21T07:07:33Z</time>
      </trkpt>
      <trkpt lat="50.78408" lon="2.68533">
        <ele>71.27</ele>
        <time>2019-07-21T07:07:49Z</time>
      </trkpt>
      <trkpt lat="50.78401" lon="2.68447">
        <ele>73.2</ele>
        <time>2019-07-21T07:08:01Z</time>
      </trkpt>
      <trkpt lat="50.78402" lon="2.68412">
        <ele>74.16</ele>
        <time>2019-07-21T07:08:06Z</time>
      </trkpt>
      <trkpt lat="50.78403" lon="2.68405">
        <ele>74.64</ele>
        <time>2019-07-21T07:08:07Z</time>
      </trkpt>
      <trkpt lat="50.78404" lon="2.68398">
        <ele>74.64</ele>
        <time>2019-07-21T07:08:08Z</time>
      </trkpt>
      <trkpt lat="50.78406" lon="2.68392">
        <ele>75.12</ele>
        <time>2019-07-21T07:08:09Z</time>
      </trkpt>
      <trkpt lat="50.78408" lon="2.68386">
        <ele>75.12</ele>
        <time>2019-07-21T07:08:10Z</time>
      </trkpt>
      <trkpt lat="50.78411" lon="2.68381">
        <ele>75.6</ele>
        <time>2019-07-21T07:08:11Z</time>
      </trkpt>
      <trkpt lat="50.78439" lon="2.68313">
        <ele>78.97</ele>
        <time>2019-07-21T07:08:23Z</time>
      </trkpt>
      <trkpt lat="50.7847" lon="2.68224">
        <ele>81.85</ele>
        <time>2019-07-21T07:08:38Z</time>
      </trkpt>
      <trkpt lat="50.78485" lon="2.68131">
        <ele>85.21</ele>
        <time>2019-07-21T07:08:52Z</time>
      </trkpt>
      <trkpt lat="50.78487" lon="2.68118">
        <ele>85.69</ele>
        <time>2019-07-21T07:08:54Z</time>
      </trkpt>
      <trkpt lat="50.78489" lon="2.68105">
        <ele>85.69</ele>
        <time>2019-07-21T07:08:56Z</time>
      </trkpt>
      <trkpt lat="50.7849" lon="2.68099">
        <ele>86.18</ele>
        <time>2019-07-21T07:08:57Z</time>
      </trkpt>
      <trkpt lat="50.78499" lon="2.68013">
        <ele>88.58</ele>
        <time>2019-07-21T07:09:10Z</time>
      </trkpt>
      <trkpt lat="50.78499" lon="2.68007">
        <ele>89.06</ele>
        <time>2019-07-21T07:09:11Z</time>
      </trkpt>
      <trkpt lat="50.785" lon="2.68001">
        <ele>89.06</ele>
        <time>2019-07-21T07:09:12Z</time>
      </trkpt>
      <trkpt lat="50.78518" lon="2.67892">
        <ele>90.02</ele>
        <time>2019-07-21T07:09:28Z</time>
      </trkpt>
      <trkpt lat="50.78542" lon="2.67766">
        <ele>90.5</ele>
        <time>2019-07-21T07:09:44Z</time>
      </trkpt>
      <trkpt lat="50.78559" lon="2.6762">
        <ele>92.42</ele>
        <time>2019-07-21T07:10:02Z</time>
      </trkpt>
      <trkpt lat="50.78563" lon="2.67578">
        <ele>92.9</ele>
        <time>2019-07-21T07:10:07Z</time>
      </trkpt>
      <trkpt lat="50.78565" lon="2.6757">
        <ele>92.9</ele>
        <time>2019-07-21T07:10:08Z</time>
      </trkpt>
      <trkpt lat="50.78567" lon="2.67563">
        <ele>92.9</ele>
        <time>2019-07-21T07:10:09Z</time>
      </trkpt>
      <trkpt lat="50.78572" lon="2.67548">
        <ele>93.39</ele>
        <time>2019-07-21T07:10:11Z</time>
      </trkpt>
      <trkpt lat="50.7861" lon="2.67423">
        <ele>96.27</ele>
        <time>2019-07-21T07:10:29Z</time>
      </trkpt>
      <trkpt lat="50.78611" lon="2.67415">
        <ele>96.75</ele>
        <time>2019-07-21T07:10:30Z</time>
      </trkpt>
      <trkpt lat="50.7862" lon="2.6735">
        <ele>98.67</ele>
        <time>2019-07-21T07:10:39Z</time>
      </trkpt>
      <trkpt lat="50.78623" lon="2.67347">
        <ele>99.15</ele>
        <time>2019-07-21T07:10:40Z</time>
      </trkpt>
      <trkpt lat="50.78628" lon="2.67347">
        <ele>99.15</ele>
        <time>2019-07-21T07:10:41Z</time>
      </trkpt>
      <trkpt lat="50.78633" lon="2.67348">
        <ele>99.15</ele>
        <time>2019-07-21T07:10:42Z</time>
      </trkpt>
      <trkpt lat="50.78638" lon="2.6735">
        <ele>99.15</ele>
        <time>2019-07-21T07:10:43Z</time>
      </trkpt>
      <trkpt lat="50.78724" lon="2.67378">
        <ele>101.56</ele>
        <time>2019-07-21T07:11:01Z</time>
      </trkpt>
      <trkpt lat="50.78762" lon="2.67378">
        <ele>103.48</ele>
        <time>2019-07-21T07:11:09Z</time>
      </trkpt>
      <trkpt lat="50.78766" lon="2.67376">
        <ele>103.48</ele>
        <time>2019-07-21T07:11:10Z</time>
      </trkpt>
      <trkpt lat="50.7877" lon="2.67373">
        <ele>104.44</ele>
        <time>2019-07-21T07:11:11Z</time>
      </trkpt>
      <trkpt lat="50.78774" lon="2.6737">
        <ele>104.44</ele>
        <time>2019-07-21T07:11:12Z</time>
      </trkpt>
      <trkpt lat="50.78778" lon="2.67365">
        <ele>104.92</ele>
        <time>2019-07-21T07:11:13Z</time>
      </trkpt>
      <trkpt lat="50.7878" lon="2.67359">
        <ele>104.92</ele>
        <time>2019-07-21T07:11:14Z</time>
      </trkpt>
      <trkpt lat="50.7878" lon="2.67352">
        <ele>105.4</ele>
        <time>2019-07-21T07:11:15Z</time>
      </trkpt>
      <trkpt lat="50.7878" lon="2.67345">
        <ele>105.88</ele>
        <time>2019-07-21T07:11:16Z</time>
      </trkpt>
      <trkpt lat="50.78779" lon="2.67338">
        <ele>105.88</ele>
        <time>2019-07-21T07:11:17Z</time>
      </trkpt>
      <trkpt lat="50.78778" lon="2.67331">
        <ele>106.36</ele>
        <time>2019-07-21T07:11:18Z</time>
      </trkpt>
      <trkpt lat="50.78777" lon="2.67324">
        <ele>106.36</ele>
        <time>2019-07-21T07:11:19Z</time>
      </trkpt>
      <trkpt lat="50.78771" lon="2.67299">
        <ele>107.32</ele>
        <time>2019-07-21T07:11:23Z</time>
      </trkpt>
      <trkpt lat="50.78753" lon="2.67223">
        <ele>109.25</ele>
        <time>2019-07-21T07:11:35Z</time>
      </trkpt>
      <trkpt lat="50.78752" lon="2.67216">
        <ele>109.25</ele>
        <time>2019-07-21T07:11:36Z</time>
      </trkpt>
      <trkpt lat="50.7875" lon="2.6721">
        <ele>110.21</ele>
        <time>2019-07-21T07:11:37Z</time>
      </trkpt>
      <trkpt lat="50.78729" lon="2.6711">
        <ele>112.61</ele>
        <time>2019-07-21T07:11:53Z</time>
      </trkpt>
      <trkpt lat="50.78712" lon="2.67043">
        <ele>115.98</ele>
        <time>2019-07-21T07:12:04Z</time>
      </trkpt>
      <trkpt lat="50.78696" lon="2.66974">
        <ele>118.86</ele>
        <time>2019-07-21T07:12:16Z</time>
      </trkpt>
      <trkpt lat="50.78685" lon="2.66921">
        <ele>122.22</ele>
        <time>2019-07-21T07:12:26Z</time>
      </trkpt>
      <trkpt lat="50.78675" lon="2.66878">
        <ele>125.59</ele>
        <time>2019-07-21T07:12:34Z</time>
      </trkpt>
      <trkpt lat="50.78665" lon="2.66834">
        <ele>128.95</ele>
        <time>2019-07-21T07:12:42Z</time>
      </trkpt>
      <trkpt lat="50.78655" lon="2.66793">
        <ele>131.84</ele>
        <time>2019-07-21T07:12:50Z</time>
      </trkpt>
      <trkpt lat="50.78647" lon="2.66755">
        <ele>135.2</ele>
        <time>2019-07-21T07:12:57Z</time>
      </trkpt>
      <trkpt lat="50.78638" lon="2.66716">
        <ele>138.09</ele>
        <time>2019-07-21T07:13:04Z</time>
      </trkpt>
      <trkpt lat="50.78635" lon="2.66705">
        <ele>139.53</ele>
        <time>2019-07-21T07:13:06Z</time>
      </trkpt>
      <trkpt lat="50.78632" lon="2.667">
        <ele>140.01</ele>
        <time>2019-07-21T07:13:07Z</time>
      </trkpt>
      <trkpt lat="50.7863" lon="2.66695">
        <ele>140.49</ele>
        <time>2019-07-21T07:13:08Z</time>
      </trkpt>
      <trkpt lat="50.78629" lon="2.66691">
        <ele>140.97</ele>
        <time>2019-07-21T07:13:09Z</time>
      </trkpt>
      <trkpt lat="50.78628" lon="2.66688">
        <ele>141.45</ele>
        <time>2019-07-21T07:13:10Z</time>
      </trkpt>
      <trkpt lat="50.78618" lon="2.66655">
        <ele>144.34</ele>
        <time>2019-07-21T07:13:17Z</time>
      </trkpt>
      <trkpt lat="50.78622" lon="2.66629">
        <ele>145.3</ele>
        <time>2019-07-21T07:13:28Z</time>
      </trkpt>
      <trkpt lat="50.78623" lon="2.66625">
        <ele>145.3</ele>
        <time>2019-07-21T07:13:55Z</time>
      </trkpt>
      <trkpt lat="50.78627" lon="2.66615">
        <ele>145.3</ele>
        <time>2019-07-21T07:14:12Z</time>
      </trkpt>
      <trkpt lat="50.7863" lon="2.66614">
        <ele>145.3</ele>
        <time>2019-07-21T07:14:13Z</time>
      </trkpt>
      <trkpt lat="50.78633" lon="2.66611">
        <ele>145.3</ele>
        <time>2019-07-21T07:14:14Z</time>
      </trkpt>
      <trkpt lat="50.78641" lon="2.66604">
        <ele>145.3</ele>
        <time>2019-07-21T07:14:16Z</time>
      </trkpt>
      <trkpt lat="50.78645" lon="2.66598">
        <ele>144.34</ele>
        <time>2019-07-21T07:14:17Z</time>
      </trkpt>
      <trkpt lat="50.78647" lon="2.6659">
        <ele>144.34</ele>
        <time>2019-07-21T07:14:18Z</time>
      </trkpt>
      <trkpt lat="50.7865" lon="2.6658">
        <ele>143.85</ele>
        <time>2019-07-21T07:14:19Z</time>
      </trkpt>
      <trkpt lat="50.78651" lon="2.66571">
        <ele>143.37</ele>
        <time>2019-07-21T07:14:20Z</time>
      </trkpt>
      <trkpt lat="50.78651" lon="2.66559">
        <ele>142.89</ele>
        <time>2019-07-21T07:14:21Z</time>
      </trkpt>
      <trkpt lat="50.78652" lon="2.66547">
        <ele>142.41</ele>
        <time>2019-07-21T07:14:22Z</time>
      </trkpt>
      <trkpt lat="50.7865" lon="2.66478">
        <ele>139.05</ele>
        <time>2019-07-21T07:14:27Z</time>
      </trkpt>
      <trkpt lat="50.78649" lon="2.66463">
        <ele>139.05</ele>
        <time>2019-07-21T07:14:28Z</time>
      </trkpt>
      <trkpt lat="50.78646" lon="2.66383">
        <ele>135.68</ele>
        <time>2019-07-21T07:14:33Z</time>
      </trkpt>
      <trkpt lat="50.78642" lon="2.66298">
        <ele>133.28</ele>
        <time>2019-07-21T07:14:38Z</time>
      </trkpt>
      <trkpt lat="50.78631" lon="2.66197">
        <ele>129.43</ele>
        <time>2019-07-21T07:14:44Z</time>
      </trkpt>
      <trkpt lat="50.78619" lon="2.66126">
        <ele>126.55</ele>
        <time>2019-07-21T07:14:49Z</time>
      </trkpt>
      <trkpt lat="50.78616" lon="2.66114">
        <ele>125.59</ele>
        <time>2019-07-21T07:14:50Z</time>
      </trkpt>
      <trkpt lat="50.78612" lon="2.66102">
        <ele>125.11</ele>
        <time>2019-07-21T07:14:51Z</time>
      </trkpt>
      <trkpt lat="50.78607" lon="2.6609">
        <ele>125.11</ele>
        <time>2019-07-21T07:14:52Z</time>
      </trkpt>
      <trkpt lat="50.7859" lon="2.66061">
        <ele>122.22</ele>
        <time>2019-07-21T07:14:55Z</time>
      </trkpt>
      <trkpt lat="50.78582" lon="2.66054">
        <ele>121.26</ele>
        <time>2019-07-21T07:14:56Z</time>
      </trkpt>
      <trkpt lat="50.78574" lon="2.66049">
        <ele>120.78</ele>
        <time>2019-07-21T07:14:57Z</time>
      </trkpt>
      <trkpt lat="50.78565" lon="2.66048">
        <ele>119.82</ele>
        <time>2019-07-21T07:14:58Z</time>
      </trkpt>
      <trkpt lat="50.78556" lon="2.66051">
        <ele>119.34</ele>
        <time>2019-07-21T07:14:59Z</time>
      </trkpt>
      <trkpt lat="50.78547" lon="2.66056">
        <ele>118.38</ele>
        <time>2019-07-21T07:15:00Z</time>
      </trkpt>
      <trkpt lat="50.78539" lon="2.66063">
        <ele>117.42</ele>
        <time>2019-07-21T07:15:01Z</time>
      </trkpt>
      <trkpt lat="50.7853" lon="2.66069">
        <ele>117.42</ele>
        <time>2019-07-21T07:15:02Z</time>
      </trkpt>
      <trkpt lat="50.78511" lon="2.66077">
        <ele>116.46</ele>
        <time>2019-07-21T07:15:04Z</time>
      </trkpt>
      <trkpt lat="50.78501" lon="2.66076">
        <ele>115.98</ele>
        <time>2019-07-21T07:15:05Z</time>
      </trkpt>
      <trkpt lat="50.78491" lon="2.66072">
        <ele>115.5</ele>
        <time>2019-07-21T07:15:06Z</time>
      </trkpt>
      <trkpt lat="50.78483" lon="2.66063">
        <ele>114.53</ele>
        <time>2019-07-21T07:15:07Z</time>
      </trkpt>
      <trkpt lat="50.78475" lon="2.66052">
        <ele>113.57</ele>
        <time>2019-07-21T07:15:08Z</time>
      </trkpt>
      <trkpt lat="50.78468" lon="2.66041">
        <ele>113.09</ele>
        <time>2019-07-21T07:15:09Z</time>
      </trkpt>
      <trkpt lat="50.78461" lon="2.66028">
        <ele>113.09</ele>
        <time>2019-07-21T07:15:10Z</time>
      </trkpt>
      <trkpt lat="50.78455" lon="2.66015">
        <ele>112.61</ele>
        <time>2019-07-21T07:15:11Z</time>
      </trkpt>
      <trkpt lat="50.78449" lon="2.66001">
        <ele>111.17</ele>
        <time>2019-07-21T07:15:12Z</time>
      </trkpt>
      <trkpt lat="50.78444" lon="2.65986">
        <ele>111.17</ele>
        <time>2019-07-21T07:15:13Z</time>
      </trkpt>
      <trkpt lat="50.78427" lon="2.65922">
        <ele>107.81</ele>
        <time>2019-07-21T07:15:17Z</time>
      </trkpt>
      <trkpt lat="50.7841" lon="2.6584">
        <ele>104.44</ele>
        <time>2019-07-21T07:15:22Z</time>
      </trkpt>
      <trkpt lat="50.78402" lon="2.65808">
        <ele>103.96</ele>
        <time>2019-07-21T07:15:24Z</time>
      </trkpt>
      <trkpt lat="50.78374" lon="2.65705">
        <ele>100.11</ele>
        <time>2019-07-21T07:15:31Z</time>
      </trkpt>
      <trkpt lat="50.78345" lon="2.65613">
        <ele>97.71</ele>
        <time>2019-07-21T07:15:39Z</time>
      </trkpt>
      <trkpt lat="50.78343" lon="2.65606">
        <ele>97.23</ele>
        <time>2019-07-21T07:15:40Z</time>
      </trkpt>
      <trkpt lat="50.78343" lon="2.65598">
        <ele>97.23</ele>
        <time>2019-07-21T07:15:41Z</time>
      </trkpt>
      <trkpt lat="50.78344" lon="2.65592">
        <ele>97.23</ele>
        <time>2019-07-21T07:15:42Z</time>
      </trkpt>
      <trkpt lat="50.78346" lon="2.65585">
        <ele>97.23</ele>
        <time>2019-07-21T07:15:43Z</time>
      </trkpt>
      <trkpt lat="50.78348" lon="2.65579">
        <ele>97.23</ele>
        <time>2019-07-21T07:15:44Z</time>
      </trkpt>
      <trkpt lat="50.78367" lon="2.65504">
        <ele>97.23</ele>
        <time>2019-07-21T07:15:53Z</time>
      </trkpt>
      <trkpt lat="50.78374" lon="2.65485">
        <ele>95.79</ele>
        <time>2019-07-21T07:15:55Z</time>
      </trkpt>
      <trkpt lat="50.78379" lon="2.65476">
        <ele>95.31</ele>
        <time>2019-07-21T07:15:56Z</time>
      </trkpt>
      <trkpt lat="50.78384" lon="2.65466">
        <ele>94.83</ele>
        <time>2019-07-21T07:15:57Z</time>
      </trkpt>
      <trkpt lat="50.7839" lon="2.65456">
        <ele>93.87</ele>
        <time>2019-07-21T07:15:58Z</time>
      </trkpt>
      <trkpt lat="50.78397" lon="2.65446">
        <ele>92.9</ele>
        <time>2019-07-21T07:15:59Z</time>
      </trkpt>
      <trkpt lat="50.78429" lon="2.65399">
        <ele>90.02</ele>
        <time>2019-07-21T07:16:03Z</time>
      </trkpt>
      <trkpt lat="50.7846" lon="2.65368">
        <ele>86.18</ele>
        <time>2019-07-21T07:16:06Z</time>
      </trkpt>
      <trkpt lat="50.78492" lon="2.65335">
        <ele>82.33</ele>
        <time>2019-07-21T07:16:09Z</time>
      </trkpt>
      <trkpt lat="50.78532" lon="2.65276">
        <ele>78.48</ele>
        <time>2019-07-21T07:16:13Z</time>
      </trkpt>
      <trkpt lat="50.7857" lon="2.65218">
        <ele>75.6</ele>
        <time>2019-07-21T07:16:17Z</time>
      </trkpt>
      <trkpt lat="50.78606" lon="2.65159">
        <ele>72.24</ele>
        <time>2019-07-21T07:16:21Z</time>
      </trkpt>
      <trkpt lat="50.78667" lon="2.65059">
        <ele>68.39</ele>
        <time>2019-07-21T07:16:28Z</time>
      </trkpt>
      <trkpt lat="50.78676" lon="2.65047">
        <ele>68.39</ele>
        <time>2019-07-21T07:16:29Z</time>
      </trkpt>
      <trkpt lat="50.7873" lon="2.64972">
        <ele>65.03</ele>
        <time>2019-07-21T07:16:35Z</time>
      </trkpt>
      <trkpt lat="50.78824" lon="2.64872">
        <ele>62.14</ele>
        <time>2019-07-21T07:16:45Z</time>
      </trkpt>
      <trkpt lat="50.78891" lon="2.64794">
        <ele>59.26</ele>
        <time>2019-07-21T07:16:53Z</time>
      </trkpt>
      <trkpt lat="50.78938" lon="2.64734">
        <ele>55.89</ele>
        <time>2019-07-21T07:16:59Z</time>
      </trkpt>
      <trkpt lat="50.78946" lon="2.64723">
        <ele>55.89</ele>
        <time>2019-07-21T07:17:00Z</time>
      </trkpt>
      <trkpt lat="50.78979" lon="2.64678">
        <ele>52.53</ele>
        <time>2019-07-21T07:17:04Z</time>
      </trkpt>
      <trkpt lat="50.7902" lon="2.64618">
        <ele>49.16</ele>
        <time>2019-07-21T07:17:09Z</time>
      </trkpt>
      <trkpt lat="50.79029" lon="2.64606">
        <ele>49.16</ele>
        <time>2019-07-21T07:17:10Z</time>
      </trkpt>
      <trkpt lat="50.79073" lon="2.64553">
        <ele>46.28</ele>
        <time>2019-07-21T07:17:15Z</time>
      </trkpt>
      <trkpt lat="50.79082" lon="2.64541">
        <ele>46.28</ele>
        <time>2019-07-21T07:17:16Z</time>
      </trkpt>
      <trkpt lat="50.79138" lon="2.64461">
        <ele>42.92</ele>
        <time>2019-07-21T07:17:23Z</time>
      </trkpt>
      <trkpt lat="50.79152" lon="2.64442">
        <ele>41.95</ele>
        <time>2019-07-21T07:17:25Z</time>
      </trkpt>
      <trkpt lat="50.79247" lon="2.64328">
        <ele>39.55</ele>
        <time>2019-07-21T07:17:40Z</time>
      </trkpt>
      <trkpt lat="50.79309" lon="2.64269">
        <ele>39.07</ele>
        <time>2019-07-21T07:17:53Z</time>
      </trkpt>
      <trkpt lat="50.79313" lon="2.64265">
        <ele>40.51</ele>
        <time>2019-07-21T07:17:55Z</time>
      </trkpt>
      <trkpt lat="50.79317" lon="2.64261">
        <ele>40.51</ele>
        <time>2019-07-21T07:17:58Z</time>
      </trkpt>
      <trkpt lat="50.79318" lon="2.64257">
        <ele>40.51</ele>
        <time>2019-07-21T07:17:59Z</time>
      </trkpt>
      <trkpt lat="50.7932" lon="2.64253">
        <ele>40.51</ele>
        <time>2019-07-21T07:18:00Z</time>
      </trkpt>
      <trkpt lat="50.79322" lon="2.64248">
        <ele>40.51</ele>
        <time>2019-07-21T07:18:01Z</time>
      </trkpt>
      <trkpt lat="50.79324" lon="2.64242">
        <ele>40.99</ele>
        <time>2019-07-21T07:18:02Z</time>
      </trkpt>
      <trkpt lat="50.79326" lon="2.64236">
        <ele>40.99</ele>
        <time>2019-07-21T07:18:03Z</time>
      </trkpt>
      <trkpt lat="50.79339" lon="2.64201">
        <ele>41.95</ele>
        <time>2019-07-21T07:18:08Z</time>
      </trkpt>
      <trkpt lat="50.79373" lon="2.64088">
        <ele>44.36</ele>
        <time>2019-07-21T07:18:21Z</time>
      </trkpt>
      <trkpt lat="50.79411" lon="2.63988">
        <ele>46.28</ele>
        <time>2019-07-21T07:18:34Z</time>
      </trkpt>
      <trkpt lat="50.79464" lon="2.6385">
        <ele>48.68</ele>
        <time>2019-07-21T07:18:52Z</time>
      </trkpt>
      <trkpt lat="50.79517" lon="2.63713">
        <ele>48.68</ele>
        <time>2019-07-21T07:19:08Z</time>
      </trkpt>
      <trkpt lat="50.79559" lon="2.63574">
        <ele>47.24</ele>
        <time>2019-07-21T07:19:23Z</time>
      </trkpt>
      <trkpt lat="50.79621" lon="2.6332">
        <ele>46.28</ele>
        <time>2019-07-21T07:19:48Z</time>
      </trkpt>
      <trkpt lat="50.79624" lon="2.6331">
        <ele>46.28</ele>
        <time>2019-07-21T07:19:49Z</time>
      </trkpt>
      <trkpt lat="50.79681" lon="2.63157">
        <ele>48.68</ele>
        <time>2019-07-21T07:20:05Z</time>
      </trkpt>
      <trkpt lat="50.79743" lon="2.62955">
        <ele>49.65</ele>
        <time>2019-07-21T07:20:25Z</time>
      </trkpt>
      <trkpt lat="50.79792" lon="2.62808">
        <ele>46.76</ele>
        <time>2019-07-21T07:20:39Z</time>
      </trkpt>
      <trkpt lat="50.79819" lon="2.62731">
        <ele>42.92</ele>
        <time>2019-07-21T07:20:46Z</time>
      </trkpt>
      <trkpt lat="50.79837" lon="2.62683">
        <ele>39.55</ele>
        <time>2019-07-21T07:20:51Z</time>
      </trkpt>
      <trkpt lat="50.79839" lon="2.62676">
        <ele>39.07</ele>
        <time>2019-07-21T07:20:52Z</time>
      </trkpt>
      <trkpt lat="50.79846" lon="2.62655">
        <ele>38.59</ele>
        <time>2019-07-21T07:20:58Z</time>
      </trkpt>
      <trkpt lat="50.79844" lon="2.6265">
        <ele>38.11</ele>
        <time>2019-07-21T07:20:59Z</time>
      </trkpt>
      <trkpt lat="50.79841" lon="2.62645">
        <ele>38.11</ele>
        <time>2019-07-21T07:21:00Z</time>
      </trkpt>
      <trkpt lat="50.79835" lon="2.62631">
        <ele>38.11</ele>
        <time>2019-07-21T07:21:02Z</time>
      </trkpt>
      <trkpt lat="50.7983" lon="2.62625">
        <ele>38.11</ele>
        <time>2019-07-21T07:21:03Z</time>
      </trkpt>
      <trkpt lat="50.79825" lon="2.62619">
        <ele>39.55</ele>
        <time>2019-07-21T07:21:04Z</time>
      </trkpt>
      <trkpt lat="50.7982" lon="2.62616">
        <ele>39.55</ele>
        <time>2019-07-21T07:21:05Z</time>
      </trkpt>
      <trkpt lat="50.79814" lon="2.62613">
        <ele>40.51</ele>
        <time>2019-07-21T07:21:06Z</time>
      </trkpt>
      <trkpt lat="50.79809" lon="2.62612">
        <ele>40.99</ele>
        <time>2019-07-21T07:21:07Z</time>
      </trkpt>
      <trkpt lat="50.79761" lon="2.62609">
        <ele>43.88</ele>
        <time>2019-07-21T07:21:16Z</time>
      </trkpt>
      <trkpt lat="50.79756" lon="2.62608">
        <ele>43.88</ele>
        <time>2019-07-21T07:21:17Z</time>
      </trkpt>
      <trkpt lat="50.79747" lon="2.62605">
        <ele>43.88</ele>
        <time>2019-07-21T07:21:19Z</time>
      </trkpt>
      <trkpt lat="50.79742" lon="2.62602">
        <ele>43.88</ele>
        <time>2019-07-21T07:21:20Z</time>
      </trkpt>
      <trkpt lat="50.79738" lon="2.62596">
        <ele>44.36</ele>
        <time>2019-07-21T07:21:21Z</time>
      </trkpt>
      <trkpt lat="50.79735" lon="2.62589">
        <ele>44.36</ele>
        <time>2019-07-21T07:21:22Z</time>
      </trkpt>
      <trkpt lat="50.79733" lon="2.62581">
        <ele>44.36</ele>
        <time>2019-07-21T07:21:23Z</time>
      </trkpt>
      <trkpt lat="50.79731" lon="2.62572">
        <ele>44.36</ele>
        <time>2019-07-21T07:21:24Z</time>
      </trkpt>
      <trkpt lat="50.79717" lon="2.62499">
        <ele>42.44</ele>
        <time>2019-07-21T07:21:32Z</time>
      </trkpt>
      <trkpt lat="50.79714" lon="2.6249">
        <ele>42.44</ele>
        <time>2019-07-21T07:21:33Z</time>
      </trkpt>
      <trkpt lat="50.7967" lon="2.6236">
        <ele>39.07</ele>
        <time>2019-07-21T07:21:46Z</time>
      </trkpt>
      <trkpt lat="50.79667" lon="2.62225">
        <ele>37.15</ele>
        <time>2019-07-21T07:21:58Z</time>
      </trkpt>
      <trkpt lat="50.79661" lon="2.62067">
        <ele>34.74</ele>
        <time>2019-07-21T07:22:12Z</time>
      </trkpt>
      <trkpt lat="50.79657" lon="2.61983">
        <ele>33.78</ele>
        <time>2019-07-21T07:22:19Z</time>
      </trkpt>
      <trkpt lat="50.79655" lon="2.61972">
        <ele>33.78</ele>
        <time>2019-07-21T07:22:20Z</time>
      </trkpt>
      <trkpt lat="50.79652" lon="2.61961">
        <ele>33.3</ele>
        <time>2019-07-21T07:22:21Z</time>
      </trkpt>
      <trkpt lat="50.79619" lon="2.6181">
        <ele>29.94</ele>
        <time>2019-07-21T07:22:34Z</time>
      </trkpt>
      <trkpt lat="50.79618" lon="2.61798">
        <ele>29.46</ele>
        <time>2019-07-21T07:22:35Z</time>
      </trkpt>
      <trkpt lat="50.79617" lon="2.61784">
        <ele>28.98</ele>
        <time>2019-07-21T07:22:36Z</time>
      </trkpt>
      <trkpt lat="50.79616" lon="2.6177">
        <ele>28.98</ele>
        <time>2019-07-21T07:22:37Z</time>
      </trkpt>
      <trkpt lat="50.79602" lon="2.61607">
        <ele>26.57</ele>
        <time>2019-07-21T07:22:50Z</time>
      </trkpt>
      <trkpt lat="50.79584" lon="2.61505">
        <ele>29.46</ele>
        <time>2019-07-21T07:23:00Z</time>
      </trkpt>
      <trkpt lat="50.79559" lon="2.61374">
        <ele>32.82</ele>
        <time>2019-07-21T07:23:14Z</time>
      </trkpt>
      <trkpt lat="50.79531" lon="2.61228">
        <ele>34.26</ele>
        <time>2019-07-21T07:23:31Z</time>
      </trkpt>
      <trkpt lat="50.79517" lon="2.61154">
        <ele>32.82</ele>
        <time>2019-07-21T07:23:39Z</time>
      </trkpt>
      <trkpt lat="50.79482" lon="2.61008">
        <ele>29.94</ele>
        <time>2019-07-21T07:23:53Z</time>
      </trkpt>
      <trkpt lat="50.79477" lon="2.61">
        <ele>29.94</ele>
        <time>2019-07-21T07:23:54Z</time>
      </trkpt>
      <trkpt lat="50.79417" lon="2.6089">
        <ele>29.46</ele>
        <time>2019-07-21T07:24:08Z</time>
      </trkpt>
      <trkpt lat="50.79408" lon="2.60863">
        <ele>30.9</ele>
        <time>2019-07-21T07:24:11Z</time>
      </trkpt>
      <trkpt lat="50.79368" lon="2.60753">
        <ele>32.82</ele>
        <time>2019-07-21T07:24:24Z</time>
      </trkpt>
      <trkpt lat="50.79354" lon="2.60716">
        <ele>32.82</ele>
        <time>2019-07-21T07:24:30Z</time>
      </trkpt>
      <trkpt lat="50.79356" lon="2.60685">
        <ele>32.82</ele>
        <time>2019-07-21T07:24:36Z</time>
      </trkpt>
      <trkpt lat="50.79361" lon="2.60683">
        <ele>32.82</ele>
        <time>2019-07-21T07:24:37Z</time>
      </trkpt>
      <trkpt lat="50.79371" lon="2.60682">
        <ele>32.82</ele>
        <time>2019-07-21T07:24:39Z</time>
      </trkpt>
      <trkpt lat="50.79377" lon="2.6068">
        <ele>32.82</ele>
        <time>2019-07-21T07:24:40Z</time>
      </trkpt>
      <trkpt lat="50.79382" lon="2.60676">
        <ele>32.82</ele>
        <time>2019-07-21T07:24:41Z</time>
      </trkpt>
      <trkpt lat="50.79388" lon="2.60671">
        <ele>32.82</ele>
        <time>2019-07-21T07:24:42Z</time>
      </trkpt>
      <trkpt lat="50.79392" lon="2.60665">
        <ele>32.82</ele>
        <time>2019-07-21T07:24:43Z</time>
      </trkpt>
      <trkpt lat="50.79396" lon="2.60658">
        <ele>32.82</ele>
        <time>2019-07-21T07:24:44Z</time>
      </trkpt>
      <trkpt lat="50.79399" lon="2.60649">
        <ele>32.82</ele>
        <time>2019-07-21T07:24:45Z</time>
      </trkpt>
      <trkpt lat="50.79402" lon="2.6064">
        <ele>32.82</ele>
        <time>2019-07-21T07:24:46Z</time>
      </trkpt>
      <trkpt lat="50.79404" lon="2.60631">
        <ele>32.82</ele>
        <time>2019-07-21T07:24:47Z</time>
      </trkpt>
      <trkpt lat="50.79416" lon="2.60584">
        <ele>32.82</ele>
        <time>2019-07-21T07:24:52Z</time>
      </trkpt>
      <trkpt lat="50.7942" lon="2.60576">
        <ele>32.82</ele>
        <time>2019-07-21T07:24:53Z</time>
      </trkpt>
      <trkpt lat="50.79424" lon="2.60568">
        <ele>31.38</ele>
        <time>2019-07-21T07:24:54Z</time>
      </trkpt>
      <trkpt lat="50.79429" lon="2.6056">
        <ele>31.38</ele>
        <time>2019-07-21T07:24:55Z</time>
      </trkpt>
      <trkpt lat="50.79434" lon="2.60553">
        <ele>31.38</ele>
        <time>2019-07-21T07:24:56Z</time>
      </trkpt>
      <trkpt lat="50.79439" lon="2.60547">
        <ele>31.38</ele>
        <time>2019-07-21T07:24:57Z</time>
      </trkpt>
      <trkpt lat="50.79445" lon="2.60542">
        <ele>31.38</ele>
        <time>2019-07-21T07:24:58Z</time>
      </trkpt>
      <trkpt lat="50.79451" lon="2.60539">
        <ele>31.38</ele>
        <time>2019-07-21T07:24:59Z</time>
      </trkpt>
      <trkpt lat="50.79458" lon="2.60536">
        <ele>31.38</ele>
        <time>2019-07-21T07:25:00Z</time>
      </trkpt>
      <trkpt lat="50.79551" lon="2.60482">
        <ele>33.3</ele>
        <time>2019-07-21T07:25:16Z</time>
      </trkpt>
      <trkpt lat="50.79637" lon="2.60402">
        <ele>33.3</ele>
        <time>2019-07-21T07:25:32Z</time>
      </trkpt>
      <trkpt lat="50.79646" lon="2.60394">
        <ele>34.74</ele>
        <time>2019-07-21T07:25:34Z</time>
      </trkpt>
      <trkpt lat="50.7974" lon="2.60322">
        <ele>36.19</ele>
        <time>2019-07-21T07:25:51Z</time>
      </trkpt>
      <trkpt lat="50.79761" lon="2.60313">
        <ele>34.74</ele>
        <time>2019-07-21T07:25:54Z</time>
      </trkpt>
      <trkpt lat="50.79789" lon="2.60305">
        <ele>34.26</ele>
        <time>2019-07-21T07:25:58Z</time>
      </trkpt>
      <trkpt lat="50.79796" lon="2.60301">
        <ele>34.26</ele>
        <time>2019-07-21T07:25:59Z</time>
      </trkpt>
      <trkpt lat="50.79802" lon="2.60294">
        <ele>33.78</ele>
        <time>2019-07-21T07:26:00Z</time>
      </trkpt>
      <trkpt lat="50.79807" lon="2.60286">
        <ele>33.78</ele>
        <time>2019-07-21T07:26:01Z</time>
      </trkpt>
      <trkpt lat="50.79812" lon="2.60277">
        <ele>33.3</ele>
        <time>2019-07-21T07:26:02Z</time>
      </trkpt>
      <trkpt lat="50.7985" lon="2.60205">
        <ele>32.34</ele>
        <time>2019-07-21T07:26:10Z</time>
      </trkpt>
      <trkpt lat="50.79853" lon="2.60194">
        <ele>32.34</ele>
        <time>2019-07-21T07:26:11Z</time>
      </trkpt>
      <trkpt lat="50.79855" lon="2.60182">
        <ele>32.34</ele>
        <time>2019-07-21T07:26:12Z</time>
      </trkpt>
      <trkpt lat="50.79856" lon="2.60171">
        <ele>32.34</ele>
        <time>2019-07-21T07:26:13Z</time>
      </trkpt>
      <trkpt lat="50.79857" lon="2.60159">
        <ele>32.34</ele>
        <time>2019-07-21T07:26:14Z</time>
      </trkpt>
      <trkpt lat="50.79859" lon="2.60123">
        <ele>32.34</ele>
        <time>2019-07-21T07:26:17Z</time>
      </trkpt>
      <trkpt lat="50.79861" lon="2.60112">
        <ele>32.34</ele>
        <time>2019-07-21T07:26:18Z</time>
      </trkpt>
      <trkpt lat="50.79864" lon="2.60102">
        <ele>32.34</ele>
        <time>2019-07-21T07:26:19Z</time>
      </trkpt>
      <trkpt lat="50.7987" lon="2.60094">
        <ele>32.34</ele>
        <time>2019-07-21T07:26:20Z</time>
      </trkpt>
      <trkpt lat="50.79876" lon="2.60088">
        <ele>31.38</ele>
        <time>2019-07-21T07:26:21Z</time>
      </trkpt>
      <trkpt lat="50.79883" lon="2.60083">
        <ele>31.38</ele>
        <time>2019-07-21T07:26:22Z</time>
      </trkpt>
      <trkpt lat="50.79891" lon="2.60078">
        <ele>31.38</ele>
        <time>2019-07-21T07:26:23Z</time>
      </trkpt>
      <trkpt lat="50.79992" lon="2.60009">
        <ele>28.5</ele>
        <time>2019-07-21T07:26:37Z</time>
      </trkpt>
      <trkpt lat="50.80056" lon="2.59919">
        <ele>27.53</ele>
        <time>2019-07-21T07:26:48Z</time>
      </trkpt>
      <trkpt lat="50.8014" lon="2.59768">
        <ele>25.13</ele>
        <time>2019-07-21T07:27:04Z</time>
      </trkpt>
      <trkpt lat="50.80184" lon="2.59663">
        <ele>26.09</ele>
        <time>2019-07-21T07:27:15Z</time>
      </trkpt>
      <trkpt lat="50.80236" lon="2.59548">
        <ele>28.5</ele>
        <time>2019-07-21T07:27:29Z</time>
      </trkpt>
      <trkpt lat="50.80239" lon="2.59539">
        <ele>28.5</ele>
        <time>2019-07-21T07:27:30Z</time>
      </trkpt>
      <trkpt lat="50.80242" lon="2.5953">
        <ele>28.5</ele>
        <time>2019-07-21T07:27:31Z</time>
      </trkpt>
      <trkpt lat="50.8028" lon="2.59423">
        <ele>27.05</ele>
        <time>2019-07-21T07:27:43Z</time>
      </trkpt>
      <trkpt lat="50.80354" lon="2.59315">
        <ele>26.57</ele>
        <time>2019-07-21T07:27:58Z</time>
      </trkpt>
      <trkpt lat="50.80416" lon="2.59238">
        <ele>26.09</ele>
        <time>2019-07-21T07:28:11Z</time>
      </trkpt>
      <trkpt lat="50.80454" lon="2.59184">
        <ele>25.61</ele>
        <time>2019-07-21T07:28:19Z</time>
      </trkpt>
      <trkpt lat="50.80457" lon="2.59177">
        <ele>25.13</ele>
        <time>2019-07-21T07:28:20Z</time>
      </trkpt>
      <trkpt lat="50.80475" lon="2.59132">
        <ele>24.65</ele>
        <time>2019-07-21T07:28:26Z</time>
      </trkpt>
      <trkpt lat="50.80511" lon="2.59072">
        <ele>24.17</ele>
        <time>2019-07-21T07:28:36Z</time>
      </trkpt>
      <trkpt lat="50.80581" lon="2.58976">
        <ele>24.17</ele>
        <time>2019-07-21T07:28:50Z</time>
      </trkpt>
      <trkpt lat="50.8064" lon="2.58897">
        <ele>24.17</ele>
        <time>2019-07-21T07:29:03Z</time>
      </trkpt>
      <trkpt lat="50.80645" lon="2.58896">
        <ele>24.17</ele>
        <time>2019-07-21T07:29:04Z</time>
      </trkpt>
      <trkpt lat="50.80649" lon="2.589">
        <ele>24.17</ele>
        <time>2019-07-21T07:29:05Z</time>
      </trkpt>
      <trkpt lat="50.80654" lon="2.58906">
        <ele>24.17</ele>
        <time>2019-07-21T07:29:06Z</time>
      </trkpt>
      <trkpt lat="50.80658" lon="2.58913">
        <ele>24.17</ele>
        <time>2019-07-21T07:29:07Z</time>
      </trkpt>
      <trkpt lat="50.80661" lon="2.58921">
        <ele>24.17</ele>
        <time>2019-07-21T07:29:08Z</time>
      </trkpt>
      <trkpt lat="50.80735" lon="2.59061">
        <ele>22.73</ele>
        <time>2019-07-21T07:29:25Z</time>
      </trkpt>
      <trkpt lat="50.80772" lon="2.59126">
        <ele>21.29</ele>
        <time>2019-07-21T07:29:36Z</time>
      </trkpt>
      <trkpt lat="50.80775" lon="2.59127">
        <ele>21.29</ele>
        <time>2019-07-21T07:29:40Z</time>
      </trkpt>
      <trkpt lat="50.80777" lon="2.59127">
        <ele>21.29</ele>
        <time>2019-07-21T07:29:41Z</time>
      </trkpt>
      <trkpt lat="50.80779" lon="2.59126">
        <ele>21.29</ele>
        <time>2019-07-21T07:29:42Z</time>
      </trkpt>
      <trkpt lat="50.80781" lon="2.59123">
        <ele>21.29</ele>
        <time>2019-07-21T07:29:43Z</time>
      </trkpt>
      <trkpt lat="50.80784" lon="2.59118">
        <ele>21.29</ele>
        <time>2019-07-21T07:29:44Z</time>
      </trkpt>
      <trkpt lat="50.80786" lon="2.59113">
        <ele>21.29</ele>
        <time>2019-07-21T07:29:45Z</time>
      </trkpt>
      <trkpt lat="50.80826" lon="2.59028">
        <ele>21.29</ele>
        <time>2019-07-21T07:29:57Z</time>
      </trkpt>
      <trkpt lat="50.80866" lon="2.58911">
        <ele>22.73</ele>
        <time>2019-07-21T07:30:11Z</time>
      </trkpt>
      <trkpt lat="50.80903" lon="2.58797">
        <ele>23.21</ele>
        <time>2019-07-21T07:30:25Z</time>
      </trkpt>
      <trkpt lat="50.80907" lon="2.5879">
        <ele>23.21</ele>
        <time>2019-07-21T07:30:26Z</time>
      </trkpt>
      <trkpt lat="50.80955" lon="2.58721">
        <ele>21.77</ele>
        <time>2019-07-21T07:30:37Z</time>
      </trkpt>
      <trkpt lat="50.8096" lon="2.58717">
        <ele>21.77</ele>
        <time>2019-07-21T07:30:38Z</time>
      </trkpt>
      <trkpt lat="50.80969" lon="2.58709">
        <ele>21.77</ele>
        <time>2019-07-21T07:30:40Z</time>
      </trkpt>
      <trkpt lat="50.80972" lon="2.58702">
        <ele>21.77</ele>
        <time>2019-07-21T07:30:41Z</time>
      </trkpt>
      <trkpt lat="50.80972" lon="2.58693">
        <ele>21.77</ele>
        <time>2019-07-21T07:30:42Z</time>
      </trkpt>
      <trkpt lat="50.80961" lon="2.58571">
        <ele>19.84</ele>
        <time>2019-07-21T07:30:53Z</time>
      </trkpt>
      <trkpt lat="50.80949" lon="2.58404">
        <ele>16.96</ele>
        <time>2019-07-21T07:31:10Z</time>
      </trkpt>
      <trkpt lat="50.80945" lon="2.58298">
        <ele>16.48</ele>
        <time>2019-07-21T07:31:21Z</time>
      </trkpt>
      <trkpt lat="50.80946" lon="2.58289">
        <ele>16.48</ele>
        <time>2019-07-21T07:31:22Z</time>
      </trkpt>
      <trkpt lat="50.80948" lon="2.5828">
        <ele>16.48</ele>
        <time>2019-07-21T07:31:23Z</time>
      </trkpt>
      <trkpt lat="50.80951" lon="2.58272">
        <ele>16.48</ele>
        <time>2019-07-21T07:31:24Z</time>
      </trkpt>
      <trkpt lat="50.80956" lon="2.58266">
        <ele>16.48</ele>
        <time>2019-07-21T07:31:25Z</time>
      </trkpt>
      <trkpt lat="50.80961" lon="2.58261">
        <ele>16.48</ele>
        <time>2019-07-21T07:31:26Z</time>
      </trkpt>
      <trkpt lat="50.80966" lon="2.58258">
        <ele>16.48</ele>
        <time>2019-07-21T07:31:27Z</time>
      </trkpt>
      <trkpt lat="50.80972" lon="2.58256">
        <ele>16.48</ele>
        <time>2019-07-21T07:31:28Z</time>
      </trkpt>
      <trkpt lat="50.81003" lon="2.58249">
        <ele>17.92</ele>
        <time>2019-07-21T07:31:33Z</time>
      </trkpt>
      <trkpt lat="50.81008" lon="2.58246">
        <ele>17.92</ele>
        <time>2019-07-21T07:31:34Z</time>
      </trkpt>
      <trkpt lat="50.81014" lon="2.58242">
        <ele>18.4</ele>
        <time>2019-07-21T07:31:35Z</time>
      </trkpt>
      <trkpt lat="50.81019" lon="2.58237">
        <ele>18.4</ele>
        <time>2019-07-21T07:31:36Z</time>
      </trkpt>
      <trkpt lat="50.81023" lon="2.58231">
        <ele>18.4</ele>
        <time>2019-07-21T07:31:37Z</time>
      </trkpt>
      <trkpt lat="50.81028" lon="2.58225">
        <ele>18.4</ele>
        <time>2019-07-21T07:31:38Z</time>
      </trkpt>
      <trkpt lat="50.8103" lon="2.5822">
        <ele>18.4</ele>
        <time>2019-07-21T07:31:39Z</time>
      </trkpt>
      <trkpt lat="50.81077" lon="2.58134">
        <ele>19.84</ele>
        <time>2019-07-21T07:31:51Z</time>
      </trkpt>
      <trkpt lat="50.81079" lon="2.58125">
        <ele>19.84</ele>
        <time>2019-07-21T07:31:52Z</time>
      </trkpt>
      <trkpt lat="50.8108" lon="2.58116">
        <ele>19.84</ele>
        <time>2019-07-21T07:31:53Z</time>
      </trkpt>
      <trkpt lat="50.81081" lon="2.58097">
        <ele>20.32</ele>
        <time>2019-07-21T07:31:55Z</time>
      </trkpt>
      <trkpt lat="50.81082" lon="2.58088">
        <ele>20.32</ele>
        <time>2019-07-21T07:31:56Z</time>
      </trkpt>
      <trkpt lat="50.81082" lon="2.58078">
        <ele>20.32</ele>
        <time>2019-07-21T07:31:57Z</time>
      </trkpt>
      <trkpt lat="50.81109" lon="2.57945">
        <ele>21.77</ele>
        <time>2019-07-21T07:32:13Z</time>
      </trkpt>
      <trkpt lat="50.81118" lon="2.57902">
        <ele>22.25</ele>
        <time>2019-07-21T07:32:20Z</time>
      </trkpt>
      <trkpt lat="50.81119" lon="2.57896">
        <ele>23.21</ele>
        <time>2019-07-21T07:32:21Z</time>
      </trkpt>
      <trkpt lat="50.8112" lon="2.57889">
        <ele>23.69</ele>
        <time>2019-07-21T07:32:22Z</time>
      </trkpt>
      <trkpt lat="50.81126" lon="2.57856">
        <ele>22.73</ele>
        <time>2019-07-21T07:32:26Z</time>
      </trkpt>
      <trkpt lat="50.81132" lon="2.57812">
        <ele>22.73</ele>
        <time>2019-07-21T07:32:31Z</time>
      </trkpt>
      <trkpt lat="50.81131" lon="2.57803">
        <ele>22.73</ele>
        <time>2019-07-21T07:32:32Z</time>
      </trkpt>
      <trkpt lat="50.8113" lon="2.57794">
        <ele>23.69</ele>
        <time>2019-07-21T07:32:33Z</time>
      </trkpt>
      <trkpt lat="50.81128" lon="2.57786">
        <ele>23.69</ele>
        <time>2019-07-21T07:32:34Z</time>
      </trkpt>
      <trkpt lat="50.81127" lon="2.57777">
        <ele>23.69</ele>
        <time>2019-07-21T07:32:35Z</time>
      </trkpt>
      <trkpt lat="50.81119" lon="2.57636">
        <ele>23.69</ele>
        <time>2019-07-21T07:32:50Z</time>
      </trkpt>
      <trkpt lat="50.81122" lon="2.57469">
        <ele>24.17</ele>
        <time>2019-07-21T07:33:07Z</time>
      </trkpt>
      <trkpt lat="50.81109" lon="2.57284">
        <ele>25.13</ele>
        <time>2019-07-21T07:33:26Z</time>
      </trkpt>
      <trkpt lat="50.81109" lon="2.57256">
        <ele>25.61</ele>
        <time>2019-07-21T07:33:29Z</time>
      </trkpt>
      <trkpt lat="50.8111" lon="2.57228">
        <ele>26.57</ele>
        <time>2019-07-21T07:33:32Z</time>
      </trkpt>
      <trkpt lat="50.81127" lon="2.57086">
        <ele>27.53</ele>
        <time>2019-07-21T07:33:47Z</time>
      </trkpt>
      <trkpt lat="50.81139" lon="2.56918">
        <ele>27.53</ele>
        <time>2019-07-21T07:34:04Z</time>
      </trkpt>
      <trkpt lat="50.81156" lon="2.56756">
        <ele>29.94</ele>
        <time>2019-07-21T07:34:21Z</time>
      </trkpt>
      <trkpt lat="50.81188" lon="2.56603">
        <ele>30.42</ele>
        <time>2019-07-21T07:34:38Z</time>
      </trkpt>
      <trkpt lat="50.81225" lon="2.5644">
        <ele>31.38</ele>
        <time>2019-07-21T07:34:56Z</time>
      </trkpt>
      <trkpt lat="50.81276" lon="2.56272">
        <ele>32.34</ele>
        <time>2019-07-21T07:35:15Z</time>
      </trkpt>
      <trkpt lat="50.81326" lon="2.56103">
        <ele>32.82</ele>
        <time>2019-07-21T07:35:34Z</time>
      </trkpt>
      <trkpt lat="50.81369" lon="2.55954">
        <ele>34.26</ele>
        <time>2019-07-21T07:35:51Z</time>
      </trkpt>
      <trkpt lat="50.81422" lon="2.55851">
        <ele>34.74</ele>
        <time>2019-07-21T07:36:04Z</time>
      </trkpt>
      <trkpt lat="50.81427" lon="2.55843">
        <ele>34.74</ele>
        <time>2019-07-21T07:36:05Z</time>
      </trkpt>
      <trkpt lat="50.81435" lon="2.55826">
        <ele>33.3</ele>
        <time>2019-07-21T07:36:07Z</time>
      </trkpt>
      <trkpt lat="50.81498" lon="2.55673">
        <ele>31.38</ele>
        <time>2019-07-21T07:36:24Z</time>
      </trkpt>
      <trkpt lat="50.81504" lon="2.55653">
        <ele>30.9</ele>
        <time>2019-07-21T07:36:26Z</time>
      </trkpt>
      <trkpt lat="50.81525" lon="2.55521">
        <ele>30.42</ele>
        <time>2019-07-21T07:36:39Z</time>
      </trkpt>
      <trkpt lat="50.81553" lon="2.55397">
        <ele>30.42</ele>
        <time>2019-07-21T07:36:52Z</time>
      </trkpt>
      <trkpt lat="50.81557" lon="2.55223">
        <ele>30.42</ele>
        <time>2019-07-21T07:37:09Z</time>
      </trkpt>
      <trkpt lat="50.81577" lon="2.55019">
        <ele>30.42</ele>
        <time>2019-07-21T07:37:29Z</time>
      </trkpt>
      <trkpt lat="50.81609" lon="2.54838">
        <ele>30.9</ele>
        <time>2019-07-21T07:37:47Z</time>
      </trkpt>
      <trkpt lat="50.81635" lon="2.54638">
        <ele>31.86</ele>
        <time>2019-07-21T07:38:07Z</time>
      </trkpt>
      <trkpt lat="50.8167" lon="2.54461">
        <ele>33.78</ele>
        <time>2019-07-21T07:38:27Z</time>
      </trkpt>
      <trkpt lat="50.81684" lon="2.54319">
        <ele>35.71</ele>
        <time>2019-07-21T07:38:43Z</time>
      </trkpt>
      <trkpt lat="50.81707" lon="2.54168">
        <ele>36.19</ele>
        <time>2019-07-21T07:39:00Z</time>
      </trkpt>
      <trkpt lat="50.81722" lon="2.54071">
        <ele>37.15</ele>
        <time>2019-07-21T07:39:11Z</time>
      </trkpt>
      <trkpt lat="50.81723" lon="2.54061">
        <ele>37.15</ele>
        <time>2019-07-21T07:39:12Z</time>
      </trkpt>
      <trkpt lat="50.81722" lon="2.54052">
        <ele>37.15</ele>
        <time>2019-07-21T07:39:13Z</time>
      </trkpt>
      <trkpt lat="50.81722" lon="2.54043">
        <ele>37.15</ele>
        <time>2019-07-21T07:39:14Z</time>
      </trkpt>
      <trkpt lat="50.8172" lon="2.54034">
        <ele>37.15</ele>
        <time>2019-07-21T07:39:15Z</time>
      </trkpt>
      <trkpt lat="50.81687" lon="2.53912">
        <ele>38.59</ele>
        <time>2019-07-21T07:39:30Z</time>
      </trkpt>
      <trkpt lat="50.81686" lon="2.53904">
        <ele>39.07</ele>
        <time>2019-07-21T07:39:31Z</time>
      </trkpt>
      <trkpt lat="50.8168" lon="2.53785">
        <ele>40.03</ele>
        <time>2019-07-21T07:39:45Z</time>
      </trkpt>
      <trkpt lat="50.81681" lon="2.53777">
        <ele>40.51</ele>
        <time>2019-07-21T07:39:46Z</time>
      </trkpt>
      <trkpt lat="50.81683" lon="2.53769">
        <ele>40.51</ele>
        <time>2019-07-21T07:39:47Z</time>
      </trkpt>
      <trkpt lat="50.81686" lon="2.53762">
        <ele>40.51</ele>
        <time>2019-07-21T07:39:48Z</time>
      </trkpt>
      <trkpt lat="50.8169" lon="2.53754">
        <ele>40.51</ele>
        <time>2019-07-21T07:39:49Z</time>
      </trkpt>
      <trkpt lat="50.81741" lon="2.53634">
        <ele>40.51</ele>
        <time>2019-07-21T07:40:04Z</time>
      </trkpt>
      <trkpt lat="50.81799" lon="2.53516">
        <ele>41.47</ele>
        <time>2019-07-21T07:40:20Z</time>
      </trkpt>
      <trkpt lat="50.81868" lon="2.53465">
        <ele>42.92</ele>
        <time>2019-07-21T07:40:33Z</time>
      </trkpt>
      <trkpt lat="50.81961" lon="2.53397">
        <ele>44.36</ele>
        <time>2019-07-21T07:40:51Z</time>
      </trkpt>
      <trkpt lat="50.82027" lon="2.5331">
        <ele>46.76</ele>
        <time>2019-07-21T07:41:07Z</time>
      </trkpt>
      <trkpt lat="50.82079" lon="2.53237">
        <ele>50.13</ele>
        <time>2019-07-21T07:41:21Z</time>
      </trkpt>
      <trkpt lat="50.82123" lon="2.53183">
        <ele>53.49</ele>
        <time>2019-07-21T07:41:33Z</time>
      </trkpt>
      <trkpt lat="50.8214" lon="2.53161">
        <ele>53.97</ele>
        <time>2019-07-21T07:41:38Z</time>
      </trkpt>
      <trkpt lat="50.82178" lon="2.53106">
        <ele>57.34</ele>
        <time>2019-07-21T07:41:49Z</time>
      </trkpt>
      <trkpt lat="50.82227" lon="2.53015">
        <ele>59.26</ele>
        <time>2019-07-21T07:42:04Z</time>
      </trkpt>
      <trkpt lat="50.82272" lon="2.52942">
        <ele>57.82</ele>
        <time>2019-07-21T07:42:17Z</time>
      </trkpt>
      <trkpt lat="50.8229" lon="2.52903">
        <ele>57.34</ele>
        <time>2019-07-21T07:42:26Z</time>
      </trkpt>
      <trkpt lat="50.82318" lon="2.52802">
        <ele>54.45</ele>
        <time>2019-07-21T07:42:38Z</time>
      </trkpt>
      <trkpt lat="50.82331" lon="2.5275">
        <ele>52.53</ele>
        <time>2019-07-21T07:42:43Z</time>
      </trkpt>
      <trkpt lat="50.8236" lon="2.52625">
        <ele>48.68</ele>
        <time>2019-07-21T07:42:54Z</time>
      </trkpt>
      <trkpt lat="50.82364" lon="2.52613">
        <ele>48.68</ele>
        <time>2019-07-21T07:42:55Z</time>
      </trkpt>
      <trkpt lat="50.82368" lon="2.52602">
        <ele>48.2</ele>
        <time>2019-07-21T07:42:56Z</time>
      </trkpt>
      <trkpt lat="50.82374" lon="2.52592">
        <ele>48.2</ele>
        <time>2019-07-21T07:42:57Z</time>
      </trkpt>
      <trkpt lat="50.8238" lon="2.52582">
        <ele>48.2</ele>
        <time>2019-07-21T07:42:58Z</time>
      </trkpt>
      <trkpt lat="50.8245" lon="2.52453">
        <ele>44.84</ele>
        <time>2019-07-21T07:43:11Z</time>
      </trkpt>
      <trkpt lat="50.8251" lon="2.52372">
        <ele>43.88</ele>
        <time>2019-07-21T07:43:21Z</time>
      </trkpt>
      <trkpt lat="50.8255" lon="2.52272">
        <ele>42.92</ele>
        <time>2019-07-21T07:43:31Z</time>
      </trkpt>
      <trkpt lat="50.82562" lon="2.52243">
        <ele>42.44</ele>
        <time>2019-07-21T07:43:34Z</time>
      </trkpt>
      <trkpt lat="50.82576" lon="2.52189">
        <ele>42.44</ele>
        <time>2019-07-21T07:43:39Z</time>
      </trkpt>
      <trkpt lat="50.8258" lon="2.5218">
        <ele>42.44</ele>
        <time>2019-07-21T07:43:40Z</time>
      </trkpt>
      <trkpt lat="50.82584" lon="2.52171">
        <ele>42.44</ele>
        <time>2019-07-21T07:43:41Z</time>
      </trkpt>
      <trkpt lat="50.82645" lon="2.5207">
        <ele>42.92</ele>
        <time>2019-07-21T07:43:54Z</time>
      </trkpt>
      <trkpt lat="50.82653" lon="2.52056">
        <ele>42.92</ele>
        <time>2019-07-21T07:43:56Z</time>
      </trkpt>
      <trkpt lat="50.82667" lon="2.52033">
        <ele>42.44</ele>
        <time>2019-07-21T07:44:01Z</time>
      </trkpt>
      <trkpt lat="50.82668" lon="2.52027">
        <ele>41.95</ele>
        <time>2019-07-21T07:44:02Z</time>
      </trkpt>
      <trkpt lat="50.82667" lon="2.52021">
        <ele>41.95</ele>
        <time>2019-07-21T07:44:03Z</time>
      </trkpt>
      <trkpt lat="50.82663" lon="2.52">
        <ele>42.44</ele>
        <time>2019-07-21T07:44:06Z</time>
      </trkpt>
      <trkpt lat="50.8266" lon="2.51992">
        <ele>41.95</ele>
        <time>2019-07-21T07:44:07Z</time>
      </trkpt>
      <trkpt lat="50.82657" lon="2.51986">
        <ele>41.95</ele>
        <time>2019-07-21T07:44:08Z</time>
      </trkpt>
      <trkpt lat="50.82653" lon="2.51979">
        <ele>42.44</ele>
        <time>2019-07-21T07:44:09Z</time>
      </trkpt>
      <trkpt lat="50.82648" lon="2.51974">
        <ele>42.44</ele>
        <time>2019-07-21T07:44:10Z</time>
      </trkpt>
      <trkpt lat="50.82643" lon="2.51969">
        <ele>42.44</ele>
        <time>2019-07-21T07:44:11Z</time>
      </trkpt>
      <trkpt lat="50.82634" lon="2.5196">
        <ele>42.44</ele>
        <time>2019-07-21T07:44:13Z</time>
      </trkpt>
      <trkpt lat="50.8256" lon="2.51926">
        <ele>42.44</ele>
        <time>2019-07-21T07:44:26Z</time>
      </trkpt>
      <trkpt lat="50.82509" lon="2.51904">
        <ele>42.44</ele>
        <time>2019-07-21T07:44:35Z</time>
      </trkpt>
      <trkpt lat="50.82504" lon="2.51899">
        <ele>43.88</ele>
        <time>2019-07-21T07:44:36Z</time>
      </trkpt>
      <trkpt lat="50.82499" lon="2.51891">
        <ele>43.88</ele>
        <time>2019-07-21T07:44:37Z</time>
      </trkpt>
      <trkpt lat="50.82496" lon="2.51883">
        <ele>43.88</ele>
        <time>2019-07-21T07:44:38Z</time>
      </trkpt>
      <trkpt lat="50.82493" lon="2.51873">
        <ele>43.88</ele>
        <time>2019-07-21T07:44:39Z</time>
      </trkpt>
      <trkpt lat="50.82491" lon="2.51864">
        <ele>43.88</ele>
        <time>2019-07-21T07:44:40Z</time>
      </trkpt>
      <trkpt lat="50.8249" lon="2.51854">
        <ele>43.88</ele>
        <time>2019-07-21T07:44:41Z</time>
      </trkpt>
      <trkpt lat="50.82489" lon="2.51844">
        <ele>43.88</ele>
        <time>2019-07-21T07:44:42Z</time>
      </trkpt>
      <trkpt lat="50.82468" lon="2.5172">
        <ele>40.51</ele>
        <time>2019-07-21T07:44:54Z</time>
      </trkpt>
      <trkpt lat="50.82434" lon="2.51594">
        <ele>37.63</ele>
        <time>2019-07-21T07:45:05Z</time>
      </trkpt>
      <trkpt lat="50.82419" lon="2.51532">
        <ele>34.26</ele>
        <time>2019-07-21T07:45:10Z</time>
      </trkpt>
      <trkpt lat="50.82389" lon="2.51417">
        <ele>32.34</ele>
        <time>2019-07-21T07:45:19Z</time>
      </trkpt>
      <trkpt lat="50.82385" lon="2.51407">
        <ele>32.34</ele>
        <time>2019-07-21T07:45:20Z</time>
      </trkpt>
      <trkpt lat="50.8238" lon="2.51398">
        <ele>32.34</ele>
        <time>2019-07-21T07:45:21Z</time>
      </trkpt>
      <trkpt lat="50.82334" lon="2.51342">
        <ele>33.78</ele>
        <time>2019-07-21T07:45:29Z</time>
      </trkpt>
      <trkpt lat="50.82269" lon="2.5127">
        <ele>37.15</ele>
        <time>2019-07-21T07:45:42Z</time>
      </trkpt>
      <trkpt lat="50.82192" lon="2.51165">
        <ele>39.07</ele>
        <time>2019-07-21T07:45:59Z</time>
      </trkpt>
      <trkpt lat="50.82123" lon="2.5104">
        <ele>39.55</ele>
        <time>2019-07-21T07:46:16Z</time>
      </trkpt>
      <trkpt lat="50.8208" lon="2.50983">
        <ele>38.11</ele>
        <time>2019-07-21T07:46:25Z</time>
      </trkpt>
      <trkpt lat="50.82025" lon="2.50878">
        <ele>37.63</ele>
        <time>2019-07-21T07:46:38Z</time>
      </trkpt>
      <trkpt lat="50.81972" lon="2.507">
        <ele>37.15</ele>
        <time>2019-07-21T07:46:56Z</time>
      </trkpt>
      <trkpt lat="50.81944" lon="2.50633">
        <ele>38.59</ele>
        <time>2019-07-21T07:47:04Z</time>
      </trkpt>
      <trkpt lat="50.81865" lon="2.50508">
        <ele>41.47</ele>
        <time>2019-07-21T07:47:23Z</time>
      </trkpt>
      <trkpt lat="50.81785" lon="2.50391">
        <ele>43.88</ele>
        <time>2019-07-21T07:47:42Z</time>
      </trkpt>
      <trkpt lat="50.81728" lon="2.50312">
        <ele>47.24</ele>
        <time>2019-07-21T07:47:55Z</time>
      </trkpt>
      <trkpt lat="50.81687" lon="2.50233">
        <ele>47.24</ele>
        <time>2019-07-21T07:48:08Z</time>
      </trkpt>
      <trkpt lat="50.81662" lon="2.50151">
        <ele>44.36</ele>
        <time>2019-07-21T07:48:17Z</time>
      </trkpt>
      <trkpt lat="50.81636" lon="2.50067">
        <ele>40.51</ele>
        <time>2019-07-21T07:48:25Z</time>
      </trkpt>
      <trkpt lat="50.8162" lon="2.50025">
        <ele>39.07</ele>
        <time>2019-07-21T07:48:29Z</time>
      </trkpt>
      <trkpt lat="50.81618" lon="2.50016">
        <ele>39.07</ele>
        <time>2019-07-21T07:48:30Z</time>
      </trkpt>
      <trkpt lat="50.81618" lon="2.50006">
        <ele>38.11</ele>
        <time>2019-07-21T07:48:31Z</time>
      </trkpt>
      <trkpt lat="50.81621" lon="2.5">
        <ele>37.63</ele>
        <time>2019-07-21T07:48:32Z</time>
      </trkpt>
      <trkpt lat="50.81625" lon="2.49994">
        <ele>37.15</ele>
        <time>2019-07-21T07:48:33Z</time>
      </trkpt>
      <trkpt lat="50.81631" lon="2.49988">
        <ele>37.15</ele>
        <time>2019-07-21T07:48:34Z</time>
      </trkpt>
      <trkpt lat="50.81672" lon="2.49938">
        <ele>36.67</ele>
        <time>2019-07-21T07:48:42Z</time>
      </trkpt>
      <trkpt lat="50.81694" lon="2.4992">
        <ele>36.67</ele>
        <time>2019-07-21T07:48:46Z</time>
      </trkpt>
      <trkpt lat="50.81789" lon="2.49852">
        <ele>36.67</ele>
        <time>2019-07-21T07:49:02Z</time>
      </trkpt>
      <trkpt lat="50.81856" lon="2.49807">
        <ele>35.23</ele>
        <time>2019-07-21T07:49:13Z</time>
      </trkpt>
      <trkpt lat="50.81862" lon="2.49801">
        <ele>35.23</ele>
        <time>2019-07-21T07:49:14Z</time>
      </trkpt>
      <trkpt lat="50.81867" lon="2.49794">
        <ele>35.23</ele>
        <time>2019-07-21T07:49:15Z</time>
      </trkpt>
      <trkpt lat="50.81909" lon="2.49727">
        <ele>35.23</ele>
        <time>2019-07-21T07:49:24Z</time>
      </trkpt>
      <trkpt lat="50.81914" lon="2.49721">
        <ele>35.23</ele>
        <time>2019-07-21T07:49:25Z</time>
      </trkpt>
      <trkpt lat="50.8192" lon="2.49716">
        <ele>35.23</ele>
        <time>2019-07-21T07:49:26Z</time>
      </trkpt>
      <trkpt lat="50.81926" lon="2.49712">
        <ele>35.23</ele>
        <time>2019-07-21T07:49:27Z</time>
      </trkpt>
      <trkpt lat="50.81933" lon="2.49709">
        <ele>34.74</ele>
        <time>2019-07-21T07:49:28Z</time>
      </trkpt>
      <trkpt lat="50.81989" lon="2.4967">
        <ele>33.78</ele>
        <time>2019-07-21T07:49:37Z</time>
      </trkpt>
      <trkpt lat="50.81994" lon="2.49663">
        <ele>33.78</ele>
        <time>2019-07-21T07:49:38Z</time>
      </trkpt>
      <trkpt lat="50.81999" lon="2.49656">
        <ele>33.78</ele>
        <time>2019-07-21T07:49:39Z</time>
      </trkpt>
      <trkpt lat="50.82036" lon="2.49543">
        <ele>32.34</ele>
        <time>2019-07-21T07:49:51Z</time>
      </trkpt>
      <trkpt lat="50.82043" lon="2.4943">
        <ele>32.34</ele>
        <time>2019-07-21T07:50:02Z</time>
      </trkpt>
      <trkpt lat="50.82045" lon="2.4942">
        <ele>32.34</ele>
        <time>2019-07-21T07:50:03Z</time>
      </trkpt>
      <trkpt lat="50.82047" lon="2.49411">
        <ele>32.34</ele>
        <time>2019-07-21T07:50:04Z</time>
      </trkpt>
      <trkpt lat="50.82053" lon="2.49394">
        <ele>32.34</ele>
        <time>2019-07-21T07:50:06Z</time>
      </trkpt>
      <trkpt lat="50.82057" lon="2.49386">
        <ele>33.78</ele>
        <time>2019-07-21T07:50:07Z</time>
      </trkpt>
      <trkpt lat="50.82061" lon="2.49379">
        <ele>33.78</ele>
        <time>2019-07-21T07:50:08Z</time>
      </trkpt>
      <trkpt lat="50.82073" lon="2.49359">
        <ele>34.26</ele>
        <time>2019-07-21T07:50:11Z</time>
      </trkpt>
      <trkpt lat="50.82079" lon="2.49353">
        <ele>34.26</ele>
        <time>2019-07-21T07:50:12Z</time>
      </trkpt>
      <trkpt lat="50.82168" lon="2.49281">
        <ele>35.23</ele>
        <time>2019-07-21T07:50:28Z</time>
      </trkpt>
      <trkpt lat="50.82173" lon="2.49278">
        <ele>35.23</ele>
        <time>2019-07-21T07:50:29Z</time>
      </trkpt>
      <trkpt lat="50.82179" lon="2.49275">
        <ele>35.23</ele>
        <time>2019-07-21T07:50:30Z</time>
      </trkpt>
      <trkpt lat="50.82185" lon="2.49273">
        <ele>35.23</ele>
        <time>2019-07-21T07:50:31Z</time>
      </trkpt>
      <trkpt lat="50.82191" lon="2.49271">
        <ele>35.23</ele>
        <time>2019-07-21T07:50:32Z</time>
      </trkpt>
      <trkpt lat="50.82197" lon="2.4927">
        <ele>35.23</ele>
        <time>2019-07-21T07:50:33Z</time>
      </trkpt>
      <trkpt lat="50.82204" lon="2.49269">
        <ele>35.23</ele>
        <time>2019-07-21T07:50:34Z</time>
      </trkpt>
      <trkpt lat="50.82297" lon="2.49269">
        <ele>35.23</ele>
        <time>2019-07-21T07:50:50Z</time>
      </trkpt>
      <trkpt lat="50.82333" lon="2.49265">
        <ele>34.26</ele>
        <time>2019-07-21T07:50:57Z</time>
      </trkpt>
      <trkpt lat="50.82359" lon="2.49262">
        <ele>34.26</ele>
        <time>2019-07-21T07:51:03Z</time>
      </trkpt>
      <trkpt lat="50.82362" lon="2.49257">
        <ele>34.26</ele>
        <time>2019-07-21T07:51:04Z</time>
      </trkpt>
      <trkpt lat="50.82364" lon="2.49252">
        <ele>34.26</ele>
        <time>2019-07-21T07:51:05Z</time>
      </trkpt>
      <trkpt lat="50.82365" lon="2.49246">
        <ele>34.26</ele>
        <time>2019-07-21T07:51:06Z</time>
      </trkpt>
      <trkpt lat="50.82366" lon="2.49239">
        <ele>34.26</ele>
        <time>2019-07-21T07:51:07Z</time>
      </trkpt>
      <trkpt lat="50.82366" lon="2.49232">
        <ele>34.26</ele>
        <time>2019-07-21T07:51:08Z</time>
      </trkpt>
      <trkpt lat="50.82367" lon="2.49226">
        <ele>34.26</ele>
        <time>2019-07-21T07:51:09Z</time>
      </trkpt>
      <trkpt lat="50.82368" lon="2.49219">
        <ele>34.26</ele>
        <time>2019-07-21T07:51:10Z</time>
      </trkpt>
      <trkpt lat="50.8237" lon="2.49204">
        <ele>34.26</ele>
        <time>2019-07-21T07:51:12Z</time>
      </trkpt>
      <trkpt lat="50.8237" lon="2.49186">
        <ele>33.78</ele>
        <time>2019-07-21T07:51:14Z</time>
      </trkpt>
      <trkpt lat="50.82363" lon="2.49008">
        <ele>30.9</ele>
        <time>2019-07-21T07:51:31Z</time>
      </trkpt>
      <trkpt lat="50.82341" lon="2.48815">
        <ele>28.5</ele>
        <time>2019-07-21T07:51:49Z</time>
      </trkpt>
      <trkpt lat="50.82326" lon="2.48635">
        <ele>27.53</ele>
        <time>2019-07-21T07:52:06Z</time>
      </trkpt>
      <trkpt lat="50.82305" lon="2.48447">
        <ele>27.05</ele>
        <time>2019-07-21T07:52:24Z</time>
      </trkpt>
      <trkpt lat="50.82277" lon="2.48357">
        <ele>27.05</ele>
        <time>2019-07-21T07:52:34Z</time>
      </trkpt>
      <trkpt lat="50.82276" lon="2.48346">
        <ele>27.05</ele>
        <time>2019-07-21T07:52:35Z</time>
      </trkpt>
      <trkpt lat="50.82274" lon="2.48305">
        <ele>27.05</ele>
        <time>2019-07-21T07:52:39Z</time>
      </trkpt>
      <trkpt lat="50.82275" lon="2.48295">
        <ele>27.05</ele>
        <time>2019-07-21T07:52:40Z</time>
      </trkpt>
      <trkpt lat="50.82279" lon="2.48265">
        <ele>27.05</ele>
        <time>2019-07-21T07:52:43Z</time>
      </trkpt>
      <trkpt lat="50.82292" lon="2.48229">
        <ele>28.5</ele>
        <time>2019-07-21T07:52:47Z</time>
      </trkpt>
      <trkpt lat="50.82343" lon="2.48132">
        <ele>29.46</ele>
        <time>2019-07-21T07:53:00Z</time>
      </trkpt>
      <trkpt lat="50.82345" lon="2.48124">
        <ele>29.46</ele>
        <time>2019-07-21T07:53:01Z</time>
      </trkpt>
      <trkpt lat="50.82347" lon="2.48115">
        <ele>29.46</ele>
        <time>2019-07-21T07:53:02Z</time>
      </trkpt>
      <trkpt lat="50.82347" lon="2.48107">
        <ele>29.46</ele>
        <time>2019-07-21T07:53:03Z</time>
      </trkpt>
      <trkpt lat="50.82348" lon="2.48099">
        <ele>29.46</ele>
        <time>2019-07-21T07:53:04Z</time>
      </trkpt>
      <trkpt lat="50.82348" lon="2.48092">
        <ele>29.46</ele>
        <time>2019-07-21T07:53:05Z</time>
      </trkpt>
      <trkpt lat="50.82349" lon="2.48023">
        <ele>29.46</ele>
        <time>2019-07-21T07:53:18Z</time>
      </trkpt>
      <trkpt lat="50.82336" lon="2.47925">
        <ele>31.38</ele>
        <time>2019-07-21T07:53:30Z</time>
      </trkpt>
      <trkpt lat="50.82319" lon="2.47866">
        <ele>31.86</ele>
        <time>2019-07-21T07:53:37Z</time>
      </trkpt>
      <trkpt lat="50.82304" lon="2.47837">
        <ele>32.34</ele>
        <time>2019-07-21T07:53:41Z</time>
      </trkpt>
      <trkpt lat="50.82235" lon="2.47735">
        <ele>34.26</ele>
        <time>2019-07-21T07:53:57Z</time>
      </trkpt>
      <trkpt lat="50.82153" lon="2.47574">
        <ele>37.63</ele>
        <time>2019-07-21T07:54:20Z</time>
      </trkpt>
      <trkpt lat="50.82084" lon="2.47428">
        <ele>40.03</ele>
        <time>2019-07-21T07:54:40Z</time>
      </trkpt>
      <trkpt lat="50.8202" lon="2.47288">
        <ele>42.92</ele>
        <time>2019-07-21T07:54:59Z</time>
      </trkpt>
      <trkpt lat="50.81981" lon="2.47191">
        <ele>45.8</ele>
        <time>2019-07-21T07:55:12Z</time>
      </trkpt>
      <trkpt lat="50.81927" lon="2.47038">
        <ele>49.16</ele>
        <time>2019-07-21T07:55:32Z</time>
      </trkpt>
      <trkpt lat="50.81902" lon="2.46933">
        <ele>52.05</ele>
        <time>2019-07-21T07:55:44Z</time>
      </trkpt>
      <trkpt lat="50.81868" lon="2.46798">
        <ele>53.97</ele>
        <time>2019-07-21T07:55:59Z</time>
      </trkpt>
      <trkpt lat="50.81817" lon="2.4668">
        <ele>52.53</ele>
        <time>2019-07-21T07:56:13Z</time>
      </trkpt>
      <trkpt lat="50.81812" lon="2.46672">
        <ele>52.53</ele>
        <time>2019-07-21T07:56:14Z</time>
      </trkpt>
      <trkpt lat="50.81718" lon="2.46547">
        <ele>52.05</ele>
        <time>2019-07-21T07:56:32Z</time>
      </trkpt>
      <trkpt lat="50.81706" lon="2.46519">
        <ele>53.49</ele>
        <time>2019-07-21T07:56:35Z</time>
      </trkpt>
      <trkpt lat="50.81674" lon="2.46383">
        <ele>53.49</ele>
        <time>2019-07-21T07:56:48Z</time>
      </trkpt>
      <trkpt lat="50.81666" lon="2.46341">
        <ele>52.05</ele>
        <time>2019-07-21T07:56:52Z</time>
      </trkpt>
      <trkpt lat="50.81615" lon="2.4617">
        <ele>49.16</ele>
        <time>2019-07-21T07:57:08Z</time>
      </trkpt>
      <trkpt lat="50.81554" lon="2.45978">
        <ele>48.68</ele>
        <time>2019-07-21T07:57:26Z</time>
      </trkpt>
      <trkpt lat="50.81496" lon="2.45777">
        <ele>48.2</ele>
        <time>2019-07-21T07:57:45Z</time>
      </trkpt>
      <trkpt lat="50.8149" lon="2.45732">
        <ele>47.72</ele>
        <time>2019-07-21T07:57:49Z</time>
      </trkpt>
      <trkpt lat="50.8149" lon="2.4572">
        <ele>47.72</ele>
        <time>2019-07-21T07:57:50Z</time>
      </trkpt>
      <trkpt lat="50.8149" lon="2.45709">
        <ele>47.72</ele>
        <time>2019-07-21T07:57:51Z</time>
      </trkpt>
      <trkpt lat="50.81496" lon="2.45625">
        <ele>47.72</ele>
        <time>2019-07-21T07:57:59Z</time>
      </trkpt>
      <trkpt lat="50.81496" lon="2.45616">
        <ele>47.72</ele>
        <time>2019-07-21T07:58:00Z</time>
      </trkpt>
      <trkpt lat="50.81494" lon="2.45599">
        <ele>47.72</ele>
        <time>2019-07-21T07:58:02Z</time>
      </trkpt>
      <trkpt lat="50.81492" lon="2.45591">
        <ele>47.72</ele>
        <time>2019-07-21T07:58:03Z</time>
      </trkpt>
      <trkpt lat="50.81486" lon="2.45575">
        <ele>47.72</ele>
        <time>2019-07-21T07:58:05Z</time>
      </trkpt>
      <trkpt lat="50.81482" lon="2.45571">
        <ele>47.72</ele>
        <time>2019-07-21T07:58:06Z</time>
      </trkpt>
      <trkpt lat="50.81477" lon="2.45569">
        <ele>47.72</ele>
        <time>2019-07-21T07:58:07Z</time>
      </trkpt>
      <trkpt lat="50.81471" lon="2.4557">
        <ele>47.72</ele>
        <time>2019-07-21T07:58:08Z</time>
      </trkpt>
      <trkpt lat="50.81466" lon="2.45574">
        <ele>47.72</ele>
        <time>2019-07-21T07:58:09Z</time>
      </trkpt>
      <trkpt lat="50.81461" lon="2.45578">
        <ele>48.68</ele>
        <time>2019-07-21T07:58:10Z</time>
      </trkpt>
      <trkpt lat="50.81374" lon="2.45654">
        <ele>50.13</ele>
        <time>2019-07-21T07:58:26Z</time>
      </trkpt>
      <trkpt lat="50.81309" lon="2.45764">
        <ele>52.05</ele>
        <time>2019-07-21T07:58:41Z</time>
      </trkpt>
      <trkpt lat="50.8124" lon="2.45903">
        <ele>53.97</ele>
        <time>2019-07-21T07:58:59Z</time>
      </trkpt>
      <trkpt lat="50.8117" lon="2.46046">
        <ele>55.89</ele>
        <time>2019-07-21T07:59:17Z</time>
      </trkpt>
      <trkpt lat="50.8109" lon="2.46209">
        <ele>59.26</ele>
        <time>2019-07-21T07:59:38Z</time>
      </trkpt>
      <trkpt lat="50.81037" lon="2.46307">
        <ele>62.62</ele>
        <time>2019-07-21T07:59:52Z</time>
      </trkpt>
      <trkpt lat="50.81007" lon="2.46357">
        <ele>65.51</ele>
        <time>2019-07-21T08:00:00Z</time>
      </trkpt>
      <trkpt lat="50.8097" lon="2.46417">
        <ele>68.87</ele>
        <time>2019-07-21T08:00:11Z</time>
      </trkpt>
      <trkpt lat="50.80935" lon="2.46463">
        <ele>72.24</ele>
        <time>2019-07-21T08:00:21Z</time>
      </trkpt>
      <trkpt lat="50.809" lon="2.46497">
        <ele>75.6</ele>
        <time>2019-07-21T08:00:30Z</time>
      </trkpt>
      <trkpt lat="50.80853" lon="2.46524">
        <ele>78.48</ele>
        <time>2019-07-21T08:00:41Z</time>
      </trkpt>
      <trkpt lat="50.80807" lon="2.46541">
        <ele>80.89</ele>
        <time>2019-07-21T08:00:52Z</time>
      </trkpt>
      <trkpt lat="50.80739" lon="2.46582">
        <ele>84.25</ele>
        <time>2019-07-21T08:01:09Z</time>
      </trkpt>
      <trkpt lat="50.80707" lon="2.46617">
        <ele>85.69</ele>
        <time>2019-07-21T08:01:18Z</time>
      </trkpt>
      <trkpt lat="50.80657" lon="2.46695">
        <ele>88.58</ele>
        <time>2019-07-21T08:01:34Z</time>
      </trkpt>
      <trkpt lat="50.80626" lon="2.46754">
        <ele>91.94</ele>
        <time>2019-07-21T08:01:45Z</time>
      </trkpt>
      <trkpt lat="50.8059" lon="2.46817">
        <ele>94.83</ele>
        <time>2019-07-21T08:01:57Z</time>
      </trkpt>
      <trkpt lat="50.80544" lon="2.46895">
        <ele>98.19</ele>
        <time>2019-07-21T08:02:13Z</time>
      </trkpt>
      <trkpt lat="50.80541" lon="2.46898">
        <ele>98.19</ele>
        <time>2019-07-21T08:02:14Z</time>
      </trkpt>
      <trkpt lat="50.80537" lon="2.46901">
        <ele>98.19</ele>
        <time>2019-07-21T08:02:15Z</time>
      </trkpt>
      <trkpt lat="50.80533" lon="2.46902">
        <ele>98.19</ele>
        <time>2019-07-21T08:02:16Z</time>
      </trkpt>
      <trkpt lat="50.80529" lon="2.46902">
        <ele>98.67</ele>
        <time>2019-07-21T08:02:17Z</time>
      </trkpt>
      <trkpt lat="50.80524" lon="2.46901">
        <ele>98.67</ele>
        <time>2019-07-21T08:02:18Z</time>
      </trkpt>
      <trkpt lat="50.8052" lon="2.469">
        <ele>98.67</ele>
        <time>2019-07-21T08:02:19Z</time>
      </trkpt>
      <trkpt lat="50.80512" lon="2.46899">
        <ele>98.67</ele>
        <time>2019-07-21T08:02:21Z</time>
      </trkpt>
      <trkpt lat="50.80508" lon="2.46902">
        <ele>98.19</ele>
        <time>2019-07-21T08:02:22Z</time>
      </trkpt>
      <trkpt lat="50.80503" lon="2.46907">
        <ele>98.67</ele>
        <time>2019-07-21T08:02:23Z</time>
      </trkpt>
      <trkpt lat="50.80501" lon="2.46912">
        <ele>98.67</ele>
        <time>2019-07-21T08:02:24Z</time>
      </trkpt>
      <trkpt lat="50.80497" lon="2.4692">
        <ele>98.67</ele>
        <time>2019-07-21T08:02:25Z</time>
      </trkpt>
      <trkpt lat="50.80495" lon="2.46927">
        <ele>99.15</ele>
        <time>2019-07-21T08:02:26Z</time>
      </trkpt>
      <trkpt lat="50.8046" lon="2.47024">
        <ele>102.52</ele>
        <time>2019-07-21T08:02:41Z</time>
      </trkpt>
      <trkpt lat="50.80433" lon="2.4709">
        <ele>105.88</ele>
        <time>2019-07-21T08:02:52Z</time>
      </trkpt>
      <trkpt lat="50.80407" lon="2.47141">
        <ele>109.25</ele>
        <time>2019-07-21T08:03:01Z</time>
      </trkpt>
      <trkpt lat="50.80396" lon="2.47176">
        <ele>111.17</ele>
        <time>2019-07-21T08:03:07Z</time>
      </trkpt>
      <trkpt lat="50.80395" lon="2.47182">
        <ele>111.65</ele>
        <time>2019-07-21T08:03:08Z</time>
      </trkpt>
      <trkpt lat="50.80392" lon="2.47201">
        <ele>113.09</ele>
        <time>2019-07-21T08:03:11Z</time>
      </trkpt>
      <trkpt lat="50.80392" lon="2.47207">
        <ele>113.57</ele>
        <time>2019-07-21T08:03:12Z</time>
      </trkpt>
      <trkpt lat="50.804" lon="2.47261">
        <ele>116.94</ele>
        <time>2019-07-21T08:03:21Z</time>
      </trkpt>
      <trkpt lat="50.80398" lon="2.47315">
        <ele>119.82</ele>
        <time>2019-07-21T08:03:30Z</time>
      </trkpt>
      <trkpt lat="50.80405" lon="2.47371">
        <ele>123.67</ele>
        <time>2019-07-21T08:03:40Z</time>
      </trkpt>
      <trkpt lat="50.80397" lon="2.47414">
        <ele>126.55</ele>
        <time>2019-07-21T08:03:49Z</time>
      </trkpt>
      <trkpt lat="50.80393" lon="2.47414">
        <ele>127.03</ele>
        <time>2019-07-21T08:03:50Z</time>
      </trkpt>
      <trkpt lat="50.80389" lon="2.47414">
        <ele>127.03</ele>
        <time>2019-07-21T08:03:51Z</time>
      </trkpt>
      <trkpt lat="50.80386" lon="2.47412">
        <ele>127.51</ele>
        <time>2019-07-21T08:03:52Z</time>
      </trkpt>
      <trkpt lat="50.80382" lon="2.4741">
        <ele>127.51</ele>
        <time>2019-07-21T08:03:53Z</time>
      </trkpt>
      <trkpt lat="50.80379" lon="2.47407">
        <ele>128.47</ele>
        <time>2019-07-21T08:03:54Z</time>
      </trkpt>
      <trkpt lat="50.8036" lon="2.47361">
        <ele>131.36</ele>
        <time>2019-07-21T08:04:04Z</time>
      </trkpt>
      <trkpt lat="50.80337" lon="2.47327">
        <ele>134.24</ele>
        <time>2019-07-21T08:04:14Z</time>
      </trkpt>
      <trkpt lat="50.80333" lon="2.47329">
        <ele>134.72</ele>
        <time>2019-07-21T08:04:15Z</time>
      </trkpt>
      <trkpt lat="50.8033" lon="2.47332">
        <ele>135.2</ele>
        <time>2019-07-21T08:04:16Z</time>
      </trkpt>
      <trkpt lat="50.80328" lon="2.47336">
        <ele>135.68</ele>
        <time>2019-07-21T08:04:17Z</time>
      </trkpt>
      <trkpt lat="50.80311" lon="2.47387">
        <ele>139.05</ele>
        <time>2019-07-21T08:04:27Z</time>
      </trkpt>
      <trkpt lat="50.80293" lon="2.47449">
        <ele>142.89</ele>
        <time>2019-07-21T08:04:40Z</time>
      </trkpt>
      <trkpt lat="50.80271" lon="2.47511">
        <ele>146.26</ele>
        <time>2019-07-21T08:04:53Z</time>
      </trkpt>
      <trkpt lat="50.8025" lon="2.4758">
        <ele>149.62</ele>
        <time>2019-07-21T08:05:05Z</time>
      </trkpt>
      <trkpt lat="50.80235" lon="2.47655">
        <ele>151.54</ele>
        <time>2019-07-21T08:05:17Z</time>
      </trkpt>
      <trkpt lat="50.80227" lon="2.47708">
        <ele>152.03</ele>
        <time>2019-07-21T08:05:25Z</time>
      </trkpt>
      <trkpt lat="50.80227" lon="2.47716">
        <ele>152.03</ele>
        <time>2019-07-21T08:05:26Z</time>
      </trkpt>
      <trkpt lat="50.80224" lon="2.47758">
        <ele>152.51</ele>
        <time>2019-07-21T08:05:32Z</time>
      </trkpt>
      <trkpt lat="50.80222" lon="2.47793">
        <ele>152.51</ele>
        <time>2019-07-21T08:05:37Z</time>
      </trkpt>
      <trkpt lat="50.80222" lon="2.47801">
        <ele>152.51</ele>
        <time>2019-07-21T08:05:38Z</time>
      </trkpt>
      <trkpt lat="50.80218" lon="2.47868">
        <ele>153.95</ele>
        <time>2019-07-21T08:05:46Z</time>
      </trkpt>
      <trkpt lat="50.80217" lon="2.47876">
        <ele>154.43</ele>
        <time>2019-07-21T08:05:47Z</time>
      </trkpt>
      <trkpt lat="50.80206" lon="2.47992">
        <ele>156.83</ele>
        <time>2019-07-21T08:06:00Z</time>
      </trkpt>
      <trkpt lat="50.80197" lon="2.48083">
        <ele>158.27</ele>
        <time>2019-07-21T08:06:10Z</time>
      </trkpt>
      <trkpt lat="50.80183" lon="2.48183">
        <ele>158.27</ele>
        <time>2019-07-21T08:06:22Z</time>
      </trkpt>
      <trkpt lat="50.80178" lon="2.48191">
        <ele>158.27</ele>
        <time>2019-07-21T08:06:23Z</time>
      </trkpt>
      <trkpt lat="50.80164" lon="2.4821">
        <ele>158.27</ele>
        <time>2019-07-21T08:06:26Z</time>
      </trkpt>
      <trkpt lat="50.80158" lon="2.48217">
        <ele>156.35</ele>
        <time>2019-07-21T08:06:27Z</time>
      </trkpt>
      <trkpt lat="50.80152" lon="2.48222">
        <ele>156.35</ele>
        <time>2019-07-21T08:06:28Z</time>
      </trkpt>
      <trkpt lat="50.80116" lon="2.48253">
        <ele>153.47</ele>
        <time>2019-07-21T08:06:34Z</time>
      </trkpt>
      <trkpt lat="50.80102" lon="2.48263">
        <ele>152.99</ele>
        <time>2019-07-21T08:06:36Z</time>
      </trkpt>
      <trkpt lat="50.80081" lon="2.48283">
        <ele>151.54</ele>
        <time>2019-07-21T08:06:39Z</time>
      </trkpt>
      <trkpt lat="50.80068" lon="2.48301">
        <ele>150.58</ele>
        <time>2019-07-21T08:06:41Z</time>
      </trkpt>
      <trkpt lat="50.80063" lon="2.48312">
        <ele>150.1</ele>
        <time>2019-07-21T08:06:42Z</time>
      </trkpt>
      <trkpt lat="50.80058" lon="2.48323">
        <ele>150.1</ele>
        <time>2019-07-21T08:06:43Z</time>
      </trkpt>
      <trkpt lat="50.80054" lon="2.48335">
        <ele>150.1</ele>
        <time>2019-07-21T08:06:44Z</time>
      </trkpt>
      <trkpt lat="50.80051" lon="2.48347">
        <ele>150.1</ele>
        <time>2019-07-21T08:06:45Z</time>
      </trkpt>
      <trkpt lat="50.80033" lon="2.48454">
        <ele>149.62</ele>
        <time>2019-07-21T08:06:55Z</time>
      </trkpt>
      <trkpt lat="50.80032" lon="2.48463">
        <ele>149.62</ele>
        <time>2019-07-21T08:06:56Z</time>
      </trkpt>
      <trkpt lat="50.8003" lon="2.48471">
        <ele>149.62</ele>
        <time>2019-07-21T08:06:57Z</time>
      </trkpt>
      <trkpt lat="50.80027" lon="2.48479">
        <ele>149.62</ele>
        <time>2019-07-21T08:06:58Z</time>
      </trkpt>
      <trkpt lat="50.80025" lon="2.48485">
        <ele>149.62</ele>
        <time>2019-07-21T08:06:59Z</time>
      </trkpt>
      <trkpt lat="50.80023" lon="2.48492">
        <ele>149.62</ele>
        <time>2019-07-21T08:07:00Z</time>
      </trkpt>
      <trkpt lat="50.80013" lon="2.48516">
        <ele>148.66</ele>
        <time>2019-07-21T08:07:09Z</time>
      </trkpt>
      <trkpt lat="50.80013" lon="2.48516">
        <ele>149.14</ele>
        <time>2019-07-21T08:07:32Z</time>
      </trkpt>
      <trkpt lat="50.80013" lon="2.48513">
        <ele>148.66</ele>
        <time>2019-07-21T08:07:43Z</time>
      </trkpt>
      <trkpt lat="50.80012" lon="2.48512">
        <ele>148.66</ele>
        <time>2019-07-21T08:08:08Z</time>
      </trkpt>
      <trkpt lat="50.80014" lon="2.48514">
        <ele>148.66</ele>
        <time>2019-07-21T08:08:30Z</time>
      </trkpt>
      <trkpt lat="50.80015" lon="2.48515">
        <ele>148.66</ele>
        <time>2019-07-21T08:08:58Z</time>
      </trkpt>
      <trkpt lat="50.80016" lon="2.48515">
        <ele>149.14</ele>
        <time>2019-07-21T08:09:22Z</time>
      </trkpt>
      <trkpt lat="50.80016" lon="2.48515">
        <ele>148.66</ele>
        <time>2019-07-21T08:09:41Z</time>
      </trkpt>
      <trkpt lat="50.80015" lon="2.48515">
        <ele>148.66</ele>
        <time>2019-07-21T08:10:02Z</time>
      </trkpt>
      <trkpt lat="50.80014" lon="2.48513">
        <ele>148.66</ele>
        <time>2019-07-21T08:10:22Z</time>
      </trkpt>
      <trkpt lat="50.80012" lon="2.48512">
        <ele>148.66</ele>
        <time>2019-07-21T08:10:23Z</time>
      </trkpt>
      <trkpt lat="50.7998" lon="2.48492">
        <ele>144.82</ele>
        <time>2019-07-21T08:10:30Z</time>
      </trkpt>
      <trkpt lat="50.7995" lon="2.48478">
        <ele>140.97</ele>
        <time>2019-07-21T08:10:34Z</time>
      </trkpt>
      <trkpt lat="50.79922" lon="2.48464">
        <ele>137.13</ele>
        <time>2019-07-21T08:10:39Z</time>
      </trkpt>
      <trkpt lat="50.79918" lon="2.48461">
        <ele>136.64</ele>
        <time>2019-07-21T08:10:40Z</time>
      </trkpt>
      <trkpt lat="50.79886" lon="2.48436">
        <ele>132.8</ele>
        <time>2019-07-21T08:10:46Z</time>
      </trkpt>
      <trkpt lat="50.79863" lon="2.48417">
        <ele>128.95</ele>
        <time>2019-07-21T08:10:50Z</time>
      </trkpt>
      <trkpt lat="50.79856" lon="2.48412">
        <ele>127.99</ele>
        <time>2019-07-21T08:10:51Z</time>
      </trkpt>
      <trkpt lat="50.79847" lon="2.48408">
        <ele>126.07</ele>
        <time>2019-07-21T08:10:52Z</time>
      </trkpt>
      <trkpt lat="50.7983" lon="2.48401">
        <ele>121.74</ele>
        <time>2019-07-21T08:10:54Z</time>
      </trkpt>
      <trkpt lat="50.79802" lon="2.4839">
        <ele>118.38</ele>
        <time>2019-07-21T08:10:57Z</time>
      </trkpt>
      <trkpt lat="50.79785" lon="2.4838">
        <ele>115.01</ele>
        <time>2019-07-21T08:10:59Z</time>
      </trkpt>
      <trkpt lat="50.79759" lon="2.48364">
        <ele>112.13</ele>
        <time>2019-07-21T08:11:02Z</time>
      </trkpt>
      <trkpt lat="50.7973" lon="2.48343">
        <ele>108.77</ele>
        <time>2019-07-21T08:11:06Z</time>
      </trkpt>
      <trkpt lat="50.79699" lon="2.48323">
        <ele>105.4</ele>
        <time>2019-07-21T08:11:10Z</time>
      </trkpt>
      <trkpt lat="50.79656" lon="2.48296">
        <ele>102.52</ele>
        <time>2019-07-21T08:11:15Z</time>
      </trkpt>
      <trkpt lat="50.79612" lon="2.48265">
        <ele>99.15</ele>
        <time>2019-07-21T08:11:20Z</time>
      </trkpt>
      <trkpt lat="50.79595" lon="2.48252">
        <ele>98.67</ele>
        <time>2019-07-21T08:11:22Z</time>
      </trkpt>
      <trkpt lat="50.7955" lon="2.48224">
        <ele>94.83</ele>
        <time>2019-07-21T08:11:27Z</time>
      </trkpt>
      <trkpt lat="50.79525" lon="2.4821">
        <ele>91.46</ele>
        <time>2019-07-21T08:11:30Z</time>
      </trkpt>
      <trkpt lat="50.7949" lon="2.4819">
        <ele>88.1</ele>
        <time>2019-07-21T08:11:34Z</time>
      </trkpt>
      <trkpt lat="50.79457" lon="2.4818">
        <ele>84.73</ele>
        <time>2019-07-21T08:11:38Z</time>
      </trkpt>
      <trkpt lat="50.79421" lon="2.48179">
        <ele>81.85</ele>
        <time>2019-07-21T08:11:42Z</time>
      </trkpt>
      <trkpt lat="50.79391" lon="2.48178">
        <ele>78</ele>
        <time>2019-07-21T08:11:45Z</time>
      </trkpt>
      <trkpt lat="50.7935" lon="2.48167">
        <ele>74.64</ele>
        <time>2019-07-21T08:11:49Z</time>
      </trkpt>
      <trkpt lat="50.79311" lon="2.48151">
        <ele>71.76</ele>
        <time>2019-07-21T08:11:53Z</time>
      </trkpt>
      <trkpt lat="50.79287" lon="2.48144">
        <ele>69.35</ele>
        <time>2019-07-21T08:11:56Z</time>
      </trkpt>
      <trkpt lat="50.7928" lon="2.48144">
        <ele>67.91</ele>
        <time>2019-07-21T08:11:57Z</time>
      </trkpt>
      <trkpt lat="50.79246" lon="2.48151">
        <ele>64.07</ele>
        <time>2019-07-21T08:12:01Z</time>
      </trkpt>
      <trkpt lat="50.79211" lon="2.48161">
        <ele>60.7</ele>
        <time>2019-07-21T08:12:05Z</time>
      </trkpt>
      <trkpt lat="50.79202" lon="2.48163">
        <ele>60.7</ele>
        <time>2019-07-21T08:12:06Z</time>
      </trkpt>
      <trkpt lat="50.79174" lon="2.48168">
        <ele>59.26</ele>
        <time>2019-07-21T08:12:09Z</time>
      </trkpt>
      <trkpt lat="50.79085" lon="2.48161">
        <ele>57.82</ele>
        <time>2019-07-21T08:12:19Z</time>
      </trkpt>
      <trkpt lat="50.79055" lon="2.48159">
        <ele>57.82</ele>
        <time>2019-07-21T08:12:23Z</time>
      </trkpt>
      <trkpt lat="50.79042" lon="2.4816">
        <ele>58.78</ele>
        <time>2019-07-21T08:12:25Z</time>
      </trkpt>
      <trkpt lat="50.79021" lon="2.4816">
        <ele>58.78</ele>
        <time>2019-07-21T08:12:29Z</time>
      </trkpt>
      <trkpt lat="50.79015" lon="2.48159">
        <ele>58.78</ele>
        <time>2019-07-21T08:12:30Z</time>
      </trkpt>
      <trkpt lat="50.7901" lon="2.48157">
        <ele>57.34</ele>
        <time>2019-07-21T08:12:31Z</time>
      </trkpt>
      <trkpt lat="50.79004" lon="2.48155">
        <ele>57.34</ele>
        <time>2019-07-21T08:12:32Z</time>
      </trkpt>
      <trkpt lat="50.78983" lon="2.48147">
        <ele>55.89</ele>
        <time>2019-07-21T08:12:35Z</time>
      </trkpt>
      <trkpt lat="50.7897" lon="2.48139">
        <ele>55.41</ele>
        <time>2019-07-21T08:12:37Z</time>
      </trkpt>
      <trkpt lat="50.78957" lon="2.48131">
        <ele>54.93</ele>
        <time>2019-07-21T08:12:39Z</time>
      </trkpt>
      <trkpt lat="50.7895" lon="2.48131">
        <ele>53.97</ele>
        <time>2019-07-21T08:12:40Z</time>
      </trkpt>
      <trkpt lat="50.78943" lon="2.48132">
        <ele>53.97</ele>
        <time>2019-07-21T08:12:41Z</time>
      </trkpt>
      <trkpt lat="50.78936" lon="2.48131">
        <ele>53.01</ele>
        <time>2019-07-21T08:12:42Z</time>
      </trkpt>
      <trkpt lat="50.78929" lon="2.4813">
        <ele>53.01</ele>
        <time>2019-07-21T08:12:43Z</time>
      </trkpt>
      <trkpt lat="50.7887" lon="2.48121">
        <ele>50.13</ele>
        <time>2019-07-21T08:12:50Z</time>
      </trkpt>
      <trkpt lat="50.78815" lon="2.48111">
        <ele>46.76</ele>
        <time>2019-07-21T08:12:56Z</time>
      </trkpt>
      <trkpt lat="50.78805" lon="2.48109">
        <ele>46.76</ele>
        <time>2019-07-21T08:12:57Z</time>
      </trkpt>
      <trkpt lat="50.78675" lon="2.48092">
        <ele>43.4</ele>
        <time>2019-07-21T08:13:11Z</time>
      </trkpt>
      <trkpt lat="50.78557" lon="2.4807">
        <ele>40.99</ele>
        <time>2019-07-21T08:13:25Z</time>
      </trkpt>
      <trkpt lat="50.78449" lon="2.48048">
        <ele>36.67</ele>
        <time>2019-07-21T08:13:38Z</time>
      </trkpt>
      <trkpt lat="50.78441" lon="2.48046">
        <ele>36.19</ele>
        <time>2019-07-21T08:13:39Z</time>
      </trkpt>
      <trkpt lat="50.78409" lon="2.48039">
        <ele>37.15</ele>
        <time>2019-07-21T08:13:43Z</time>
      </trkpt>
      <trkpt lat="50.78352" lon="2.48025">
        <ele>36.19</ele>
        <time>2019-07-21T08:13:50Z</time>
      </trkpt>
      <trkpt lat="50.78217" lon="2.47999">
        <ele>32.82</ele>
        <time>2019-07-21T08:14:06Z</time>
      </trkpt>
      <trkpt lat="50.78058" lon="2.47974">
        <ele>31.86</ele>
        <time>2019-07-21T08:14:25Z</time>
      </trkpt>
      <trkpt lat="50.77948" lon="2.47939">
        <ele>30.9</ele>
        <time>2019-07-21T08:14:39Z</time>
      </trkpt>
      <trkpt lat="50.77869" lon="2.47936">
        <ele>31.38</ele>
        <time>2019-07-21T08:14:49Z</time>
      </trkpt>
      <trkpt lat="50.77749" lon="2.47915">
        <ele>32.34</ele>
        <time>2019-07-21T08:15:05Z</time>
      </trkpt>
      <trkpt lat="50.7764" lon="2.47898">
        <ele>32.34</ele>
        <time>2019-07-21T08:15:21Z</time>
      </trkpt>
      <trkpt lat="50.77633" lon="2.47901">
        <ele>32.34</ele>
        <time>2019-07-21T08:15:22Z</time>
      </trkpt>
      <trkpt lat="50.77626" lon="2.47908">
        <ele>32.34</ele>
        <time>2019-07-21T08:15:23Z</time>
      </trkpt>
      <trkpt lat="50.77623" lon="2.47915">
        <ele>32.34</ele>
        <time>2019-07-21T08:15:24Z</time>
      </trkpt>
      <trkpt lat="50.77619" lon="2.47923">
        <ele>32.34</ele>
        <time>2019-07-21T08:15:25Z</time>
      </trkpt>
      <trkpt lat="50.77615" lon="2.47931">
        <ele>32.34</ele>
        <time>2019-07-21T08:15:26Z</time>
      </trkpt>
      <trkpt lat="50.7757" lon="2.48019">
        <ele>32.82</ele>
        <time>2019-07-21T08:15:36Z</time>
      </trkpt>
      <trkpt lat="50.77509" lon="2.48177">
        <ele>32.82</ele>
        <time>2019-07-21T08:15:51Z</time>
      </trkpt>
      <trkpt lat="50.7745" lon="2.48363">
        <ele>33.78</ele>
        <time>2019-07-21T08:16:09Z</time>
      </trkpt>
      <trkpt lat="50.77415" lon="2.4848">
        <ele>34.26</ele>
        <time>2019-07-21T08:16:20Z</time>
      </trkpt>
      <trkpt lat="50.77414" lon="2.48492">
        <ele>34.26</ele>
        <time>2019-07-21T08:16:21Z</time>
      </trkpt>
      <trkpt lat="50.77415" lon="2.48505">
        <ele>34.74</ele>
        <time>2019-07-21T08:16:22Z</time>
      </trkpt>
      <trkpt lat="50.77416" lon="2.48518">
        <ele>34.74</ele>
        <time>2019-07-21T08:16:23Z</time>
      </trkpt>
      <trkpt lat="50.77418" lon="2.48527">
        <ele>34.74</ele>
        <time>2019-07-21T08:16:24Z</time>
      </trkpt>
      <trkpt lat="50.77421" lon="2.48539">
        <ele>34.74</ele>
        <time>2019-07-21T08:16:25Z</time>
      </trkpt>
      <trkpt lat="50.77425" lon="2.48574">
        <ele>34.74</ele>
        <time>2019-07-21T08:16:28Z</time>
      </trkpt>
      <trkpt lat="50.77425" lon="2.48586">
        <ele>34.74</ele>
        <time>2019-07-21T08:16:29Z</time>
      </trkpt>
      <trkpt lat="50.77424" lon="2.48768">
        <ele>34.74</ele>
        <time>2019-07-21T08:16:44Z</time>
      </trkpt>
      <trkpt lat="50.77418" lon="2.48895">
        <ele>33.3</ele>
        <time>2019-07-21T08:16:54Z</time>
      </trkpt>
      <trkpt lat="50.7741" lon="2.49011">
        <ele>32.82</ele>
        <time>2019-07-21T08:17:03Z</time>
      </trkpt>
      <trkpt lat="50.77409" lon="2.49022">
        <ele>32.82</ele>
        <time>2019-07-21T08:17:04Z</time>
      </trkpt>
      <trkpt lat="50.77367" lon="2.49142">
        <ele>35.71</ele>
        <time>2019-07-21T08:17:16Z</time>
      </trkpt>
      <trkpt lat="50.77359" lon="2.49162">
        <ele>35.71</ele>
        <time>2019-07-21T08:17:18Z</time>
      </trkpt>
      <trkpt lat="50.77318" lon="2.49309">
        <ele>36.19</ele>
        <time>2019-07-21T08:17:32Z</time>
      </trkpt>
      <trkpt lat="50.77272" lon="2.49478">
        <ele>36.19</ele>
        <time>2019-07-21T08:17:48Z</time>
      </trkpt>
      <trkpt lat="50.77271" lon="2.49489">
        <ele>34.74</ele>
        <time>2019-07-21T08:17:49Z</time>
      </trkpt>
      <trkpt lat="50.77273" lon="2.49499">
        <ele>34.74</ele>
        <time>2019-07-21T08:17:50Z</time>
      </trkpt>
      <trkpt lat="50.77275" lon="2.49508">
        <ele>34.74</ele>
        <time>2019-07-21T08:17:51Z</time>
      </trkpt>
      <trkpt lat="50.77277" lon="2.49515">
        <ele>34.74</ele>
        <time>2019-07-21T08:17:52Z</time>
      </trkpt>
      <trkpt lat="50.77278" lon="2.49521">
        <ele>34.74</ele>
        <time>2019-07-21T08:17:53Z</time>
      </trkpt>
      <trkpt lat="50.77278" lon="2.49526">
        <ele>34.74</ele>
        <time>2019-07-21T08:17:54Z</time>
      </trkpt>
      <trkpt lat="50.77276" lon="2.4953">
        <ele>36.19</ele>
        <time>2019-07-21T08:17:55Z</time>
      </trkpt>
      <trkpt lat="50.77272" lon="2.49535">
        <ele>36.67</ele>
        <time>2019-07-21T08:17:56Z</time>
      </trkpt>
      <trkpt lat="50.77268" lon="2.49537">
        <ele>36.67</ele>
        <time>2019-07-21T08:17:57Z</time>
      </trkpt>
      <trkpt lat="50.77264" lon="2.4954">
        <ele>36.67</ele>
        <time>2019-07-21T08:17:58Z</time>
      </trkpt>
      <trkpt lat="50.77259" lon="2.49542">
        <ele>37.15</ele>
        <time>2019-07-21T08:17:59Z</time>
      </trkpt>
      <trkpt lat="50.77207" lon="2.49577">
        <ele>40.51</ele>
        <time>2019-07-21T08:18:09Z</time>
      </trkpt>
      <trkpt lat="50.77197" lon="2.49582">
        <ele>40.99</ele>
        <time>2019-07-21T08:18:11Z</time>
      </trkpt>
      <trkpt lat="50.77144" lon="2.49587">
        <ele>44.36</ele>
        <time>2019-07-21T08:18:21Z</time>
      </trkpt>
      <trkpt lat="50.77083" lon="2.49586">
        <ele>45.32</ele>
        <time>2019-07-21T08:18:34Z</time>
      </trkpt>
      <trkpt lat="50.77011" lon="2.49583">
        <ele>43.88</ele>
        <time>2019-07-21T08:18:47Z</time>
      </trkpt>
      <trkpt lat="50.77004" lon="2.49583">
        <ele>43.88</ele>
        <time>2019-07-21T08:18:48Z</time>
      </trkpt>
      <trkpt lat="50.76947" lon="2.49582">
        <ele>40.51</ele>
        <time>2019-07-21T08:18:55Z</time>
      </trkpt>
      <trkpt lat="50.76851" lon="2.49613">
        <ele>39.07</ele>
        <time>2019-07-21T08:19:07Z</time>
      </trkpt>
      <trkpt lat="50.76781" lon="2.497">
        <ele>39.07</ele>
        <time>2019-07-21T08:19:19Z</time>
      </trkpt>
      <trkpt lat="50.76705" lon="2.49775">
        <ele>39.07</ele>
        <time>2019-07-21T08:19:32Z</time>
      </trkpt>
      <trkpt lat="50.76597" lon="2.49821">
        <ele>39.07</ele>
        <time>2019-07-21T08:19:47Z</time>
      </trkpt>
      <trkpt lat="50.76472" lon="2.49852">
        <ele>40.51</ele>
        <time>2019-07-21T08:20:06Z</time>
      </trkpt>
      <trkpt lat="50.76364" lon="2.49885">
        <ele>42.44</ele>
        <time>2019-07-21T08:20:23Z</time>
      </trkpt>
      <trkpt lat="50.76265" lon="2.49941">
        <ele>45.32</ele>
        <time>2019-07-21T08:20:40Z</time>
      </trkpt>
      <trkpt lat="50.76186" lon="2.50005">
        <ele>47.72</ele>
        <time>2019-07-21T08:20:55Z</time>
      </trkpt>
      <trkpt lat="50.76098" lon="2.50061">
        <ele>49.16</ele>
        <time>2019-07-21T08:21:11Z</time>
      </trkpt>
      <trkpt lat="50.76021" lon="2.50094">
        <ele>50.61</ele>
        <time>2019-07-21T08:21:25Z</time>
      </trkpt>
      <trkpt lat="50.75913" lon="2.5011">
        <ele>52.05</ele>
        <time>2019-07-21T08:21:43Z</time>
      </trkpt>
      <trkpt lat="50.75828" lon="2.50173">
        <ele>52.05</ele>
        <time>2019-07-21T08:21:58Z</time>
      </trkpt>
      <trkpt lat="50.75751" lon="2.50255">
        <ele>50.13</ele>
        <time>2019-07-21T08:22:10Z</time>
      </trkpt>
      <trkpt lat="50.75744" lon="2.50258">
        <ele>50.13</ele>
        <time>2019-07-21T08:22:11Z</time>
      </trkpt>
      <trkpt lat="50.75737" lon="2.50261">
        <ele>50.13</ele>
        <time>2019-07-21T08:22:12Z</time>
      </trkpt>
      <trkpt lat="50.7573" lon="2.50263">
        <ele>50.13</ele>
        <time>2019-07-21T08:22:13Z</time>
      </trkpt>
      <trkpt lat="50.75722" lon="2.50263">
        <ele>50.13</ele>
        <time>2019-07-21T08:22:14Z</time>
      </trkpt>
      <trkpt lat="50.75716" lon="2.50264">
        <ele>50.13</ele>
        <time>2019-07-21T08:22:15Z</time>
      </trkpt>
      <trkpt lat="50.75708" lon="2.50264">
        <ele>50.13</ele>
        <time>2019-07-21T08:22:16Z</time>
      </trkpt>
      <trkpt lat="50.75702" lon="2.50263">
        <ele>50.13</ele>
        <time>2019-07-21T08:22:17Z</time>
      </trkpt>
      <trkpt lat="50.75677" lon="2.50256">
        <ele>51.57</ele>
        <time>2019-07-21T08:22:21Z</time>
      </trkpt>
      <trkpt lat="50.75672" lon="2.50256">
        <ele>52.53</ele>
        <time>2019-07-21T08:22:22Z</time>
      </trkpt>
      <trkpt lat="50.75668" lon="2.50264">
        <ele>52.53</ele>
        <time>2019-07-21T08:22:23Z</time>
      </trkpt>
      <trkpt lat="50.75668" lon="2.50269">
        <ele>52.53</ele>
        <time>2019-07-21T08:22:24Z</time>
      </trkpt>
      <trkpt lat="50.75669" lon="2.50277">
        <ele>52.53</ele>
        <time>2019-07-21T08:22:25Z</time>
      </trkpt>
      <trkpt lat="50.75671" lon="2.50286">
        <ele>52.53</ele>
        <time>2019-07-21T08:22:26Z</time>
      </trkpt>
      <trkpt lat="50.75673" lon="2.50295">
        <ele>52.53</ele>
        <time>2019-07-21T08:22:27Z</time>
      </trkpt>
      <trkpt lat="50.75674" lon="2.50305">
        <ele>52.53</ele>
        <time>2019-07-21T08:22:28Z</time>
      </trkpt>
      <trkpt lat="50.75675" lon="2.50315">
        <ele>52.53</ele>
        <time>2019-07-21T08:22:29Z</time>
      </trkpt>
      <trkpt lat="50.75679" lon="2.50389">
        <ele>52.53</ele>
        <time>2019-07-21T08:22:36Z</time>
      </trkpt>
      <trkpt lat="50.75678" lon="2.50399">
        <ele>52.53</ele>
        <time>2019-07-21T08:22:37Z</time>
      </trkpt>
      <trkpt lat="50.75669" lon="2.50444">
        <ele>52.53</ele>
        <time>2019-07-21T08:22:42Z</time>
      </trkpt>
      <trkpt lat="50.75668" lon="2.50452">
        <ele>52.53</ele>
        <time>2019-07-21T08:22:43Z</time>
      </trkpt>
      <trkpt lat="50.75669" lon="2.5046">
        <ele>52.53</ele>
        <time>2019-07-21T08:22:44Z</time>
      </trkpt>
      <trkpt lat="50.75672" lon="2.50528">
        <ele>50.61</ele>
        <time>2019-07-21T08:22:51Z</time>
      </trkpt>
      <trkpt lat="50.75687" lon="2.50697">
        <ele>49.16</ele>
        <time>2019-07-21T08:23:06Z</time>
      </trkpt>
      <trkpt lat="50.75701" lon="2.50876">
        <ele>49.65</ele>
        <time>2019-07-21T08:23:22Z</time>
      </trkpt>
      <trkpt lat="50.75679" lon="2.51019">
        <ele>49.65</ele>
        <time>2019-07-21T08:23:35Z</time>
      </trkpt>
      <trkpt lat="50.75678" lon="2.51031">
        <ele>49.65</ele>
        <time>2019-07-21T08:23:36Z</time>
      </trkpt>
      <trkpt lat="50.75677" lon="2.51042">
        <ele>49.65</ele>
        <time>2019-07-21T08:23:37Z</time>
      </trkpt>
      <trkpt lat="50.75678" lon="2.51053">
        <ele>49.16</ele>
        <time>2019-07-21T08:23:38Z</time>
      </trkpt>
      <trkpt lat="50.75676" lon="2.51218">
        <ele>47.24</ele>
        <time>2019-07-21T08:23:52Z</time>
      </trkpt>
      <trkpt lat="50.75683" lon="2.51372">
        <ele>45.32</ele>
        <time>2019-07-21T08:24:05Z</time>
      </trkpt>
      <trkpt lat="50.75696" lon="2.51608">
        <ele>43.88</ele>
        <time>2019-07-21T08:24:24Z</time>
      </trkpt>
      <trkpt lat="50.75702" lon="2.51812">
        <ele>43.4</ele>
        <time>2019-07-21T08:24:42Z</time>
      </trkpt>
      <trkpt lat="50.75702" lon="2.51866">
        <ele>42.92</ele>
        <time>2019-07-21T08:24:48Z</time>
      </trkpt>
      <trkpt lat="50.75699" lon="2.51886">
        <ele>42.44</ele>
        <time>2019-07-21T08:24:52Z</time>
      </trkpt>
      <trkpt lat="50.75696" lon="2.51888">
        <ele>42.44</ele>
        <time>2019-07-21T08:24:53Z</time>
      </trkpt>
      <trkpt lat="50.75692" lon="2.51889">
        <ele>42.44</ele>
        <time>2019-07-21T08:24:54Z</time>
      </trkpt>
      <trkpt lat="50.75688" lon="2.51888">
        <ele>42.44</ele>
        <time>2019-07-21T08:24:55Z</time>
      </trkpt>
      <trkpt lat="50.75683" lon="2.51888">
        <ele>42.44</ele>
        <time>2019-07-21T08:24:56Z</time>
      </trkpt>
      <trkpt lat="50.75678" lon="2.51887">
        <ele>42.44</ele>
        <time>2019-07-21T08:24:57Z</time>
      </trkpt>
      <trkpt lat="50.75672" lon="2.51887">
        <ele>42.44</ele>
        <time>2019-07-21T08:24:58Z</time>
      </trkpt>
      <trkpt lat="50.75654" lon="2.51889">
        <ele>42.44</ele>
        <time>2019-07-21T08:25:01Z</time>
      </trkpt>
      <trkpt lat="50.75648" lon="2.51893">
        <ele>42.44</ele>
        <time>2019-07-21T08:25:02Z</time>
      </trkpt>
      <trkpt lat="50.75644" lon="2.51901">
        <ele>42.44</ele>
        <time>2019-07-21T08:25:03Z</time>
      </trkpt>
      <trkpt lat="50.75643" lon="2.5191">
        <ele>42.44</ele>
        <time>2019-07-21T08:25:04Z</time>
      </trkpt>
      <trkpt lat="50.75643" lon="2.51919">
        <ele>42.44</ele>
        <time>2019-07-21T08:25:05Z</time>
      </trkpt>
      <trkpt lat="50.75645" lon="2.51928">
        <ele>42.44</ele>
        <time>2019-07-21T08:25:06Z</time>
      </trkpt>
      <trkpt lat="50.75652" lon="2.52024">
        <ele>42.44</ele>
        <time>2019-07-21T08:25:16Z</time>
      </trkpt>
      <trkpt lat="50.75662" lon="2.52111">
        <ele>41.47</ele>
        <time>2019-07-21T08:25:25Z</time>
      </trkpt>
      <trkpt lat="50.75673" lon="2.52204">
        <ele>40.03</ele>
        <time>2019-07-21T08:25:35Z</time>
      </trkpt>
      <trkpt lat="50.75673" lon="2.52215">
        <ele>40.03</ele>
        <time>2019-07-21T08:25:36Z</time>
      </trkpt>
      <trkpt lat="50.75667" lon="2.52365">
        <ele>39.07</ele>
        <time>2019-07-21T08:25:49Z</time>
      </trkpt>
      <trkpt lat="50.7567" lon="2.52422">
        <ele>38.59</ele>
        <time>2019-07-21T08:25:54Z</time>
      </trkpt>
      <trkpt lat="50.75671" lon="2.52433">
        <ele>38.11</ele>
        <time>2019-07-21T08:25:55Z</time>
      </trkpt>
      <trkpt lat="50.75687" lon="2.52579">
        <ele>36.67</ele>
        <time>2019-07-21T08:26:08Z</time>
      </trkpt>
      <trkpt lat="50.75704" lon="2.52766">
        <ele>33.3</ele>
        <time>2019-07-21T08:26:23Z</time>
      </trkpt>
      <trkpt lat="50.75705" lon="2.52778">
        <ele>33.3</ele>
        <time>2019-07-21T08:26:24Z</time>
      </trkpt>
      <trkpt lat="50.75722" lon="2.52946">
        <ele>33.3</ele>
        <time>2019-07-21T08:26:38Z</time>
      </trkpt>
      <trkpt lat="50.75724" lon="2.53119">
        <ele>33.3</ele>
        <time>2019-07-21T08:26:52Z</time>
      </trkpt>
      <trkpt lat="50.7572" lon="2.5323">
        <ele>33.3</ele>
        <time>2019-07-21T08:27:01Z</time>
      </trkpt>
      <trkpt lat="50.75719" lon="2.53402">
        <ele>32.34</ele>
        <time>2019-07-21T08:27:15Z</time>
      </trkpt>
      <trkpt lat="50.75714" lon="2.53476">
        <ele>31.38</ele>
        <time>2019-07-21T08:27:21Z</time>
      </trkpt>
      <trkpt lat="50.75712" lon="2.53487">
        <ele>31.38</ele>
        <time>2019-07-21T08:27:22Z</time>
      </trkpt>
      <trkpt lat="50.75708" lon="2.53498">
        <ele>31.38</ele>
        <time>2019-07-21T08:27:23Z</time>
      </trkpt>
      <trkpt lat="50.75702" lon="2.53506">
        <ele>31.38</ele>
        <time>2019-07-21T08:27:24Z</time>
      </trkpt>
      <trkpt lat="50.75695" lon="2.53511">
        <ele>31.38</ele>
        <time>2019-07-21T08:27:25Z</time>
      </trkpt>
      <trkpt lat="50.75688" lon="2.53516">
        <ele>31.38</ele>
        <time>2019-07-21T08:27:26Z</time>
      </trkpt>
      <trkpt lat="50.75658" lon="2.53528">
        <ele>31.38</ele>
        <time>2019-07-21T08:27:30Z</time>
      </trkpt>
      <trkpt lat="50.75651" lon="2.53529">
        <ele>31.38</ele>
        <time>2019-07-21T08:27:31Z</time>
      </trkpt>
      <trkpt lat="50.75643" lon="2.53529">
        <ele>31.38</ele>
        <time>2019-07-21T08:27:32Z</time>
      </trkpt>
      <trkpt lat="50.75591" lon="2.53523">
        <ele>31.38</ele>
        <time>2019-07-21T08:27:39Z</time>
      </trkpt>
      <trkpt lat="50.75584" lon="2.53527">
        <ele>31.38</ele>
        <time>2019-07-21T08:27:40Z</time>
      </trkpt>
      <trkpt lat="50.75578" lon="2.53534">
        <ele>31.38</ele>
        <time>2019-07-21T08:27:41Z</time>
      </trkpt>
      <trkpt lat="50.75574" lon="2.53543">
        <ele>31.38</ele>
        <time>2019-07-21T08:27:42Z</time>
      </trkpt>
      <trkpt lat="50.7557" lon="2.53554">
        <ele>31.38</ele>
        <time>2019-07-21T08:27:43Z</time>
      </trkpt>
      <trkpt lat="50.75567" lon="2.53565">
        <ele>31.38</ele>
        <time>2019-07-21T08:27:44Z</time>
      </trkpt>
      <trkpt lat="50.75556" lon="2.5369">
        <ele>31.38</ele>
        <time>2019-07-21T08:27:55Z</time>
      </trkpt>
      <trkpt lat="50.75555" lon="2.53733">
        <ele>30.9</ele>
        <time>2019-07-21T08:27:59Z</time>
      </trkpt>
      <trkpt lat="50.75554" lon="2.53742">
        <ele>30.9</ele>
        <time>2019-07-21T08:28:00Z</time>
      </trkpt>
      <trkpt lat="50.7555" lon="2.53749">
        <ele>30.9</ele>
        <time>2019-07-21T08:28:01Z</time>
      </trkpt>
      <trkpt lat="50.75545" lon="2.53752">
        <ele>30.9</ele>
        <time>2019-07-21T08:28:02Z</time>
      </trkpt>
      <trkpt lat="50.75538" lon="2.53753">
        <ele>30.9</ele>
        <time>2019-07-21T08:28:03Z</time>
      </trkpt>
      <trkpt lat="50.75532" lon="2.53751">
        <ele>30.9</ele>
        <time>2019-07-21T08:28:04Z</time>
      </trkpt>
      <trkpt lat="50.75525" lon="2.53749">
        <ele>30.9</ele>
        <time>2019-07-21T08:28:05Z</time>
      </trkpt>
      <trkpt lat="50.75512" lon="2.53745">
        <ele>30.9</ele>
        <time>2019-07-21T08:28:07Z</time>
      </trkpt>
      <trkpt lat="50.75465" lon="2.53739">
        <ele>30.9</ele>
        <time>2019-07-21T08:28:14Z</time>
      </trkpt>
      <trkpt lat="50.75459" lon="2.53743">
        <ele>30.9</ele>
        <time>2019-07-21T08:28:15Z</time>
      </trkpt>
      <trkpt lat="50.75453" lon="2.53749">
        <ele>30.9</ele>
        <time>2019-07-21T08:28:16Z</time>
      </trkpt>
      <trkpt lat="50.75449" lon="2.53758">
        <ele>31.38</ele>
        <time>2019-07-21T08:28:17Z</time>
      </trkpt>
      <trkpt lat="50.75446" lon="2.53767">
        <ele>31.38</ele>
        <time>2019-07-21T08:28:18Z</time>
      </trkpt>
      <trkpt lat="50.75443" lon="2.53776">
        <ele>30.9</ele>
        <time>2019-07-21T08:28:19Z</time>
      </trkpt>
      <trkpt lat="50.75439" lon="2.53783">
        <ele>30.9</ele>
        <time>2019-07-21T08:28:20Z</time>
      </trkpt>
      <trkpt lat="50.75433" lon="2.53789">
        <ele>30.9</ele>
        <time>2019-07-21T08:28:21Z</time>
      </trkpt>
      <trkpt lat="50.75427" lon="2.53791">
        <ele>30.9</ele>
        <time>2019-07-21T08:28:22Z</time>
      </trkpt>
      <trkpt lat="50.75421" lon="2.53792">
        <ele>30.9</ele>
        <time>2019-07-21T08:28:23Z</time>
      </trkpt>
      <trkpt lat="50.75414" lon="2.53792">
        <ele>30.9</ele>
        <time>2019-07-21T08:28:24Z</time>
      </trkpt>
      <trkpt lat="50.75322" lon="2.53816">
        <ele>30.9</ele>
        <time>2019-07-21T08:28:38Z</time>
      </trkpt>
      <trkpt lat="50.7526" lon="2.53833">
        <ele>30.9</ele>
        <time>2019-07-21T08:28:51Z</time>
      </trkpt>
      <trkpt lat="50.75234" lon="2.5383">
        <ele>30.9</ele>
        <time>2019-07-21T08:28:55Z</time>
      </trkpt>
      <trkpt lat="50.75227" lon="2.5383">
        <ele>30.9</ele>
        <time>2019-07-21T08:28:56Z</time>
      </trkpt>
      <trkpt lat="50.75219" lon="2.53832">
        <ele>30.9</ele>
        <time>2019-07-21T08:28:57Z</time>
      </trkpt>
      <trkpt lat="50.75213" lon="2.53835">
        <ele>30.9</ele>
        <time>2019-07-21T08:28:58Z</time>
      </trkpt>
      <trkpt lat="50.75205" lon="2.53839">
        <ele>30.9</ele>
        <time>2019-07-21T08:28:59Z</time>
      </trkpt>
      <trkpt lat="50.75081" lon="2.53905">
        <ele>29.46</ele>
        <time>2019-07-21T08:29:17Z</time>
      </trkpt>
      <trkpt lat="50.74953" lon="2.53961">
        <ele>28.02</ele>
        <time>2019-07-21T08:29:35Z</time>
      </trkpt>
      <trkpt lat="50.74922" lon="2.53975">
        <ele>28.02</ele>
        <time>2019-07-21T08:29:40Z</time>
      </trkpt>
      <trkpt lat="50.74917" lon="2.53979">
        <ele>28.02</ele>
        <time>2019-07-21T08:29:41Z</time>
      </trkpt>
      <trkpt lat="50.74913" lon="2.53985">
        <ele>28.02</ele>
        <time>2019-07-21T08:29:42Z</time>
      </trkpt>
      <trkpt lat="50.74912" lon="2.53993">
        <ele>28.02</ele>
        <time>2019-07-21T08:29:43Z</time>
      </trkpt>
      <trkpt lat="50.74912" lon="2.54002">
        <ele>28.02</ele>
        <time>2019-07-21T08:29:44Z</time>
      </trkpt>
      <trkpt lat="50.74913" lon="2.54011">
        <ele>28.02</ele>
        <time>2019-07-21T08:29:45Z</time>
      </trkpt>
      <trkpt lat="50.74914" lon="2.54021">
        <ele>28.02</ele>
        <time>2019-07-21T08:29:46Z</time>
      </trkpt>
      <trkpt lat="50.74912" lon="2.5403">
        <ele>28.02</ele>
        <time>2019-07-21T08:29:47Z</time>
      </trkpt>
      <trkpt lat="50.74908" lon="2.54039">
        <ele>28.02</ele>
        <time>2019-07-21T08:29:48Z</time>
      </trkpt>
      <trkpt lat="50.74903" lon="2.54046">
        <ele>28.02</ele>
        <time>2019-07-21T08:29:49Z</time>
      </trkpt>
      <trkpt lat="50.74897" lon="2.54052">
        <ele>28.02</ele>
        <time>2019-07-21T08:29:50Z</time>
      </trkpt>
      <trkpt lat="50.74891" lon="2.54056">
        <ele>28.02</ele>
        <time>2019-07-21T08:29:51Z</time>
      </trkpt>
      <trkpt lat="50.74884" lon="2.5406">
        <ele>28.02</ele>
        <time>2019-07-21T08:29:52Z</time>
      </trkpt>
      <trkpt lat="50.74782" lon="2.54117">
        <ele>26.57</ele>
        <time>2019-07-21T08:30:08Z</time>
      </trkpt>
      <trkpt lat="50.74665" lon="2.54178">
        <ele>24.65</ele>
        <time>2019-07-21T08:30:25Z</time>
      </trkpt>
      <trkpt lat="50.74579" lon="2.54221">
        <ele>22.73</ele>
        <time>2019-07-21T08:30:38Z</time>
      </trkpt>
      <trkpt lat="50.74574" lon="2.54227">
        <ele>22.25</ele>
        <time>2019-07-21T08:30:39Z</time>
      </trkpt>
      <trkpt lat="50.74571" lon="2.54235">
        <ele>22.25</ele>
        <time>2019-07-21T08:30:40Z</time>
      </trkpt>
      <trkpt lat="50.7457" lon="2.54246">
        <ele>21.77</ele>
        <time>2019-07-21T08:30:41Z</time>
      </trkpt>
      <trkpt lat="50.7457" lon="2.54254">
        <ele>21.77</ele>
        <time>2019-07-21T08:30:42Z</time>
      </trkpt>
      <trkpt lat="50.74549" lon="2.5438">
        <ele>21.77</ele>
        <time>2019-07-21T08:30:55Z</time>
      </trkpt>
      <trkpt lat="50.74537" lon="2.54492">
        <ele>21.77</ele>
        <time>2019-07-21T08:31:06Z</time>
      </trkpt>
      <trkpt lat="50.74537" lon="2.54502">
        <ele>21.77</ele>
        <time>2019-07-21T08:31:07Z</time>
      </trkpt>
      <trkpt lat="50.74537" lon="2.54512">
        <ele>21.77</ele>
        <time>2019-07-21T08:31:08Z</time>
      </trkpt>
      <trkpt lat="50.74537" lon="2.54522">
        <ele>21.77</ele>
        <time>2019-07-21T08:31:09Z</time>
      </trkpt>
      <trkpt lat="50.74537" lon="2.5453">
        <ele>21.77</ele>
        <time>2019-07-21T08:31:10Z</time>
      </trkpt>
      <trkpt lat="50.74537" lon="2.54541">
        <ele>21.77</ele>
        <time>2019-07-21T08:31:11Z</time>
      </trkpt>
      <trkpt lat="50.74536" lon="2.54652">
        <ele>21.77</ele>
        <time>2019-07-21T08:31:22Z</time>
      </trkpt>
      <trkpt lat="50.74534" lon="2.54671">
        <ele>21.77</ele>
        <time>2019-07-21T08:31:24Z</time>
      </trkpt>
      <trkpt lat="50.74532" lon="2.54681">
        <ele>21.77</ele>
        <time>2019-07-21T08:31:25Z</time>
      </trkpt>
      <trkpt lat="50.74514" lon="2.54814">
        <ele>21.77</ele>
        <time>2019-07-21T08:31:38Z</time>
      </trkpt>
      <trkpt lat="50.74521" lon="2.54946">
        <ele>21.29</ele>
        <time>2019-07-21T08:31:51Z</time>
      </trkpt>
      <trkpt lat="50.74531" lon="2.55069">
        <ele>21.29</ele>
        <time>2019-07-21T08:32:06Z</time>
      </trkpt>
      <trkpt lat="50.7453" lon="2.55076">
        <ele>21.29</ele>
        <time>2019-07-21T08:32:15Z</time>
      </trkpt>
      <trkpt lat="50.74531" lon="2.55084">
        <ele>22.25</ele>
        <time>2019-07-21T08:32:19Z</time>
      </trkpt>
      <trkpt lat="50.74532" lon="2.55088">
        <ele>22.25</ele>
        <time>2019-07-21T08:32:20Z</time>
      </trkpt>
      <trkpt lat="50.74534" lon="2.55092">
        <ele>22.25</ele>
        <time>2019-07-21T08:32:21Z</time>
      </trkpt>
      <trkpt lat="50.74535" lon="2.55098">
        <ele>22.25</ele>
        <time>2019-07-21T08:32:22Z</time>
      </trkpt>
      <trkpt lat="50.74536" lon="2.55104">
        <ele>22.25</ele>
        <time>2019-07-21T08:32:23Z</time>
      </trkpt>
      <trkpt lat="50.74538" lon="2.55111">
        <ele>22.25</ele>
        <time>2019-07-21T08:32:24Z</time>
      </trkpt>
      <trkpt lat="50.74547" lon="2.55164">
        <ele>21.29</ele>
        <time>2019-07-21T08:32:30Z</time>
      </trkpt>
      <trkpt lat="50.74548" lon="2.55174">
        <ele>21.29</ele>
        <time>2019-07-21T08:32:31Z</time>
      </trkpt>
      <trkpt lat="50.74548" lon="2.55223">
        <ele>21.29</ele>
        <time>2019-07-21T08:32:36Z</time>
      </trkpt>
      <trkpt lat="50.7455" lon="2.5524">
        <ele>21.29</ele>
        <time>2019-07-21T08:32:38Z</time>
      </trkpt>
      <trkpt lat="50.74571" lon="2.55348">
        <ele>20.81</ele>
        <time>2019-07-21T08:32:50Z</time>
      </trkpt>
      <trkpt lat="50.74574" lon="2.55356">
        <ele>20.81</ele>
        <time>2019-07-21T08:32:51Z</time>
      </trkpt>
      <trkpt lat="50.74597" lon="2.55399">
        <ele>22.25</ele>
        <time>2019-07-21T08:32:57Z</time>
      </trkpt>
      <trkpt lat="50.74602" lon="2.55406">
        <ele>22.25</ele>
        <time>2019-07-21T08:32:58Z</time>
      </trkpt>
      <trkpt lat="50.74654" lon="2.55486">
        <ele>23.21</ele>
        <time>2019-07-21T08:33:10Z</time>
      </trkpt>
      <trkpt lat="50.74657" lon="2.55495">
        <ele>23.21</ele>
        <time>2019-07-21T08:33:11Z</time>
      </trkpt>
      <trkpt lat="50.74658" lon="2.55504">
        <ele>23.21</ele>
        <time>2019-07-21T08:33:12Z</time>
      </trkpt>
      <trkpt lat="50.74658" lon="2.55514">
        <ele>23.21</ele>
        <time>2019-07-21T08:33:13Z</time>
      </trkpt>
      <trkpt lat="50.74657" lon="2.55523">
        <ele>23.21</ele>
        <time>2019-07-21T08:33:14Z</time>
      </trkpt>
      <trkpt lat="50.74655" lon="2.55532">
        <ele>23.21</ele>
        <time>2019-07-21T08:33:15Z</time>
      </trkpt>
      <trkpt lat="50.74652" lon="2.55541">
        <ele>23.21</ele>
        <time>2019-07-21T08:33:16Z</time>
      </trkpt>
      <trkpt lat="50.74649" lon="2.5555">
        <ele>23.21</ele>
        <time>2019-07-21T08:33:17Z</time>
      </trkpt>
      <trkpt lat="50.74645" lon="2.55559">
        <ele>23.21</ele>
        <time>2019-07-21T08:33:18Z</time>
      </trkpt>
      <trkpt lat="50.7464" lon="2.55567">
        <ele>23.21</ele>
        <time>2019-07-21T08:33:19Z</time>
      </trkpt>
      <trkpt lat="50.74572" lon="2.55657">
        <ele>23.21</ele>
        <time>2019-07-21T08:33:32Z</time>
      </trkpt>
      <trkpt lat="50.74567" lon="2.55667">
        <ele>22.25</ele>
        <time>2019-07-21T08:33:33Z</time>
      </trkpt>
      <trkpt lat="50.74564" lon="2.55677">
        <ele>22.25</ele>
        <time>2019-07-21T08:33:34Z</time>
      </trkpt>
      <trkpt lat="50.74561" lon="2.55688">
        <ele>22.25</ele>
        <time>2019-07-21T08:33:35Z</time>
      </trkpt>
      <trkpt lat="50.74558" lon="2.55699">
        <ele>22.25</ele>
        <time>2019-07-21T08:33:36Z</time>
      </trkpt>
      <trkpt lat="50.74556" lon="2.5571">
        <ele>22.25</ele>
        <time>2019-07-21T08:33:37Z</time>
      </trkpt>
      <trkpt lat="50.74531" lon="2.55905">
        <ele>22.25</ele>
        <time>2019-07-21T08:33:54Z</time>
      </trkpt>
      <trkpt lat="50.74528" lon="2.55962">
        <ele>22.25</ele>
        <time>2019-07-21T08:33:59Z</time>
      </trkpt>
      <trkpt lat="50.74519" lon="2.56006">
        <ele>22.25</ele>
        <time>2019-07-21T08:34:03Z</time>
      </trkpt>
      <trkpt lat="50.74473" lon="2.56133">
        <ele>22.25</ele>
        <time>2019-07-21T08:34:16Z</time>
      </trkpt>
      <trkpt lat="50.7447" lon="2.56144">
        <ele>22.25</ele>
        <time>2019-07-21T08:34:17Z</time>
      </trkpt>
      <trkpt lat="50.74459" lon="2.56189">
        <ele>21.77</ele>
        <time>2019-07-21T08:34:21Z</time>
      </trkpt>
      <trkpt lat="50.74455" lon="2.56199">
        <ele>21.77</ele>
        <time>2019-07-21T08:34:22Z</time>
      </trkpt>
      <trkpt lat="50.74451" lon="2.56208">
        <ele>21.77</ele>
        <time>2019-07-21T08:34:23Z</time>
      </trkpt>
      <trkpt lat="50.74446" lon="2.56217">
        <ele>21.29</ele>
        <time>2019-07-21T08:34:24Z</time>
      </trkpt>
      <trkpt lat="50.7444" lon="2.56225">
        <ele>21.29</ele>
        <time>2019-07-21T08:34:25Z</time>
      </trkpt>
      <trkpt lat="50.74433" lon="2.56232">
        <ele>20.81</ele>
        <time>2019-07-21T08:34:26Z</time>
      </trkpt>
      <trkpt lat="50.74427" lon="2.56238">
        <ele>20.81</ele>
        <time>2019-07-21T08:34:27Z</time>
      </trkpt>
      <trkpt lat="50.7442" lon="2.56243">
        <ele>20.81</ele>
        <time>2019-07-21T08:34:28Z</time>
      </trkpt>
      <trkpt lat="50.7434" lon="2.5635">
        <ele>20.81</ele>
        <time>2019-07-21T08:34:42Z</time>
      </trkpt>
      <trkpt lat="50.74267" lon="2.56463">
        <ele>20.32</ele>
        <time>2019-07-21T08:34:56Z</time>
      </trkpt>
      <trkpt lat="50.74225" lon="2.56552">
        <ele>22.25</ele>
        <time>2019-07-21T08:35:06Z</time>
      </trkpt>
      <trkpt lat="50.74219" lon="2.56559">
        <ele>22.25</ele>
        <time>2019-07-21T08:35:07Z</time>
      </trkpt>
      <trkpt lat="50.74214" lon="2.56565">
        <ele>22.73</ele>
        <time>2019-07-21T08:35:08Z</time>
      </trkpt>
      <trkpt lat="50.74208" lon="2.56571">
        <ele>22.73</ele>
        <time>2019-07-21T08:35:09Z</time>
      </trkpt>
      <trkpt lat="50.74202" lon="2.56576">
        <ele>23.21</ele>
        <time>2019-07-21T08:35:10Z</time>
      </trkpt>
      <trkpt lat="50.74196" lon="2.5658">
        <ele>23.69</ele>
        <time>2019-07-21T08:35:11Z</time>
      </trkpt>
      <trkpt lat="50.74106" lon="2.56623">
        <ele>24.17</ele>
        <time>2019-07-21T08:35:25Z</time>
      </trkpt>
      <trkpt lat="50.74023" lon="2.5667">
        <ele>24.17</ele>
        <time>2019-07-21T08:35:38Z</time>
      </trkpt>
      <trkpt lat="50.74017" lon="2.56675">
        <ele>24.17</ele>
        <time>2019-07-21T08:35:39Z</time>
      </trkpt>
      <trkpt lat="50.7393" lon="2.56731">
        <ele>21.77</ele>
        <time>2019-07-21T08:35:52Z</time>
      </trkpt>
      <trkpt lat="50.73923" lon="2.56737">
        <ele>21.77</ele>
        <time>2019-07-21T08:35:53Z</time>
      </trkpt>
      <trkpt lat="50.73917" lon="2.56744">
        <ele>20.81</ele>
        <time>2019-07-21T08:35:54Z</time>
      </trkpt>
      <trkpt lat="50.73911" lon="2.56752">
        <ele>20.81</ele>
        <time>2019-07-21T08:35:55Z</time>
      </trkpt>
      <trkpt lat="50.73906" lon="2.56761">
        <ele>20.81</ele>
        <time>2019-07-21T08:35:56Z</time>
      </trkpt>
      <trkpt lat="50.73902" lon="2.56771">
        <ele>20.81</ele>
        <time>2019-07-21T08:35:57Z</time>
      </trkpt>
      <trkpt lat="50.73899" lon="2.56781">
        <ele>20.81</ele>
        <time>2019-07-21T08:35:58Z</time>
      </trkpt>
      <trkpt lat="50.73876" lon="2.56913">
        <ele>23.21</ele>
        <time>2019-07-21T08:36:10Z</time>
      </trkpt>
      <trkpt lat="50.73869" lon="2.57093">
        <ele>24.65</ele>
        <time>2019-07-21T08:36:26Z</time>
      </trkpt>
      <trkpt lat="50.73888" lon="2.57248">
        <ele>24.65</ele>
        <time>2019-07-21T08:36:40Z</time>
      </trkpt>
      <trkpt lat="50.73913" lon="2.57436">
        <ele>24.65</ele>
        <time>2019-07-21T08:36:57Z</time>
      </trkpt>
      <trkpt lat="50.73934" lon="2.57536">
        <ele>25.13</ele>
        <time>2019-07-21T08:37:06Z</time>
      </trkpt>
      <trkpt lat="50.73943" lon="2.57728">
        <ele>24.17</ele>
        <time>2019-07-21T08:37:22Z</time>
      </trkpt>
      <trkpt lat="50.7394" lon="2.57774">
        <ele>24.17</ele>
        <time>2019-07-21T08:37:26Z</time>
      </trkpt>
      <trkpt lat="50.73925" lon="2.57868">
        <ele>24.17</ele>
        <time>2019-07-21T08:37:38Z</time>
      </trkpt>
      <trkpt lat="50.73912" lon="2.57917">
        <ele>23.69</ele>
        <time>2019-07-21T08:37:48Z</time>
      </trkpt>
      <trkpt lat="50.73909" lon="2.57924">
        <ele>23.69</ele>
        <time>2019-07-21T08:37:49Z</time>
      </trkpt>
      <trkpt lat="50.73899" lon="2.57945">
        <ele>23.69</ele>
        <time>2019-07-21T08:37:52Z</time>
      </trkpt>
      <trkpt lat="50.73894" lon="2.57951">
        <ele>23.69</ele>
        <time>2019-07-21T08:37:53Z</time>
      </trkpt>
      <trkpt lat="50.73869" lon="2.57983">
        <ele>23.69</ele>
        <time>2019-07-21T08:37:58Z</time>
      </trkpt>
      <trkpt lat="50.73866" lon="2.57991">
        <ele>23.69</ele>
        <time>2019-07-21T08:37:59Z</time>
      </trkpt>
      <trkpt lat="50.73864" lon="2.58001">
        <ele>23.69</ele>
        <time>2019-07-21T08:38:00Z</time>
      </trkpt>
      <trkpt lat="50.73862" lon="2.58011">
        <ele>23.69</ele>
        <time>2019-07-21T08:38:01Z</time>
      </trkpt>
      <trkpt lat="50.73861" lon="2.58023">
        <ele>23.69</ele>
        <time>2019-07-21T08:38:02Z</time>
      </trkpt>
      <trkpt lat="50.73857" lon="2.58053">
        <ele>23.69</ele>
        <time>2019-07-21T08:38:05Z</time>
      </trkpt>
      <trkpt lat="50.73854" lon="2.58062">
        <ele>23.69</ele>
        <time>2019-07-21T08:38:06Z</time>
      </trkpt>
      <trkpt lat="50.73851" lon="2.58071">
        <ele>23.69</ele>
        <time>2019-07-21T08:38:07Z</time>
      </trkpt>
      <trkpt lat="50.73848" lon="2.5808">
        <ele>23.69</ele>
        <time>2019-07-21T08:38:08Z</time>
      </trkpt>
      <trkpt lat="50.73844" lon="2.58089">
        <ele>23.69</ele>
        <time>2019-07-21T08:38:09Z</time>
      </trkpt>
      <trkpt lat="50.73836" lon="2.58105">
        <ele>23.69</ele>
        <time>2019-07-21T08:38:11Z</time>
      </trkpt>
      <trkpt lat="50.73775" lon="2.58234">
        <ele>25.13</ele>
        <time>2019-07-21T08:38:26Z</time>
      </trkpt>
      <trkpt lat="50.73762" lon="2.58292">
        <ele>25.13</ele>
        <time>2019-07-21T08:38:33Z</time>
      </trkpt>
      <trkpt lat="50.73761" lon="2.58309">
        <ele>25.13</ele>
        <time>2019-07-21T08:38:35Z</time>
      </trkpt>
      <trkpt lat="50.73759" lon="2.58319">
        <ele>25.13</ele>
        <time>2019-07-21T08:38:36Z</time>
      </trkpt>
      <trkpt lat="50.73757" lon="2.58329">
        <ele>25.13</ele>
        <time>2019-07-21T08:38:37Z</time>
      </trkpt>
      <trkpt lat="50.73739" lon="2.58407">
        <ele>25.61</ele>
        <time>2019-07-21T08:38:44Z</time>
      </trkpt>
      <trkpt lat="50.73738" lon="2.58417">
        <ele>25.61</ele>
        <time>2019-07-21T08:38:45Z</time>
      </trkpt>
      <trkpt lat="50.73725" lon="2.58591">
        <ele>26.09</ele>
        <time>2019-07-21T08:39:00Z</time>
      </trkpt>
      <trkpt lat="50.737" lon="2.58811">
        <ele>27.05</ele>
        <time>2019-07-21T08:39:19Z</time>
      </trkpt>
      <trkpt lat="50.73677" lon="2.59021">
        <ele>28.02</ele>
        <time>2019-07-21T08:39:37Z</time>
      </trkpt>
      <trkpt lat="50.7365" lon="2.59235">
        <ele>28.98</ele>
        <time>2019-07-21T08:39:55Z</time>
      </trkpt>
      <trkpt lat="50.73641" lon="2.5946">
        <ele>31.38</ele>
        <time>2019-07-21T08:40:14Z</time>
      </trkpt>
      <trkpt lat="50.73639" lon="2.59629">
        <ele>34.26</ele>
        <time>2019-07-21T08:40:29Z</time>
      </trkpt>
      <trkpt lat="50.73641" lon="2.59807">
        <ele>35.23</ele>
        <time>2019-07-21T08:40:45Z</time>
      </trkpt>
      <trkpt lat="50.73655" lon="2.59975">
        <ele>35.71</ele>
        <time>2019-07-21T08:41:00Z</time>
      </trkpt>
      <trkpt lat="50.73658" lon="2.60034">
        <ele>34.26</ele>
        <time>2019-07-21T08:41:05Z</time>
      </trkpt>
      <trkpt lat="50.73661" lon="2.60228">
        <ele>31.86</ele>
        <time>2019-07-21T08:41:21Z</time>
      </trkpt>
      <trkpt lat="50.73678" lon="2.60392">
        <ele>32.34</ele>
        <time>2019-07-21T08:41:35Z</time>
      </trkpt>
      <trkpt lat="50.73684" lon="2.60438">
        <ele>32.34</ele>
        <time>2019-07-21T08:41:39Z</time>
      </trkpt>
      <trkpt lat="50.73684" lon="2.6045">
        <ele>32.34</ele>
        <time>2019-07-21T08:41:40Z</time>
      </trkpt>
      <trkpt lat="50.73676" lon="2.60535">
        <ele>31.86</ele>
        <time>2019-07-21T08:41:48Z</time>
      </trkpt>
      <trkpt lat="50.73673" lon="2.60543">
        <ele>31.86</ele>
        <time>2019-07-21T08:41:49Z</time>
      </trkpt>
      <trkpt lat="50.73669" lon="2.60549">
        <ele>31.86</ele>
        <time>2019-07-21T08:41:50Z</time>
      </trkpt>
      <trkpt lat="50.73662" lon="2.60552">
        <ele>31.86</ele>
        <time>2019-07-21T08:41:51Z</time>
      </trkpt>
      <trkpt lat="50.73657" lon="2.60552">
        <ele>31.86</ele>
        <time>2019-07-21T08:41:52Z</time>
      </trkpt>
      <trkpt lat="50.73651" lon="2.6055">
        <ele>31.86</ele>
        <time>2019-07-21T08:41:53Z</time>
      </trkpt>
      <trkpt lat="50.73643" lon="2.60549">
        <ele>31.86</ele>
        <time>2019-07-21T08:41:54Z</time>
      </trkpt>
      <trkpt lat="50.73636" lon="2.60549">
        <ele>31.86</ele>
        <time>2019-07-21T08:41:55Z</time>
      </trkpt>
      <trkpt lat="50.73628" lon="2.60549">
        <ele>31.86</ele>
        <time>2019-07-21T08:41:56Z</time>
      </trkpt>
      <trkpt lat="50.73621" lon="2.60548">
        <ele>31.86</ele>
        <time>2019-07-21T08:41:57Z</time>
      </trkpt>
      <trkpt lat="50.73613" lon="2.60545">
        <ele>31.86</ele>
        <time>2019-07-21T08:41:58Z</time>
      </trkpt>
      <trkpt lat="50.73606" lon="2.60542">
        <ele>31.86</ele>
        <time>2019-07-21T08:41:59Z</time>
      </trkpt>
      <trkpt lat="50.73599" lon="2.60537">
        <ele>31.86</ele>
        <time>2019-07-21T08:42:00Z</time>
      </trkpt>
      <trkpt lat="50.73592" lon="2.60531">
        <ele>31.86</ele>
        <time>2019-07-21T08:42:01Z</time>
      </trkpt>
      <trkpt lat="50.73585" lon="2.60524">
        <ele>31.86</ele>
        <time>2019-07-21T08:42:02Z</time>
      </trkpt>
      <trkpt lat="50.73551" lon="2.60492">
        <ele>29.94</ele>
        <time>2019-07-21T08:42:07Z</time>
      </trkpt>
      <trkpt lat="50.73543" lon="2.60488">
        <ele>29.94</ele>
        <time>2019-07-21T08:42:08Z</time>
      </trkpt>
      <trkpt lat="50.73536" lon="2.60485">
        <ele>29.46</ele>
        <time>2019-07-21T08:42:09Z</time>
      </trkpt>
      <trkpt lat="50.73527" lon="2.60484">
        <ele>29.46</ele>
        <time>2019-07-21T08:42:10Z</time>
      </trkpt>
      <trkpt lat="50.73519" lon="2.60483">
        <ele>28.98</ele>
        <time>2019-07-21T08:42:11Z</time>
      </trkpt>
      <trkpt lat="50.73387" lon="2.60475">
        <ele>27.53</ele>
        <time>2019-07-21T08:42:28Z</time>
      </trkpt>
      <trkpt lat="50.73271" lon="2.60463">
        <ele>27.05</ele>
        <time>2019-07-21T08:42:44Z</time>
      </trkpt>
      <trkpt lat="50.73188" lon="2.60447">
        <ele>26.09</ele>
        <time>2019-07-21T08:42:58Z</time>
      </trkpt>
      <trkpt lat="50.73182" lon="2.60449">
        <ele>25.61</ele>
        <time>2019-07-21T08:43:05Z</time>
      </trkpt>
      <trkpt lat="50.73175" lon="2.60463">
        <ele>25.61</ele>
        <time>2019-07-21T08:43:21Z</time>
      </trkpt>
      <trkpt lat="50.73159" lon="2.6055">
        <ele>25.61</ele>
        <time>2019-07-21T08:43:30Z</time>
      </trkpt>
      <trkpt lat="50.7313" lon="2.60717">
        <ele>24.17</ele>
        <time>2019-07-21T08:43:44Z</time>
      </trkpt>
      <trkpt lat="50.73097" lon="2.60929">
        <ele>25.13</ele>
        <time>2019-07-21T08:44:03Z</time>
      </trkpt>
      <trkpt lat="50.73067" lon="2.61091">
        <ele>26.09</ele>
        <time>2019-07-21T08:44:18Z</time>
      </trkpt>
      <trkpt lat="50.73037" lon="2.61239">
        <ele>26.57</ele>
        <time>2019-07-21T08:44:32Z</time>
      </trkpt>
      <trkpt lat="50.73009" lon="2.61424">
        <ele>27.05</ele>
        <time>2019-07-21T08:44:48Z</time>
      </trkpt>
      <trkpt lat="50.72986" lon="2.61573">
        <ele>27.53</ele>
        <time>2019-07-21T08:45:01Z</time>
      </trkpt>
      <trkpt lat="50.72959" lon="2.61796">
        <ele>27.53</ele>
        <time>2019-07-21T08:45:20Z</time>
      </trkpt>
      <trkpt lat="50.7297" lon="2.61935">
        <ele>29.46</ele>
        <time>2019-07-21T08:45:32Z</time>
      </trkpt>
      <trkpt lat="50.73017" lon="2.62133">
        <ele>32.82</ele>
        <time>2019-07-21T08:45:50Z</time>
      </trkpt>
      <trkpt lat="50.73029" lon="2.62201">
        <ele>33.3</ele>
        <time>2019-07-21T08:45:56Z</time>
      </trkpt>
      <trkpt lat="50.73029" lon="2.62211">
        <ele>33.3</ele>
        <time>2019-07-21T08:45:57Z</time>
      </trkpt>
      <trkpt lat="50.73028" lon="2.62223">
        <ele>33.78</ele>
        <time>2019-07-21T08:45:58Z</time>
      </trkpt>
      <trkpt lat="50.73027" lon="2.62234">
        <ele>33.78</ele>
        <time>2019-07-21T08:45:59Z</time>
      </trkpt>
      <trkpt lat="50.73025" lon="2.62245">
        <ele>33.78</ele>
        <time>2019-07-21T08:46:00Z</time>
      </trkpt>
      <trkpt lat="50.73023" lon="2.62256">
        <ele>33.78</ele>
        <time>2019-07-21T08:46:01Z</time>
      </trkpt>
      <trkpt lat="50.7302" lon="2.62266">
        <ele>34.26</ele>
        <time>2019-07-21T08:46:02Z</time>
      </trkpt>
      <trkpt lat="50.73016" lon="2.62276">
        <ele>34.26</ele>
        <time>2019-07-21T08:46:03Z</time>
      </trkpt>
      <trkpt lat="50.73012" lon="2.62285">
        <ele>34.74</ele>
        <time>2019-07-21T08:46:04Z</time>
      </trkpt>
      <trkpt lat="50.73008" lon="2.62293">
        <ele>34.74</ele>
        <time>2019-07-21T08:46:05Z</time>
      </trkpt>
      <trkpt lat="50.73003" lon="2.62301">
        <ele>34.74</ele>
        <time>2019-07-21T08:46:06Z</time>
      </trkpt>
      <trkpt lat="50.72999" lon="2.62307">
        <ele>34.74</ele>
        <time>2019-07-21T08:46:07Z</time>
      </trkpt>
      <trkpt lat="50.72994" lon="2.62313">
        <ele>34.74</ele>
        <time>2019-07-21T08:46:08Z</time>
      </trkpt>
      <trkpt lat="50.72988" lon="2.62318">
        <ele>34.74</ele>
        <time>2019-07-21T08:46:09Z</time>
      </trkpt>
      <trkpt lat="50.72983" lon="2.62322">
        <ele>34.74</ele>
        <time>2019-07-21T08:46:10Z</time>
      </trkpt>
      <trkpt lat="50.72978" lon="2.62326">
        <ele>35.23</ele>
        <time>2019-07-21T08:46:11Z</time>
      </trkpt>
      <trkpt lat="50.72961" lon="2.62335">
        <ele>35.23</ele>
        <time>2019-07-21T08:46:14Z</time>
      </trkpt>
      <trkpt lat="50.72955" lon="2.62336">
        <ele>35.23</ele>
        <time>2019-07-21T08:46:15Z</time>
      </trkpt>
      <trkpt lat="50.72949" lon="2.62336">
        <ele>35.71</ele>
        <time>2019-07-21T08:46:16Z</time>
      </trkpt>
      <trkpt lat="50.72937" lon="2.62335">
        <ele>35.71</ele>
        <time>2019-07-21T08:46:18Z</time>
      </trkpt>
      <trkpt lat="50.72931" lon="2.62336">
        <ele>35.71</ele>
        <time>2019-07-21T08:46:19Z</time>
      </trkpt>
      <trkpt lat="50.72925" lon="2.62339">
        <ele>35.71</ele>
        <time>2019-07-21T08:46:20Z</time>
      </trkpt>
      <trkpt lat="50.7292" lon="2.62345">
        <ele>35.71</ele>
        <time>2019-07-21T08:46:21Z</time>
      </trkpt>
      <trkpt lat="50.72915" lon="2.62353">
        <ele>35.71</ele>
        <time>2019-07-21T08:46:22Z</time>
      </trkpt>
      <trkpt lat="50.72911" lon="2.62363">
        <ele>35.71</ele>
        <time>2019-07-21T08:46:23Z</time>
      </trkpt>
      <trkpt lat="50.72908" lon="2.6237">
        <ele>35.71</ele>
        <time>2019-07-21T08:46:24Z</time>
      </trkpt>
      <trkpt lat="50.72873" lon="2.62503">
        <ele>39.07</ele>
        <time>2019-07-21T08:46:38Z</time>
      </trkpt>
      <trkpt lat="50.72849" lon="2.62653">
        <ele>41.95</ele>
        <time>2019-07-21T08:46:53Z</time>
      </trkpt>
      <trkpt lat="50.72824" lon="2.6279">
        <ele>44.84</ele>
        <time>2019-07-21T08:47:09Z</time>
      </trkpt>
      <trkpt lat="50.72806" lon="2.6288">
        <ele>47.24</ele>
        <time>2019-07-21T08:47:21Z</time>
      </trkpt>
      <trkpt lat="50.728" lon="2.6291">
        <ele>48.2</ele>
        <time>2019-07-21T08:47:25Z</time>
      </trkpt>
      <trkpt lat="50.72798" lon="2.62917">
        <ele>48.2</ele>
        <time>2019-07-21T08:47:26Z</time>
      </trkpt>
      <trkpt lat="50.72777" lon="2.63013">
        <ele>51.57</ele>
        <time>2019-07-21T08:47:38Z</time>
      </trkpt>
      <trkpt lat="50.72759" lon="2.63071">
        <ele>53.49</ele>
        <time>2019-07-21T08:47:46Z</time>
      </trkpt>
      <trkpt lat="50.72758" lon="2.63078">
        <ele>53.49</ele>
        <time>2019-07-21T08:47:47Z</time>
      </trkpt>
      <trkpt lat="50.72757" lon="2.63086">
        <ele>53.97</ele>
        <time>2019-07-21T08:47:48Z</time>
      </trkpt>
      <trkpt lat="50.72756" lon="2.63093">
        <ele>53.97</ele>
        <time>2019-07-21T08:47:49Z</time>
      </trkpt>
      <trkpt lat="50.72756" lon="2.631">
        <ele>54.45</ele>
        <time>2019-07-21T08:47:50Z</time>
      </trkpt>
      <trkpt lat="50.72757" lon="2.63107">
        <ele>54.45</ele>
        <time>2019-07-21T08:47:51Z</time>
      </trkpt>
      <trkpt lat="50.72758" lon="2.63114">
        <ele>54.45</ele>
        <time>2019-07-21T08:47:52Z</time>
      </trkpt>
      <trkpt lat="50.7276" lon="2.6312">
        <ele>54.45</ele>
        <time>2019-07-21T08:47:53Z</time>
      </trkpt>
      <trkpt lat="50.72762" lon="2.63127">
        <ele>54.45</ele>
        <time>2019-07-21T08:47:54Z</time>
      </trkpt>
      <trkpt lat="50.72764" lon="2.63133">
        <ele>54.45</ele>
        <time>2019-07-21T08:47:55Z</time>
      </trkpt>
      <trkpt lat="50.72771" lon="2.63163">
        <ele>54.93</ele>
        <time>2019-07-21T08:47:59Z</time>
      </trkpt>
      <trkpt lat="50.72783" lon="2.63201">
        <ele>55.89</ele>
        <time>2019-07-21T08:48:06Z</time>
      </trkpt>
      <trkpt lat="50.72783" lon="2.63206">
        <ele>55.89</ele>
        <time>2019-07-21T08:48:07Z</time>
      </trkpt>
      <trkpt lat="50.72781" lon="2.63209">
        <ele>55.89</ele>
        <time>2019-07-21T08:48:08Z</time>
      </trkpt>
      <trkpt lat="50.72778" lon="2.63212">
        <ele>55.89</ele>
        <time>2019-07-21T08:48:09Z</time>
      </trkpt>
      <trkpt lat="50.72775" lon="2.63214">
        <ele>56.86</ele>
        <time>2019-07-21T08:48:10Z</time>
      </trkpt>
      <trkpt lat="50.7277" lon="2.63217">
        <ele>56.86</ele>
        <time>2019-07-21T08:48:11Z</time>
      </trkpt>
      <trkpt lat="50.72765" lon="2.6322">
        <ele>56.86</ele>
        <time>2019-07-21T08:48:12Z</time>
      </trkpt>
      <trkpt lat="50.72697" lon="2.63253">
        <ele>57.82</ele>
        <time>2019-07-21T08:48:24Z</time>
      </trkpt>
      <trkpt lat="50.72659" lon="2.63272">
        <ele>56.86</ele>
        <time>2019-07-21T08:48:30Z</time>
      </trkpt>
      <trkpt lat="50.72654" lon="2.6328">
        <ele>55.89</ele>
        <time>2019-07-21T08:48:31Z</time>
      </trkpt>
      <trkpt lat="50.7265" lon="2.63288">
        <ele>55.89</ele>
        <time>2019-07-21T08:48:32Z</time>
      </trkpt>
      <trkpt lat="50.72603" lon="2.63422">
        <ele>55.89</ele>
        <time>2019-07-21T08:48:47Z</time>
      </trkpt>
      <trkpt lat="50.72551" lon="2.63567">
        <ele>55.41</ele>
        <time>2019-07-21T08:49:03Z</time>
      </trkpt>
      <trkpt lat="50.725" lon="2.63665">
        <ele>53.97</ele>
        <time>2019-07-21T08:49:14Z</time>
      </trkpt>
      <trkpt lat="50.72448" lon="2.6382">
        <ele>51.09</ele>
        <time>2019-07-21T08:49:28Z</time>
      </trkpt>
      <trkpt lat="50.72386" lon="2.6401">
        <ele>48.68</ele>
        <time>2019-07-21T08:49:44Z</time>
      </trkpt>
      <trkpt lat="50.72307" lon="2.64248">
        <ele>46.76</ele>
        <time>2019-07-21T08:50:04Z</time>
      </trkpt>
      <trkpt lat="50.72273" lon="2.64322">
        <ele>46.28</ele>
        <time>2019-07-21T08:50:11Z</time>
      </trkpt>
      <trkpt lat="50.72266" lon="2.6433">
        <ele>46.28</ele>
        <time>2019-07-21T08:50:12Z</time>
      </trkpt>
      <trkpt lat="50.72259" lon="2.64338">
        <ele>46.28</ele>
        <time>2019-07-21T08:50:13Z</time>
      </trkpt>
      <trkpt lat="50.72252" lon="2.64344">
        <ele>45.8</ele>
        <time>2019-07-21T08:50:14Z</time>
      </trkpt>
      <trkpt lat="50.72244" lon="2.6435">
        <ele>45.8</ele>
        <time>2019-07-21T08:50:15Z</time>
      </trkpt>
      <trkpt lat="50.72236" lon="2.64354">
        <ele>45.32</ele>
        <time>2019-07-21T08:50:16Z</time>
      </trkpt>
      <trkpt lat="50.72149" lon="2.64408">
        <ele>43.88</ele>
        <time>2019-07-21T08:50:27Z</time>
      </trkpt>
      <trkpt lat="50.72142" lon="2.64418">
        <ele>43.4</ele>
        <time>2019-07-21T08:50:28Z</time>
      </trkpt>
      <trkpt lat="50.72136" lon="2.64428">
        <ele>43.4</ele>
        <time>2019-07-21T08:50:29Z</time>
      </trkpt>
      <trkpt lat="50.72124" lon="2.6445">
        <ele>42.92</ele>
        <time>2019-07-21T08:50:31Z</time>
      </trkpt>
      <trkpt lat="50.72119" lon="2.64462">
        <ele>42.92</ele>
        <time>2019-07-21T08:50:32Z</time>
      </trkpt>
      <trkpt lat="50.72115" lon="2.64475">
        <ele>42.44</ele>
        <time>2019-07-21T08:50:33Z</time>
      </trkpt>
      <trkpt lat="50.72112" lon="2.64489">
        <ele>42.44</ele>
        <time>2019-07-21T08:50:34Z</time>
      </trkpt>
      <trkpt lat="50.7211" lon="2.64502">
        <ele>42.44</ele>
        <time>2019-07-21T08:50:35Z</time>
      </trkpt>
      <trkpt lat="50.72108" lon="2.64516">
        <ele>42.44</ele>
        <time>2019-07-21T08:50:36Z</time>
      </trkpt>
      <trkpt lat="50.72108" lon="2.64532">
        <ele>42.44</ele>
        <time>2019-07-21T08:50:37Z</time>
      </trkpt>
      <trkpt lat="50.72108" lon="2.64544">
        <ele>42.44</ele>
        <time>2019-07-21T08:50:38Z</time>
      </trkpt>
      <trkpt lat="50.72108" lon="2.64558">
        <ele>42.44</ele>
        <time>2019-07-21T08:50:39Z</time>
      </trkpt>
      <trkpt lat="50.7211" lon="2.64571">
        <ele>42.44</ele>
        <time>2019-07-21T08:50:40Z</time>
      </trkpt>
      <trkpt lat="50.72111" lon="2.64585">
        <ele>41.95</ele>
        <time>2019-07-21T08:50:41Z</time>
      </trkpt>
      <trkpt lat="50.72126" lon="2.64815">
        <ele>40.99</ele>
        <time>2019-07-21T08:50:58Z</time>
      </trkpt>
      <trkpt lat="50.72116" lon="2.65052">
        <ele>40.03</ele>
        <time>2019-07-21T08:51:15Z</time>
      </trkpt>
      <trkpt lat="50.72088" lon="2.65198">
        <ele>38.59</ele>
        <time>2019-07-21T08:51:26Z</time>
      </trkpt>
      <trkpt lat="50.72049" lon="2.65389">
        <ele>37.15</ele>
        <time>2019-07-21T08:51:40Z</time>
      </trkpt>
      <trkpt lat="50.71997" lon="2.65648">
        <ele>35.71</ele>
        <time>2019-07-21T08:51:59Z</time>
      </trkpt>
      <trkpt lat="50.71953" lon="2.65863">
        <ele>33.78</ele>
        <time>2019-07-21T08:52:15Z</time>
      </trkpt>
      <trkpt lat="50.71921" lon="2.66029">
        <ele>31.86</ele>
        <time>2019-07-21T08:52:27Z</time>
      </trkpt>
      <trkpt lat="50.71916" lon="2.66042">
        <ele>31.86</ele>
        <time>2019-07-21T08:52:28Z</time>
      </trkpt>
      <trkpt lat="50.7191" lon="2.66052">
        <ele>31.38</ele>
        <time>2019-07-21T08:52:29Z</time>
      </trkpt>
      <trkpt lat="50.71902" lon="2.66055">
        <ele>31.38</ele>
        <time>2019-07-21T08:52:30Z</time>
      </trkpt>
      <trkpt lat="50.71893" lon="2.66053">
        <ele>31.38</ele>
        <time>2019-07-21T08:52:31Z</time>
      </trkpt>
      <trkpt lat="50.71885" lon="2.66051">
        <ele>31.38</ele>
        <time>2019-07-21T08:52:32Z</time>
      </trkpt>
      <trkpt lat="50.71754" lon="2.66017">
        <ele>29.46</ele>
        <time>2019-07-21T08:52:48Z</time>
      </trkpt>
      <trkpt lat="50.71662" lon="2.65997">
        <ele>28.02</ele>
        <time>2019-07-21T08:53:00Z</time>
      </trkpt>
      <trkpt lat="50.71655" lon="2.65999">
        <ele>28.02</ele>
        <time>2019-07-21T08:53:01Z</time>
      </trkpt>
      <trkpt lat="50.71648" lon="2.66005">
        <ele>28.02</ele>
        <time>2019-07-21T08:53:02Z</time>
      </trkpt>
      <trkpt lat="50.71643" lon="2.66013">
        <ele>27.53</ele>
        <time>2019-07-21T08:53:03Z</time>
      </trkpt>
      <trkpt lat="50.7164" lon="2.66022">
        <ele>27.53</ele>
        <time>2019-07-21T08:53:04Z</time>
      </trkpt>
      <trkpt lat="50.71635" lon="2.66032">
        <ele>27.53</ele>
        <time>2019-07-21T08:53:05Z</time>
      </trkpt>
      <trkpt lat="50.71618" lon="2.66069">
        <ele>26.57</ele>
        <time>2019-07-21T08:53:09Z</time>
      </trkpt>
      <trkpt lat="50.71588" lon="2.66117">
        <ele>26.09</ele>
        <time>2019-07-21T08:53:15Z</time>
      </trkpt>
      <trkpt lat="50.71562" lon="2.6615">
        <ele>25.61</ele>
        <time>2019-07-21T08:53:19Z</time>
      </trkpt>
      <trkpt lat="50.71557" lon="2.66159">
        <ele>25.61</ele>
        <time>2019-07-21T08:53:20Z</time>
      </trkpt>
      <trkpt lat="50.7155" lon="2.66167">
        <ele>25.61</ele>
        <time>2019-07-21T08:53:21Z</time>
      </trkpt>
      <trkpt lat="50.71542" lon="2.66171">
        <ele>25.13</ele>
        <time>2019-07-21T08:53:22Z</time>
      </trkpt>
      <trkpt lat="50.71533" lon="2.66172">
        <ele>25.13</ele>
        <time>2019-07-21T08:53:23Z</time>
      </trkpt>
      <trkpt lat="50.71525" lon="2.66172">
        <ele>24.65</ele>
        <time>2019-07-21T08:53:24Z</time>
      </trkpt>
      <trkpt lat="50.71487" lon="2.66173">
        <ele>22.25</ele>
        <time>2019-07-21T08:53:28Z</time>
      </trkpt>
      <trkpt lat="50.71449" lon="2.6618">
        <ele>20.32</ele>
        <time>2019-07-21T08:53:32Z</time>
      </trkpt>
      <trkpt lat="50.71439" lon="2.6618">
        <ele>19.84</ele>
        <time>2019-07-21T08:53:33Z</time>
      </trkpt>
      <trkpt lat="50.7132" lon="2.66171">
        <ele>17.44</ele>
        <time>2019-07-21T08:53:46Z</time>
      </trkpt>
      <trkpt lat="50.712" lon="2.66101">
        <ele>16.48</ele>
        <time>2019-07-21T08:54:01Z</time>
      </trkpt>
      <trkpt lat="50.71062" lon="2.66057">
        <ele>16.48</ele>
        <time>2019-07-21T08:54:18Z</time>
      </trkpt>
      <trkpt lat="50.7095" lon="2.6604">
        <ele>18.88</ele>
        <time>2019-07-21T08:54:32Z</time>
      </trkpt>
      <trkpt lat="50.70915" lon="2.66035">
        <ele>16.48</ele>
        <time>2019-07-21T08:54:36Z</time>
      </trkpt>
      <trkpt lat="50.70794" lon="2.66005">
        <ele>17.44</ele>
        <time>2019-07-21T08:54:51Z</time>
      </trkpt>
      <trkpt lat="50.70721" lon="2.65987">
        <ele>16</ele>
        <time>2019-07-21T08:55:00Z</time>
      </trkpt>
      <trkpt lat="50.70569" lon="2.65957">
        <ele>16.48</ele>
        <time>2019-07-21T08:55:18Z</time>
      </trkpt>
      <trkpt lat="50.70403" lon="2.6591">
        <ele>16.96</ele>
        <time>2019-07-21T08:55:38Z</time>
      </trkpt>
      <trkpt lat="50.70328" lon="2.65888">
        <ele>16.96</ele>
        <time>2019-07-21T08:55:47Z</time>
      </trkpt>
      <trkpt lat="50.7032" lon="2.6589">
        <ele>16.96</ele>
        <time>2019-07-21T08:55:48Z</time>
      </trkpt>
      <trkpt lat="50.70313" lon="2.65893">
        <ele>16.96</ele>
        <time>2019-07-21T08:55:49Z</time>
      </trkpt>
      <trkpt lat="50.70305" lon="2.65897">
        <ele>16.96</ele>
        <time>2019-07-21T08:55:50Z</time>
      </trkpt>
      <trkpt lat="50.70298" lon="2.65902">
        <ele>16.96</ele>
        <time>2019-07-21T08:55:51Z</time>
      </trkpt>
      <trkpt lat="50.70292" lon="2.65908">
        <ele>16.96</ele>
        <time>2019-07-21T08:55:52Z</time>
      </trkpt>
      <trkpt lat="50.70285" lon="2.65915">
        <ele>16.96</ele>
        <time>2019-07-21T08:55:53Z</time>
      </trkpt>
      <trkpt lat="50.7028" lon="2.65923">
        <ele>15.52</ele>
        <time>2019-07-21T08:55:54Z</time>
      </trkpt>
      <trkpt lat="50.70275" lon="2.65932">
        <ele>15.52</ele>
        <time>2019-07-21T08:55:55Z</time>
      </trkpt>
      <trkpt lat="50.70271" lon="2.65941">
        <ele>15.52</ele>
        <time>2019-07-21T08:55:56Z</time>
      </trkpt>
      <trkpt lat="50.70267" lon="2.65951">
        <ele>15.52</ele>
        <time>2019-07-21T08:55:57Z</time>
      </trkpt>
      <trkpt lat="50.70264" lon="2.6596">
        <ele>15.52</ele>
        <time>2019-07-21T08:55:58Z</time>
      </trkpt>
      <trkpt lat="50.70261" lon="2.6597">
        <ele>15.52</ele>
        <time>2019-07-21T08:55:59Z</time>
      </trkpt>
      <trkpt lat="50.70245" lon="2.66015">
        <ele>15.52</ele>
        <time>2019-07-21T08:56:08Z</time>
      </trkpt>
      <trkpt lat="50.70245" lon="2.66019">
        <ele>15.52</ele>
        <time>2019-07-21T08:56:10Z</time>
      </trkpt>
      <trkpt lat="50.70245" lon="2.66023">
        <ele>15.52</ele>
        <time>2019-07-21T08:56:11Z</time>
      </trkpt>
      <trkpt lat="50.70243" lon="2.66033">
        <ele>15.52</ele>
        <time>2019-07-21T08:56:13Z</time>
      </trkpt>
      <trkpt lat="50.70241" lon="2.66039">
        <ele>15.52</ele>
        <time>2019-07-21T08:56:14Z</time>
      </trkpt>
      <trkpt lat="50.70239" lon="2.66047">
        <ele>15.52</ele>
        <time>2019-07-21T08:56:15Z</time>
      </trkpt>
      <trkpt lat="50.70204" lon="2.66155">
        <ele>15.52</ele>
        <time>2019-07-21T08:56:25Z</time>
      </trkpt>
      <trkpt lat="50.70156" lon="2.66306">
        <ele>15.52</ele>
        <time>2019-07-21T08:56:39Z</time>
      </trkpt>
      <trkpt lat="50.70139" lon="2.66345">
        <ele>15.52</ele>
        <time>2019-07-21T08:56:43Z</time>
      </trkpt>
      <trkpt lat="50.70133" lon="2.66353">
        <ele>15.52</ele>
        <time>2019-07-21T08:56:44Z</time>
      </trkpt>
      <trkpt lat="50.70126" lon="2.66358">
        <ele>15.52</ele>
        <time>2019-07-21T08:56:45Z</time>
      </trkpt>
      <trkpt lat="50.70119" lon="2.66362">
        <ele>15.52</ele>
        <time>2019-07-21T08:56:46Z</time>
      </trkpt>
      <trkpt lat="50.70112" lon="2.66365">
        <ele>15.52</ele>
        <time>2019-07-21T08:56:47Z</time>
      </trkpt>
      <trkpt lat="50.70104" lon="2.6637">
        <ele>15.52</ele>
        <time>2019-07-21T08:56:48Z</time>
      </trkpt>
      <trkpt lat="50.70098" lon="2.66378">
        <ele>15.52</ele>
        <time>2019-07-21T08:56:49Z</time>
      </trkpt>
      <trkpt lat="50.70093" lon="2.66387">
        <ele>15.52</ele>
        <time>2019-07-21T08:56:50Z</time>
      </trkpt>
      <trkpt lat="50.70089" lon="2.66398">
        <ele>15.52</ele>
        <time>2019-07-21T08:56:51Z</time>
      </trkpt>
      <trkpt lat="50.70086" lon="2.6641">
        <ele>15.52</ele>
        <time>2019-07-21T08:56:52Z</time>
      </trkpt>
      <trkpt lat="50.7002" lon="2.66596">
        <ele>15.52</ele>
        <time>2019-07-21T08:57:09Z</time>
      </trkpt>
      <trkpt lat="50.69976" lon="2.66784">
        <ele>15.52</ele>
        <time>2019-07-21T08:57:25Z</time>
      </trkpt>
      <trkpt lat="50.69945" lon="2.67014">
        <ele>15.52</ele>
        <time>2019-07-21T08:57:43Z</time>
      </trkpt>
      <trkpt lat="50.6992" lon="2.67281">
        <ele>15.52</ele>
        <time>2019-07-21T08:58:03Z</time>
      </trkpt>
      <trkpt lat="50.69899" lon="2.67549">
        <ele>15.04</ele>
        <time>2019-07-21T08:58:23Z</time>
      </trkpt>
      <trkpt lat="50.69891" lon="2.67683">
        <ele>16.48</ele>
        <time>2019-07-21T08:58:33Z</time>
      </trkpt>
      <trkpt lat="50.69889" lon="2.67696">
        <ele>16.48</ele>
        <time>2019-07-21T08:58:34Z</time>
      </trkpt>
      <trkpt lat="50.69886" lon="2.67709">
        <ele>16.48</ele>
        <time>2019-07-21T08:58:35Z</time>
      </trkpt>
      <trkpt lat="50.69881" lon="2.67721">
        <ele>16.48</ele>
        <time>2019-07-21T08:58:36Z</time>
      </trkpt>
      <trkpt lat="50.69876" lon="2.67733">
        <ele>16.48</ele>
        <time>2019-07-21T08:58:37Z</time>
      </trkpt>
      <trkpt lat="50.69794" lon="2.6789">
        <ele>16.48</ele>
        <time>2019-07-21T08:58:52Z</time>
      </trkpt>
      <trkpt lat="50.69667" lon="2.68074">
        <ele>16.48</ele>
        <time>2019-07-21T08:59:12Z</time>
      </trkpt>
      <trkpt lat="50.69591" lon="2.68217">
        <ele>16.48</ele>
        <time>2019-07-21T08:59:26Z</time>
      </trkpt>
      <trkpt lat="50.69585" lon="2.68242">
        <ele>16.48</ele>
        <time>2019-07-21T08:59:28Z</time>
      </trkpt>
      <trkpt lat="50.69583" lon="2.68256">
        <ele>16.48</ele>
        <time>2019-07-21T08:59:29Z</time>
      </trkpt>
      <trkpt lat="50.69582" lon="2.68269">
        <ele>16.48</ele>
        <time>2019-07-21T08:59:30Z</time>
      </trkpt>
      <trkpt lat="50.69582" lon="2.68283">
        <ele>16.48</ele>
        <time>2019-07-21T08:59:31Z</time>
      </trkpt>
      <trkpt lat="50.69582" lon="2.68296">
        <ele>16.48</ele>
        <time>2019-07-21T08:59:32Z</time>
      </trkpt>
      <trkpt lat="50.69583" lon="2.6831">
        <ele>16.48</ele>
        <time>2019-07-21T08:59:33Z</time>
      </trkpt>
      <trkpt lat="50.69596" lon="2.68431">
        <ele>16.48</ele>
        <time>2019-07-21T08:59:43Z</time>
      </trkpt>
      <trkpt lat="50.69594" lon="2.68441">
        <ele>16.48</ele>
        <time>2019-07-21T08:59:44Z</time>
      </trkpt>
      <trkpt lat="50.69589" lon="2.68448">
        <ele>16.48</ele>
        <time>2019-07-21T08:59:45Z</time>
      </trkpt>
      <trkpt lat="50.69582" lon="2.68452">
        <ele>16.48</ele>
        <time>2019-07-21T08:59:46Z</time>
      </trkpt>
      <trkpt lat="50.69575" lon="2.68452">
        <ele>16.48</ele>
        <time>2019-07-21T08:59:47Z</time>
      </trkpt>
      <trkpt lat="50.69567" lon="2.68452">
        <ele>16.48</ele>
        <time>2019-07-21T08:59:48Z</time>
      </trkpt>
      <trkpt lat="50.69444" lon="2.68452">
        <ele>16.48</ele>
        <time>2019-07-21T09:00:03Z</time>
      </trkpt>
      <trkpt lat="50.69357" lon="2.68455">
        <ele>16.48</ele>
        <time>2019-07-21T09:00:14Z</time>
      </trkpt>
      <trkpt lat="50.6935" lon="2.6846">
        <ele>16.48</ele>
        <time>2019-07-21T09:00:15Z</time>
      </trkpt>
      <trkpt lat="50.69344" lon="2.68468">
        <ele>16.48</ele>
        <time>2019-07-21T09:00:16Z</time>
      </trkpt>
      <trkpt lat="50.69341" lon="2.68479">
        <ele>16.48</ele>
        <time>2019-07-21T09:00:17Z</time>
      </trkpt>
      <trkpt lat="50.69338" lon="2.68491">
        <ele>16.48</ele>
        <time>2019-07-21T09:00:18Z</time>
      </trkpt>
      <trkpt lat="50.69285" lon="2.6871">
        <ele>16.48</ele>
        <time>2019-07-21T09:00:36Z</time>
      </trkpt>
      <trkpt lat="50.69242" lon="2.68908">
        <ele>16.48</ele>
        <time>2019-07-21T09:00:52Z</time>
      </trkpt>
      <trkpt lat="50.69218" lon="2.69123">
        <ele>16.48</ele>
        <time>2019-07-21T09:01:08Z</time>
      </trkpt>
      <trkpt lat="50.69192" lon="2.69377">
        <ele>16.48</ele>
        <time>2019-07-21T09:01:27Z</time>
      </trkpt>
      <trkpt lat="50.69166" lon="2.69605">
        <ele>16.48</ele>
        <time>2019-07-21T09:01:44Z</time>
      </trkpt>
      <trkpt lat="50.69141" lon="2.69856">
        <ele>16.48</ele>
        <time>2019-07-21T09:02:03Z</time>
      </trkpt>
      <trkpt lat="50.69132" lon="2.70055">
        <ele>16.48</ele>
        <time>2019-07-21T09:02:18Z</time>
      </trkpt>
      <trkpt lat="50.69123" lon="2.70301">
        <ele>16.48</ele>
        <time>2019-07-21T09:02:37Z</time>
      </trkpt>
      <trkpt lat="50.69114" lon="2.70514">
        <ele>15.04</ele>
        <time>2019-07-21T09:02:54Z</time>
      </trkpt>
      <trkpt lat="50.69105" lon="2.70711">
        <ele>15.04</ele>
        <time>2019-07-21T09:03:10Z</time>
      </trkpt>
      <trkpt lat="50.691" lon="2.70824">
        <ele>15.04</ele>
        <time>2019-07-21T09:03:19Z</time>
      </trkpt>
      <trkpt lat="50.6909" lon="2.71002">
        <ele>15.04</ele>
        <time>2019-07-21T09:03:33Z</time>
      </trkpt>
      <trkpt lat="50.69084" lon="2.71187">
        <ele>15.04</ele>
        <time>2019-07-21T09:03:49Z</time>
      </trkpt>
      <trkpt lat="50.69075" lon="2.71283">
        <ele>15.04</ele>
        <time>2019-07-21T09:04:01Z</time>
      </trkpt>
      <trkpt lat="50.69072" lon="2.71289">
        <ele>15.04</ele>
        <time>2019-07-21T09:04:02Z</time>
      </trkpt>
      <trkpt lat="50.69068" lon="2.71293">
        <ele>15.04</ele>
        <time>2019-07-21T09:04:03Z</time>
      </trkpt>
      <trkpt lat="50.69063" lon="2.71297">
        <ele>15.04</ele>
        <time>2019-07-21T09:04:04Z</time>
      </trkpt>
      <trkpt lat="50.68994" lon="2.71348">
        <ele>15.04</ele>
        <time>2019-07-21T09:04:14Z</time>
      </trkpt>
      <trkpt lat="50.68862" lon="2.71431">
        <ele>15.04</ele>
        <time>2019-07-21T09:04:32Z</time>
      </trkpt>
      <trkpt lat="50.68719" lon="2.71505">
        <ele>15.04</ele>
        <time>2019-07-21T09:04:51Z</time>
      </trkpt>
      <trkpt lat="50.68608" lon="2.7156">
        <ele>15.04</ele>
        <time>2019-07-21T09:05:06Z</time>
      </trkpt>
      <trkpt lat="50.68543" lon="2.71597">
        <ele>15.04</ele>
        <time>2019-07-21T09:05:15Z</time>
      </trkpt>
      <trkpt lat="50.68536" lon="2.71602">
        <ele>15.04</ele>
        <time>2019-07-21T09:05:16Z</time>
      </trkpt>
      <trkpt lat="50.6844" lon="2.71702">
        <ele>15.04</ele>
        <time>2019-07-21T09:05:31Z</time>
      </trkpt>
      <trkpt lat="50.68401" lon="2.7174">
        <ele>14.08</ele>
        <time>2019-07-21T09:05:37Z</time>
      </trkpt>
      <trkpt lat="50.68314" lon="2.71828">
        <ele>14.08</ele>
        <time>2019-07-21T09:05:51Z</time>
      </trkpt>
      <trkpt lat="50.6825" lon="2.7189">
        <ele>14.08</ele>
        <time>2019-07-21T09:06:04Z</time>
      </trkpt>
      <trkpt lat="50.68246" lon="2.71892">
        <ele>14.08</ele>
        <time>2019-07-21T09:06:05Z</time>
      </trkpt>
      <trkpt lat="50.68243" lon="2.71893">
        <ele>14.08</ele>
        <time>2019-07-21T09:06:06Z</time>
      </trkpt>
      <trkpt lat="50.6824" lon="2.71894">
        <ele>14.08</ele>
        <time>2019-07-21T09:06:07Z</time>
      </trkpt>
      <trkpt lat="50.68237" lon="2.71893">
        <ele>14.08</ele>
        <time>2019-07-21T09:06:08Z</time>
      </trkpt>
      <trkpt lat="50.68234" lon="2.71891">
        <ele>14.08</ele>
        <time>2019-07-21T09:06:09Z</time>
      </trkpt>
      <trkpt lat="50.68232" lon="2.71889">
        <ele>14.08</ele>
        <time>2019-07-21T09:06:10Z</time>
      </trkpt>
      <trkpt lat="50.68229" lon="2.71886">
        <ele>14.08</ele>
        <time>2019-07-21T09:06:11Z</time>
      </trkpt>
      <trkpt lat="50.68227" lon="2.71885">
        <ele>14.08</ele>
        <time>2019-07-21T09:06:12Z</time>
      </trkpt>
      <trkpt lat="50.68225" lon="2.71888">
        <ele>14.08</ele>
        <time>2019-07-21T09:06:13Z</time>
      </trkpt>
      <trkpt lat="50.68223" lon="2.71893">
        <ele>14.08</ele>
        <time>2019-07-21T09:06:14Z</time>
      </trkpt>
      <trkpt lat="50.68222" lon="2.71898">
        <ele>14.08</ele>
        <time>2019-07-21T09:06:15Z</time>
      </trkpt>
      <trkpt lat="50.68219" lon="2.71903">
        <ele>14.08</ele>
        <time>2019-07-21T09:06:16Z</time>
      </trkpt>
      <trkpt lat="50.68215" lon="2.71909">
        <ele>14.08</ele>
        <time>2019-07-21T09:06:17Z</time>
      </trkpt>
      <trkpt lat="50.68156" lon="2.72001">
        <ele>14.08</ele>
        <time>2019-07-21T09:06:30Z</time>
      </trkpt>
      <trkpt lat="50.68068" lon="2.72136">
        <ele>14.08</ele>
        <time>2019-07-21T09:06:47Z</time>
      </trkpt>
      <trkpt lat="50.67983" lon="2.72272">
        <ele>14.08</ele>
        <time>2019-07-21T09:07:03Z</time>
      </trkpt>
      <trkpt lat="50.67978" lon="2.72281">
        <ele>14.08</ele>
        <time>2019-07-21T09:07:04Z</time>
      </trkpt>
      <trkpt lat="50.67892" lon="2.7243">
        <ele>14.08</ele>
        <time>2019-07-21T09:07:21Z</time>
      </trkpt>
      <trkpt lat="50.67818" lon="2.72553">
        <ele>14.08</ele>
        <time>2019-07-21T09:07:35Z</time>
      </trkpt>
      <trkpt lat="50.67706" lon="2.72709">
        <ele>14.08</ele>
        <time>2019-07-21T09:07:54Z</time>
      </trkpt>
      <trkpt lat="50.67607" lon="2.72841">
        <ele>14.08</ele>
        <time>2019-07-21T09:08:11Z</time>
      </trkpt>
      <trkpt lat="50.67498" lon="2.72982">
        <ele>14.08</ele>
        <time>2019-07-21T09:08:30Z</time>
      </trkpt>
      <trkpt lat="50.67463" lon="2.73023">
        <ele>14.08</ele>
        <time>2019-07-21T09:08:37Z</time>
      </trkpt>
      <trkpt lat="50.67462" lon="2.73031">
        <ele>14.08</ele>
        <time>2019-07-21T09:08:38Z</time>
      </trkpt>
      <trkpt lat="50.67463" lon="2.73039">
        <ele>14.08</ele>
        <time>2019-07-21T09:08:39Z</time>
      </trkpt>
      <trkpt lat="50.67467" lon="2.73045">
        <ele>14.08</ele>
        <time>2019-07-21T09:08:40Z</time>
      </trkpt>
      <trkpt lat="50.67472" lon="2.73052">
        <ele>14.08</ele>
        <time>2019-07-21T09:08:41Z</time>
      </trkpt>
      <trkpt lat="50.67549" lon="2.7314">
        <ele>13.6</ele>
        <time>2019-07-21T09:08:54Z</time>
      </trkpt>
      <trkpt lat="50.67645" lon="2.73216">
        <ele>13.6</ele>
        <time>2019-07-21T09:09:09Z</time>
      </trkpt>
      <trkpt lat="50.67651" lon="2.73222">
        <ele>13.6</ele>
        <time>2019-07-21T09:09:10Z</time>
      </trkpt>
      <trkpt lat="50.67655" lon="2.73231">
        <ele>13.6</ele>
        <time>2019-07-21T09:09:11Z</time>
      </trkpt>
      <trkpt lat="50.67657" lon="2.73242">
        <ele>13.6</ele>
        <time>2019-07-21T09:09:12Z</time>
      </trkpt>
      <trkpt lat="50.67656" lon="2.73252">
        <ele>13.6</ele>
        <time>2019-07-21T09:09:13Z</time>
      </trkpt>
      <trkpt lat="50.67652" lon="2.73262">
        <ele>13.6</ele>
        <time>2019-07-21T09:09:14Z</time>
      </trkpt>
      <trkpt lat="50.67647" lon="2.73269">
        <ele>13.6</ele>
        <time>2019-07-21T09:09:15Z</time>
      </trkpt>
      <trkpt lat="50.67641" lon="2.73276">
        <ele>13.6</ele>
        <time>2019-07-21T09:09:16Z</time>
      </trkpt>
      <trkpt lat="50.67546" lon="2.73385">
        <ele>13.6</ele>
        <time>2019-07-21T09:09:31Z</time>
      </trkpt>
      <trkpt lat="50.67456" lon="2.73487">
        <ele>13.6</ele>
        <time>2019-07-21T09:09:45Z</time>
      </trkpt>
      <trkpt lat="50.67345" lon="2.73615">
        <ele>13.12</ele>
        <time>2019-07-21T09:10:02Z</time>
      </trkpt>
      <trkpt lat="50.67219" lon="2.73764">
        <ele>13.12</ele>
        <time>2019-07-21T09:10:21Z</time>
      </trkpt>
      <trkpt lat="50.67131" lon="2.73855">
        <ele>13.12</ele>
        <time>2019-07-21T09:10:34Z</time>
      </trkpt>
      <trkpt lat="50.67099" lon="2.73893">
        <ele>12.63</ele>
        <time>2019-07-21T09:10:39Z</time>
      </trkpt>
      <trkpt lat="50.67094" lon="2.73903">
        <ele>12.63</ele>
        <time>2019-07-21T09:10:40Z</time>
      </trkpt>
      <trkpt lat="50.67089" lon="2.73914">
        <ele>12.63</ele>
        <time>2019-07-21T09:10:41Z</time>
      </trkpt>
      <trkpt lat="50.67085" lon="2.73925">
        <ele>12.63</ele>
        <time>2019-07-21T09:10:42Z</time>
      </trkpt>
      <trkpt lat="50.67082" lon="2.73938">
        <ele>12.63</ele>
        <time>2019-07-21T09:10:43Z</time>
      </trkpt>
      <trkpt lat="50.67078" lon="2.73949">
        <ele>12.63</ele>
        <time>2019-07-21T09:10:44Z</time>
      </trkpt>
      <trkpt lat="50.67073" lon="2.7396">
        <ele>12.63</ele>
        <time>2019-07-21T09:10:45Z</time>
      </trkpt>
      <trkpt lat="50.67067" lon="2.73968">
        <ele>12.63</ele>
        <time>2019-07-21T09:10:46Z</time>
      </trkpt>
      <trkpt lat="50.66975" lon="2.74056">
        <ele>11.67</ele>
        <time>2019-07-21T09:10:59Z</time>
      </trkpt>
      <trkpt lat="50.66877" lon="2.74149">
        <ele>11.19</ele>
        <time>2019-07-21T09:11:13Z</time>
      </trkpt>
      <trkpt lat="50.66841" lon="2.74177">
        <ele>12.63</ele>
        <time>2019-07-21T09:11:18Z</time>
      </trkpt>
      <trkpt lat="50.66745" lon="2.74263">
        <ele>11.19</ele>
        <time>2019-07-21T09:11:32Z</time>
      </trkpt>
      <trkpt lat="50.66701" lon="2.74307">
        <ele>11.19</ele>
        <time>2019-07-21T09:11:39Z</time>
      </trkpt>
      <trkpt lat="50.66667" lon="2.74347">
        <ele>11.19</ele>
        <time>2019-07-21T09:11:45Z</time>
      </trkpt>
      <trkpt lat="50.66619" lon="2.74412">
        <ele>11.19</ele>
        <time>2019-07-21T09:11:56Z</time>
      </trkpt>
      <trkpt lat="50.66616" lon="2.74417">
        <ele>11.19</ele>
        <time>2019-07-21T09:11:57Z</time>
      </trkpt>
      <trkpt lat="50.66615" lon="2.74422">
        <ele>11.19</ele>
        <time>2019-07-21T09:11:58Z</time>
      </trkpt>
      <trkpt lat="50.66614" lon="2.74428">
        <ele>11.19</ele>
        <time>2019-07-21T09:11:59Z</time>
      </trkpt>
      <trkpt lat="50.66614" lon="2.74434">
        <ele>11.19</ele>
        <time>2019-07-21T09:12:00Z</time>
      </trkpt>
      <trkpt lat="50.66616" lon="2.74441">
        <ele>11.19</ele>
        <time>2019-07-21T09:12:01Z</time>
      </trkpt>
      <trkpt lat="50.66619" lon="2.74448">
        <ele>11.19</ele>
        <time>2019-07-21T09:12:02Z</time>
      </trkpt>
      <trkpt lat="50.66623" lon="2.74455">
        <ele>11.19</ele>
        <time>2019-07-21T09:12:03Z</time>
      </trkpt>
      <trkpt lat="50.66628" lon="2.74463">
        <ele>12.63</ele>
        <time>2019-07-21T09:12:04Z</time>
      </trkpt>
      <trkpt lat="50.66632" lon="2.74471">
        <ele>12.63</ele>
        <time>2019-07-21T09:12:05Z</time>
      </trkpt>
      <trkpt lat="50.66712" lon="2.74624">
        <ele>12.63</ele>
        <time>2019-07-21T09:12:22Z</time>
      </trkpt>
      <trkpt lat="50.66718" lon="2.74631">
        <ele>13.12</ele>
        <time>2019-07-21T09:12:23Z</time>
      </trkpt>
      <trkpt lat="50.66725" lon="2.74635">
        <ele>13.12</ele>
        <time>2019-07-21T09:12:24Z</time>
      </trkpt>
      <trkpt lat="50.66732" lon="2.74635">
        <ele>13.12</ele>
        <time>2019-07-21T09:12:25Z</time>
      </trkpt>
      <trkpt lat="50.6674" lon="2.74632">
        <ele>13.6</ele>
        <time>2019-07-21T09:12:26Z</time>
      </trkpt>
      <trkpt lat="50.66746" lon="2.74627">
        <ele>13.6</ele>
        <time>2019-07-21T09:12:27Z</time>
      </trkpt>
      <trkpt lat="50.66753" lon="2.74622">
        <ele>13.6</ele>
        <time>2019-07-21T09:12:28Z</time>
      </trkpt>
      <trkpt lat="50.66761" lon="2.7462">
        <ele>13.6</ele>
        <time>2019-07-21T09:12:29Z</time>
      </trkpt>
      <trkpt lat="50.66769" lon="2.74621">
        <ele>13.6</ele>
        <time>2019-07-21T09:12:30Z</time>
      </trkpt>
      <trkpt lat="50.66776" lon="2.74626">
        <ele>13.6</ele>
        <time>2019-07-21T09:12:31Z</time>
      </trkpt>
      <trkpt lat="50.66782" lon="2.74632">
        <ele>13.6</ele>
        <time>2019-07-21T09:12:32Z</time>
      </trkpt>
      <trkpt lat="50.66788" lon="2.7464">
        <ele>13.6</ele>
        <time>2019-07-21T09:12:33Z</time>
      </trkpt>
      <trkpt lat="50.66794" lon="2.74649">
        <ele>13.6</ele>
        <time>2019-07-21T09:12:34Z</time>
      </trkpt>
      <trkpt lat="50.66799" lon="2.74657">
        <ele>13.6</ele>
        <time>2019-07-21T09:12:35Z</time>
      </trkpt>
      <trkpt lat="50.66886" lon="2.74822">
        <ele>13.6</ele>
        <time>2019-07-21T09:12:53Z</time>
      </trkpt>
      <trkpt lat="50.66956" lon="2.74949">
        <ele>12.15</ele>
        <time>2019-07-21T09:13:07Z</time>
      </trkpt>
      <trkpt lat="50.6696" lon="2.7496">
        <ele>12.15</ele>
        <time>2019-07-21T09:13:08Z</time>
      </trkpt>
      <trkpt lat="50.66963" lon="2.74972">
        <ele>12.15</ele>
        <time>2019-07-21T09:13:09Z</time>
      </trkpt>
      <trkpt lat="50.66968" lon="2.74995">
        <ele>12.15</ele>
        <time>2019-07-21T09:13:11Z</time>
      </trkpt>
      <trkpt lat="50.66969" lon="2.75009">
        <ele>12.15</ele>
        <time>2019-07-21T09:13:12Z</time>
      </trkpt>
      <trkpt lat="50.66969" lon="2.75021">
        <ele>12.15</ele>
        <time>2019-07-21T09:13:13Z</time>
      </trkpt>
      <trkpt lat="50.66967" lon="2.75034">
        <ele>12.15</ele>
        <time>2019-07-21T09:13:14Z</time>
      </trkpt>
      <trkpt lat="50.66964" lon="2.75046">
        <ele>12.15</ele>
        <time>2019-07-21T09:13:15Z</time>
      </trkpt>
      <trkpt lat="50.66959" lon="2.75057">
        <ele>12.15</ele>
        <time>2019-07-21T09:13:16Z</time>
      </trkpt>
      <trkpt lat="50.66955" lon="2.75067">
        <ele>12.15</ele>
        <time>2019-07-21T09:13:17Z</time>
      </trkpt>
      <trkpt lat="50.66939" lon="2.75112">
        <ele>13.6</ele>
        <time>2019-07-21T09:13:21Z</time>
      </trkpt>
      <trkpt lat="50.66892" lon="2.75302">
        <ele>13.6</ele>
        <time>2019-07-21T09:13:37Z</time>
      </trkpt>
      <trkpt lat="50.66867" lon="2.75524">
        <ele>13.6</ele>
        <time>2019-07-21T09:13:54Z</time>
      </trkpt>
      <trkpt lat="50.66864" lon="2.75551">
        <ele>13.6</ele>
        <time>2019-07-21T09:13:56Z</time>
      </trkpt>
      <trkpt lat="50.66861" lon="2.75564">
        <ele>13.6</ele>
        <time>2019-07-21T09:13:57Z</time>
      </trkpt>
      <trkpt lat="50.66857" lon="2.75576">
        <ele>13.6</ele>
        <time>2019-07-21T09:13:58Z</time>
      </trkpt>
      <trkpt lat="50.66852" lon="2.75587">
        <ele>13.6</ele>
        <time>2019-07-21T09:13:59Z</time>
      </trkpt>
      <trkpt lat="50.66846" lon="2.75596">
        <ele>13.6</ele>
        <time>2019-07-21T09:14:00Z</time>
      </trkpt>
      <trkpt lat="50.66838" lon="2.75603">
        <ele>13.6</ele>
        <time>2019-07-21T09:14:01Z</time>
      </trkpt>
      <trkpt lat="50.6683" lon="2.75609">
        <ele>13.6</ele>
        <time>2019-07-21T09:14:02Z</time>
      </trkpt>
      <trkpt lat="50.66732" lon="2.75649">
        <ele>13.6</ele>
        <time>2019-07-21T09:14:14Z</time>
      </trkpt>
      <trkpt lat="50.66599" lon="2.7568">
        <ele>13.6</ele>
        <time>2019-07-21T09:14:30Z</time>
      </trkpt>
      <trkpt lat="50.66543" lon="2.75702">
        <ele>13.6</ele>
        <time>2019-07-21T09:14:37Z</time>
      </trkpt>
      <trkpt lat="50.66536" lon="2.75707">
        <ele>13.6</ele>
        <time>2019-07-21T09:14:38Z</time>
      </trkpt>
      <trkpt lat="50.66528" lon="2.75714">
        <ele>12.15</ele>
        <time>2019-07-21T09:14:39Z</time>
      </trkpt>
      <trkpt lat="50.66521" lon="2.75721">
        <ele>12.15</ele>
        <time>2019-07-21T09:14:40Z</time>
      </trkpt>
      <trkpt lat="50.6646" lon="2.75801">
        <ele>13.12</ele>
        <time>2019-07-21T09:14:50Z</time>
      </trkpt>
      <trkpt lat="50.66357" lon="2.75948">
        <ele>14.08</ele>
        <time>2019-07-21T09:15:08Z</time>
      </trkpt>
      <trkpt lat="50.66322" lon="2.76013">
        <ele>12.63</ele>
        <time>2019-07-21T09:15:15Z</time>
      </trkpt>
      <trkpt lat="50.66258" lon="2.76172">
        <ele>12.15</ele>
        <time>2019-07-21T09:15:32Z</time>
      </trkpt>
      <trkpt lat="50.66256" lon="2.76178">
        <ele>12.15</ele>
        <time>2019-07-21T09:15:33Z</time>
      </trkpt>
      <trkpt lat="50.66237" lon="2.76204">
        <ele>12.15</ele>
        <time>2019-07-21T09:15:43Z</time>
      </trkpt>
      <trkpt lat="50.66234" lon="2.76207">
        <ele>12.15</ele>
        <time>2019-07-21T09:15:44Z</time>
      </trkpt>
      <trkpt lat="50.6623" lon="2.76212">
        <ele>12.15</ele>
        <time>2019-07-21T09:15:45Z</time>
      </trkpt>
      <trkpt lat="50.66228" lon="2.76218">
        <ele>12.15</ele>
        <time>2019-07-21T09:15:46Z</time>
      </trkpt>
      <trkpt lat="50.66225" lon="2.76227">
        <ele>12.15</ele>
        <time>2019-07-21T09:15:47Z</time>
      </trkpt>
      <trkpt lat="50.66223" lon="2.76236">
        <ele>12.15</ele>
        <time>2019-07-21T09:15:48Z</time>
      </trkpt>
      <trkpt lat="50.66189" lon="2.76374">
        <ele>12.15</ele>
        <time>2019-07-21T09:16:00Z</time>
      </trkpt>
      <trkpt lat="50.66172" lon="2.76451">
        <ele>12.15</ele>
        <time>2019-07-21T09:16:07Z</time>
      </trkpt>
      <trkpt lat="50.66168" lon="2.7646">
        <ele>12.15</ele>
        <time>2019-07-21T09:16:08Z</time>
      </trkpt>
      <trkpt lat="50.66164" lon="2.7647">
        <ele>12.15</ele>
        <time>2019-07-21T09:16:09Z</time>
      </trkpt>
      <trkpt lat="50.66159" lon="2.76479">
        <ele>12.15</ele>
        <time>2019-07-21T09:16:10Z</time>
      </trkpt>
      <trkpt lat="50.66153" lon="2.76487">
        <ele>12.15</ele>
        <time>2019-07-21T09:16:11Z</time>
      </trkpt>
      <trkpt lat="50.66146" lon="2.76493">
        <ele>13.12</ele>
        <time>2019-07-21T09:16:12Z</time>
      </trkpt>
      <trkpt lat="50.6614" lon="2.765">
        <ele>13.12</ele>
        <time>2019-07-21T09:16:13Z</time>
      </trkpt>
      <trkpt lat="50.66058" lon="2.76593">
        <ele>15.04</ele>
        <time>2019-07-21T09:16:28Z</time>
      </trkpt>
      <trkpt lat="50.6604" lon="2.76612">
        <ele>15.04</ele>
        <time>2019-07-21T09:16:32Z</time>
      </trkpt>
      <trkpt lat="50.66036" lon="2.76616">
        <ele>15.04</ele>
        <time>2019-07-21T09:16:33Z</time>
      </trkpt>
      <trkpt lat="50.66015" lon="2.76633">
        <ele>14.08</ele>
        <time>2019-07-21T09:16:37Z</time>
      </trkpt>
      <trkpt lat="50.65933" lon="2.76699">
        <ele>12.63</ele>
        <time>2019-07-21T09:16:50Z</time>
      </trkpt>
      <trkpt lat="50.65859" lon="2.76774">
        <ele>13.6</ele>
        <time>2019-07-21T09:17:03Z</time>
      </trkpt>
      <trkpt lat="50.65788" lon="2.76859">
        <ele>14.08</ele>
        <time>2019-07-21T09:17:15Z</time>
      </trkpt>
      <trkpt lat="50.65766" lon="2.76883">
        <ele>14.08</ele>
        <time>2019-07-21T09:17:23Z</time>
      </trkpt>
      <trkpt lat="50.65766" lon="2.76883">
        <ele>12.63</ele>
        <time>2019-07-21T09:17:26Z</time>
      </trkpt>
      <trkpt lat="50.65764" lon="2.76888">
        <ele>12.63</ele>
        <time>2019-07-21T09:17:53Z</time>
      </trkpt>
      <trkpt lat="50.65751" lon="2.76901">
        <ele>12.63</ele>
        <time>2019-07-21T09:17:58Z</time>
      </trkpt>
      <trkpt lat="50.65748" lon="2.76906">
        <ele>12.63</ele>
        <time>2019-07-21T09:17:59Z</time>
      </trkpt>
      <trkpt lat="50.65693" lon="2.76981">
        <ele>12.63</ele>
        <time>2019-07-21T09:18:10Z</time>
      </trkpt>
      <trkpt lat="50.65603" lon="2.77109">
        <ele>12.63</ele>
        <time>2019-07-21T09:18:27Z</time>
      </trkpt>
      <trkpt lat="50.65524" lon="2.77217">
        <ele>12.63</ele>
        <time>2019-07-21T09:18:41Z</time>
      </trkpt>
      <trkpt lat="50.65426" lon="2.77354">
        <ele>12.63</ele>
        <time>2019-07-21T09:18:59Z</time>
      </trkpt>
      <trkpt lat="50.6534" lon="2.77477">
        <ele>12.63</ele>
        <time>2019-07-21T09:19:15Z</time>
      </trkpt>
      <trkpt lat="50.65265" lon="2.77576">
        <ele>12.63</ele>
        <time>2019-07-21T09:19:28Z</time>
      </trkpt>
      <trkpt lat="50.65155" lon="2.77722">
        <ele>13.12</ele>
        <time>2019-07-21T09:19:47Z</time>
      </trkpt>
      <trkpt lat="50.65031" lon="2.77875">
        <ele>13.12</ele>
        <time>2019-07-21T09:20:08Z</time>
      </trkpt>
      <trkpt lat="50.64912" lon="2.78007">
        <ele>13.12</ele>
        <time>2019-07-21T09:20:27Z</time>
      </trkpt>
      <trkpt lat="50.64801" lon="2.78136">
        <ele>13.12</ele>
        <time>2019-07-21T09:20:45Z</time>
      </trkpt>
      <trkpt lat="50.64707" lon="2.78241">
        <ele>13.6</ele>
        <time>2019-07-21T09:21:00Z</time>
      </trkpt>
      <trkpt lat="50.64603" lon="2.78357">
        <ele>13.6</ele>
        <time>2019-07-21T09:21:17Z</time>
      </trkpt>
      <trkpt lat="50.64528" lon="2.78439">
        <ele>13.6</ele>
        <time>2019-07-21T09:21:30Z</time>
      </trkpt>
      <trkpt lat="50.64523" lon="2.78442">
        <ele>13.6</ele>
        <time>2019-07-21T09:21:31Z</time>
      </trkpt>
      <trkpt lat="50.64518" lon="2.78445">
        <ele>13.6</ele>
        <time>2019-07-21T09:21:32Z</time>
      </trkpt>
      <trkpt lat="50.645" lon="2.78452">
        <ele>13.6</ele>
        <time>2019-07-21T09:21:36Z</time>
      </trkpt>
      <trkpt lat="50.64496" lon="2.78456">
        <ele>13.6</ele>
        <time>2019-07-21T09:21:37Z</time>
      </trkpt>
      <trkpt lat="50.64493" lon="2.78463">
        <ele>13.6</ele>
        <time>2019-07-21T09:21:38Z</time>
      </trkpt>
      <trkpt lat="50.64474" lon="2.78503">
        <ele>13.6</ele>
        <time>2019-07-21T09:21:43Z</time>
      </trkpt>
      <trkpt lat="50.64469" lon="2.7851">
        <ele>13.6</ele>
        <time>2019-07-21T09:21:44Z</time>
      </trkpt>
      <trkpt lat="50.64464" lon="2.78516">
        <ele>13.6</ele>
        <time>2019-07-21T09:21:45Z</time>
      </trkpt>
      <trkpt lat="50.64376" lon="2.78621">
        <ele>13.6</ele>
        <time>2019-07-21T09:22:01Z</time>
      </trkpt>
      <trkpt lat="50.64285" lon="2.7873">
        <ele>13.6</ele>
        <time>2019-07-21T09:22:17Z</time>
      </trkpt>
      <trkpt lat="50.64192" lon="2.78824">
        <ele>13.6</ele>
        <time>2019-07-21T09:22:32Z</time>
      </trkpt>
      <trkpt lat="50.64175" lon="2.78847">
        <ele>13.6</ele>
        <time>2019-07-21T09:22:35Z</time>
      </trkpt>
      <trkpt lat="50.6417" lon="2.78856">
        <ele>13.6</ele>
        <time>2019-07-21T09:22:36Z</time>
      </trkpt>
      <trkpt lat="50.64166" lon="2.78865">
        <ele>13.6</ele>
        <time>2019-07-21T09:22:37Z</time>
      </trkpt>
      <trkpt lat="50.64162" lon="2.78875">
        <ele>13.6</ele>
        <time>2019-07-21T09:22:38Z</time>
      </trkpt>
      <trkpt lat="50.64158" lon="2.78885">
        <ele>13.6</ele>
        <time>2019-07-21T09:22:39Z</time>
      </trkpt>
      <trkpt lat="50.64081" lon="2.79085">
        <ele>14.08</ele>
        <time>2019-07-21T09:22:59Z</time>
      </trkpt>
      <trkpt lat="50.64002" lon="2.79255">
        <ele>13.6</ele>
        <time>2019-07-21T09:23:17Z</time>
      </trkpt>
      <trkpt lat="50.63919" lon="2.79422">
        <ele>13.6</ele>
        <time>2019-07-21T09:23:35Z</time>
      </trkpt>
      <trkpt lat="50.63811" lon="2.79602">
        <ele>13.6</ele>
        <time>2019-07-21T09:23:56Z</time>
      </trkpt>
      <trkpt lat="50.63708" lon="2.79774">
        <ele>13.6</ele>
        <time>2019-07-21T09:24:16Z</time>
      </trkpt>
      <trkpt lat="50.63616" lon="2.7991">
        <ele>14.08</ele>
        <time>2019-07-21T09:24:33Z</time>
      </trkpt>
      <trkpt lat="50.63546" lon="2.80035">
        <ele>13.6</ele>
        <time>2019-07-21T09:24:47Z</time>
      </trkpt>
      <trkpt lat="50.63466" lon="2.80173">
        <ele>13.6</ele>
        <time>2019-07-21T09:25:03Z</time>
      </trkpt>
      <trkpt lat="50.6339" lon="2.80336">
        <ele>13.6</ele>
        <time>2019-07-21T09:25:20Z</time>
      </trkpt>
      <trkpt lat="50.6332" lon="2.805">
        <ele>14.56</ele>
        <time>2019-07-21T09:25:37Z</time>
      </trkpt>
      <trkpt lat="50.63251" lon="2.80666">
        <ele>14.56</ele>
        <time>2019-07-21T09:25:54Z</time>
      </trkpt>
      <trkpt lat="50.63181" lon="2.80837">
        <ele>14.08</ele>
        <time>2019-07-21T09:26:11Z</time>
      </trkpt>
      <trkpt lat="50.63092" lon="2.81042">
        <ele>14.56</ele>
        <time>2019-07-21T09:26:32Z</time>
      </trkpt>
      <trkpt lat="50.63007" lon="2.81236">
        <ele>14.56</ele>
        <time>2019-07-21T09:26:52Z</time>
      </trkpt>
      <trkpt lat="50.62923" lon="2.8142">
        <ele>14.56</ele>
        <time>2019-07-21T09:27:11Z</time>
      </trkpt>
      <trkpt lat="50.62842" lon="2.81572">
        <ele>14.56</ele>
        <time>2019-07-21T09:27:28Z</time>
      </trkpt>
      <trkpt lat="50.62785" lon="2.81663">
        <ele>14.56</ele>
        <time>2019-07-21T09:27:39Z</time>
      </trkpt>
      <trkpt lat="50.62779" lon="2.81668">
        <ele>14.56</ele>
        <time>2019-07-21T09:27:40Z</time>
      </trkpt>
      <trkpt lat="50.62772" lon="2.81672">
        <ele>14.56</ele>
        <time>2019-07-21T09:27:41Z</time>
      </trkpt>
      <trkpt lat="50.62764" lon="2.81674">
        <ele>14.56</ele>
        <time>2019-07-21T09:27:42Z</time>
      </trkpt>
      <trkpt lat="50.62757" lon="2.81674">
        <ele>14.56</ele>
        <time>2019-07-21T09:27:43Z</time>
      </trkpt>
      <trkpt lat="50.6275" lon="2.81672">
        <ele>14.56</ele>
        <time>2019-07-21T09:27:44Z</time>
      </trkpt>
      <trkpt lat="50.62743" lon="2.8167">
        <ele>14.56</ele>
        <time>2019-07-21T09:27:45Z</time>
      </trkpt>
      <trkpt lat="50.62736" lon="2.81668">
        <ele>14.56</ele>
        <time>2019-07-21T09:27:46Z</time>
      </trkpt>
      <trkpt lat="50.62729" lon="2.81666">
        <ele>14.56</ele>
        <time>2019-07-21T09:27:47Z</time>
      </trkpt>
      <trkpt lat="50.62722" lon="2.81666">
        <ele>14.56</ele>
        <time>2019-07-21T09:27:48Z</time>
      </trkpt>
      <trkpt lat="50.62715" lon="2.81669">
        <ele>14.56</ele>
        <time>2019-07-21T09:27:49Z</time>
      </trkpt>
      <trkpt lat="50.62709" lon="2.81674">
        <ele>14.56</ele>
        <time>2019-07-21T09:27:50Z</time>
      </trkpt>
      <trkpt lat="50.62703" lon="2.8168">
        <ele>14.56</ele>
        <time>2019-07-21T09:27:51Z</time>
      </trkpt>
      <trkpt lat="50.62697" lon="2.81688">
        <ele>14.56</ele>
        <time>2019-07-21T09:27:52Z</time>
      </trkpt>
      <trkpt lat="50.62693" lon="2.81696">
        <ele>14.56</ele>
        <time>2019-07-21T09:27:53Z</time>
      </trkpt>
      <trkpt lat="50.62688" lon="2.81705">
        <ele>14.56</ele>
        <time>2019-07-21T09:27:54Z</time>
      </trkpt>
      <trkpt lat="50.62684" lon="2.81714">
        <ele>14.56</ele>
        <time>2019-07-21T09:27:55Z</time>
      </trkpt>
      <trkpt lat="50.62615" lon="2.81845">
        <ele>14.56</ele>
        <time>2019-07-21T09:28:11Z</time>
      </trkpt>
      <trkpt lat="50.62596" lon="2.81875">
        <ele>14.56</ele>
        <time>2019-07-21T09:28:18Z</time>
      </trkpt>
      <trkpt lat="50.62583" lon="2.81918">
        <ele>14.56</ele>
        <time>2019-07-21T09:28:24Z</time>
      </trkpt>
      <trkpt lat="50.6258" lon="2.81928">
        <ele>14.56</ele>
        <time>2019-07-21T09:28:25Z</time>
      </trkpt>
      <trkpt lat="50.62577" lon="2.81937">
        <ele>14.56</ele>
        <time>2019-07-21T09:28:26Z</time>
      </trkpt>
      <trkpt lat="50.62574" lon="2.81946">
        <ele>14.56</ele>
        <time>2019-07-21T09:28:27Z</time>
      </trkpt>
      <trkpt lat="50.6257" lon="2.81955">
        <ele>14.56</ele>
        <time>2019-07-21T09:28:28Z</time>
      </trkpt>
      <trkpt lat="50.62497" lon="2.82124">
        <ele>14.56</ele>
        <time>2019-07-21T09:28:46Z</time>
      </trkpt>
      <trkpt lat="50.62414" lon="2.82313">
        <ele>14.56</ele>
        <time>2019-07-21T09:29:06Z</time>
      </trkpt>
      <trkpt lat="50.62329" lon="2.82509">
        <ele>14.56</ele>
        <time>2019-07-21T09:29:26Z</time>
      </trkpt>
      <trkpt lat="50.62244" lon="2.82693">
        <ele>15.04</ele>
        <time>2019-07-21T09:29:46Z</time>
      </trkpt>
      <trkpt lat="50.62167" lon="2.82851">
        <ele>13.6</ele>
        <time>2019-07-21T09:30:04Z</time>
      </trkpt>
      <trkpt lat="50.62076" lon="2.83037">
        <ele>13.6</ele>
        <time>2019-07-21T09:30:25Z</time>
      </trkpt>
      <trkpt lat="50.62015" lon="2.83132">
        <ele>13.6</ele>
        <time>2019-07-21T09:30:37Z</time>
      </trkpt>
      <trkpt lat="50.6201" lon="2.8314">
        <ele>13.6</ele>
        <time>2019-07-21T09:30:38Z</time>
      </trkpt>
      <trkpt lat="50.62006" lon="2.8315">
        <ele>13.6</ele>
        <time>2019-07-21T09:30:39Z</time>
      </trkpt>
      <trkpt lat="50.62002" lon="2.8316">
        <ele>13.6</ele>
        <time>2019-07-21T09:30:40Z</time>
      </trkpt>
      <trkpt lat="50.61999" lon="2.8317">
        <ele>13.6</ele>
        <time>2019-07-21T09:30:41Z</time>
      </trkpt>
      <trkpt lat="50.61938" lon="2.83349">
        <ele>13.6</ele>
        <time>2019-07-21T09:30:58Z</time>
      </trkpt>
      <trkpt lat="50.61891" lon="2.83457">
        <ele>13.6</ele>
        <time>2019-07-21T09:31:09Z</time>
      </trkpt>
      <trkpt lat="50.61885" lon="2.83464">
        <ele>14.08</ele>
        <time>2019-07-21T09:31:10Z</time>
      </trkpt>
      <trkpt lat="50.61879" lon="2.83471">
        <ele>14.08</ele>
        <time>2019-07-21T09:31:11Z</time>
      </trkpt>
      <trkpt lat="50.61776" lon="2.83537">
        <ele>13.6</ele>
        <time>2019-07-21T09:31:26Z</time>
      </trkpt>
      <trkpt lat="50.61714" lon="2.83574">
        <ele>14.08</ele>
        <time>2019-07-21T09:31:35Z</time>
      </trkpt>
      <trkpt lat="50.61706" lon="2.83576">
        <ele>15.04</ele>
        <time>2019-07-21T09:31:36Z</time>
      </trkpt>
      <trkpt lat="50.61637" lon="2.83615">
        <ele>16</ele>
        <time>2019-07-21T09:31:46Z</time>
      </trkpt>
      <trkpt lat="50.61632" lon="2.83623">
        <ele>16</ele>
        <time>2019-07-21T09:31:47Z</time>
      </trkpt>
      <trkpt lat="50.61628" lon="2.83633">
        <ele>16</ele>
        <time>2019-07-21T09:31:48Z</time>
      </trkpt>
      <trkpt lat="50.61625" lon="2.83644">
        <ele>16</ele>
        <time>2019-07-21T09:31:49Z</time>
      </trkpt>
      <trkpt lat="50.61625" lon="2.83656">
        <ele>16</ele>
        <time>2019-07-21T09:31:50Z</time>
      </trkpt>
      <trkpt lat="50.61624" lon="2.83668">
        <ele>16</ele>
        <time>2019-07-21T09:31:51Z</time>
      </trkpt>
      <trkpt lat="50.61627" lon="2.83761">
        <ele>16</ele>
        <time>2019-07-21T09:31:59Z</time>
      </trkpt>
      <trkpt lat="50.61662" lon="2.83892">
        <ele>14.56</ele>
        <time>2019-07-21T09:32:11Z</time>
      </trkpt>
      <trkpt lat="50.6169" lon="2.83991">
        <ele>14.56</ele>
        <time>2019-07-21T09:32:20Z</time>
      </trkpt>
      <trkpt lat="50.61692" lon="2.84003">
        <ele>14.56</ele>
        <time>2019-07-21T09:32:21Z</time>
      </trkpt>
      <trkpt lat="50.61691" lon="2.84015">
        <ele>14.56</ele>
        <time>2019-07-21T09:32:22Z</time>
      </trkpt>
      <trkpt lat="50.61689" lon="2.84026">
        <ele>14.56</ele>
        <time>2019-07-21T09:32:23Z</time>
      </trkpt>
      <trkpt lat="50.61684" lon="2.84036">
        <ele>14.56</ele>
        <time>2019-07-21T09:32:24Z</time>
      </trkpt>
      <trkpt lat="50.61678" lon="2.84044">
        <ele>14.56</ele>
        <time>2019-07-21T09:32:25Z</time>
      </trkpt>
      <trkpt lat="50.61671" lon="2.84051">
        <ele>14.56</ele>
        <time>2019-07-21T09:32:26Z</time>
      </trkpt>
      <trkpt lat="50.61664" lon="2.84057">
        <ele>14.56</ele>
        <time>2019-07-21T09:32:27Z</time>
      </trkpt>
      <trkpt lat="50.61656" lon="2.84063">
        <ele>14.56</ele>
        <time>2019-07-21T09:32:28Z</time>
      </trkpt>
      <trkpt lat="50.61611" lon="2.84115">
        <ele>14.56</ele>
        <time>2019-07-21T09:32:35Z</time>
      </trkpt>
      <trkpt lat="50.61607" lon="2.84125">
        <ele>14.56</ele>
        <time>2019-07-21T09:32:36Z</time>
      </trkpt>
      <trkpt lat="50.61604" lon="2.84137">
        <ele>14.56</ele>
        <time>2019-07-21T09:32:37Z</time>
      </trkpt>
      <trkpt lat="50.61602" lon="2.84147">
        <ele>16</ele>
        <time>2019-07-21T09:32:38Z</time>
      </trkpt>
      <trkpt lat="50.61601" lon="2.8416">
        <ele>16</ele>
        <time>2019-07-21T09:32:39Z</time>
      </trkpt>
      <trkpt lat="50.616" lon="2.84172">
        <ele>16</ele>
        <time>2019-07-21T09:32:40Z</time>
      </trkpt>
      <trkpt lat="50.61584" lon="2.84383">
        <ele>16</ele>
        <time>2019-07-21T09:32:57Z</time>
      </trkpt>
      <trkpt lat="50.61577" lon="2.84486">
        <ele>16</ele>
        <time>2019-07-21T09:33:05Z</time>
      </trkpt>
      <trkpt lat="50.61574" lon="2.845">
        <ele>16</ele>
        <time>2019-07-21T09:33:06Z</time>
      </trkpt>
      <trkpt lat="50.61569" lon="2.8451">
        <ele>16</ele>
        <time>2019-07-21T09:33:07Z</time>
      </trkpt>
      <trkpt lat="50.61564" lon="2.84519">
        <ele>16</ele>
        <time>2019-07-21T09:33:08Z</time>
      </trkpt>
      <trkpt lat="50.61557" lon="2.84528">
        <ele>16</ele>
        <time>2019-07-21T09:33:09Z</time>
      </trkpt>
      <trkpt lat="50.6155" lon="2.84535">
        <ele>16</ele>
        <time>2019-07-21T09:33:10Z</time>
      </trkpt>
      <trkpt lat="50.61543" lon="2.84541">
        <ele>16</ele>
        <time>2019-07-21T09:33:11Z</time>
      </trkpt>
      <trkpt lat="50.61413" lon="2.84657">
        <ele>16</ele>
        <time>2019-07-21T09:33:29Z</time>
      </trkpt>
      <trkpt lat="50.61273" lon="2.84768">
        <ele>16</ele>
        <time>2019-07-21T09:33:48Z</time>
      </trkpt>
      <trkpt lat="50.61235" lon="2.84803">
        <ele>16</ele>
        <time>2019-07-21T09:33:54Z</time>
      </trkpt>
      <trkpt lat="50.61231" lon="2.84811">
        <ele>16</ele>
        <time>2019-07-21T09:33:55Z</time>
      </trkpt>
      <trkpt lat="50.61229" lon="2.84822">
        <ele>16</ele>
        <time>2019-07-21T09:33:56Z</time>
      </trkpt>
      <trkpt lat="50.61228" lon="2.84833">
        <ele>16</ele>
        <time>2019-07-21T09:33:57Z</time>
      </trkpt>
      <trkpt lat="50.61228" lon="2.84843">
        <ele>16</ele>
        <time>2019-07-21T09:33:58Z</time>
      </trkpt>
      <trkpt lat="50.61226" lon="2.84853">
        <ele>16</ele>
        <time>2019-07-21T09:33:59Z</time>
      </trkpt>
      <trkpt lat="50.61222" lon="2.84862">
        <ele>16</ele>
        <time>2019-07-21T09:34:00Z</time>
      </trkpt>
      <trkpt lat="50.61216" lon="2.84868">
        <ele>16.48</ele>
        <time>2019-07-21T09:34:01Z</time>
      </trkpt>
      <trkpt lat="50.61211" lon="2.84873">
        <ele>16.48</ele>
        <time>2019-07-21T09:34:02Z</time>
      </trkpt>
      <trkpt lat="50.61204" lon="2.84878">
        <ele>16.48</ele>
        <time>2019-07-21T09:34:03Z</time>
      </trkpt>
      <trkpt lat="50.61107" lon="2.84961">
        <ele>16.96</ele>
        <time>2019-07-21T09:34:17Z</time>
      </trkpt>
      <trkpt lat="50.60961" lon="2.8509">
        <ele>17.92</ele>
        <time>2019-07-21T09:34:38Z</time>
      </trkpt>
      <trkpt lat="50.60843" lon="2.85198">
        <ele>19.36</ele>
        <time>2019-07-21T09:34:55Z</time>
      </trkpt>
      <trkpt lat="50.60773" lon="2.85276">
        <ele>22.73</ele>
        <time>2019-07-21T09:35:05Z</time>
      </trkpt>
      <trkpt lat="50.60768" lon="2.85285">
        <ele>23.21</ele>
        <time>2019-07-21T09:35:06Z</time>
      </trkpt>
      <trkpt lat="50.60763" lon="2.85297">
        <ele>23.69</ele>
        <time>2019-07-21T09:35:07Z</time>
      </trkpt>
      <trkpt lat="50.6076" lon="2.85308">
        <ele>23.69</ele>
        <time>2019-07-21T09:35:08Z</time>
      </trkpt>
      <trkpt lat="50.60758" lon="2.85321">
        <ele>24.65</ele>
        <time>2019-07-21T09:35:09Z</time>
      </trkpt>
      <trkpt lat="50.60758" lon="2.85334">
        <ele>24.65</ele>
        <time>2019-07-21T09:35:10Z</time>
      </trkpt>
      <trkpt lat="50.60757" lon="2.85346">
        <ele>25.13</ele>
        <time>2019-07-21T09:35:11Z</time>
      </trkpt>
      <trkpt lat="50.60755" lon="2.85359">
        <ele>25.13</ele>
        <time>2019-07-21T09:35:12Z</time>
      </trkpt>
      <trkpt lat="50.6075" lon="2.85369">
        <ele>25.61</ele>
        <time>2019-07-21T09:35:13Z</time>
      </trkpt>
      <trkpt lat="50.60744" lon="2.85375">
        <ele>25.61</ele>
        <time>2019-07-21T09:35:14Z</time>
      </trkpt>
      <trkpt lat="50.60737" lon="2.8538">
        <ele>26.09</ele>
        <time>2019-07-21T09:35:15Z</time>
      </trkpt>
      <trkpt lat="50.60729" lon="2.85384">
        <ele>26.09</ele>
        <time>2019-07-21T09:35:16Z</time>
      </trkpt>
      <trkpt lat="50.60652" lon="2.85447">
        <ele>26.09</ele>
        <time>2019-07-21T09:35:28Z</time>
      </trkpt>
      <trkpt lat="50.60642" lon="2.85455">
        <ele>24.65</ele>
        <time>2019-07-21T09:35:30Z</time>
      </trkpt>
      <trkpt lat="50.60629" lon="2.85469">
        <ele>24.17</ele>
        <time>2019-07-21T09:35:34Z</time>
      </trkpt>
      <trkpt lat="50.60628" lon="2.85472">
        <ele>24.17</ele>
        <time>2019-07-21T09:35:35Z</time>
      </trkpt>
      <trkpt lat="50.60628" lon="2.85477">
        <ele>24.17</ele>
        <time>2019-07-21T09:35:36Z</time>
      </trkpt>
      <trkpt lat="50.60629" lon="2.85481">
        <ele>24.17</ele>
        <time>2019-07-21T09:35:37Z</time>
      </trkpt>
      <trkpt lat="50.60631" lon="2.85485">
        <ele>24.17</ele>
        <time>2019-07-21T09:35:38Z</time>
      </trkpt>
      <trkpt lat="50.60633" lon="2.85489">
        <ele>24.17</ele>
        <time>2019-07-21T09:35:39Z</time>
      </trkpt>
      <trkpt lat="50.60659" lon="2.85554">
        <ele>24.17</ele>
        <time>2019-07-21T09:35:50Z</time>
      </trkpt>
      <trkpt lat="50.60693" lon="2.85653">
        <ele>24.17</ele>
        <time>2019-07-21T09:36:03Z</time>
      </trkpt>
      <trkpt lat="50.60727" lon="2.85837">
        <ele>23.69</ele>
        <time>2019-07-21T09:36:23Z</time>
      </trkpt>
      <trkpt lat="50.6075" lon="2.85971">
        <ele>23.21</ele>
        <time>2019-07-21T09:36:37Z</time>
      </trkpt>
      <trkpt lat="50.60761" lon="2.86146">
        <ele>22.73</ele>
        <time>2019-07-21T09:36:53Z</time>
      </trkpt>
      <trkpt lat="50.60758" lon="2.86315">
        <ele>22.25</ele>
        <time>2019-07-21T09:37:07Z</time>
      </trkpt>
      <trkpt lat="50.60772" lon="2.86452">
        <ele>21.29</ele>
        <time>2019-07-21T09:37:18Z</time>
      </trkpt>
      <trkpt lat="50.60801" lon="2.86683">
        <ele>19.84</ele>
        <time>2019-07-21T09:37:36Z</time>
      </trkpt>
      <trkpt lat="50.60825" lon="2.86902">
        <ele>21.29</ele>
        <time>2019-07-21T09:37:53Z</time>
      </trkpt>
      <trkpt lat="50.60834" lon="2.86972">
        <ele>22.73</ele>
        <time>2019-07-21T09:37:59Z</time>
      </trkpt>
      <trkpt lat="50.60863" lon="2.8716">
        <ele>22.73</ele>
        <time>2019-07-21T09:38:15Z</time>
      </trkpt>
      <trkpt lat="50.60902" lon="2.87286">
        <ele>21.29</ele>
        <time>2019-07-21T09:38:26Z</time>
      </trkpt>
      <trkpt lat="50.60961" lon="2.87465">
        <ele>20.32</ele>
        <time>2019-07-21T09:38:42Z</time>
      </trkpt>
      <trkpt lat="50.61006" lon="2.87625">
        <ele>21.77</ele>
        <time>2019-07-21T09:38:56Z</time>
      </trkpt>
      <trkpt lat="50.61065" lon="2.87786">
        <ele>20.81</ele>
        <time>2019-07-21T09:39:11Z</time>
      </trkpt>
      <trkpt lat="50.61137" lon="2.8796">
        <ele>20.81</ele>
        <time>2019-07-21T09:39:28Z</time>
      </trkpt>
      <trkpt lat="50.61201" lon="2.88143">
        <ele>21.29</ele>
        <time>2019-07-21T09:39:45Z</time>
      </trkpt>
      <trkpt lat="50.61253" lon="2.88296">
        <ele>22.25</ele>
        <time>2019-07-21T09:40:00Z</time>
      </trkpt>
      <trkpt lat="50.61321" lon="2.8846">
        <ele>22.73</ele>
        <time>2019-07-21T09:40:17Z</time>
      </trkpt>
      <trkpt lat="50.61397" lon="2.8862">
        <ele>23.21</ele>
        <time>2019-07-21T09:40:35Z</time>
      </trkpt>
      <trkpt lat="50.61463" lon="2.88796">
        <ele>23.69</ele>
        <time>2019-07-21T09:40:53Z</time>
      </trkpt>
      <trkpt lat="50.61534" lon="2.88982">
        <ele>24.65</ele>
        <time>2019-07-21T09:41:12Z</time>
      </trkpt>
      <trkpt lat="50.61579" lon="2.89126">
        <ele>25.13</ele>
        <time>2019-07-21T09:41:26Z</time>
      </trkpt>
      <trkpt lat="50.61604" lon="2.89322">
        <ele>25.13</ele>
        <time>2019-07-21T09:41:43Z</time>
      </trkpt>
      <trkpt lat="50.61615" lon="2.89515">
        <ele>27.05</ele>
        <time>2019-07-21T09:42:00Z</time>
      </trkpt>
      <trkpt lat="50.61647" lon="2.89705">
        <ele>27.53</ele>
        <time>2019-07-21T09:42:17Z</time>
      </trkpt>
      <trkpt lat="50.61677" lon="2.89878">
        <ele>27.53</ele>
        <time>2019-07-21T09:42:32Z</time>
      </trkpt>
      <trkpt lat="50.61693" lon="2.90058">
        <ele>27.53</ele>
        <time>2019-07-21T09:42:47Z</time>
      </trkpt>
      <trkpt lat="50.61709" lon="2.90271">
        <ele>26.09</ele>
        <time>2019-07-21T09:43:05Z</time>
      </trkpt>
      <trkpt lat="50.6172" lon="2.90459">
        <ele>26.57</ele>
        <time>2019-07-21T09:43:21Z</time>
      </trkpt>
      <trkpt lat="50.6172" lon="2.90675">
        <ele>26.57</ele>
        <time>2019-07-21T09:43:39Z</time>
      </trkpt>
      <trkpt lat="50.61716" lon="2.90862">
        <ele>26.09</ele>
        <time>2019-07-21T09:43:57Z</time>
      </trkpt>
      <trkpt lat="50.61719" lon="2.90908">
        <ele>26.09</ele>
        <time>2019-07-21T09:44:06Z</time>
      </trkpt>
      <trkpt lat="50.6172" lon="2.90914">
        <ele>26.09</ele>
        <time>2019-07-21T09:44:25Z</time>
      </trkpt>
      <trkpt lat="50.6172" lon="2.90917">
        <ele>26.09</ele>
        <time>2019-07-21T09:44:26Z</time>
      </trkpt>
      <trkpt lat="50.6172" lon="2.90921">
        <ele>26.09</ele>
        <time>2019-07-21T09:44:27Z</time>
      </trkpt>
      <trkpt lat="50.61721" lon="2.90927">
        <ele>26.09</ele>
        <time>2019-07-21T09:44:28Z</time>
      </trkpt>
      <trkpt lat="50.61721" lon="2.90932">
        <ele>26.09</ele>
        <time>2019-07-21T09:44:29Z</time>
      </trkpt>
      <trkpt lat="50.61721" lon="2.90939">
        <ele>26.09</ele>
        <time>2019-07-21T09:44:30Z</time>
      </trkpt>
      <trkpt lat="50.61723" lon="2.90954">
        <ele>26.09</ele>
        <time>2019-07-21T09:44:32Z</time>
      </trkpt>
      <trkpt lat="50.61729" lon="2.91072">
        <ele>28.98</ele>
        <time>2019-07-21T09:44:43Z</time>
      </trkpt>
      <trkpt lat="50.61714" lon="2.91275">
        <ele>29.46</ele>
        <time>2019-07-21T09:45:01Z</time>
      </trkpt>
      <trkpt lat="50.61723" lon="2.91457">
        <ele>29.94</ele>
        <time>2019-07-21T09:45:17Z</time>
      </trkpt>
      <trkpt lat="50.61735" lon="2.91678">
        <ele>29.94</ele>
        <time>2019-07-21T09:45:36Z</time>
      </trkpt>
      <trkpt lat="50.61747" lon="2.91888">
        <ele>30.42</ele>
        <time>2019-07-21T09:45:54Z</time>
      </trkpt>
      <trkpt lat="50.61757" lon="2.92115">
        <ele>31.86</ele>
        <time>2019-07-21T09:46:13Z</time>
      </trkpt>
      <trkpt lat="50.61763" lon="2.92307">
        <ele>32.82</ele>
        <time>2019-07-21T09:46:29Z</time>
      </trkpt>
      <trkpt lat="50.61786" lon="2.92466">
        <ele>33.78</ele>
        <time>2019-07-21T09:46:43Z</time>
      </trkpt>
      <trkpt lat="50.61851" lon="2.92614">
        <ele>34.26</ele>
        <time>2019-07-21T09:46:58Z</time>
      </trkpt>
      <trkpt lat="50.61903" lon="2.92804">
        <ele>34.26</ele>
        <time>2019-07-21T09:47:15Z</time>
      </trkpt>
      <trkpt lat="50.61896" lon="2.92962">
        <ele>34.26</ele>
        <time>2019-07-21T09:47:28Z</time>
      </trkpt>
      <trkpt lat="50.61874" lon="2.93172">
        <ele>34.26</ele>
        <time>2019-07-21T09:47:45Z</time>
      </trkpt>
      <trkpt lat="50.61846" lon="2.9343">
        <ele>34.74</ele>
        <time>2019-07-21T09:48:06Z</time>
      </trkpt>
      <trkpt lat="50.61808" lon="2.9354">
        <ele>35.71</ele>
        <time>2019-07-21T09:48:16Z</time>
      </trkpt>
      <trkpt lat="50.61802" lon="2.93548">
        <ele>35.71</ele>
        <time>2019-07-21T09:48:17Z</time>
      </trkpt>
      <trkpt lat="50.61796" lon="2.93555">
        <ele>35.71</ele>
        <time>2019-07-21T09:48:18Z</time>
      </trkpt>
      <trkpt lat="50.61789" lon="2.93561">
        <ele>35.71</ele>
        <time>2019-07-21T09:48:19Z</time>
      </trkpt>
      <trkpt lat="50.61782" lon="2.93564">
        <ele>36.19</ele>
        <time>2019-07-21T09:48:20Z</time>
      </trkpt>
      <trkpt lat="50.61774" lon="2.93565">
        <ele>36.19</ele>
        <time>2019-07-21T09:48:21Z</time>
      </trkpt>
      <trkpt lat="50.61768" lon="2.93568">
        <ele>36.19</ele>
        <time>2019-07-21T09:48:22Z</time>
      </trkpt>
      <trkpt lat="50.61762" lon="2.93574">
        <ele>36.19</ele>
        <time>2019-07-21T09:48:23Z</time>
      </trkpt>
      <trkpt lat="50.61758" lon="2.93584">
        <ele>36.19</ele>
        <time>2019-07-21T09:48:24Z</time>
      </trkpt>
      <trkpt lat="50.61757" lon="2.93595">
        <ele>36.19</ele>
        <time>2019-07-21T09:48:25Z</time>
      </trkpt>
      <trkpt lat="50.61759" lon="2.93607">
        <ele>36.19</ele>
        <time>2019-07-21T09:48:26Z</time>
      </trkpt>
      <trkpt lat="50.61763" lon="2.93617">
        <ele>37.15</ele>
        <time>2019-07-21T09:48:27Z</time>
      </trkpt>
      <trkpt lat="50.61769" lon="2.93625">
        <ele>37.15</ele>
        <time>2019-07-21T09:48:28Z</time>
      </trkpt>
      <trkpt lat="50.61776" lon="2.93631">
        <ele>37.63</ele>
        <time>2019-07-21T09:48:29Z</time>
      </trkpt>
      <trkpt lat="50.61784" lon="2.93637">
        <ele>37.63</ele>
        <time>2019-07-21T09:48:30Z</time>
      </trkpt>
      <trkpt lat="50.61791" lon="2.93643">
        <ele>37.63</ele>
        <time>2019-07-21T09:48:31Z</time>
      </trkpt>
      <trkpt lat="50.61797" lon="2.9365">
        <ele>37.63</ele>
        <time>2019-07-21T09:48:32Z</time>
      </trkpt>
      <trkpt lat="50.61803" lon="2.93658">
        <ele>37.63</ele>
        <time>2019-07-21T09:48:33Z</time>
      </trkpt>
      <trkpt lat="50.61809" lon="2.93667">
        <ele>37.63</ele>
        <time>2019-07-21T09:48:34Z</time>
      </trkpt>
      <trkpt lat="50.61815" lon="2.93677">
        <ele>37.63</ele>
        <time>2019-07-21T09:48:35Z</time>
      </trkpt>
      <trkpt lat="50.61892" lon="2.93816">
        <ele>38.11</ele>
        <time>2019-07-21T09:48:50Z</time>
      </trkpt>
      <trkpt lat="50.61938" lon="2.9395">
        <ele>38.59</ele>
        <time>2019-07-21T09:49:03Z</time>
      </trkpt>
      <trkpt lat="50.6198" lon="2.94146">
        <ele>38.11</ele>
        <time>2019-07-21T09:49:21Z</time>
      </trkpt>
      <trkpt lat="50.62034" lon="2.94349">
        <ele>38.11</ele>
        <time>2019-07-21T09:49:39Z</time>
      </trkpt>
      <trkpt lat="50.62091" lon="2.94547">
        <ele>37.63</ele>
        <time>2019-07-21T09:49:55Z</time>
      </trkpt>
      <trkpt lat="50.62153" lon="2.94736">
        <ele>36.19</ele>
        <time>2019-07-21T09:50:11Z</time>
      </trkpt>
      <trkpt lat="50.6223" lon="2.94992">
        <ele>34.74</ele>
        <time>2019-07-21T09:50:31Z</time>
      </trkpt>
      <trkpt lat="50.62265" lon="2.95202">
        <ele>34.74</ele>
        <time>2019-07-21T09:50:46Z</time>
      </trkpt>
      <trkpt lat="50.623" lon="2.95382">
        <ele>36.19</ele>
        <time>2019-07-21T09:51:00Z</time>
      </trkpt>
      <trkpt lat="50.6233" lon="2.95526">
        <ele>36.19</ele>
        <time>2019-07-21T09:51:12Z</time>
      </trkpt>
      <trkpt lat="50.62342" lon="2.95555">
        <ele>36.19</ele>
        <time>2019-07-21T09:51:15Z</time>
      </trkpt>
      <trkpt lat="50.62348" lon="2.95564">
        <ele>36.19</ele>
        <time>2019-07-21T09:51:16Z</time>
      </trkpt>
      <trkpt lat="50.62411" lon="2.95639">
        <ele>37.15</ele>
        <time>2019-07-21T09:51:27Z</time>
      </trkpt>
      <trkpt lat="50.62451" lon="2.95705">
        <ele>37.15</ele>
        <time>2019-07-21T09:51:37Z</time>
      </trkpt>
      <trkpt lat="50.62505" lon="2.95773">
        <ele>36.67</ele>
        <time>2019-07-21T09:51:47Z</time>
      </trkpt>
      <trkpt lat="50.62526" lon="2.95809">
        <ele>37.63</ele>
        <time>2019-07-21T09:51:51Z</time>
      </trkpt>
      <trkpt lat="50.6253" lon="2.95819">
        <ele>37.63</ele>
        <time>2019-07-21T09:51:52Z</time>
      </trkpt>
      <trkpt lat="50.62534" lon="2.95829">
        <ele>37.63</ele>
        <time>2019-07-21T09:51:53Z</time>
      </trkpt>
      <trkpt lat="50.6254" lon="2.95851">
        <ele>38.59</ele>
        <time>2019-07-21T09:51:55Z</time>
      </trkpt>
      <trkpt lat="50.62541" lon="2.95861">
        <ele>38.59</ele>
        <time>2019-07-21T09:51:56Z</time>
      </trkpt>
      <trkpt lat="50.62543" lon="2.95871">
        <ele>38.59</ele>
        <time>2019-07-21T09:51:57Z</time>
      </trkpt>
      <trkpt lat="50.62545" lon="2.95903">
        <ele>39.07</ele>
        <time>2019-07-21T09:52:00Z</time>
      </trkpt>
      <trkpt lat="50.62545" lon="2.95914">
        <ele>39.07</ele>
        <time>2019-07-21T09:52:01Z</time>
      </trkpt>
      <trkpt lat="50.62544" lon="2.95924">
        <ele>39.07</ele>
        <time>2019-07-21T09:52:02Z</time>
      </trkpt>
      <trkpt lat="50.62543" lon="2.95946">
        <ele>40.03</ele>
        <time>2019-07-21T09:52:04Z</time>
      </trkpt>
      <trkpt lat="50.62546" lon="2.95955">
        <ele>40.03</ele>
        <time>2019-07-21T09:52:05Z</time>
      </trkpt>
      <trkpt lat="50.62551" lon="2.95961">
        <ele>40.03</ele>
        <time>2019-07-21T09:52:06Z</time>
      </trkpt>
      <trkpt lat="50.62558" lon="2.95963">
        <ele>40.51</ele>
        <time>2019-07-21T09:52:07Z</time>
      </trkpt>
      <trkpt lat="50.62565" lon="2.9596">
        <ele>40.99</ele>
        <time>2019-07-21T09:52:08Z</time>
      </trkpt>
      <trkpt lat="50.62571" lon="2.95955">
        <ele>40.99</ele>
        <time>2019-07-21T09:52:09Z</time>
      </trkpt>
      <trkpt lat="50.62578" lon="2.9595">
        <ele>40.99</ele>
        <time>2019-07-21T09:52:10Z</time>
      </trkpt>
      <trkpt lat="50.62585" lon="2.95949">
        <ele>40.99</ele>
        <time>2019-07-21T09:52:11Z</time>
      </trkpt>
      <trkpt lat="50.62591" lon="2.9595">
        <ele>41.47</ele>
        <time>2019-07-21T09:52:12Z</time>
      </trkpt>
      <trkpt lat="50.62599" lon="2.95952">
        <ele>41.47</ele>
        <time>2019-07-21T09:52:13Z</time>
      </trkpt>
      <trkpt lat="50.62606" lon="2.95955">
        <ele>41.95</ele>
        <time>2019-07-21T09:52:14Z</time>
      </trkpt>
      <trkpt lat="50.62613" lon="2.95959">
        <ele>42.44</ele>
        <time>2019-07-21T09:52:15Z</time>
      </trkpt>
      <trkpt lat="50.6262" lon="2.95965">
        <ele>42.44</ele>
        <time>2019-07-21T09:52:16Z</time>
      </trkpt>
      <trkpt lat="50.62709" lon="2.96035">
        <ele>43.88</ele>
        <time>2019-07-21T09:52:30Z</time>
      </trkpt>
      <trkpt lat="50.6278" lon="2.96086">
        <ele>44.84</ele>
        <time>2019-07-21T09:52:44Z</time>
      </trkpt>
      <trkpt lat="50.62794" lon="2.96096">
        <ele>43.4</ele>
        <time>2019-07-21T09:52:47Z</time>
      </trkpt>
      <trkpt lat="50.62809" lon="2.96104">
        <ele>42.92</ele>
        <time>2019-07-21T09:52:55Z</time>
      </trkpt>
      <trkpt lat="50.62821" lon="2.96113">
        <ele>42.92</ele>
        <time>2019-07-21T09:53:08Z</time>
      </trkpt>
      <trkpt lat="50.62876" lon="2.96154">
        <ele>42.44</ele>
        <time>2019-07-21T09:53:17Z</time>
      </trkpt>
      <trkpt lat="50.6301" lon="2.96246">
        <ele>41.47</ele>
        <time>2019-07-21T09:53:35Z</time>
      </trkpt>
      <trkpt lat="50.63023" lon="2.96256">
        <ele>41.47</ele>
        <time>2019-07-21T09:53:37Z</time>
      </trkpt>
      <trkpt lat="50.63029" lon="2.96263">
        <ele>41.47</ele>
        <time>2019-07-21T09:53:38Z</time>
      </trkpt>
      <trkpt lat="50.63035" lon="2.96271">
        <ele>41.47</ele>
        <time>2019-07-21T09:53:39Z</time>
      </trkpt>
      <trkpt lat="50.6304" lon="2.9628">
        <ele>41.47</ele>
        <time>2019-07-21T09:53:40Z</time>
      </trkpt>
      <trkpt lat="50.63045" lon="2.96289">
        <ele>41.47</ele>
        <time>2019-07-21T09:53:41Z</time>
      </trkpt>
      <trkpt lat="50.63048" lon="2.96299">
        <ele>41.47</ele>
        <time>2019-07-21T09:53:42Z</time>
      </trkpt>
      <trkpt lat="50.6305" lon="2.9631">
        <ele>41.47</ele>
        <time>2019-07-21T09:53:43Z</time>
      </trkpt>
      <trkpt lat="50.63051" lon="2.96321">
        <ele>41.47</ele>
        <time>2019-07-21T09:53:44Z</time>
      </trkpt>
      <trkpt lat="50.63055" lon="2.96333">
        <ele>41.47</ele>
        <time>2019-07-21T09:53:45Z</time>
      </trkpt>
      <trkpt lat="50.63059" lon="2.9634">
        <ele>41.47</ele>
        <time>2019-07-21T09:53:46Z</time>
      </trkpt>
      <trkpt lat="50.63066" lon="2.96345">
        <ele>41.47</ele>
        <time>2019-07-21T09:53:47Z</time>
      </trkpt>
      <trkpt lat="50.63073" lon="2.96346">
        <ele>42.92</ele>
        <time>2019-07-21T09:53:48Z</time>
      </trkpt>
      <trkpt lat="50.6308" lon="2.96343">
        <ele>43.4</ele>
        <time>2019-07-21T09:53:49Z</time>
      </trkpt>
      <trkpt lat="50.63086" lon="2.96336">
        <ele>43.4</ele>
        <time>2019-07-21T09:53:50Z</time>
      </trkpt>
      <trkpt lat="50.63093" lon="2.96327">
        <ele>43.4</ele>
        <time>2019-07-21T09:53:51Z</time>
      </trkpt>
      <trkpt lat="50.63097" lon="2.96323">
        <ele>43.4</ele>
        <time>2019-07-21T09:53:52Z</time>
      </trkpt>
      <trkpt lat="50.63104" lon="2.96319">
        <ele>43.4</ele>
        <time>2019-07-21T09:53:53Z</time>
      </trkpt>
      <trkpt lat="50.63112" lon="2.9632">
        <ele>43.4</ele>
        <time>2019-07-21T09:53:54Z</time>
      </trkpt>
      <trkpt lat="50.63119" lon="2.96322">
        <ele>43.4</ele>
        <time>2019-07-21T09:53:55Z</time>
      </trkpt>
      <trkpt lat="50.63127" lon="2.96326">
        <ele>41.95</ele>
        <time>2019-07-21T09:53:56Z</time>
      </trkpt>
      <trkpt lat="50.63134" lon="2.9633">
        <ele>41.95</ele>
        <time>2019-07-21T09:53:57Z</time>
      </trkpt>
      <trkpt lat="50.6326" lon="2.96381">
        <ele>40.99</ele>
        <time>2019-07-21T09:54:13Z</time>
      </trkpt>
      <trkpt lat="50.63366" lon="2.96414">
        <ele>40.51</ele>
        <time>2019-07-21T09:54:28Z</time>
      </trkpt>
      <trkpt lat="50.63439" lon="2.96442">
        <ele>38.11</ele>
        <time>2019-07-21T09:54:38Z</time>
      </trkpt>
      <trkpt lat="50.63519" lon="2.96524">
        <ele>36.67</ele>
        <time>2019-07-21T09:54:49Z</time>
      </trkpt>
      <trkpt lat="50.63632" lon="2.96666">
        <ele>35.71</ele>
        <time>2019-07-21T09:55:06Z</time>
      </trkpt>
      <trkpt lat="50.6369" lon="2.9673">
        <ele>35.71</ele>
        <time>2019-07-21T09:55:15Z</time>
      </trkpt>
      <trkpt lat="50.63695" lon="2.96739">
        <ele>35.71</ele>
        <time>2019-07-21T09:55:16Z</time>
      </trkpt>
      <trkpt lat="50.63699" lon="2.96751">
        <ele>35.71</ele>
        <time>2019-07-21T09:55:17Z</time>
      </trkpt>
      <trkpt lat="50.63701" lon="2.96763">
        <ele>35.71</ele>
        <time>2019-07-21T09:55:18Z</time>
      </trkpt>
      <trkpt lat="50.63702" lon="2.96776">
        <ele>35.71</ele>
        <time>2019-07-21T09:55:19Z</time>
      </trkpt>
      <trkpt lat="50.63707" lon="2.96801">
        <ele>35.23</ele>
        <time>2019-07-21T09:55:21Z</time>
      </trkpt>
      <trkpt lat="50.63711" lon="2.96812">
        <ele>35.23</ele>
        <time>2019-07-21T09:55:22Z</time>
      </trkpt>
      <trkpt lat="50.6372" lon="2.96835">
        <ele>35.23</ele>
        <time>2019-07-21T09:55:24Z</time>
      </trkpt>
      <trkpt lat="50.63721" lon="2.96849">
        <ele>34.74</ele>
        <time>2019-07-21T09:55:25Z</time>
      </trkpt>
      <trkpt lat="50.63719" lon="2.96862">
        <ele>34.74</ele>
        <time>2019-07-21T09:55:26Z</time>
      </trkpt>
      <trkpt lat="50.63714" lon="2.96874">
        <ele>34.26</ele>
        <time>2019-07-21T09:55:27Z</time>
      </trkpt>
      <trkpt lat="50.63709" lon="2.96886">
        <ele>34.26</ele>
        <time>2019-07-21T09:55:28Z</time>
      </trkpt>
      <trkpt lat="50.63703" lon="2.96897">
        <ele>34.26</ele>
        <time>2019-07-21T09:55:29Z</time>
      </trkpt>
      <trkpt lat="50.63659" lon="2.96993">
        <ele>32.82</ele>
        <time>2019-07-21T09:55:38Z</time>
      </trkpt>
      <trkpt lat="50.63658" lon="2.97006">
        <ele>32.34</ele>
        <time>2019-07-21T09:55:39Z</time>
      </trkpt>
      <trkpt lat="50.63659" lon="2.9702">
        <ele>32.34</ele>
        <time>2019-07-21T09:55:40Z</time>
      </trkpt>
      <trkpt lat="50.63663" lon="2.97031">
        <ele>32.34</ele>
        <time>2019-07-21T09:55:41Z</time>
      </trkpt>
      <trkpt lat="50.63668" lon="2.9704">
        <ele>32.34</ele>
        <time>2019-07-21T09:55:42Z</time>
      </trkpt>
      <trkpt lat="50.63675" lon="2.97047">
        <ele>32.34</ele>
        <time>2019-07-21T09:55:43Z</time>
      </trkpt>
      <trkpt lat="50.63682" lon="2.97053">
        <ele>32.34</ele>
        <time>2019-07-21T09:55:44Z</time>
      </trkpt>
      <trkpt lat="50.63694" lon="2.97065">
        <ele>32.34</ele>
        <time>2019-07-21T09:55:46Z</time>
      </trkpt>
      <trkpt lat="50.63712" lon="2.97085">
        <ele>32.34</ele>
        <time>2019-07-21T09:55:49Z</time>
      </trkpt>
      <trkpt lat="50.63717" lon="2.97091">
        <ele>32.34</ele>
        <time>2019-07-21T09:55:50Z</time>
      </trkpt>
      <trkpt lat="50.6372" lon="2.97099">
        <ele>31.86</ele>
        <time>2019-07-21T09:55:51Z</time>
      </trkpt>
      <trkpt lat="50.63722" lon="2.97114">
        <ele>31.86</ele>
        <time>2019-07-21T09:55:53Z</time>
      </trkpt>
      <trkpt lat="50.63719" lon="2.97128">
        <ele>31.86</ele>
        <time>2019-07-21T09:55:54Z</time>
      </trkpt>
      <trkpt lat="50.63715" lon="2.97138">
        <ele>31.86</ele>
        <time>2019-07-21T09:55:55Z</time>
      </trkpt>
      <trkpt lat="50.63711" lon="2.97147">
        <ele>31.86</ele>
        <time>2019-07-21T09:55:56Z</time>
      </trkpt>
      <trkpt lat="50.63707" lon="2.97155">
        <ele>31.86</ele>
        <time>2019-07-21T09:55:57Z</time>
      </trkpt>
      <trkpt lat="50.63698" lon="2.97175">
        <ele>31.86</ele>
        <time>2019-07-21T09:55:59Z</time>
      </trkpt>
      <trkpt lat="50.63695" lon="2.97185">
        <ele>31.86</ele>
        <time>2019-07-21T09:56:00Z</time>
      </trkpt>
      <trkpt lat="50.63695" lon="2.97197">
        <ele>31.86</ele>
        <time>2019-07-21T09:56:01Z</time>
      </trkpt>
      <trkpt lat="50.63697" lon="2.97208">
        <ele>31.86</ele>
        <time>2019-07-21T09:56:02Z</time>
      </trkpt>
      <trkpt lat="50.63701" lon="2.97218">
        <ele>31.86</ele>
        <time>2019-07-21T09:56:03Z</time>
      </trkpt>
      <trkpt lat="50.63706" lon="2.97226">
        <ele>31.86</ele>
        <time>2019-07-21T09:56:04Z</time>
      </trkpt>
      <trkpt lat="50.63713" lon="2.97233">
        <ele>31.86</ele>
        <time>2019-07-21T09:56:05Z</time>
      </trkpt>
      <trkpt lat="50.63762" lon="2.97288">
        <ele>31.86</ele>
        <time>2019-07-21T09:56:12Z</time>
      </trkpt>
      <trkpt lat="50.63782" lon="2.97313">
        <ele>31.86</ele>
        <time>2019-07-21T09:56:15Z</time>
      </trkpt>
      <trkpt lat="50.6379" lon="2.97322">
        <ele>31.86</ele>
        <time>2019-07-21T09:56:16Z</time>
      </trkpt>
      <trkpt lat="50.63795" lon="2.97327">
        <ele>31.86</ele>
        <time>2019-07-21T09:56:17Z</time>
      </trkpt>
      <trkpt lat="50.63854" lon="2.97393">
        <ele>30.9</ele>
        <time>2019-07-21T09:56:26Z</time>
      </trkpt>
      <trkpt lat="50.6394" lon="2.97488">
        <ele>29.94</ele>
        <time>2019-07-21T09:56:40Z</time>
      </trkpt>
      <trkpt lat="50.63981" lon="2.97533">
        <ele>31.38</ele>
        <time>2019-07-21T09:56:51Z</time>
      </trkpt>
      <trkpt lat="50.63985" lon="2.97534">
        <ele>31.38</ele>
        <time>2019-07-21T09:56:52Z</time>
      </trkpt>
      <trkpt lat="50.63989" lon="2.97532">
        <ele>31.38</ele>
        <time>2019-07-21T09:56:53Z</time>
      </trkpt>
      <trkpt lat="50.63993" lon="2.97527">
        <ele>31.38</ele>
        <time>2019-07-21T09:56:54Z</time>
      </trkpt>
      <trkpt lat="50.63997" lon="2.9752">
        <ele>31.38</ele>
        <time>2019-07-21T09:56:55Z</time>
      </trkpt>
      <trkpt lat="50.64" lon="2.97512">
        <ele>31.86</ele>
        <time>2019-07-21T09:56:56Z</time>
      </trkpt>
      <trkpt lat="50.64014" lon="2.97486">
        <ele>32.34</ele>
        <time>2019-07-21T09:56:59Z</time>
      </trkpt>
      <trkpt lat="50.6402" lon="2.97479">
        <ele>32.34</ele>
        <time>2019-07-21T09:57:00Z</time>
      </trkpt>
      <trkpt lat="50.64025" lon="2.97472">
        <ele>32.34</ele>
        <time>2019-07-21T09:57:01Z</time>
      </trkpt>
      <trkpt lat="50.64043" lon="2.97453">
        <ele>32.82</ele>
        <time>2019-07-21T09:57:04Z</time>
      </trkpt>
      <trkpt lat="50.64054" lon="2.97441">
        <ele>33.78</ele>
        <time>2019-07-21T09:57:06Z</time>
      </trkpt>
      <trkpt lat="50.64059" lon="2.97436">
        <ele>33.78</ele>
        <time>2019-07-21T09:57:07Z</time>
      </trkpt>
      <trkpt lat="50.64065" lon="2.97435">
        <ele>33.78</ele>
        <time>2019-07-21T09:57:08Z</time>
      </trkpt>
      <trkpt lat="50.6407" lon="2.97437">
        <ele>34.26</ele>
        <time>2019-07-21T09:57:09Z</time>
      </trkpt>
      <trkpt lat="50.64076" lon="2.97442">
        <ele>33.78</ele>
        <time>2019-07-21T09:57:10Z</time>
      </trkpt>
      <trkpt lat="50.6408" lon="2.97451">
        <ele>33.78</ele>
        <time>2019-07-21T09:57:11Z</time>
      </trkpt>
      <trkpt lat="50.64081" lon="2.97459">
        <ele>33.78</ele>
        <time>2019-07-21T09:57:12Z</time>
      </trkpt>
      <trkpt lat="50.64082" lon="2.97468">
        <ele>33.78</ele>
        <time>2019-07-21T09:57:13Z</time>
      </trkpt>
      <trkpt lat="50.64083" lon="2.97479">
        <ele>33.78</ele>
        <time>2019-07-21T09:57:14Z</time>
      </trkpt>
      <trkpt lat="50.64084" lon="2.9749">
        <ele>33.78</ele>
        <time>2019-07-21T09:57:15Z</time>
      </trkpt>
      <trkpt lat="50.64098" lon="2.97632">
        <ele>33.78</ele>
        <time>2019-07-21T09:57:28Z</time>
      </trkpt>
      <trkpt lat="50.64115" lon="2.97784">
        <ele>33.78</ele>
        <time>2019-07-21T09:57:42Z</time>
      </trkpt>
      <trkpt lat="50.64128" lon="2.97903">
        <ele>33.78</ele>
        <time>2019-07-21T09:57:53Z</time>
      </trkpt>
      <trkpt lat="50.64131" lon="2.97914">
        <ele>33.78</ele>
        <time>2019-07-21T09:57:54Z</time>
      </trkpt>
      <trkpt lat="50.64134" lon="2.97923">
        <ele>33.78</ele>
        <time>2019-07-21T09:57:55Z</time>
      </trkpt>
      <trkpt lat="50.64137" lon="2.97932">
        <ele>33.78</ele>
        <time>2019-07-21T09:57:56Z</time>
      </trkpt>
      <trkpt lat="50.64141" lon="2.97941">
        <ele>33.78</ele>
        <time>2019-07-21T09:57:57Z</time>
      </trkpt>
      <trkpt lat="50.64196" lon="2.98104">
        <ele>34.26</ele>
        <time>2019-07-21T09:58:14Z</time>
      </trkpt>
      <trkpt lat="50.64217" lon="2.98197">
        <ele>34.74</ele>
        <time>2019-07-21T09:58:24Z</time>
      </trkpt>
      <trkpt lat="50.64217" lon="2.98206">
        <ele>34.74</ele>
        <time>2019-07-21T09:58:25Z</time>
      </trkpt>
      <trkpt lat="50.64217" lon="2.98215">
        <ele>34.74</ele>
        <time>2019-07-21T09:58:26Z</time>
      </trkpt>
      <trkpt lat="50.64218" lon="2.98223">
        <ele>34.74</ele>
        <time>2019-07-21T09:58:27Z</time>
      </trkpt>
      <trkpt lat="50.64222" lon="2.98231">
        <ele>34.74</ele>
        <time>2019-07-21T09:58:28Z</time>
      </trkpt>
      <trkpt lat="50.64228" lon="2.98239">
        <ele>34.74</ele>
        <time>2019-07-21T09:58:29Z</time>
      </trkpt>
      <trkpt lat="50.64231" lon="2.98244">
        <ele>34.74</ele>
        <time>2019-07-21T09:58:30Z</time>
      </trkpt>
      <trkpt lat="50.64234" lon="2.98252">
        <ele>34.74</ele>
        <time>2019-07-21T09:58:31Z</time>
      </trkpt>
      <trkpt lat="50.64236" lon="2.98261">
        <ele>34.74</ele>
        <time>2019-07-21T09:58:32Z</time>
      </trkpt>
      <trkpt lat="50.64238" lon="2.98269">
        <ele>34.74</ele>
        <time>2019-07-21T09:58:33Z</time>
      </trkpt>
      <trkpt lat="50.64268" lon="2.98386">
        <ele>35.23</ele>
        <time>2019-07-21T09:58:48Z</time>
      </trkpt>
      <trkpt lat="50.64272" lon="2.98402">
        <ele>35.23</ele>
        <time>2019-07-21T09:58:50Z</time>
      </trkpt>
      <trkpt lat="50.64273" lon="2.9841">
        <ele>35.23</ele>
        <time>2019-07-21T09:58:51Z</time>
      </trkpt>
      <trkpt lat="50.64272" lon="2.9842">
        <ele>35.23</ele>
        <time>2019-07-21T09:58:52Z</time>
      </trkpt>
      <trkpt lat="50.6427" lon="2.98429">
        <ele>35.23</ele>
        <time>2019-07-21T09:58:53Z</time>
      </trkpt>
      <trkpt lat="50.64267" lon="2.98435">
        <ele>35.23</ele>
        <time>2019-07-21T09:58:54Z</time>
      </trkpt>
      <trkpt lat="50.64262" lon="2.98446">
        <ele>35.23</ele>
        <time>2019-07-21T09:58:55Z</time>
      </trkpt>
      <trkpt lat="50.64259" lon="2.98452">
        <ele>35.23</ele>
        <time>2019-07-21T09:58:56Z</time>
      </trkpt>
      <trkpt lat="50.6422" lon="2.9852">
        <ele>34.26</ele>
        <time>2019-07-21T09:59:04Z</time>
      </trkpt>
      <trkpt lat="50.64218" lon="2.98531">
        <ele>34.26</ele>
        <time>2019-07-21T09:59:05Z</time>
      </trkpt>
      <trkpt lat="50.64217" lon="2.98543">
        <ele>34.26</ele>
        <time>2019-07-21T09:59:06Z</time>
      </trkpt>
      <trkpt lat="50.64221" lon="2.98557">
        <ele>33.3</ele>
        <time>2019-07-21T09:59:07Z</time>
      </trkpt>
      <trkpt lat="50.64224" lon="2.98566">
        <ele>33.3</ele>
        <time>2019-07-21T09:59:08Z</time>
      </trkpt>
      <trkpt lat="50.64227" lon="2.98572">
        <ele>33.3</ele>
        <time>2019-07-21T09:59:09Z</time>
      </trkpt>
      <trkpt lat="50.64232" lon="2.98581">
        <ele>33.3</ele>
        <time>2019-07-21T09:59:10Z</time>
      </trkpt>
      <trkpt lat="50.64237" lon="2.98591">
        <ele>33.3</ele>
        <time>2019-07-21T09:59:11Z</time>
      </trkpt>
      <trkpt lat="50.64243" lon="2.98605">
        <ele>32.82</ele>
        <time>2019-07-21T09:59:13Z</time>
      </trkpt>
      <trkpt lat="50.64244" lon="2.98613">
        <ele>32.82</ele>
        <time>2019-07-21T09:59:14Z</time>
      </trkpt>
      <trkpt lat="50.64244" lon="2.98621">
        <ele>32.34</ele>
        <time>2019-07-21T09:59:15Z</time>
      </trkpt>
      <trkpt lat="50.6424" lon="2.98627">
        <ele>32.34</ele>
        <time>2019-07-21T09:59:16Z</time>
      </trkpt>
      <trkpt lat="50.64238" lon="2.98628">
        <ele>32.82</ele>
        <time>2019-07-21T09:59:17Z</time>
      </trkpt>
      <trkpt lat="50.64234" lon="2.98631">
        <ele>32.82</ele>
        <time>2019-07-21T09:59:18Z</time>
      </trkpt>
      <trkpt lat="50.6423" lon="2.98634">
        <ele>32.82</ele>
        <time>2019-07-21T09:59:19Z</time>
      </trkpt>
      <trkpt lat="50.64226" lon="2.98638">
        <ele>32.34</ele>
        <time>2019-07-21T09:59:20Z</time>
      </trkpt>
      <trkpt lat="50.64221" lon="2.9864">
        <ele>32.34</ele>
        <time>2019-07-21T09:59:21Z</time>
      </trkpt>
      <trkpt lat="50.64217" lon="2.98642">
        <ele>32.34</ele>
        <time>2019-07-21T09:59:22Z</time>
      </trkpt>
      <trkpt lat="50.64216" lon="2.98645">
        <ele>32.34</ele>
        <time>2019-07-21T09:59:23Z</time>
      </trkpt>
      <trkpt lat="50.64215" lon="2.98648">
        <ele>32.34</ele>
        <time>2019-07-21T09:59:24Z</time>
      </trkpt>
      <trkpt lat="50.64215" lon="2.98651">
        <ele>31.86</ele>
        <time>2019-07-21T09:59:25Z</time>
      </trkpt>
      <trkpt lat="50.64216" lon="2.98654">
        <ele>30.9</ele>
        <time>2019-07-21T09:59:33Z</time>
      </trkpt>
    </trkseg>
  </trk>
</gpx>